<?xml version='1.0' encoding='UTF-8'?><gpx version="1.1" creator="JPX - https://github.com/jenetics/jpx" xmlns="http://www.topografix.com/GPX/1/1"><trk><trkseg><trkpt lat="44.037446091958294" lon="10.842782193416028"><ele>795.9999999999999</ele><time>2026-05-02T11:37:15.999Z</time></trkpt><trkpt lat="44.03743139290419" lon="10.842869149638739"><ele>796.0</ele><time>2026-05-02T11:37:24Z</time></trkpt><trkpt lat="44.03744181907433" lon="10.84275367323285"><ele>796.0</ele><time>2026-05-02T11:38:05.066Z</time></trkpt><trkpt lat="44.037549568135304" lon="10.842735610417272"><ele>796.0</ele><time>2026-05-02T11:38:34.999Z</time></trkpt><trkpt lat="44.037610361795736" lon="10.84285097319059"><ele>795.9999999999999</ele><time>2026-05-02T11:38:37.999Z</time></trkpt><trkpt lat="44.037529217414296" lon="10.842840130422928"><ele>796.0</ele><time>2026-05-02T11:38:38.999Z</time></trkpt><trkpt lat="44.03759327482836" lon="10.842780198869008"><ele>794.7142857142857</ele><time>2026-05-02T11:39:40Z</time></trkpt><trkpt lat="44.03765390420507" lon="10.842722204264403"><ele>793.4285714285714</ele><time>2026-05-02T11:39:43Z</time></trkpt><trkpt lat="44.03767906512251" lon="10.842631983083923"><ele>792.1428571428571</ele><time>2026-05-02T11:39:45Z</time></trkpt><trkpt lat="44.03773177739455" lon="10.842578210979728"><ele>790.8571428571429</ele><time>2026-05-02T11:40:21Z</time></trkpt><trkpt lat="44.037785294346214" lon="10.8426560878326"><ele>789.5714285714286</ele><time>2026-05-02T11:40:28Z</time></trkpt><trkpt lat="44.037841554885325" lon="10.842607095605624"><ele>788.2857142857142</ele><time>2026-05-02T11:40:35Z</time></trkpt><trkpt lat="44.0378950429145" lon="10.842546810888305"><ele>787.0</ele><time>2026-05-02T11:40:38Z</time></trkpt><trkpt lat="44.03797018467662" lon="10.842557254598345"><ele>786.4285714285714</ele><time>2026-05-02T11:40:41Z</time></trkpt><trkpt lat="44.03801466064136" lon="10.842640448167524"><ele>785.8571428571429</ele><time>2026-05-02T11:40:44Z</time></trkpt><trkpt lat="44.0380646177125" lon="10.842707636733639"><ele>785.2857142857142</ele><time>2026-05-02T11:40:47Z</time></trkpt><trkpt lat="44.03811729548791" lon="10.84277671259538"><ele>784.7142857142858</ele><time>2026-05-02T11:40:50Z</time></trkpt><trkpt lat="44.038177771971924" lon="10.842838740702133"><ele>784.1428571428572</ele><time>2026-05-02T11:40:53Z</time></trkpt><trkpt lat="44.03826158334911" lon="10.842882788529945"><ele>783.5714285714286</ele><time>2026-05-02T11:40:56Z</time></trkpt><trkpt lat="44.03832191789598" lon="10.842908777562235"><ele>783.0</ele><time>2026-05-02T11:40:59Z</time></trkpt><trkpt lat="44.03839319852768" lon="10.842888834616891"><ele>780.5</ele><time>2026-05-02T11:41:02Z</time></trkpt><trkpt lat="44.03846389736308" lon="10.842870895591732"><ele>778.0</ele><time>2026-05-02T11:41:05Z</time></trkpt><trkpt lat="44.038542891522965" lon="10.842854878672465"><ele>775.5</ele><time>2026-05-02T11:41:08Z</time></trkpt><trkpt lat="44.03861049229173" lon="10.842864530851598"><ele>773.0</ele><time>2026-05-02T11:41:11.001Z</time></trkpt><trkpt lat="44.03868136924448" lon="10.842835445142496"><ele>770.5</ele><time>2026-05-02T11:41:14.001Z</time></trkpt><trkpt lat="44.03876816926251" lon="10.84285876288364"><ele>768.0</ele><time>2026-05-02T11:41:18.001Z</time></trkpt><trkpt lat="44.03883817950286" lon="10.842888398084826"><ele>768.0</ele><time>2026-05-02T11:41:21.001Z</time></trkpt><trkpt lat="44.0389046773894" lon="10.842899849917982"><ele>768.0</ele><time>2026-05-02T11:41:23.001Z</time></trkpt><trkpt lat="44.03897475712993" lon="10.842901003809352"><ele>768.0</ele><time>2026-05-02T11:41:25.001Z</time></trkpt><trkpt lat="44.03905016065023" lon="10.842912400931018"><ele>768.0</ele><time>2026-05-02T11:41:27.001Z</time></trkpt><trkpt lat="44.03915450970258" lon="10.842955439958653"><ele>768.0</ele><time>2026-05-02T11:41:29.001Z</time></trkpt><trkpt lat="44.039238948019886" lon="10.843002188248251"><ele>768.0</ele><time>2026-05-02T11:41:31.001Z</time></trkpt><trkpt lat="44.039301651405644" lon="10.843063074434758"><ele>765.8333333333334</ele><time>2026-05-02T11:41:33.001Z</time></trkpt><trkpt lat="44.039352467344216" lon="10.84313147684655"><ele>763.6666666666666</ele><time>2026-05-02T11:41:35.001Z</time></trkpt><trkpt lat="44.03941807316416" lon="10.843206635321804"><ele>761.5</ele><time>2026-05-02T11:41:38.001Z</time></trkpt><trkpt lat="44.039473504104755" lon="10.843289528218632"><ele>759.3333333333333</ele><time>2026-05-02T11:41:42.001Z</time></trkpt><trkpt lat="44.039514804617376" lon="10.84338261958937"><ele>757.1666666666666</ele><time>2026-05-02T11:41:46.001Z</time></trkpt><trkpt lat="44.03957326231501" lon="10.843442888379558"><ele>755.0</ele><time>2026-05-02T11:41:49.001Z</time></trkpt><trkpt lat="44.03963778947124" lon="10.843505420083941"><ele>754.1428571428571</ele><time>2026-05-02T11:41:52.001Z</time></trkpt><trkpt lat="44.03968023741613" lon="10.843576297822025"><ele>753.2857142857143</ele><time>2026-05-02T11:41:54.001Z</time></trkpt><trkpt lat="44.03973797611359" lon="10.843647080366429"><ele>752.4285714285714</ele><time>2026-05-02T11:41:56.001Z</time></trkpt><trkpt lat="44.0398002157543" lon="10.843690565765373"><ele>751.5714285714286</ele><time>2026-05-02T11:41:58.001Z</time></trkpt><trkpt lat="44.03987046934104" lon="10.843771349801964"><ele>750.7142857142858</ele><time>2026-05-02T11:42:01.001Z</time></trkpt><trkpt lat="44.039922490081764" lon="10.843829951567878"><ele>749.8571428571429</ele><time>2026-05-02T11:42:04.001Z</time></trkpt><trkpt lat="44.03998148689038" lon="10.843885290089753"><ele>749.0</ele><time>2026-05-02T11:42:07.001Z</time></trkpt><trkpt lat="44.04005065692638" lon="10.843938780828879"><ele>746.6666666666666</ele><time>2026-05-02T11:42:11.001Z</time></trkpt><trkpt lat="44.04012896053889" lon="10.843944364787768"><ele>744.3333333333333</ele><time>2026-05-02T11:42:14.001Z</time></trkpt><trkpt lat="44.04020537668985" lon="10.843934529614499"><ele>742.0</ele><time>2026-05-02T11:42:17.001Z</time></trkpt><trkpt lat="44.04026998202583" lon="10.843945774299911"><ele>739.6666666666666</ele><time>2026-05-02T11:42:19.001Z</time></trkpt><trkpt lat="44.04033119753221" lon="10.844032297606931"><ele>737.3333333333334</ele><time>2026-05-02T11:42:22.001Z</time></trkpt><trkpt lat="44.040367339374" lon="10.844138789817583"><ele>735.0</ele><time>2026-05-02T11:42:25.001Z</time></trkpt><trkpt lat="44.04039407283613" lon="10.844230778596392"><ele>734.3333333333334</ele><time>2026-05-02T11:42:27.001Z</time></trkpt><trkpt lat="44.04041634137246" lon="10.844343729856023"><ele>733.6666666666666</ele><time>2026-05-02T11:42:29.001Z</time></trkpt><trkpt lat="44.04042646289315" lon="10.844452594364686"><ele>733.0</ele><time>2026-05-02T11:42:31.001Z</time></trkpt><trkpt lat="44.0404154268055" lon="10.844573192754575"><ele>732.3333333333333</ele><time>2026-05-02T11:42:34.001Z</time></trkpt><trkpt lat="44.040410718795236" lon="10.844672335005276"><ele>731.6666666666666</ele><time>2026-05-02T11:42:36.001Z</time></trkpt><trkpt lat="44.040395950153844" lon="10.84477190275706"><ele>731.0</ele><time>2026-05-02T11:42:38.001Z</time></trkpt><trkpt lat="44.04037516369295" lon="10.84488869972694"><ele>731.0</ele><time>2026-05-02T11:42:41.001Z</time></trkpt><trkpt lat="44.04034998207161" lon="10.84500364900773"><ele>731.0</ele><time>2026-05-02T11:42:44.001Z</time></trkpt><trkpt lat="44.040323108188176" lon="10.845121980528228"><ele>731.0</ele><time>2026-05-02T11:42:47.001Z</time></trkpt><trkpt lat="44.04029293251751" lon="10.845205056414239"><ele>731.0</ele><time>2026-05-02T11:42:49.001Z</time></trkpt><trkpt lat="44.04025101663958" lon="10.845274030915789"><ele>731.0</ele><time>2026-05-02T11:42:51.001Z</time></trkpt><trkpt lat="44.040204280264845" lon="10.845347513304501"><ele>731.0</ele><time>2026-05-02T11:42:53.001Z</time></trkpt><trkpt lat="44.04015130242005" lon="10.845420286548412"><ele>731.0</ele><time>2026-05-02T11:42:55.001Z</time></trkpt><trkpt lat="44.040100545017566" lon="10.845515537167303"><ele>731.0</ele><time>2026-05-02T11:42:58.001Z</time></trkpt><trkpt lat="44.040063475778794" lon="10.845622873575582"><ele>731.0</ele><time>2026-05-02T11:43:01.001Z</time></trkpt><trkpt lat="44.0400244306921" lon="10.845708261382056"><ele>731.0</ele><time>2026-05-02T11:43:03.001Z</time></trkpt><trkpt lat="44.03999081014259" lon="10.845792947711352"><ele>731.0</ele><time>2026-05-02T11:43:05.001Z</time></trkpt><trkpt lat="44.03994719351415" lon="10.845872261046926"><ele>731.0</ele><time>2026-05-02T11:43:07.001Z</time></trkpt><trkpt lat="44.039914131098634" lon="10.845963546779597"><ele>730.1428571428571</ele><time>2026-05-02T11:43:09.001Z</time></trkpt><trkpt lat="44.039876475779884" lon="10.846053862536344"><ele>729.2857142857142</ele><time>2026-05-02T11:43:11.001Z</time></trkpt><trkpt lat="44.0398367242539" lon="10.846139534255022"><ele>728.4285714285714</ele><time>2026-05-02T11:43:13.001Z</time></trkpt><trkpt lat="44.03980422382546" lon="10.84622857294097"><ele>727.5714285714286</ele><time>2026-05-02T11:43:15.001Z</time></trkpt><trkpt lat="44.03977734612027" lon="10.846312258613695"><ele>726.7142857142858</ele><time>2026-05-02T11:43:17.001Z</time></trkpt><trkpt lat="44.03973316446187" lon="10.846391810778602"><ele>725.8571428571429</ele><time>2026-05-02T11:43:19.001Z</time></trkpt><trkpt lat="44.03969116917475" lon="10.846472720214086"><ele>725.0</ele><time>2026-05-02T11:43:21.001Z</time></trkpt><trkpt lat="44.03964552888175" lon="10.846556965511978"><ele>725.0</ele><time>2026-05-02T11:43:23.001Z</time></trkpt><trkpt lat="44.039594674681545" lon="10.846611708028835"><ele>725.0</ele><time>2026-05-02T11:43:25.001Z</time></trkpt><trkpt lat="44.03954451987939" lon="10.846689998073053"><ele>725.0</ele><time>2026-05-02T11:43:27.001Z</time></trkpt><trkpt lat="44.03948099477082" lon="10.84676959910912"><ele>725.0</ele><time>2026-05-02T11:43:29.001Z</time></trkpt><trkpt lat="44.0394227784217" lon="10.846856928553299"><ele>725.0</ele><time>2026-05-02T11:43:31.001Z</time></trkpt><trkpt lat="44.03935903991768" lon="10.846940699991091"><ele>725.0</ele><time>2026-05-02T11:43:33.001Z</time></trkpt><trkpt lat="44.03930216025861" lon="10.847021002780098"><ele>725.5</ele><time>2026-05-02T11:43:35.001Z</time></trkpt><trkpt lat="44.039247522162775" lon="10.847114502469127"><ele>726.0</ele><time>2026-05-02T11:43:37.001Z</time></trkpt><trkpt lat="44.03919474827662" lon="10.84719669077416"><ele>726.5</ele><time>2026-05-02T11:43:39.001Z</time></trkpt><trkpt lat="44.03913388202928" lon="10.847285672831406"><ele>727.0</ele><time>2026-05-02T11:43:41.001Z</time></trkpt><trkpt lat="44.0390930278543" lon="10.8473678706771"><ele>727.5</ele><time>2026-05-02T11:43:43.001Z</time></trkpt><trkpt lat="44.03906633446215" lon="10.84745858954182"><ele>728.0</ele><time>2026-05-02T11:43:45.001Z</time></trkpt><trkpt lat="44.039061848810924" lon="10.847551622080426"><ele>726.5</ele><time>2026-05-02T11:43:47.001Z</time></trkpt><trkpt lat="44.03904469822675" lon="10.847639229126194"><ele>725.0</ele><time>2026-05-02T11:43:49.001Z</time></trkpt><trkpt lat="44.03902271777907" lon="10.847733911156958"><ele>723.5</ele><time>2026-05-02T11:43:51.002Z</time></trkpt><trkpt lat="44.038990979077425" lon="10.84782358294587"><ele>722.0</ele><time>2026-05-02T11:43:53.002Z</time></trkpt><trkpt lat="44.03894156382306" lon="10.847917832061752"><ele>720.5</ele><time>2026-05-02T11:43:55.002Z</time></trkpt><trkpt lat="44.038886724457456" lon="10.848020484385675"><ele>719.0</ele><time>2026-05-02T11:43:57.002Z</time></trkpt><trkpt lat="44.03882715489309" lon="10.848154164289125"><ele>719.0</ele><time>2026-05-02T11:43:59.002Z</time></trkpt><trkpt lat="44.03879167311494" lon="10.848228098717916"><ele>719.0</ele><time>2026-05-02T11:44:00.002Z</time></trkpt><trkpt lat="44.03874611092669" lon="10.848307116185167"><ele>719.0</ele><time>2026-05-02T11:44:01.002Z</time></trkpt><trkpt lat="44.03870588871143" lon="10.84839202802286"><ele>719.0</ele><time>2026-05-02T11:44:02.002Z</time></trkpt><trkpt lat="44.03866763790411" lon="10.848476999567447"><ele>719.0</ele><time>2026-05-02T11:44:03.002Z</time></trkpt><trkpt lat="44.03860188272339" lon="10.848547651547273"><ele>719.0</ele><time>2026-05-02T11:44:04.002Z</time></trkpt><trkpt lat="44.03855311633585" lon="10.848644498762022"><ele>719.8000000000001</ele><time>2026-05-02T11:44:05.002Z</time></trkpt><trkpt lat="44.038504880551756" lon="10.84873914847345"><ele>720.6</ele><time>2026-05-02T11:44:06.002Z</time></trkpt><trkpt lat="44.03845358555208" lon="10.848839801061795"><ele>721.4</ele><time>2026-05-02T11:44:07.002Z</time></trkpt><trkpt lat="44.038399917275825" lon="10.848945110569845"><ele>722.2</ele><time>2026-05-02T11:44:08.002Z</time></trkpt><trkpt lat="44.03835575787341" lon="10.849065479249177"><ele>723.0</ele><time>2026-05-02T11:44:09.002Z</time></trkpt><trkpt lat="44.03829862581076" lon="10.84917772091014"><ele>721.0</ele><time>2026-05-02T11:44:10.002Z</time></trkpt><trkpt lat="44.03823991797253" lon="10.849285953423534"><ele>719.0</ele><time>2026-05-02T11:44:11.002Z</time></trkpt><trkpt lat="44.038179861526295" lon="10.849401762149617"><ele>717.0</ele><time>2026-05-02T11:44:12.002Z</time></trkpt><trkpt lat="44.03812544384831" lon="10.849513566460722"><ele>715.0</ele><time>2026-05-02T11:44:13.002Z</time></trkpt><trkpt lat="44.0380673629801" lon="10.849628052119654"><ele>713.0</ele><time>2026-05-02T11:44:14.002Z</time></trkpt><trkpt lat="44.03801109486189" lon="10.849741017965467"><ele>713.0</ele><time>2026-05-02T11:44:15.002Z</time></trkpt><trkpt lat="44.037958482524495" lon="10.849868439390903"><ele>713.0</ele><time>2026-05-02T11:44:16.002Z</time></trkpt><trkpt lat="44.03790911499306" lon="10.85000047656784"><ele>713.0</ele><time>2026-05-02T11:44:17.002Z</time></trkpt><trkpt lat="44.037858580705844" lon="10.850131793222973"><ele>713.0</ele><time>2026-05-02T11:44:18.002Z</time></trkpt><trkpt lat="44.0378170535328" lon="10.850271542346269"><ele>713.0</ele><time>2026-05-02T11:44:19.002Z</time></trkpt><trkpt lat="44.037774940337286" lon="10.85041611512874"><ele>713.0</ele><time>2026-05-02T11:44:20.002Z</time></trkpt><trkpt lat="44.037739065219" lon="10.85056563041813"><ele>713.0</ele><time>2026-05-02T11:44:21.002Z</time></trkpt><trkpt lat="44.03770118951783" lon="10.850716695288549"><ele>713.0</ele><time>2026-05-02T11:44:22.002Z</time></trkpt><trkpt lat="44.03766555959839" lon="10.850863335677358"><ele>713.0</ele><time>2026-05-02T11:44:23.002Z</time></trkpt><trkpt lat="44.03763760642394" lon="10.851010316557543"><ele>713.0</ele><time>2026-05-02T11:44:24.002Z</time></trkpt><trkpt lat="44.03759629393488" lon="10.851147785112795"><ele>712.8</ele><time>2026-05-02T11:44:25.002Z</time></trkpt><trkpt lat="44.03756952583571" lon="10.851286931421729"><ele>712.5999999999999</ele><time>2026-05-02T11:44:26.002Z</time></trkpt><trkpt lat="44.037559473081274" lon="10.851423335357207"><ele>712.4000000000001</ele><time>2026-05-02T11:44:27.002Z</time></trkpt><trkpt lat="44.03757424132149" lon="10.851561629201194"><ele>712.2</ele><time>2026-05-02T11:44:28.002Z</time></trkpt><trkpt lat="44.0375980276384" lon="10.851687011423277"><ele>712.0</ele><time>2026-05-02T11:44:29.002Z</time></trkpt><trkpt lat="44.03762554513174" lon="10.851801682334706"><ele>712.0</ele><time>2026-05-02T11:44:30.002Z</time></trkpt><trkpt lat="44.03765777515525" lon="10.85192707709196"><ele>712.0</ele><time>2026-05-02T11:44:31.002Z</time></trkpt><trkpt lat="44.03767806931712" lon="10.852046334760852"><ele>712.0</ele><time>2026-05-02T11:44:32.002Z</time></trkpt><trkpt lat="44.03769793167646" lon="10.852159968500969"><ele>712.0</ele><time>2026-05-02T11:44:33.002Z</time></trkpt><trkpt lat="44.037722336812685" lon="10.85226622232319"><ele>712.0</ele><time>2026-05-02T11:44:34.002Z</time></trkpt><trkpt lat="44.037752757671285" lon="10.852378165606309"><ele>712.0</ele><time>2026-05-02T11:44:35.002Z</time></trkpt><trkpt lat="44.03777078593828" lon="10.852476371102936"><ele>712.0</ele><time>2026-05-02T11:44:36.002Z</time></trkpt><trkpt lat="44.037792091914426" lon="10.852584276837852"><ele>712.0</ele><time>2026-05-02T11:44:37.002Z</time></trkpt><trkpt lat="44.03778093856265" lon="10.852694780885145"><ele>712.0</ele><time>2026-05-02T11:44:38.002Z</time></trkpt><trkpt lat="44.037791979261144" lon="10.852793413109493"><ele>712.0</ele><time>2026-05-02T11:44:39.002Z</time></trkpt><trkpt lat="44.037794275470276" lon="10.85288841528673"><ele>712.0</ele><time>2026-05-02T11:44:40.002Z</time></trkpt><trkpt lat="44.03778344817805" lon="10.852979397575462"><ele>712.0</ele><time>2026-05-02T11:44:41.002Z</time></trkpt><trkpt lat="44.03773326760019" lon="10.853142331199246"><ele>711.2</ele><time>2026-05-02T11:44:43.002Z</time></trkpt><trkpt lat="44.0376533252684" lon="10.853248018949248"><ele>710.4000000000001</ele><time>2026-05-02T11:44:45.002Z</time></trkpt><trkpt lat="44.03761220535766" lon="10.853316957578443"><ele>709.5999999999999</ele><time>2026-05-02T11:44:46.002Z</time></trkpt><trkpt lat="44.03750916854501" lon="10.853386357818946"><ele>708.8</ele><time>2026-05-02T11:44:48.002Z</time></trkpt><trkpt lat="44.0374109626867" lon="10.853506618474338"><ele>708.0</ele><time>2026-05-02T11:44:50.002Z</time></trkpt><trkpt lat="44.03738749281565" lon="10.853590268851326"><ele>710.0</ele><time>2026-05-02T11:44:51.002Z</time></trkpt><trkpt lat="44.037354077837115" lon="10.853746544429395"><ele>712.0</ele><time>2026-05-02T11:44:53.002Z</time></trkpt><trkpt lat="44.037343029645534" lon="10.853833440871432"><ele>714.0</ele><time>2026-05-02T11:44:54.002Z</time></trkpt><trkpt lat="44.03734743727271" lon="10.853996917570369"><ele>716.0</ele><time>2026-05-02T11:44:56.002Z</time></trkpt><trkpt lat="44.03739543652031" lon="10.854145508670094"><ele>718.0</ele><time>2026-05-02T11:44:58.002Z</time></trkpt><trkpt lat="44.037434478877756" lon="10.854284607701569"><ele>717.0</ele><time>2026-05-02T11:45:00.002Z</time></trkpt><trkpt lat="44.03748955408217" lon="10.85440809565574"><ele>716.0</ele><time>2026-05-02T11:45:02.002Z</time></trkpt><trkpt lat="44.03756111508646" lon="10.85452764009197"><ele>715.0</ele><time>2026-05-02T11:45:04.002Z</time></trkpt><trkpt lat="44.037629110949624" lon="10.85465413538836"><ele>714.0</ele><time>2026-05-02T11:45:06.002Z</time></trkpt><trkpt lat="44.03768932126245" lon="10.854782370092922"><ele>713.0</ele><time>2026-05-02T11:45:08.002Z</time></trkpt><trkpt lat="44.03771299562709" lon="10.854930977413439"><ele>713.0</ele><time>2026-05-02T11:45:10.002Z</time></trkpt><trkpt lat="44.037733190499225" lon="10.855087907039943"><ele>713.0</ele><time>2026-05-02T11:45:12.002Z</time></trkpt><trkpt lat="44.03774736790869" lon="10.855249299263948"><ele>713.0</ele><time>2026-05-02T11:45:14.002Z</time></trkpt><trkpt lat="44.03775838730981" lon="10.855407567559864"><ele>713.0</ele><time>2026-05-02T11:45:16.002Z</time></trkpt><trkpt lat="44.0377697250961" lon="10.855570408722732"><ele>713.5</ele><time>2026-05-02T11:45:18.002Z</time></trkpt><trkpt lat="44.03778105165777" lon="10.855733088661681"><ele>714.0</ele><time>2026-05-02T11:45:20.002Z</time></trkpt><trkpt lat="44.037792398000555" lon="10.855896052718293"><ele>714.5</ele><time>2026-05-02T11:45:22.002Z</time></trkpt><trkpt lat="44.037803392217505" lon="10.856053959305234"><ele>715.0</ele><time>2026-05-02T11:45:24.002Z</time></trkpt><trkpt lat="44.037816048049535" lon="10.85621827380049"><ele>715.0</ele><time>2026-05-02T11:45:26.002Z</time></trkpt><trkpt lat="44.037829331931114" lon="10.856390924611148"><ele>715.0</ele><time>2026-05-02T11:45:28.002Z</time></trkpt><trkpt lat="44.03783664383654" lon="10.85648245885356"><ele>715.0</ele><time>2026-05-02T11:45:29.002Z</time></trkpt><trkpt lat="44.03784421099644" lon="10.856573075344334"><ele>715.0</ele><time>2026-05-02T11:45:30.002Z</time></trkpt><trkpt lat="44.03785354293046" lon="10.856663015878151"><ele>715.0</ele><time>2026-05-02T11:45:31.002Z</time></trkpt><trkpt lat="44.03786413967408" lon="10.856753552381884"><ele>715.0</ele><time>2026-05-02T11:45:32.002Z</time></trkpt><trkpt lat="44.037903533538106" lon="10.856918841043688"><ele>715.4</ele><time>2026-05-02T11:45:34.002Z</time></trkpt><trkpt lat="44.03796672115776" lon="10.857058126862686"><ele>715.8</ele><time>2026-05-02T11:45:36.002Z</time></trkpt><trkpt lat="44.03804188115542" lon="10.857092986922037"><ele>716.2</ele><time>2026-05-02T11:45:37.002Z</time></trkpt><trkpt lat="44.0381331762514" lon="10.85716442220526"><ele>716.6</ele><time>2026-05-02T11:45:39.002Z</time></trkpt><trkpt lat="44.038232257098" lon="10.857242403904833"><ele>717.0</ele><time>2026-05-02T11:45:41.002Z</time></trkpt><trkpt lat="44.03832925809233" lon="10.857324145582215"><ele>715.7142857142857</ele><time>2026-05-02T11:45:43.002Z</time></trkpt><trkpt lat="44.03835421485435" lon="10.857414645012367"><ele>714.4285714285713</ele><time>2026-05-02T11:45:44.002Z</time></trkpt><trkpt lat="44.03839739706018" lon="10.85748763025779"><ele>713.1428571428571</ele><time>2026-05-02T11:45:45.002Z</time></trkpt><trkpt lat="44.03841791475376" lon="10.857571796809994"><ele>711.8571428571429</ele><time>2026-05-02T11:45:46.002Z</time></trkpt><trkpt lat="44.03843349403355" lon="10.857669648053916"><ele>710.5714285714286</ele><time>2026-05-02T11:45:47.002Z</time></trkpt><trkpt lat="44.03845273226751" lon="10.857756417059619"><ele>709.2857142857143</ele><time>2026-05-02T11:45:48.002Z</time></trkpt><trkpt lat="44.03846777855801" lon="10.857858129451836"><ele>708.0</ele><time>2026-05-02T11:45:49.002Z</time></trkpt><trkpt lat="44.03848720031479" lon="10.85794734624232"><ele>708.0</ele><time>2026-05-02T11:45:50.002Z</time></trkpt><trkpt lat="44.03850523246414" lon="10.858039183251316"><ele>708.0</ele><time>2026-05-02T11:45:51.002Z</time></trkpt><trkpt lat="44.03852356886833" lon="10.858127740233556"><ele>708.0</ele><time>2026-05-02T11:45:52.002Z</time></trkpt><trkpt lat="44.0385420213199" lon="10.858218635756117"><ele>708.0</ele><time>2026-05-02T11:45:53.002Z</time></trkpt><trkpt lat="44.038582796143004" lon="10.858388461062303"><ele>708.0</ele><time>2026-05-02T11:45:55.002Z</time></trkpt><trkpt lat="44.03859839368286" lon="10.858480202822085"><ele>708.0</ele><time>2026-05-02T11:45:56.002Z</time></trkpt><trkpt lat="44.038621396792585" lon="10.858564699376663"><ele>708.1666666666666</ele><time>2026-05-02T11:45:57.002Z</time></trkpt><trkpt lat="44.03863705059934" lon="10.858650125539091"><ele>708.3333333333334</ele><time>2026-05-02T11:45:58.002Z</time></trkpt><trkpt lat="44.03865055024083" lon="10.858736233266244"><ele>708.5</ele><time>2026-05-02T11:45:59.002Z</time></trkpt><trkpt lat="44.038694119801505" lon="10.85889835139484"><ele>708.6666666666667</ele><time>2026-05-02T11:46:01.002Z</time></trkpt><trkpt lat="44.03871446416166" lon="10.859065634269754"><ele>708.8333333333334</ele><time>2026-05-02T11:46:03.002Z</time></trkpt><trkpt lat="44.03873411463688" lon="10.859149236475544"><ele>709.0</ele><time>2026-05-02T11:46:04.002Z</time></trkpt><trkpt lat="44.03874524292176" lon="10.85924299456611"><ele>707.2</ele><time>2026-05-02T11:46:05.002Z</time></trkpt><trkpt lat="44.038753964387254" lon="10.859418796586146"><ele>705.4000000000001</ele><time>2026-05-02T11:46:07.002Z</time></trkpt><trkpt lat="44.03876953489814" lon="10.85951207257702"><ele>703.6</ele><time>2026-05-02T11:46:08.002Z</time></trkpt><trkpt lat="44.03879335313109" lon="10.859674967355906"><ele>701.8</ele><time>2026-05-02T11:46:10.002Z</time></trkpt><trkpt lat="44.03877393680656" lon="10.859850238739096"><ele>700.0</ele><time>2026-05-02T11:46:12.002Z</time></trkpt><trkpt lat="44.038774526917116" lon="10.859948004435457"><ele>700.0</ele><time>2026-05-02T11:46:13.002Z</time></trkpt><trkpt lat="44.03877426518082" lon="10.860038755328514"><ele>700.0</ele><time>2026-05-02T11:46:14.002Z</time></trkpt><trkpt lat="44.03877660333458" lon="10.86013179251838"><ele>700.0</ele><time>2026-05-02T11:46:15.002Z</time></trkpt><trkpt lat="44.03878558844283" lon="10.860229766870923"><ele>700.0</ele><time>2026-05-02T11:46:16.002Z</time></trkpt><trkpt lat="44.03880325144442" lon="10.860318964389807"><ele>700.0</ele><time>2026-05-02T11:46:17.002Z</time></trkpt><trkpt lat="44.038819299060606" lon="10.860404969270895"><ele>700.0</ele><time>2026-05-02T11:46:18.002Z</time></trkpt><trkpt lat="44.03884113391708" lon="10.860492279155197"><ele>700.0</ele><time>2026-05-02T11:46:19.002Z</time></trkpt><trkpt lat="44.03888709625925" lon="10.860655502564658"><ele>698.25</ele><time>2026-05-02T11:46:21.002Z</time></trkpt><trkpt lat="44.03891693228624" lon="10.860827830849441"><ele>696.5</ele><time>2026-05-02T11:46:23.002Z</time></trkpt><trkpt lat="44.03889371086105" lon="10.860988813337338"><ele>694.75</ele><time>2026-05-02T11:46:25.002Z</time></trkpt><trkpt lat="44.03884660019522" lon="10.86111934677247"><ele>693.0</ele><time>2026-05-02T11:46:27.002Z</time></trkpt><trkpt lat="44.038796106408384" lon="10.861248387314378"><ele>693.0</ele><time>2026-05-02T11:46:29.002Z</time></trkpt><trkpt lat="44.03876098438382" lon="10.8613694138289"><ele>693.0</ele><time>2026-05-02T11:46:31.002Z</time></trkpt><trkpt lat="44.03872632350533" lon="10.861493121612003"><ele>693.0</ele><time>2026-05-02T11:46:33.003Z</time></trkpt><trkpt lat="44.03869162714521" lon="10.861615599754915"><ele>693.0</ele><time>2026-05-02T11:46:35.003Z</time></trkpt><trkpt lat="44.0386671097078" lon="10.861747213810832"><ele>693.0</ele><time>2026-05-02T11:46:37.003Z</time></trkpt><trkpt lat="44.0386492812696" lon="10.861863339884605"><ele>693.2</ele><time>2026-05-02T11:46:39.003Z</time></trkpt><trkpt lat="44.03864672611899" lon="10.861986426230587"><ele>693.4</ele><time>2026-05-02T11:46:41.003Z</time></trkpt><trkpt lat="44.03864728126759" lon="10.862115451003099"><ele>693.6</ele><time>2026-05-02T11:46:43.003Z</time></trkpt><trkpt lat="44.03867064002759" lon="10.862235873504984"><ele>693.8000000000001</ele><time>2026-05-02T11:46:45.003Z</time></trkpt><trkpt lat="44.03867545700411" lon="10.86236261626696"><ele>694.0</ele><time>2026-05-02T11:46:47.003Z</time></trkpt><trkpt lat="44.03869341633093" lon="10.86249602436923"><ele>694.4000000000001</ele><time>2026-05-02T11:46:49.003Z</time></trkpt><trkpt lat="44.03871779193654" lon="10.862627411232156"><ele>694.8</ele><time>2026-05-02T11:46:51.003Z</time></trkpt><trkpt lat="44.03873908866612" lon="10.86275149465149"><ele>695.2</ele><time>2026-05-02T11:46:53.003Z</time></trkpt><trkpt lat="44.03877038311767" lon="10.862882452109794"><ele>695.5999999999999</ele><time>2026-05-02T11:46:55.003Z</time></trkpt><trkpt lat="44.03878851195419" lon="10.863003357315062"><ele>696.0</ele><time>2026-05-02T11:46:57.003Z</time></trkpt><trkpt lat="44.038808630442574" lon="10.863123949006606"><ele>696.0</ele><time>2026-05-02T11:46:59.003Z</time></trkpt><trkpt lat="44.03879302064058" lon="10.86323181344321"><ele>696.0</ele><time>2026-05-02T11:47:01.003Z</time></trkpt><trkpt lat="44.03879061025848" lon="10.863352022392158"><ele>696.0</ele><time>2026-05-02T11:47:03.003Z</time></trkpt><trkpt lat="44.03878026129652" lon="10.863468710125389"><ele>696.0</ele><time>2026-05-02T11:47:05.003Z</time></trkpt><trkpt lat="44.03876436459013" lon="10.863577787296153"><ele>696.0</ele><time>2026-05-02T11:47:07.003Z</time></trkpt><trkpt lat="44.03875633351037" lon="10.863695334329096"><ele>696.0</ele><time>2026-05-02T11:47:09.003Z</time></trkpt><trkpt lat="44.03874219046125" lon="10.863811166884782"><ele>696.3333333333334</ele><time>2026-05-02T11:47:11.003Z</time></trkpt><trkpt lat="44.03870545759139" lon="10.863930470449915"><ele>696.6666666666666</ele><time>2026-05-02T11:47:13.003Z</time></trkpt><trkpt lat="44.03868302056801" lon="10.864047303246359"><ele>697.0</ele><time>2026-05-02T11:47:15.003Z</time></trkpt><trkpt lat="44.03866058819728" lon="10.864161320435814"><ele>697.3333333333333</ele><time>2026-05-02T11:47:17.003Z</time></trkpt><trkpt lat="44.03864487877217" lon="10.864269868138473"><ele>697.6666666666666</ele><time>2026-05-02T11:47:19.003Z</time></trkpt><trkpt lat="44.03863447906462" lon="10.864391783516096"><ele>698.0</ele><time>2026-05-02T11:47:21.003Z</time></trkpt><trkpt lat="44.03861780476177" lon="10.864513947629728"><ele>698.0</ele><time>2026-05-02T11:47:23.003Z</time></trkpt><trkpt lat="44.03861998535085" lon="10.864632331383518"><ele>698.0</ele><time>2026-05-02T11:47:25.003Z</time></trkpt><trkpt lat="44.03860288865667" lon="10.86476082075545"><ele>698.0</ele><time>2026-05-02T11:47:27.003Z</time></trkpt><trkpt lat="44.03858708656446" lon="10.864898652164882"><ele>698.0</ele><time>2026-05-02T11:47:29.003Z</time></trkpt><trkpt lat="44.038571445778224" lon="10.865043278838673"><ele>698.0</ele><time>2026-05-02T11:47:31.003Z</time></trkpt><trkpt lat="44.03855056080577" lon="10.865192585547419"><ele>698.0</ele><time>2026-05-02T11:47:33.003Z</time></trkpt><trkpt lat="44.038534202486325" lon="10.865336306013385"><ele>698.0</ele><time>2026-05-02T11:47:35.003Z</time></trkpt><trkpt lat="44.0385150664667" lon="10.865485672420705"><ele>698.0</ele><time>2026-05-02T11:47:37.003Z</time></trkpt><trkpt lat="44.0384926719615" lon="10.865640851627598"><ele>698.0</ele><time>2026-05-02T11:47:39.003Z</time></trkpt><trkpt lat="44.03846776965584" lon="10.865796561053724"><ele>698.0</ele><time>2026-05-02T11:47:41.003Z</time></trkpt><trkpt lat="44.03845463248565" lon="10.865951452511437"><ele>698.25</ele><time>2026-05-02T11:47:43.003Z</time></trkpt><trkpt lat="44.038444623925315" lon="10.86609821086487"><ele>698.5</ele><time>2026-05-02T11:47:45.003Z</time></trkpt><trkpt lat="44.03842875063869" lon="10.866265260180082"><ele>698.75</ele><time>2026-05-02T11:47:47.003Z</time></trkpt><trkpt lat="44.03840726373791" lon="10.866419380895456"><ele>699.0</ele><time>2026-05-02T11:47:49.003Z</time></trkpt><trkpt lat="44.03838884687332" lon="10.86658753410734"><ele>699.0</ele><time>2026-05-02T11:47:51.003Z</time></trkpt><trkpt lat="44.0383659016195" lon="10.86675877070478"><ele>699.0</ele><time>2026-05-02T11:47:53.003Z</time></trkpt><trkpt lat="44.038358853510374" lon="10.866851139215242"><ele>699.0</ele><time>2026-05-02T11:47:54.003Z</time></trkpt><trkpt lat="44.038350585073374" lon="10.866944589732222"><ele>699.0</ele><time>2026-05-02T11:47:55.003Z</time></trkpt><trkpt lat="44.03833366756171" lon="10.867040149862527"><ele>699.0</ele><time>2026-05-02T11:47:56.003Z</time></trkpt><trkpt lat="44.03832324116479" lon="10.867131473931131"><ele>699.0</ele><time>2026-05-02T11:47:57.003Z</time></trkpt><trkpt lat="44.038306188890026" lon="10.86723053142337"><ele>699.0</ele><time>2026-05-02T11:47:58.003Z</time></trkpt><trkpt lat="44.038291654433024" lon="10.867327888343103"><ele>699.0</ele><time>2026-05-02T11:47:59.003Z</time></trkpt><trkpt lat="44.038296500350974" lon="10.867419303057105"><ele>699.0</ele><time>2026-05-02T11:48:00.003Z</time></trkpt><trkpt lat="44.03827472448695" lon="10.867512737446166"><ele>699.0</ele><time>2026-05-02T11:48:01.003Z</time></trkpt><trkpt lat="44.03826174577018" lon="10.867607394739153"><ele>699.0</ele><time>2026-05-02T11:48:02.003Z</time></trkpt><trkpt lat="44.03825628321563" lon="10.86769660265696"><ele>699.0</ele><time>2026-05-02T11:48:03.003Z</time></trkpt><trkpt lat="44.038232393072455" lon="10.867789546140777"><ele>699.0</ele><time>2026-05-02T11:48:04.003Z</time></trkpt><trkpt lat="44.038213894273156" lon="10.867877345151323"><ele>697.5</ele><time>2026-05-02T11:48:05.003Z</time></trkpt><trkpt lat="44.03821260754037" lon="10.867975346183194"><ele>696.0</ele><time>2026-05-02T11:48:06.003Z</time></trkpt><trkpt lat="44.03820813643813" lon="10.868071200301147"><ele>694.5</ele><time>2026-05-02T11:48:07.003Z</time></trkpt><trkpt lat="44.03819229561035" lon="10.868249377335454"><ele>693.0</ele><time>2026-05-02T11:48:09.003Z</time></trkpt><trkpt lat="44.03817314332873" lon="10.868340551051725"><ele>691.5</ele><time>2026-05-02T11:48:10.003Z</time></trkpt><trkpt lat="44.03816135350899" lon="10.868433415176343"><ele>690.0</ele><time>2026-05-02T11:48:11.003Z</time></trkpt><trkpt lat="44.038154291822096" lon="10.868532548825971"><ele>689.4285714285714</ele><time>2026-05-02T11:48:12.003Z</time></trkpt><trkpt lat="44.03814221261248" lon="10.868626825750106"><ele>688.8571428571429</ele><time>2026-05-02T11:48:13.003Z</time></trkpt><trkpt lat="44.03813101434778" lon="10.868723656153433"><ele>688.2857142857142</ele><time>2026-05-02T11:48:14.003Z</time></trkpt><trkpt lat="44.03812130582911" lon="10.868817227819648"><ele>687.7142857142858</ele><time>2026-05-02T11:48:15.003Z</time></trkpt><trkpt lat="44.03810819284895" lon="10.868914357778033"><ele>687.1428571428571</ele><time>2026-05-02T11:48:16.003Z</time></trkpt><trkpt lat="44.03809556138749" lon="10.869010266490761"><ele>686.5714285714286</ele><time>2026-05-02T11:48:17.003Z</time></trkpt><trkpt lat="44.03808595734797" lon="10.869107794287677"><ele>686.0</ele><time>2026-05-02T11:48:18.003Z</time></trkpt><trkpt lat="44.03808058311956" lon="10.869197101228421"><ele>685.4</ele><time>2026-05-02T11:48:19.003Z</time></trkpt><trkpt lat="44.03806271064723" lon="10.86929015418395"><ele>684.8</ele><time>2026-05-02T11:48:20.003Z</time></trkpt><trkpt lat="44.038073230352374" lon="10.869378640536436"><ele>684.1999999999999</ele><time>2026-05-02T11:48:21.003Z</time></trkpt><trkpt lat="44.03809757325486" lon="10.869548427249415"><ele>683.5999999999999</ele><time>2026-05-02T11:48:23.003Z</time></trkpt><trkpt lat="44.03812197096702" lon="10.869703116151376"><ele>683.0</ele><time>2026-05-02T11:48:25.003Z</time></trkpt><trkpt lat="44.038131978336025" lon="10.86984295541875"><ele>683.0</ele><time>2026-05-02T11:48:27.003Z</time></trkpt><trkpt lat="44.03812989530207" lon="10.86996920827692"><ele>683.0</ele><time>2026-05-02T11:48:29.003Z</time></trkpt><trkpt lat="44.038118619175265" lon="10.870103929108955"><ele>683.0</ele><time>2026-05-02T11:48:31.003Z</time></trkpt><trkpt lat="44.038106514508414" lon="10.870245038836362"><ele>683.0</ele><time>2026-05-02T11:48:33.003Z</time></trkpt><trkpt lat="44.03809190269449" lon="10.87041313087518"><ele>683.0</ele><time>2026-05-02T11:48:35.003Z</time></trkpt><trkpt lat="44.038078387587674" lon="10.870583069876075"><ele>682.3333333333333</ele><time>2026-05-02T11:48:37.003Z</time></trkpt><trkpt lat="44.03807124035152" lon="10.870673137433046"><ele>681.6666666666666</ele><time>2026-05-02T11:48:38.003Z</time></trkpt><trkpt lat="44.0380633823335" lon="10.870765199195237"><ele>681.0</ele><time>2026-05-02T11:48:39.003Z</time></trkpt><trkpt lat="44.038095301483565" lon="10.87086187887497"><ele>680.3333333333334</ele><time>2026-05-02T11:48:40.003Z</time></trkpt><trkpt lat="44.038088255754936" lon="10.871040318633336"><ele>679.6666666666667</ele><time>2026-05-02T11:48:42.003Z</time></trkpt><trkpt lat="44.038075428718784" lon="10.871127892496515"><ele>679.0</ele><time>2026-05-02T11:48:43.003Z</time></trkpt><trkpt lat="44.03807260398356" lon="10.87122669836072"><ele>678.8000000000001</ele><time>2026-05-02T11:48:44.003Z</time></trkpt><trkpt lat="44.03800468780952" lon="10.87136457962022"><ele>678.6</ele><time>2026-05-02T11:48:46.003Z</time></trkpt><trkpt lat="44.03811021090563" lon="10.87148290011936"><ele>678.4</ele><time>2026-05-02T11:48:47.003Z</time></trkpt><trkpt lat="44.038164536388315" lon="10.871601230156928"><ele>678.2</ele><time>2026-05-02T11:48:49.003Z</time></trkpt><trkpt lat="44.038191789844056" lon="10.871698952619584"><ele>678.0</ele><time>2026-05-02T11:48:51.003Z</time></trkpt><trkpt lat="44.03822969610586" lon="10.871776878001732"><ele>678.0</ele><time>2026-05-02T11:48:53.003Z</time></trkpt><trkpt lat="44.038251998251155" lon="10.871860572305174"><ele>678.0</ele><time>2026-05-02T11:48:55.003Z</time></trkpt><trkpt lat="44.038293295663614" lon="10.871958769000653"><ele>678.0</ele><time>2026-05-02T11:48:57.003Z</time></trkpt><trkpt lat="44.0383326252532" lon="10.872027922461147"><ele>678.0</ele><time>2026-05-02T11:48:59.003Z</time></trkpt><trkpt lat="44.038363863095306" lon="10.872118977809508"><ele>678.0</ele><time>2026-05-02T11:49:01.003Z</time></trkpt><trkpt lat="44.038392590124054" lon="10.872206996187893"><ele>678.0</ele><time>2026-05-02T11:49:03.003Z</time></trkpt><trkpt lat="44.038425942427985" lon="10.87232085978132"><ele>678.0</ele><time>2026-05-02T11:49:06.003Z</time></trkpt><trkpt lat="44.03845839026844" lon="10.872421447960553"><ele>678.6666666666666</ele><time>2026-05-02T11:49:09.003Z</time></trkpt><trkpt lat="44.03851742129132" lon="10.872514827868294"><ele>679.3333333333334</ele><time>2026-05-02T11:49:12.003Z</time></trkpt><trkpt lat="44.038585032179505" lon="10.872575432149448"><ele>680.0</ele><time>2026-05-02T11:49:15.004Z</time></trkpt><trkpt lat="44.03866283035942" lon="10.872622064817326"><ele>680.6666666666667</ele><time>2026-05-02T11:49:18.004Z</time></trkpt><trkpt lat="44.03871825684397" lon="10.87269315647952"><ele>681.3333333333334</ele><time>2026-05-02T11:49:21.004Z</time></trkpt><trkpt lat="44.03874338135824" lon="10.872779652627237"><ele>682.0</ele><time>2026-05-02T11:49:25.004Z</time></trkpt><trkpt lat="44.038761609217445" lon="10.872914082421337"><ele>682.0</ele><time>2026-05-02T11:49:28.004Z</time></trkpt><trkpt lat="44.038731816434684" lon="10.873028357773894"><ele>682.0</ele><time>2026-05-02T11:49:30.004Z</time></trkpt><trkpt lat="44.03867978165149" lon="10.873147235765584"><ele>682.0</ele><time>2026-05-02T11:49:32.004Z</time></trkpt><trkpt lat="44.03859961311546" lon="10.873266285097948"><ele>682.0</ele><time>2026-05-02T11:49:34.004Z</time></trkpt><trkpt lat="44.03856287361736" lon="10.87333805152748"><ele>682.0</ele><time>2026-05-02T11:49:35.004Z</time></trkpt><trkpt lat="44.038509656099535" lon="10.873445049137066"><ele>680.8</ele><time>2026-05-02T11:49:37.004Z</time></trkpt><trkpt lat="44.038448283390956" lon="10.873555701359086"><ele>679.6</ele><time>2026-05-02T11:49:39.004Z</time></trkpt><trkpt lat="44.038400221899245" lon="10.873684156289514"><ele>678.4</ele><time>2026-05-02T11:49:41.004Z</time></trkpt><trkpt lat="44.03841937795852" lon="10.87385143702273"><ele>677.1999999999999</ele><time>2026-05-02T11:49:43.004Z</time></trkpt><trkpt lat="44.03846130024302" lon="10.873919694569404"><ele>676.0</ele><time>2026-05-02T11:49:44.004Z</time></trkpt><trkpt lat="44.03854655877246" lon="10.874008739970295"><ele>676.0</ele><time>2026-05-02T11:49:46.004Z</time></trkpt><trkpt lat="44.038601196610045" lon="10.87407250667419"><ele>676.0</ele><time>2026-05-02T11:49:48.004Z</time></trkpt><trkpt lat="44.03861490030921" lon="10.87416754049716"><ele>676.0</ele><time>2026-05-02T11:49:52.004Z</time></trkpt><trkpt lat="44.03854582720574" lon="10.874282554562951"><ele>676.0</ele><time>2026-05-02T11:49:55.004Z</time></trkpt><trkpt lat="44.03851836756477" lon="10.87442203305649"><ele>676.0</ele><time>2026-05-02T11:49:57.004Z</time></trkpt><trkpt lat="44.03855673607637" lon="10.874495654716423"><ele>676.0</ele><time>2026-05-02T11:49:58.004Z</time></trkpt><trkpt lat="44.03863478318431" lon="10.874594028656519"><ele>675.7142857142858</ele><time>2026-05-02T11:50:00.004Z</time></trkpt><trkpt lat="44.03868401869141" lon="10.874684889618552"><ele>675.4285714285714</ele><time>2026-05-02T11:50:02.004Z</time></trkpt><trkpt lat="44.0387367295646" lon="10.874757393064154"><ele>675.1428571428571</ele><time>2026-05-02T11:50:05.004Z</time></trkpt><trkpt lat="44.038777658052915" lon="10.874833527035518"><ele>674.8571428571429</ele><time>2026-05-02T11:50:08.004Z</time></trkpt><trkpt lat="44.03879411949348" lon="10.87493208662578"><ele>674.5714285714286</ele><time>2026-05-02T11:50:10.004Z</time></trkpt><trkpt lat="44.0387822527612" lon="10.87501854883669"><ele>674.2857142857143</ele><time>2026-05-02T11:50:12.004Z</time></trkpt><trkpt lat="44.038810737803175" lon="10.875127504837307"><ele>674.0</ele><time>2026-05-02T11:50:14.004Z</time></trkpt><trkpt lat="44.03886460580504" lon="10.875220879320679"><ele>673.5</ele><time>2026-05-02T11:50:16.004Z</time></trkpt><trkpt lat="44.03890585018422" lon="10.875300195389809"><ele>673.0</ele><time>2026-05-02T11:50:18.004Z</time></trkpt><trkpt lat="44.03895200326062" lon="10.875379671030087"><ele>672.5</ele><time>2026-05-02T11:50:20.004Z</time></trkpt><trkpt lat="44.03899474710963" lon="10.875474988971696"><ele>672.0</ele><time>2026-05-02T11:50:23.004Z</time></trkpt><trkpt lat="44.03904197507304" lon="10.875549905690729"><ele>671.5</ele><time>2026-05-02T11:50:26.004Z</time></trkpt><trkpt lat="44.03906233892986" lon="10.875654181513314"><ele>671.0</ele><time>2026-05-02T11:50:29.004Z</time></trkpt><trkpt lat="44.03901111696933" lon="10.875760037004335"><ele>671.0</ele><time>2026-05-02T11:50:31.004Z</time></trkpt><trkpt lat="44.038909294829644" lon="10.875857904219703"><ele>671.0</ele><time>2026-05-02T11:50:33.004Z</time></trkpt><trkpt lat="44.038823145034925" lon="10.8759429193248"><ele>671.0</ele><time>2026-05-02T11:50:35.004Z</time></trkpt><trkpt lat="44.03878537754773" lon="10.876023876811377"><ele>671.0</ele><time>2026-05-02T11:50:38.004Z</time></trkpt><trkpt lat="44.0387398852753" lon="10.876101589912928"><ele>671.0</ele><time>2026-05-02T11:50:42.004Z</time></trkpt><trkpt lat="44.03876159587252" lon="10.876185341862653"><ele>671.0</ele><time>2026-05-02T11:50:47.004Z</time></trkpt><trkpt lat="44.038720528188776" lon="10.876105141613966"><ele>671.0</ele><time>2026-05-02T11:50:53.004Z</time></trkpt><trkpt lat="44.03875740132677" lon="10.876221989369975"><ele>671.0</ele><time>2026-05-02T11:53:40.005Z</time></trkpt><trkpt lat="44.03881662478565" lon="10.876303360870848"><ele>671.0</ele><time>2026-05-02T11:53:43.005Z</time></trkpt><trkpt lat="44.03886767361477" lon="10.876387925686826"><ele>671.0</ele><time>2026-05-02T11:53:46.005Z</time></trkpt><trkpt lat="44.038923920914506" lon="10.876489657689024"><ele>671.0</ele><time>2026-05-02T11:53:49.005Z</time></trkpt><trkpt lat="44.038972727186845" lon="10.876567704586115"><ele>671.0</ele><time>2026-05-02T11:53:52.005Z</time></trkpt><trkpt lat="44.03903263460405" lon="10.876658308987555"><ele>671.0</ele><time>2026-05-02T11:53:55.005Z</time></trkpt><trkpt lat="44.039087449157805" lon="10.876766914515098"><ele>671.0</ele><time>2026-05-02T11:53:58.005Z</time></trkpt><trkpt lat="44.03909398506783" lon="10.876857104769394"><ele>671.0</ele><time>2026-05-02T11:54:00.005Z</time></trkpt><trkpt lat="44.039071743445625" lon="10.876945012668939"><ele>671.0</ele><time>2026-05-02T11:54:02.005Z</time></trkpt><trkpt lat="44.039049430523306" lon="10.877043877631422"><ele>671.0</ele><time>2026-05-02T11:54:04.005Z</time></trkpt><trkpt lat="44.039039687518134" lon="10.877156238545835"><ele>671.0</ele><time>2026-05-02T11:54:06.005Z</time></trkpt><trkpt lat="44.039044952987695" lon="10.87724909220354"><ele>671.8571428571428</ele><time>2026-05-02T11:54:08.005Z</time></trkpt><trkpt lat="44.03905733560105" lon="10.877343108224887"><ele>672.7142857142858</ele><time>2026-05-02T11:54:10.005Z</time></trkpt><trkpt lat="44.039057466584055" lon="10.877433435384814"><ele>673.5714285714286</ele><time>2026-05-02T11:54:12.005Z</time></trkpt><trkpt lat="44.039071401413985" lon="10.877539976690487"><ele>674.4285714285713</ele><time>2026-05-02T11:54:14.005Z</time></trkpt><trkpt lat="44.03908952295943" lon="10.877643481789201"><ele>675.2857142857142</ele><time>2026-05-02T11:54:16.005Z</time></trkpt><trkpt lat="44.039104658794365" lon="10.877750351229722"><ele>676.1428571428571</ele><time>2026-05-02T11:54:18.005Z</time></trkpt><trkpt lat="44.03910856765689" lon="10.877856810602609"><ele>677.0</ele><time>2026-05-02T11:54:20.005Z</time></trkpt><trkpt lat="44.039126741336354" lon="10.877960236567468"><ele>676.9999999999999</ele><time>2026-05-02T11:54:22.005Z</time></trkpt><trkpt lat="44.03912822818621" lon="10.878058027687038"><ele>677.0</ele><time>2026-05-02T11:54:24.005Z</time></trkpt><trkpt lat="44.03910907080422" lon="10.878152043488013"><ele>677.0</ele><time>2026-05-02T11:54:26.005Z</time></trkpt><trkpt lat="44.039091506616785" lon="10.878241993345435"><ele>677.0</ele><time>2026-05-02T11:54:28.005Z</time></trkpt><trkpt lat="44.03907974945659" lon="10.878331397833431"><ele>677.0</ele><time>2026-05-02T11:54:30.005Z</time></trkpt><trkpt lat="44.03906106651119" lon="10.878445307230496"><ele>676.9999999999999</ele><time>2026-05-02T11:54:33.005Z</time></trkpt><trkpt lat="44.03905957164632" lon="10.878534050646332"><ele>677.0</ele><time>2026-05-02T11:54:35.005Z</time></trkpt><trkpt lat="44.03904713218211" lon="10.878622755173474"><ele>677.0</ele><time>2026-05-02T11:54:37.006Z</time></trkpt><trkpt lat="44.03902837942126" lon="10.878741076890261"><ele>677.0</ele><time>2026-05-02T11:54:40.006Z</time></trkpt><trkpt lat="44.03902385340165" lon="10.87883843114778"><ele>677.0</ele><time>2026-05-02T11:54:42.006Z</time></trkpt><trkpt lat="44.03901946425689" lon="10.878953306600806"><ele>677.0</ele><time>2026-05-02T11:54:44.006Z</time></trkpt><trkpt lat="44.03902760433482" lon="10.879092667559519"><ele>677.0</ele><time>2026-05-02T11:54:46.006Z</time></trkpt><trkpt lat="44.03902250891273" lon="10.879238804625725"><ele>677.0</ele><time>2026-05-02T11:54:48.006Z</time></trkpt><trkpt lat="44.03900925312086" lon="10.879382731297255"><ele>676.1428571428571</ele><time>2026-05-02T11:54:50.006Z</time></trkpt><trkpt lat="44.03901616045291" lon="10.879470982977674"><ele>675.2857142857142</ele><time>2026-05-02T11:54:51.006Z</time></trkpt><trkpt lat="44.03902774160921" lon="10.879565993638236"><ele>674.4285714285713</ele><time>2026-05-02T11:54:52.006Z</time></trkpt><trkpt lat="44.03902707433824" lon="10.879661158633171"><ele>673.5714285714286</ele><time>2026-05-02T11:54:53.006Z</time></trkpt><trkpt lat="44.03902712809909" lon="10.879767592735746"><ele>672.7142857142858</ele><time>2026-05-02T11:54:54.006Z</time></trkpt><trkpt lat="44.0390273662824" lon="10.879872645041717"><ele>671.8571428571428</ele><time>2026-05-02T11:54:55.006Z</time></trkpt><trkpt lat="44.03903594870009" lon="10.879986540278484"><ele>671.0</ele><time>2026-05-02T11:54:56.006Z</time></trkpt><trkpt lat="44.03903958467525" lon="10.880090130504243"><ele>670.1666666666666</ele><time>2026-05-02T11:54:57.006Z</time></trkpt><trkpt lat="44.03904218339287" lon="10.880190630209308"><ele>669.3333333333333</ele><time>2026-05-02T11:54:58.006Z</time></trkpt><trkpt lat="44.039039175234606" lon="10.880310007773469"><ele>668.5</ele><time>2026-05-02T11:54:59.006Z</time></trkpt><trkpt lat="44.0390336918981" lon="10.880425312521979"><ele>667.6666666666666</ele><time>2026-05-02T11:55:00.006Z</time></trkpt><trkpt lat="44.03903261862356" lon="10.880538860796584"><ele>666.8333333333334</ele><time>2026-05-02T11:55:01.006Z</time></trkpt><trkpt lat="44.03903279388968" lon="10.880648811155373"><ele>666.0</ele><time>2026-05-02T11:55:02.006Z</time></trkpt><trkpt lat="44.0390433247872" lon="10.880747065605187"><ele>666.0</ele><time>2026-05-02T11:55:03.006Z</time></trkpt><trkpt lat="44.03901250891498" lon="10.880857434086703"><ele>666.0</ele><time>2026-05-02T11:55:04.006Z</time></trkpt><trkpt lat="44.039022504000314" lon="10.880969857963374"><ele>666.0</ele><time>2026-05-02T11:55:05.006Z</time></trkpt><trkpt lat="44.03905408088252" lon="10.881082368532052"><ele>666.0</ele><time>2026-05-02T11:55:06.006Z</time></trkpt><trkpt lat="44.03910934825116" lon="10.881186411994268"><ele>666.0</ele><time>2026-05-02T11:55:07.006Z</time></trkpt><trkpt lat="44.039154085043755" lon="10.881276570578004"><ele>666.0</ele><time>2026-05-02T11:55:08.006Z</time></trkpt><trkpt lat="44.03920348017408" lon="10.881360914946601"><ele>666.1428571428572</ele><time>2026-05-02T11:55:09.006Z</time></trkpt><trkpt lat="44.03921806865363" lon="10.881459729907549"><ele>666.2857142857142</ele><time>2026-05-02T11:55:10.006Z</time></trkpt><trkpt lat="44.03923576275095" lon="10.881561852472512"><ele>666.4285714285714</ele><time>2026-05-02T11:55:11.006Z</time></trkpt><trkpt lat="44.03923788684062" lon="10.881663906043864"><ele>666.5714285714287</ele><time>2026-05-02T11:55:12.006Z</time></trkpt><trkpt lat="44.039244377082156" lon="10.881760440671808"><ele>666.7142857142858</ele><time>2026-05-02T11:55:13.006Z</time></trkpt><trkpt lat="44.039241596796316" lon="10.881856683681393"><ele>666.8571428571429</ele><time>2026-05-02T11:55:14.006Z</time></trkpt><trkpt lat="44.03924345156296" lon="10.881948553545252"><ele>667.0</ele><time>2026-05-02T11:55:15.006Z</time></trkpt><trkpt lat="44.03926400649954" lon="10.882036197270693"><ele>666.1428571428572</ele><time>2026-05-02T11:55:16.006Z</time></trkpt><trkpt lat="44.03926998677719" lon="10.88212841042552"><ele>665.2857142857143</ele><time>2026-05-02T11:55:17.006Z</time></trkpt><trkpt lat="44.03928442507729" lon="10.882224135567865"><ele>664.4285714285714</ele><time>2026-05-02T11:55:18.006Z</time></trkpt><trkpt lat="44.03930560564587" lon="10.882312032220435"><ele>663.5714285714287</ele><time>2026-05-02T11:55:19.006Z</time></trkpt><trkpt lat="44.03933522111309" lon="10.882411627760407"><ele>662.7142857142858</ele><time>2026-05-02T11:55:20.006Z</time></trkpt><trkpt lat="44.03935730580246" lon="10.882500207148585"><ele>661.8571428571429</ele><time>2026-05-02T11:55:21.006Z</time></trkpt><trkpt lat="44.0393951109929" lon="10.882585828012557"><ele>661.0</ele><time>2026-05-02T11:55:22.006Z</time></trkpt><trkpt lat="44.03943034444977" lon="10.882744762275562"><ele>661.1999999999999</ele><time>2026-05-02T11:55:24.006Z</time></trkpt><trkpt lat="44.03940813732208" lon="10.882833129675257"><ele>661.4</ele><time>2026-05-02T11:55:25.006Z</time></trkpt><trkpt lat="44.03932906658186" lon="10.88294430931012"><ele>661.6</ele><time>2026-05-02T11:55:27.006Z</time></trkpt><trkpt lat="44.039219636451435" lon="10.882994336308203"><ele>661.8</ele><time>2026-05-02T11:55:29.006Z</time></trkpt><trkpt lat="44.03910985772468" lon="10.883019448846696"><ele>662.0</ele><time>2026-05-02T11:55:31.006Z</time></trkpt><trkpt lat="44.03900771045556" lon="10.883014759294195"><ele>662.0</ele><time>2026-05-02T11:55:33.006Z</time></trkpt><trkpt lat="44.03893541331302" lon="10.883029251311777"><ele>662.0</ele><time>2026-05-02T11:55:35.006Z</time></trkpt><trkpt lat="44.03887231918925" lon="10.883032369436444"><ele>662.0</ele><time>2026-05-02T11:55:39.006Z</time></trkpt><trkpt lat="44.038809771797744" lon="10.883080260954234"><ele>662.0</ele><time>2026-05-02T11:55:44.006Z</time></trkpt><trkpt lat="44.038807778343674" lon="10.883176590984593"><ele>662.0</ele><time>2026-05-02T11:55:50.006Z</time></trkpt><trkpt lat="44.03879210327669" lon="10.88327782098067"><ele>662.0</ele><time>2026-05-02T11:55:54.006Z</time></trkpt><trkpt lat="44.03874823289281" lon="10.883353705157408"><ele>662.0</ele><time>2026-05-02T11:55:59.006Z</time></trkpt><trkpt lat="44.03875042154223" lon="10.88345841967553"><ele>661.6666666666666</ele><time>2026-05-02T11:56:04.006Z</time></trkpt><trkpt lat="44.038772085379634" lon="10.88355214921041"><ele>661.3333333333333</ele><time>2026-05-02T11:56:08.006Z</time></trkpt><trkpt lat="44.0387758882969" lon="10.88365214686689"><ele>661.0</ele><time>2026-05-02T11:56:12.006Z</time></trkpt><trkpt lat="44.038817414842526" lon="10.88373250433194"><ele>660.6666666666666</ele><time>2026-05-02T11:56:15.006Z</time></trkpt><trkpt lat="44.038846021205124" lon="10.883858645818558"><ele>660.3333333333334</ele><time>2026-05-02T11:56:18.006Z</time></trkpt><trkpt lat="44.038856656937355" lon="10.883975464129874"><ele>660.0</ele><time>2026-05-02T11:56:20.006Z</time></trkpt><trkpt lat="44.03882987040495" lon="10.884113882312038"><ele>660.1666666666666</ele><time>2026-05-02T11:56:22.006Z</time></trkpt><trkpt lat="44.03878538514724" lon="10.884267906103538"><ele>660.3333333333334</ele><time>2026-05-02T11:56:24.006Z</time></trkpt><trkpt lat="44.038735851588996" lon="10.884336965080148"><ele>660.5</ele><time>2026-05-02T11:56:25.006Z</time></trkpt><trkpt lat="44.03869016673767" lon="10.884405199821535"><ele>660.6666666666667</ele><time>2026-05-02T11:56:26.006Z</time></trkpt><trkpt lat="44.03863753799898" lon="10.884476241358751"><ele>660.8333333333334</ele><time>2026-05-02T11:56:27.006Z</time></trkpt><trkpt lat="44.03859144622289" lon="10.884550436101643"><ele>661.0</ele><time>2026-05-02T11:56:28.006Z</time></trkpt><trkpt lat="44.03854846405571" lon="10.884621462112781"><ele>661.0</ele><time>2026-05-02T11:56:29.006Z</time></trkpt><trkpt lat="44.038489099052704" lon="10.8846619601199"><ele>661.0</ele><time>2026-05-02T11:56:30.006Z</time></trkpt><trkpt lat="44.03838733324125" lon="10.884711977614732"><ele>661.0</ele><time>2026-05-02T11:56:32.006Z</time></trkpt><trkpt lat="44.03830819585664" lon="10.88475913386152"><ele>661.0</ele><time>2026-05-02T11:56:34.006Z</time></trkpt><trkpt lat="44.03824886120082" lon="10.88479362237918"><ele>661.0</ele><time>2026-05-02T11:56:38.006Z</time></trkpt><trkpt lat="44.03817309775741" lon="10.884819248151624"><ele>661.0</ele><time>2026-05-02T11:56:42.006Z</time></trkpt><trkpt lat="44.03810893445708" lon="10.884849449219367"><ele>662.1428571428571</ele><time>2026-05-02T11:56:46.006Z</time></trkpt><trkpt lat="44.03804180570691" lon="10.884880910911344"><ele>663.2857142857143</ele><time>2026-05-02T11:56:50.006Z</time></trkpt><trkpt lat="44.03797399530656" lon="10.88492641058126"><ele>664.4285714285714</ele><time>2026-05-02T11:56:55.006Z</time></trkpt><trkpt lat="44.037909632213946" lon="10.88495286234239"><ele>665.5714285714286</ele><time>2026-05-02T11:56:59.006Z</time></trkpt><trkpt lat="44.037832036954406" lon="10.884980500334736"><ele>666.7142857142857</ele><time>2026-05-02T11:57:04.006Z</time></trkpt><trkpt lat="44.03777542818196" lon="10.885033172077815"><ele>667.8571428571429</ele><time>2026-05-02T11:57:09.006Z</time></trkpt><trkpt lat="44.037704169332834" lon="10.885050008577808"><ele>669.0</ele><time>2026-05-02T11:57:14.006Z</time></trkpt><trkpt lat="44.037636147944205" lon="10.88503104494202"><ele>669.0</ele><time>2026-05-02T11:57:18.007Z</time></trkpt><trkpt lat="44.03754778609356" lon="10.885017473500023"><ele>669.0</ele><time>2026-05-02T11:57:23.007Z</time></trkpt><trkpt lat="44.0374958246311" lon="10.88494141195144"><ele>669.0</ele><time>2026-05-02T11:57:29.007Z</time></trkpt><trkpt lat="44.037468250628365" lon="10.884847212950296"><ele>669.0</ele><time>2026-05-02T11:57:35.007Z</time></trkpt><trkpt lat="44.03746154631123" lon="10.884752846605108"><ele>669.0</ele><time>2026-05-02T11:57:40.007Z</time></trkpt><trkpt lat="44.03744046565836" lon="10.884658530597068"><ele>669.0</ele><time>2026-05-02T11:57:44.007Z</time></trkpt><trkpt lat="44.03740732950695" lon="10.88456938176562"><ele>669.0</ele><time>2026-05-02T11:57:47.007Z</time></trkpt><trkpt lat="44.03736259843372" lon="10.884493097560739"><ele>672.1666666666666</ele><time>2026-05-02T11:57:50.007Z</time></trkpt><trkpt lat="44.037330944064955" lon="10.884381786956622"><ele>675.3333333333334</ele><time>2026-05-02T11:57:54.007Z</time></trkpt><trkpt lat="44.037305517616886" lon="10.884275868717285"><ele>678.5</ele><time>2026-05-02T11:57:58.007Z</time></trkpt><trkpt lat="44.03727841472653" lon="10.884194837940028"><ele>681.6666666666667</ele><time>2026-05-02T11:58:01.007Z</time></trkpt><trkpt lat="44.0372109384562" lon="10.8841160680617"><ele>684.8333333333334</ele><time>2026-05-02T11:58:04.007Z</time></trkpt><trkpt lat="44.03714271284613" lon="10.884053635742466"><ele>688.0</ele><time>2026-05-02T11:58:09.007Z</time></trkpt><trkpt lat="44.03712905462229" lon="10.8839579234275"><ele>688.0</ele><time>2026-05-02T11:58:13.007Z</time></trkpt><trkpt lat="44.0371131255477" lon="10.883846315172953"><ele>688.0</ele><time>2026-05-02T11:58:18.007Z</time></trkpt><trkpt lat="44.03708626576537" lon="10.883738347480842"><ele>688.0</ele><time>2026-05-02T11:58:22.007Z</time></trkpt><trkpt lat="44.03706331018211" lon="10.883639896919602"><ele>688.0</ele><time>2026-05-02T11:58:25.007Z</time></trkpt><trkpt lat="44.03702897486497" lon="10.883533805611037"><ele>688.0</ele><time>2026-05-02T11:58:28.007Z</time></trkpt><trkpt lat="44.036974281334196" lon="10.883465833039185"><ele>688.0</ele><time>2026-05-02T11:58:32.007Z</time></trkpt><trkpt lat="44.036906987551845" lon="10.883440431497842"><ele>686.4285714285714</ele><time>2026-05-02T11:58:36.007Z</time></trkpt><trkpt lat="44.036844609550215" lon="10.88339154600837"><ele>684.8571428571429</ele><time>2026-05-02T11:58:40.007Z</time></trkpt><trkpt lat="44.03676851736136" lon="10.883359198496294"><ele>683.2857142857142</ele><time>2026-05-02T11:58:45.007Z</time></trkpt><trkpt lat="44.03670218637104" lon="10.883314829942076"><ele>681.7142857142858</ele><time>2026-05-02T11:58:48.003Z</time></trkpt><trkpt lat="44.03663291424991" lon="10.883279650810607"><ele>680.1428571428571</ele><time>2026-05-02T11:58:52.003Z</time></trkpt><trkpt lat="44.03655801553546" lon="10.883253615345613"><ele>678.5714285714286</ele><time>2026-05-02T11:58:56.003Z</time></trkpt><trkpt lat="44.03648772415362" lon="10.883232066186777"><ele>677.0</ele><time>2026-05-02T11:58:59.003Z</time></trkpt><trkpt lat="44.036426898367644" lon="10.883191391051426"><ele>680.4285714285713</ele><time>2026-05-02T11:59:02.003Z</time></trkpt><trkpt lat="44.0363902239763" lon="10.883095225102398"><ele>683.8571428571429</ele><time>2026-05-02T11:59:07.003Z</time></trkpt><trkpt lat="44.03637035692873" lon="10.882983421858555"><ele>687.2857142857142</ele><time>2026-05-02T11:59:11.003Z</time></trkpt><trkpt lat="44.036346652198645" lon="10.882893056638329"><ele>690.7142857142857</ele><time>2026-05-02T11:59:14.003Z</time></trkpt><trkpt lat="44.036315726212344" lon="10.88280996818225"><ele>694.1428571428571</ele><time>2026-05-02T11:59:18.003Z</time></trkpt><trkpt lat="44.03629292195379" lon="10.882717623446453"><ele>697.5714285714286</ele><time>2026-05-02T11:59:22.003Z</time></trkpt><trkpt lat="44.0362897634768" lon="10.88260563634939"><ele>701.0</ele><time>2026-05-02T11:59:26.003Z</time></trkpt><trkpt lat="44.0362665104391" lon="10.88249934317692"><ele>701.0</ele><time>2026-05-02T11:59:30.003Z</time></trkpt><trkpt lat="44.03623582586438" lon="10.882416760303155"><ele>701.0</ele><time>2026-05-02T11:59:33.003Z</time></trkpt><trkpt lat="44.03619899926582" lon="10.882315070553046"><ele>701.0</ele><time>2026-05-02T11:59:37.003Z</time></trkpt><trkpt lat="44.03617159087507" lon="10.882213389423748"><ele>701.0</ele><time>2026-05-02T11:59:41.003Z</time></trkpt><trkpt lat="44.036133298721126" lon="10.882115410552428"><ele>701.0</ele><time>2026-05-02T11:59:45.002Z</time></trkpt><trkpt lat="44.03610086374234" lon="10.882009216893106"><ele>701.0</ele><time>2026-05-02T11:59:50.002Z</time></trkpt><trkpt lat="44.03606687772851" lon="10.881918180139694"><ele>701.0</ele><time>2026-05-02T11:59:54.002Z</time></trkpt><trkpt lat="44.03602951746744" lon="10.881843352248362"><ele>701.0</ele><time>2026-05-02T11:59:57.002Z</time></trkpt><trkpt lat="44.035983553621705" lon="10.88177016616896"><ele>701.0</ele><time>2026-05-02T12:00:01.003Z</time></trkpt><trkpt lat="44.03594603374887" lon="10.881666544529224"><ele>701.0</ele><time>2026-05-02T12:00:06.003Z</time></trkpt><trkpt lat="44.03590968050949" lon="10.88157571593587"><ele>701.0</ele><time>2026-05-02T12:00:10.003Z</time></trkpt><trkpt lat="44.03587966817008" lon="10.881463652292487"><ele>701.0</ele><time>2026-05-02T12:00:15.003Z</time></trkpt><trkpt lat="44.03583020557528" lon="10.881375048503132"><ele>700.2857142857143</ele><time>2026-05-02T12:00:20.003Z</time></trkpt><trkpt lat="44.03579121749273" lon="10.881297411519434"><ele>699.5714285714286</ele><time>2026-05-02T12:00:24.003Z</time></trkpt><trkpt lat="44.03573377717147" lon="10.881260804378886"><ele>698.8571428571429</ele><time>2026-05-02T12:00:28.003Z</time></trkpt><trkpt lat="44.03575935811727" lon="10.881365302094009"><ele>698.1428571428571</ele><time>2026-05-02T12:00:39.003Z</time></trkpt><trkpt lat="44.03578513310502" lon="10.881450058898073"><ele>697.4285714285714</ele><time>2026-05-02T12:00:45.003Z</time></trkpt><trkpt lat="44.03583322164672" lon="10.881521475358403"><ele>696.7142857142857</ele><time>2026-05-02T12:00:50.003Z</time></trkpt><trkpt lat="44.03583538127935" lon="10.881635235174018"><ele>696.0</ele><time>2026-05-02T12:00:55.003Z</time></trkpt><trkpt lat="44.03580275044067" lon="10.881739038240124"><ele>701.4285714285714</ele><time>2026-05-02T12:00:58.003Z</time></trkpt><trkpt lat="44.03576813721194" lon="10.881826331825488"><ele>706.8571428571429</ele><time>2026-05-02T12:01:01.003Z</time></trkpt><trkpt lat="44.03576317747638" lon="10.881916676128293"><ele>712.2857142857142</ele><time>2026-05-02T12:01:05.003Z</time></trkpt><trkpt lat="44.03577968171975" lon="10.88200951709166"><ele>717.7142857142858</ele><time>2026-05-02T12:01:09.003Z</time></trkpt><trkpt lat="44.03578996099942" lon="10.882117314425246"><ele>723.1428571428572</ele><time>2026-05-02T12:01:14.003Z</time></trkpt><trkpt lat="44.0357934011681" lon="10.882219928817394"><ele>728.5714285714286</ele><time>2026-05-02T12:01:19.003Z</time></trkpt><trkpt lat="44.035765262074285" lon="10.882308770348041"><ele>734.0</ele><time>2026-05-02T12:01:23.003Z</time></trkpt><trkpt lat="44.03571284783299" lon="10.882242486186247"><ele>734.0</ele><time>2026-05-02T12:01:32.003Z</time></trkpt><trkpt lat="44.03568457263961" lon="10.88215090609627"><ele>734.0</ele><time>2026-05-02T12:01:39.003Z</time></trkpt><trkpt lat="44.03565267213443" lon="10.882058347440678"><ele>734.0</ele><time>2026-05-02T12:01:45.003Z</time></trkpt><trkpt lat="44.03561461215304" lon="10.881979270558077"><ele>734.0</ele><time>2026-05-02T12:01:50.003Z</time></trkpt><trkpt lat="44.03559435364757" lon="10.881894939958343"><ele>734.0</ele><time>2026-05-02T12:01:54.003Z</time></trkpt><trkpt lat="44.03556040927297" lon="10.88181020705069"><ele>734.0</ele><time>2026-05-02T12:01:58.003Z</time></trkpt><trkpt lat="44.03551305899897" lon="10.881722437239272"><ele>734.0</ele><time>2026-05-02T12:02:02.003Z</time></trkpt><trkpt lat="44.035471507596654" lon="10.88165424837049"><ele>732.5714285714286</ele><time>2026-05-02T12:02:04.003Z</time></trkpt><trkpt lat="44.035412890586464" lon="10.881568952367077"><ele>731.1428571428572</ele><time>2026-05-02T12:02:07.003Z</time></trkpt><trkpt lat="44.035361732327985" lon="10.881514404563992"><ele>729.7142857142858</ele><time>2026-05-02T12:02:09.003Z</time></trkpt><trkpt lat="44.03529695700508" lon="10.881465034659957"><ele>728.2857142857142</ele><time>2026-05-02T12:02:12.003Z</time></trkpt><trkpt lat="44.035227904028275" lon="10.881433028344812"><ele>726.8571428571429</ele><time>2026-05-02T12:02:14.003Z</time></trkpt><trkpt lat="44.03515934686825" lon="10.88140645948607"><ele>725.4285714285714</ele><time>2026-05-02T12:02:17.003Z</time></trkpt><trkpt lat="44.03509147909395" lon="10.881375663446565"><ele>724.0</ele><time>2026-05-02T12:02:20.003Z</time></trkpt><trkpt lat="44.03501426615231" lon="10.881314717254822"><ele>724.0</ele><time>2026-05-02T12:02:23.003Z</time></trkpt><trkpt lat="44.03497473640676" lon="10.881221853307231"><ele>724.0</ele><time>2026-05-02T12:02:26.003Z</time></trkpt><trkpt lat="44.03497335340972" lon="10.881124827396924"><ele>724.0</ele><time>2026-05-02T12:02:30.003Z</time></trkpt><trkpt lat="44.034967674761205" lon="10.881027795015351"><ele>724.0</ele><time>2026-05-02T12:02:34.003Z</time></trkpt><trkpt lat="44.0349701592503" lon="10.88092431634088"><ele>724.0</ele><time>2026-05-02T12:02:38.003Z</time></trkpt><trkpt lat="44.03494727388865" lon="10.880833179668274"><ele>724.0</ele><time>2026-05-02T12:02:41.003Z</time></trkpt><trkpt lat="44.034925655599224" lon="10.880712426024486"><ele>727.4285714285714</ele><time>2026-05-02T12:02:45.003Z</time></trkpt><trkpt lat="44.03491778693613" lon="10.88062393621898"><ele>730.8571428571429</ele><time>2026-05-02T12:02:48.003Z</time></trkpt><trkpt lat="44.03489519279604" lon="10.880518902136002"><ele>734.2857142857142</ele><time>2026-05-02T12:02:52.003Z</time></trkpt><trkpt lat="44.034865446395855" lon="10.880431380291636"><ele>737.7142857142858</ele><time>2026-05-02T12:02:55.003Z</time></trkpt><trkpt lat="44.03482148149673" lon="10.880343701362575"><ele>741.1428571428572</ele><time>2026-05-02T12:02:59.003Z</time></trkpt><trkpt lat="44.03477597252575" lon="10.880265844846896"><ele>744.5714285714286</ele><time>2026-05-02T12:03:03.003Z</time></trkpt><trkpt lat="44.034723756306875" lon="10.880197779754548"><ele>748.0</ele><time>2026-05-02T12:03:07.003Z</time></trkpt><trkpt lat="44.03467206979881" lon="10.880130301281381"><ele>745.8571428571428</ele><time>2026-05-02T12:03:12.003Z</time></trkpt><trkpt lat="44.03463375831851" lon="10.880060421668215"><ele>743.7142857142858</ele><time>2026-05-02T12:03:16.003Z</time></trkpt><trkpt lat="44.03457648881563" lon="10.880004572147016"><ele>741.5714285714286</ele><time>2026-05-02T12:03:20.003Z</time></trkpt><trkpt lat="44.034528146101906" lon="10.879945964865385"><ele>739.4285714285713</ele><time>2026-05-02T12:03:24.003Z</time></trkpt><trkpt lat="44.03446365554057" lon="10.879899104970132"><ele>737.2857142857142</ele><time>2026-05-02T12:03:28.003Z</time></trkpt><trkpt lat="44.03439772562658" lon="10.87984726863218"><ele>735.1428571428571</ele><time>2026-05-02T12:03:33.003Z</time></trkpt><trkpt lat="44.03432912518997" lon="10.879794447628525"><ele>733.0</ele><time>2026-05-02T12:03:37.003Z</time></trkpt><trkpt lat="44.03426463976026" lon="10.879761657096726"><ele>732.9999999999999</ele><time>2026-05-02T12:03:41.004Z</time></trkpt><trkpt lat="44.03419836881786" lon="10.879712466082724"><ele>733.0</ele><time>2026-05-02T12:03:45.004Z</time></trkpt><trkpt lat="44.03413928256226" lon="10.879678954664588"><ele>733.0</ele><time>2026-05-02T12:03:50.003Z</time></trkpt><trkpt lat="44.034081537911945" lon="10.879643786711156"><ele>733.0</ele><time>2026-05-02T12:03:56.004Z</time></trkpt><trkpt lat="44.034019857367205" lon="10.879591550044667"><ele>733.0</ele><time>2026-05-02T12:04:01.004Z</time></trkpt><trkpt lat="44.03394766917517" lon="10.879545583006953"><ele>732.9999999999999</ele><time>2026-05-02T12:04:05.004Z</time></trkpt><trkpt lat="44.03388099425733" lon="10.879496205986056"><ele>733.0</ele><time>2026-05-02T12:04:09.004Z</time></trkpt><trkpt lat="44.033796108118295" lon="10.879451657693295"><ele>733.5</ele><time>2026-05-02T12:04:13.004Z</time></trkpt><trkpt lat="44.03372377628604" lon="10.879404880886797"><ele>734.0</ele><time>2026-05-02T12:04:16.004Z</time></trkpt><trkpt lat="44.03366092096946" lon="10.87936268495434"><ele>734.5</ele><time>2026-05-02T12:04:20.004Z</time></trkpt><trkpt lat="44.03358421120618" lon="10.87931690911571"><ele>735.0</ele><time>2026-05-02T12:04:24.004Z</time></trkpt><trkpt lat="44.03351837998021" lon="10.879277813937518"><ele>735.5</ele><time>2026-05-02T12:04:27.004Z</time></trkpt><trkpt lat="44.03345984121533" lon="10.879208139203527"><ele>736.0</ele><time>2026-05-02T12:04:32.004Z</time></trkpt><trkpt lat="44.03339459843254" lon="10.879140826922017"><ele>736.0</ele><time>2026-05-02T12:04:37.004Z</time></trkpt><trkpt lat="44.03333045321569" lon="10.879091093607324"><ele>736.0</ele><time>2026-05-02T12:04:41.004Z</time></trkpt><trkpt lat="44.0332764474521" lon="10.879045362987847"><ele>736.0</ele><time>2026-05-02T12:04:44.004Z</time></trkpt><trkpt lat="44.0332171455066" lon="10.8789875659125"><ele>736.0</ele><time>2026-05-02T12:04:47.004Z</time></trkpt><trkpt lat="44.03315097948932" lon="10.878914505980656"><ele>736.0</ele><time>2026-05-02T12:04:52.004Z</time></trkpt><trkpt lat="44.03306992806629" lon="10.878850298637808"><ele>736.0</ele><time>2026-05-02T12:04:56.004Z</time></trkpt><trkpt lat="44.03302104798808" lon="10.878785475540912"><ele>736.0</ele><time>2026-05-02T12:04:59.004Z</time></trkpt><trkpt lat="44.03296598817408" lon="10.878717546728842"><ele>736.0</ele><time>2026-05-02T12:05:03.004Z</time></trkpt><trkpt lat="44.03290839606422" lon="10.878656434338167"><ele>736.0</ele><time>2026-05-02T12:05:06.004Z</time></trkpt><trkpt lat="44.032851850555524" lon="10.87860869252255"><ele>736.0</ele><time>2026-05-02T12:05:09.004Z</time></trkpt><trkpt lat="44.03278786959118" lon="10.878539248950792"><ele>736.0</ele><time>2026-05-02T12:05:13.004Z</time></trkpt><trkpt lat="44.03272000095587" lon="10.878485516715132"><ele>736.0</ele><time>2026-05-02T12:05:17.004Z</time></trkpt><trkpt lat="44.032647533229316" lon="10.878433540016987"><ele>736.0</ele><time>2026-05-02T12:05:20.004Z</time></trkpt><trkpt lat="44.032582854148544" lon="10.87838895482481"><ele>736.0</ele><time>2026-05-02T12:05:23.004Z</time></trkpt><trkpt lat="44.03251402520298" lon="10.87835405517582"><ele>736.0</ele><time>2026-05-02T12:05:26.004Z</time></trkpt><trkpt lat="44.032448260952265" lon="10.878319634904935"><ele>736.0</ele><time>2026-05-02T12:05:29.004Z</time></trkpt><trkpt lat="44.03238433189674" lon="10.878307499453431"><ele>736.0</ele><time>2026-05-02T12:05:31.004Z</time></trkpt><trkpt lat="44.03230386614831" lon="10.878284739624723"><ele>736.0</ele><time>2026-05-02T12:05:34.004Z</time></trkpt><trkpt lat="44.032231799988" lon="10.878264668524109"><ele>736.0</ele><time>2026-05-02T12:05:37.004Z</time></trkpt><trkpt lat="44.03216762306383" lon="10.878252107799526"><ele>736.5</ele><time>2026-05-02T12:05:39.004Z</time></trkpt><trkpt lat="44.03207963879056" lon="10.878244036325938"><ele>737.0</ele><time>2026-05-02T12:05:42.004Z</time></trkpt><trkpt lat="44.03200334971431" lon="10.878241197529368"><ele>737.5</ele><time>2026-05-02T12:05:44.004Z</time></trkpt><trkpt lat="44.03191587775696" lon="10.878260262109395"><ele>738.0</ele><time>2026-05-02T12:05:46.004Z</time></trkpt><trkpt lat="44.03185167319927" lon="10.87828472921086"><ele>738.5</ele><time>2026-05-02T12:05:47.004Z</time></trkpt><trkpt lat="44.03176038112792" lon="10.8783875632993"><ele>739.0</ele><time>2026-05-02T12:05:49.004Z</time></trkpt><trkpt lat="44.031678213214555" lon="10.878481705551064"><ele>738.3333333333334</ele><time>2026-05-02T12:05:51.004Z</time></trkpt><trkpt lat="44.03161586279403" lon="10.878464838170883"><ele>737.6666666666667</ele><time>2026-05-02T12:05:53.004Z</time></trkpt><trkpt lat="44.03153784066791" lon="10.87842948847651"><ele>737.0</ele><time>2026-05-02T12:05:57.003Z</time></trkpt><trkpt lat="44.03144428325243" lon="10.87840760751421"><ele>736.3333333333334</ele><time>2026-05-02T12:06:00.004Z</time></trkpt><trkpt lat="44.03134295882092" lon="10.878395197072887"><ele>735.6666666666666</ele><time>2026-05-02T12:06:03.004Z</time></trkpt><trkpt lat="44.031273859236364" lon="10.878397511690194"><ele>735.0</ele><time>2026-05-02T12:06:05.004Z</time></trkpt><trkpt lat="44.03121075483584" lon="10.878408977162238"><ele>740.2</ele><time>2026-05-02T12:06:07.003Z</time></trkpt><trkpt lat="44.03108943590886" lon="10.878444853609448"><ele>745.4</ele><time>2026-05-02T12:06:10.003Z</time></trkpt><trkpt lat="44.03101984221404" lon="10.878532852905279"><ele>750.5999999999999</ele><time>2026-05-02T12:06:12.003Z</time></trkpt><trkpt lat="44.03095988929182" lon="10.878625819258465"><ele>755.8</ele><time>2026-05-02T12:06:14.003Z</time></trkpt><trkpt lat="44.03090326359774" lon="10.87873148684939"><ele>761.0</ele><time>2026-05-02T12:06:17.003Z</time></trkpt><trkpt lat="44.03082302010391" lon="10.878729554253596"><ele>762.5</ele><time>2026-05-02T12:06:19.003Z</time></trkpt><trkpt lat="44.0307738042076" lon="10.878662067278645"><ele>764.0</ele><time>2026-05-02T12:06:21.003Z</time></trkpt><trkpt lat="44.030740786324294" lon="10.87856015458819"><ele>765.5</ele><time>2026-05-02T12:06:25.003Z</time></trkpt><trkpt lat="44.030689057417945" lon="10.878491441615484"><ele>767.0</ele><time>2026-05-02T12:06:28.003Z</time></trkpt><trkpt lat="44.03065475421498" lon="10.878392347455623"><ele>768.5000000000001</ele><time>2026-05-02T12:06:32.004Z</time></trkpt><trkpt lat="44.03061258268752" lon="10.878311614578848"><ele>770.0</ele><time>2026-05-02T12:06:35.004Z</time></trkpt><trkpt lat="44.03060473688156" lon="10.878199119660085"><ele>767.1428571428571</ele><time>2026-05-02T12:06:38.004Z</time></trkpt><trkpt lat="44.03055928375094" lon="10.8781114345211"><ele>764.2857142857142</ele><time>2026-05-02T12:06:41.004Z</time></trkpt><trkpt lat="44.03051307663327" lon="10.878051277800228"><ele>761.4285714285714</ele><time>2026-05-02T12:06:43.004Z</time></trkpt><trkpt lat="44.030445253530154" lon="10.878002062285935"><ele>758.5714285714286</ele><time>2026-05-02T12:06:45.004Z</time></trkpt><trkpt lat="44.030382601836855" lon="10.877968917070108"><ele>755.7142857142857</ele><time>2026-05-02T12:06:47.004Z</time></trkpt><trkpt lat="44.03031746035583" lon="10.87794573381369"><ele>752.8571428571429</ele><time>2026-05-02T12:06:49.004Z</time></trkpt><trkpt lat="44.030261288664825" lon="10.877900880202064"><ele>750.0</ele><time>2026-05-02T12:06:52.004Z</time></trkpt><trkpt lat="44.030185584250106" lon="10.877883706427879"><ele>750.0</ele><time>2026-05-02T12:06:55.004Z</time></trkpt><trkpt lat="44.03010775667693" lon="10.877897763194076"><ele>750.0</ele><time>2026-05-02T12:06:59.004Z</time></trkpt><trkpt lat="44.0300373733389" lon="10.877929189257843"><ele>750.0</ele><time>2026-05-02T12:07:03.004Z</time></trkpt><trkpt lat="44.02996905297444" lon="10.877965956930497"><ele>750.0</ele><time>2026-05-02T12:07:07.004Z</time></trkpt><trkpt lat="44.02990317886338" lon="10.878013199861973"><ele>750.0</ele><time>2026-05-02T12:07:11.004Z</time></trkpt><trkpt lat="44.02982480217062" lon="10.878049944490526"><ele>750.0</ele><time>2026-05-02T12:07:15.004Z</time></trkpt><trkpt lat="44.0297442790051" lon="10.87810102065031"><ele>750.1428571428572</ele><time>2026-05-02T12:07:19.004Z</time></trkpt><trkpt lat="44.02968054313623" lon="10.878151942112888"><ele>750.2857142857142</ele><time>2026-05-02T12:07:22.004Z</time></trkpt><trkpt lat="44.02961098841442" lon="10.878201810071015"><ele>750.4285714285714</ele><time>2026-05-02T12:07:25.004Z</time></trkpt><trkpt lat="44.029550373570835" lon="10.878252248848113"><ele>750.5714285714287</ele><time>2026-05-02T12:07:28.004Z</time></trkpt><trkpt lat="44.029491095013704" lon="10.878304466197283"><ele>750.7142857142858</ele><time>2026-05-02T12:07:32.004Z</time></trkpt><trkpt lat="44.02942776296085" lon="10.878357325483261"><ele>750.8571428571429</ele><time>2026-05-02T12:07:35.004Z</time></trkpt><trkpt lat="44.02936941470991" lon="10.878425940265485"><ele>751.0</ele><time>2026-05-02T12:07:38.004Z</time></trkpt><trkpt lat="44.029320529717616" lon="10.8784951305815"><ele>751.0</ele><time>2026-05-02T12:07:41.004Z</time></trkpt><trkpt lat="44.02926697736173" lon="10.878560600035469"><ele>751.0</ele><time>2026-05-02T12:07:44.004Z</time></trkpt><trkpt lat="44.02921467428712" lon="10.878654609727326"><ele>751.0</ele><time>2026-05-02T12:07:47.004Z</time></trkpt><trkpt lat="44.02918294898641" lon="10.878737983544065"><ele>751.0</ele><time>2026-05-02T12:07:49.004Z</time></trkpt><trkpt lat="44.029159299119726" lon="10.878836913952671"><ele>751.0</ele><time>2026-05-02T12:07:51.004Z</time></trkpt><trkpt lat="44.029159070849644" lon="10.878954281472053"><ele>751.0</ele><time>2026-05-02T12:07:53.004Z</time></trkpt><trkpt lat="44.02917180721892" lon="10.879080351235702"><ele>751.0</ele><time>2026-05-02T12:07:55.004Z</time></trkpt><trkpt lat="44.0291906599389" lon="10.879190684168856"><ele>751.0</ele><time>2026-05-02T12:07:57.004Z</time></trkpt><trkpt lat="44.0291962396042" lon="10.8792918051608"><ele>751.0</ele><time>2026-05-02T12:08:01.004Z</time></trkpt><trkpt lat="44.029242046954536" lon="10.879372022592875"><ele>751.0</ele><time>2026-05-02T12:08:05.004Z</time></trkpt><trkpt lat="44.02928818095397" lon="10.879448346901057"><ele>751.0</ele><time>2026-05-02T12:08:13.004Z</time></trkpt><trkpt lat="44.02931631236929" lon="10.879543480107618"><ele>751.0</ele><time>2026-05-02T12:08:18.004Z</time></trkpt><trkpt lat="44.02930647829333" lon="10.879651453146137"><ele>752.1428571428572</ele><time>2026-05-02T12:08:23.004Z</time></trkpt><trkpt lat="44.02928996105905" lon="10.879741397307809"><ele>753.2857142857143</ele><time>2026-05-02T12:08:27.004Z</time></trkpt><trkpt lat="44.029306959770445" lon="10.879843586919383"><ele>754.4285714285714</ele><time>2026-05-02T12:08:31.004Z</time></trkpt><trkpt lat="44.029304824692275" lon="10.879958615528299"><ele>755.5714285714287</ele><time>2026-05-02T12:08:36.004Z</time></trkpt><trkpt lat="44.02924703433551" lon="10.880023421019903"><ele>756.7142857142857</ele><time>2026-05-02T12:08:40.004Z</time></trkpt><trkpt lat="44.02920004448472" lon="10.879952858870862"><ele>757.8571428571429</ele><time>2026-05-02T12:08:49.004Z</time></trkpt><trkpt lat="44.029187545477704" lon="10.879865934257696"><ele>759.0</ele><time>2026-05-02T12:08:58.004Z</time></trkpt><trkpt lat="44.029161434980885" lon="10.879762002924787"><ele>758.8333333333334</ele><time>2026-05-02T12:09:04.005Z</time></trkpt><trkpt lat="44.029105569286806" lon="10.879720567142199"><ele>758.6666666666666</ele><time>2026-05-02T12:09:07.005Z</time></trkpt><trkpt lat="44.02902931072955" lon="10.879692277721125"><ele>758.5</ele><time>2026-05-02T12:09:10.005Z</time></trkpt><trkpt lat="44.02896776081723" lon="10.87964681820203"><ele>758.3333333333333</ele><time>2026-05-02T12:09:14.005Z</time></trkpt><trkpt lat="44.02890355811113" lon="10.879584690995138"><ele>758.1666666666666</ele><time>2026-05-02T12:09:19.005Z</time></trkpt><trkpt lat="44.028825009112936" lon="10.879542022126095"><ele>758.0</ele><time>2026-05-02T12:09:24.005Z</time></trkpt><trkpt lat="44.02875474621277" lon="10.879492867935346"><ele>758.0000000000001</ele><time>2026-05-02T12:09:28.005Z</time></trkpt><trkpt lat="44.02869239861682" lon="10.879440974049063"><ele>758.0</ele><time>2026-05-02T12:09:32.005Z</time></trkpt><trkpt lat="44.028625565636055" lon="10.879408491259614"><ele>758.0</ele><time>2026-05-02T12:09:36.005Z</time></trkpt><trkpt lat="44.02856476372094" lon="10.87938105629706"><ele>758.0</ele><time>2026-05-02T12:09:40.005Z</time></trkpt><trkpt lat="44.02850097583171" lon="10.879348909740337"><ele>758.0</ele><time>2026-05-02T12:09:44.005Z</time></trkpt><trkpt lat="44.028440255263256" lon="10.879302813210066"><ele>758.0000000000001</ele><time>2026-05-02T12:09:48.005Z</time></trkpt><trkpt lat="44.02837649694954" lon="10.879282151170719"><ele>758.0</ele><time>2026-05-02T12:09:53.005Z</time></trkpt><trkpt lat="44.028315035599164" lon="10.879193214412085"><ele>753.1666666666666</ele><time>2026-05-02T12:09:57.005Z</time></trkpt><trkpt lat="44.02827904193395" lon="10.879111506243056"><ele>748.3333333333333</ele><time>2026-05-02T12:09:59.005Z</time></trkpt><trkpt lat="44.028232590976174" lon="10.879008970770995"><ele>743.5</ele><time>2026-05-02T12:10:03.005Z</time></trkpt><trkpt lat="44.02818165182544" lon="10.87894098521693"><ele>738.6666666666666</ele><time>2026-05-02T12:10:07.004Z</time></trkpt><trkpt lat="44.02815097592984" lon="10.878860677899597"><ele>733.8333333333334</ele><time>2026-05-02T12:10:11.004Z</time></trkpt><trkpt lat="44.02812720567186" lon="10.87874764436726"><ele>729.0</ele><time>2026-05-02T12:10:15.004Z</time></trkpt><trkpt lat="44.0280992805859" lon="10.878651331062681"><ele>729.0</ele><time>2026-05-02T12:10:18.004Z</time></trkpt><trkpt lat="44.02807016670397" lon="10.87854835754537"><ele>729.0</ele><time>2026-05-02T12:10:22.005Z</time></trkpt><trkpt lat="44.02805292660215" lon="10.878448187832364"><ele>729.0</ele><time>2026-05-02T12:10:25.005Z</time></trkpt><trkpt lat="44.028030004349134" lon="10.878339617178584"><ele>729.0</ele><time>2026-05-02T12:10:29.005Z</time></trkpt><trkpt lat="44.0280071233418" lon="10.878237902322823"><ele>729.0</ele><time>2026-05-02T12:10:32.005Z</time></trkpt><trkpt lat="44.027981270179275" lon="10.87812997243554"><ele>729.0</ele><time>2026-05-02T12:10:35.005Z</time></trkpt><trkpt lat="44.027955720910505" lon="10.878023311145332"><ele>730.4285714285714</ele><time>2026-05-02T12:10:38.005Z</time></trkpt><trkpt lat="44.02793151511331" lon="10.877922258486773"><ele>731.8571428571428</ele><time>2026-05-02T12:10:41.005Z</time></trkpt><trkpt lat="44.02790324820252" lon="10.87780425179174"><ele>733.2857142857142</ele><time>2026-05-02T12:10:44.005Z</time></trkpt><trkpt lat="44.027879454254155" lon="10.877705266560579"><ele>734.7142857142858</ele><time>2026-05-02T12:10:46.005Z</time></trkpt><trkpt lat="44.02785707946421" lon="10.877613697672304"><ele>736.1428571428571</ele><time>2026-05-02T12:10:48.005Z</time></trkpt><trkpt lat="44.02783591992027" lon="10.877527102131296"><ele>737.5714285714286</ele><time>2026-05-02T12:10:50.005Z</time></trkpt><trkpt lat="44.02781490635392" lon="10.877441103962754"><ele>739.0</ele><time>2026-05-02T12:10:52.005Z</time></trkpt><trkpt lat="44.027788237584666" lon="10.877331961913038"><ele>741.2857142857143</ele><time>2026-05-02T12:10:54.005Z</time></trkpt><trkpt lat="44.02776655973639" lon="10.87724324522363"><ele>743.5714285714287</ele><time>2026-05-02T12:10:56.005Z</time></trkpt><trkpt lat="44.02774570074771" lon="10.877140445713284"><ele>745.8571428571429</ele><time>2026-05-02T12:10:58.005Z</time></trkpt><trkpt lat="44.02772216404676" lon="10.877049851845342"><ele>748.1428571428571</ele><time>2026-05-02T12:11:00.005Z</time></trkpt><trkpt lat="44.02769792325106" lon="10.876962349997767"><ele>750.4285714285714</ele><time>2026-05-02T12:11:02.005Z</time></trkpt><trkpt lat="44.02767355225852" lon="10.876856237037032"><ele>752.7142857142857</ele><time>2026-05-02T12:11:04.005Z</time></trkpt><trkpt lat="44.02764967936189" lon="10.876751571320717"><ele>755.0</ele><time>2026-05-02T12:11:06.005Z</time></trkpt><trkpt lat="44.027625974851475" lon="10.876615916244234"><ele>754.8333333333333</ele><time>2026-05-02T12:11:09.005Z</time></trkpt><trkpt lat="44.02754444869678" lon="10.876577993522439"><ele>754.6666666666666</ele><time>2026-05-02T12:11:11.005Z</time></trkpt><trkpt lat="44.02749929916786" lon="10.876496328094829"><ele>754.5</ele><time>2026-05-02T12:11:13.005Z</time></trkpt><trkpt lat="44.02745610652791" lon="10.876406914083113"><ele>754.3333333333334</ele><time>2026-05-02T12:11:16.005Z</time></trkpt><trkpt lat="44.02739935431464" lon="10.876303930271602"><ele>754.1666666666667</ele><time>2026-05-02T12:11:19.005Z</time></trkpt><trkpt lat="44.027330331707255" lon="10.876224487037346"><ele>754.0</ele><time>2026-05-02T12:11:22.005Z</time></trkpt><trkpt lat="44.02725274310868" lon="10.876185706023081"><ele>754.0</ele><time>2026-05-02T12:11:25.005Z</time></trkpt><trkpt lat="44.027149964216015" lon="10.876168915739466"><ele>754.0</ele><time>2026-05-02T12:11:29.005Z</time></trkpt><trkpt lat="44.02705488616311" lon="10.876146920891745"><ele>754.0</ele><time>2026-05-02T12:11:31.005Z</time></trkpt><trkpt lat="44.02695796624394" lon="10.876122797653634"><ele>754.0</ele><time>2026-05-02T12:11:33.005Z</time></trkpt><trkpt lat="44.02684998884887" lon="10.87611295544775"><ele>754.0</ele><time>2026-05-02T12:11:35.005Z</time></trkpt><trkpt lat="44.026761154634336" lon="10.876120032286535"><ele>754.0</ele><time>2026-05-02T12:11:37.005Z</time></trkpt><trkpt lat="44.02665506207402" lon="10.876100941746788"><ele>754.0</ele><time>2026-05-02T12:11:39.005Z</time></trkpt><trkpt lat="44.026564302481226" lon="10.876117200250986"><ele>754.0</ele><time>2026-05-02T12:11:41.005Z</time></trkpt><trkpt lat="44.026485444143816" lon="10.876126297211231"><ele>754.0</ele><time>2026-05-02T12:11:43.005Z</time></trkpt><trkpt lat="44.0264075419924" lon="10.876094475237021"><ele>754.0</ele><time>2026-05-02T12:11:45.005Z</time></trkpt><trkpt lat="44.02633144072027" lon="10.876063717795887"><ele>754.0</ele><time>2026-05-02T12:11:47.005Z</time></trkpt><trkpt lat="44.02625244338117" lon="10.876066044695296"><ele>752.1666666666667</ele><time>2026-05-02T12:11:50.005Z</time></trkpt><trkpt lat="44.026160473984675" lon="10.876060754601134"><ele>750.3333333333334</ele><time>2026-05-02T12:11:53.005Z</time></trkpt><trkpt lat="44.02608199118044" lon="10.876066244872064"><ele>748.5</ele><time>2026-05-02T12:11:56.005Z</time></trkpt><trkpt lat="44.02599749370277" lon="10.876047748566116"><ele>746.6666666666666</ele><time>2026-05-02T12:11:59.005Z</time></trkpt><trkpt lat="44.02593023190802" lon="10.876020959962002"><ele>744.8333333333333</ele><time>2026-05-02T12:12:01.005Z</time></trkpt><trkpt lat="44.025849400145134" lon="10.875998544414486"><ele>743.0</ele><time>2026-05-02T12:12:03.005Z</time></trkpt><trkpt lat="44.02575220090546" lon="10.875945585802086"><ele>742.3333333333333</ele><time>2026-05-02T12:12:06.005Z</time></trkpt><trkpt lat="44.02567207613101" lon="10.875905583699332"><ele>741.6666666666666</ele><time>2026-05-02T12:12:08.005Z</time></trkpt><trkpt lat="44.025591281987474" lon="10.875885813568065"><ele>741.0</ele><time>2026-05-02T12:12:10.005Z</time></trkpt><trkpt lat="44.025504074468046" lon="10.875858996714951"><ele>740.3333333333334</ele><time>2026-05-02T12:12:12.004Z</time></trkpt><trkpt lat="44.02541445656757" lon="10.875827013252522"><ele>739.6666666666667</ele><time>2026-05-02T12:12:14.005Z</time></trkpt><trkpt lat="44.02531757560411" lon="10.875790454133247"><ele>739.0</ele><time>2026-05-02T12:12:16.004Z</time></trkpt><trkpt lat="44.025238917496985" lon="10.875745216556819"><ele>739.0</ele><time>2026-05-02T12:12:18.004Z</time></trkpt><trkpt lat="44.02516664967398" lon="10.875693667746237"><ele>739.0</ele><time>2026-05-02T12:12:20.005Z</time></trkpt><trkpt lat="44.02511106403634" lon="10.875644169933782"><ele>739.0</ele><time>2026-05-02T12:12:22.005Z</time></trkpt><trkpt lat="44.025058852633855" lon="10.875580522771639"><ele>739.0</ele><time>2026-05-02T12:12:24.004Z</time></trkpt><trkpt lat="44.024993152906454" lon="10.875475765784197"><ele>739.0</ele><time>2026-05-02T12:12:26.004Z</time></trkpt><trkpt lat="44.0249295012501" lon="10.875407458401043"><ele>739.0</ele><time>2026-05-02T12:12:28.004Z</time></trkpt><trkpt lat="44.02486059186516" lon="10.875356435995844"><ele>738.5</ele><time>2026-05-02T12:12:30.004Z</time></trkpt><trkpt lat="44.02480453627805" lon="10.875283710937257"><ele>738.0</ele><time>2026-05-02T12:12:32.004Z</time></trkpt><trkpt lat="44.02474522510132" lon="10.875228271512928"><ele>737.5</ele><time>2026-05-02T12:12:34.005Z</time></trkpt><trkpt lat="44.024673768109174" lon="10.875176419746326"><ele>737.0</ele><time>2026-05-02T12:12:36.005Z</time></trkpt><trkpt lat="44.02461095985387" lon="10.875108875289703"><ele>736.5</ele><time>2026-05-02T12:12:38.005Z</time></trkpt><trkpt lat="44.02457332273166" lon="10.87499212256448"><ele>736.0</ele><time>2026-05-02T12:12:40.005Z</time></trkpt><trkpt lat="44.024543631818574" lon="10.874851966073486"><ele>736.0</ele><time>2026-05-02T12:12:42.005Z</time></trkpt><trkpt lat="44.02458199527832" lon="10.874730820564608"><ele>736.0</ele><time>2026-05-02T12:12:44.005Z</time></trkpt><trkpt lat="44.02461286453213" lon="10.874588149103314"><ele>736.0</ele><time>2026-05-02T12:12:46.005Z</time></trkpt><trkpt lat="44.02461862151095" lon="10.874454192997012"><ele>736.0</ele><time>2026-05-02T12:12:48.005Z</time></trkpt><trkpt lat="44.024601413301895" lon="10.874348934685704"><ele>736.0</ele><time>2026-05-02T12:12:50.005Z</time></trkpt><trkpt lat="44.02453943399048" lon="10.874279525182274"><ele>738.8571428571429</ele><time>2026-05-02T12:12:55.005Z</time></trkpt><trkpt lat="44.02448365525379" lon="10.874205631627527"><ele>741.7142857142857</ele><time>2026-05-02T12:12:58.005Z</time></trkpt><trkpt lat="44.02447823491686" lon="10.874106485513261"><ele>744.5714285714286</ele><time>2026-05-02T12:13:02.005Z</time></trkpt><trkpt lat="44.02441713515541" lon="10.87403167682823"><ele>747.4285714285714</ele><time>2026-05-02T12:13:05.005Z</time></trkpt><trkpt lat="44.024345231182984" lon="10.873993502966131"><ele>750.2857142857142</ele><time>2026-05-02T12:13:08.005Z</time></trkpt><trkpt lat="44.024299959556785" lon="10.873912615217693"><ele>753.1428571428571</ele><time>2026-05-02T12:13:11.005Z</time></trkpt><trkpt lat="44.02426735374225" lon="10.873835654571515"><ele>756.0</ele><time>2026-05-02T12:13:14.005Z</time></trkpt><trkpt lat="44.02424634091057" lon="10.873751489651067"><ele>756.0</ele><time>2026-05-02T12:13:17.005Z</time></trkpt><trkpt lat="44.02420927898932" lon="10.873665361220459"><ele>756.0</ele><time>2026-05-02T12:13:20.005Z</time></trkpt><trkpt lat="44.02416269694683" lon="10.873584700838553"><ele>756.0</ele><time>2026-05-02T12:13:23.005Z</time></trkpt><trkpt lat="44.024124645928275" lon="10.873485228619092"><ele>756.0</ele><time>2026-05-02T12:13:27.005Z</time></trkpt><trkpt lat="44.024083577881605" lon="10.873382311488394"><ele>756.0</ele><time>2026-05-02T12:13:30.005Z</time></trkpt><trkpt lat="44.02406995180838" lon="10.873280490376894"><ele>756.0</ele><time>2026-05-02T12:13:34.005Z</time></trkpt><trkpt lat="44.02405456822088" lon="10.873173274838914"><ele>760.5</ele><time>2026-05-02T12:13:38.005Z</time></trkpt><trkpt lat="44.02402989176258" lon="10.873070783725616"><ele>765.0</ele><time>2026-05-02T12:13:41.005Z</time></trkpt><trkpt lat="44.02400212324631" lon="10.872954007559533"><ele>769.5</ele><time>2026-05-02T12:13:44.005Z</time></trkpt><trkpt lat="44.02398937529141" lon="10.87286377613807"><ele>774.0</ele><time>2026-05-02T12:13:46.005Z</time></trkpt><trkpt lat="44.023977669550014" lon="10.872742847304847"><ele>778.5</ele><time>2026-05-02T12:13:49.005Z</time></trkpt><trkpt lat="44.02392822485569" lon="10.872660346754639"><ele>783.0</ele><time>2026-05-02T12:13:52.005Z</time></trkpt><trkpt lat="44.023890006185674" lon="10.872561269675893"><ele>783.0</ele><time>2026-05-02T12:13:55.005Z</time></trkpt><trkpt lat="44.02384984897675" lon="10.872486263472398"><ele>783.0</ele><time>2026-05-02T12:13:57.005Z</time></trkpt><trkpt lat="44.02380540611367" lon="10.87238028585779"><ele>783.0</ele><time>2026-05-02T12:14:00.005Z</time></trkpt><trkpt lat="44.02373881551889" lon="10.872276404395928"><ele>783.0</ele><time>2026-05-02T12:14:03.005Z</time></trkpt><trkpt lat="44.023694884443834" lon="10.872192391490895"><ele>783.0</ele><time>2026-05-02T12:14:06.005Z</time></trkpt><trkpt lat="44.023644095623474" lon="10.872127558035409"><ele>783.0</ele><time>2026-05-02T12:14:08.005Z</time></trkpt><trkpt lat="44.0235778566368" lon="10.872071633401534"><ele>783.0</ele><time>2026-05-02T12:14:10.005Z</time></trkpt><trkpt lat="44.023525039319466" lon="10.871998528895546"><ele>783.0</ele><time>2026-05-02T12:14:13.005Z</time></trkpt><trkpt lat="44.02348894266643" lon="10.871900191534193"><ele>783.0</ele><time>2026-05-02T12:14:16.005Z</time></trkpt><trkpt lat="44.02344416714254" lon="10.871786328226682"><ele>783.0</ele><time>2026-05-02T12:14:19.005Z</time></trkpt><trkpt lat="44.02342062079466" lon="10.871679855444576"><ele>783.0</ele><time>2026-05-02T12:14:22.005Z</time></trkpt><trkpt lat="44.02338928066266" lon="10.871586233248856"><ele>783.0</ele><time>2026-05-02T12:14:25.006Z</time></trkpt><trkpt lat="44.02335491621715" lon="10.871511996457818"><ele>783.7142857142857</ele><time>2026-05-02T12:14:27.005Z</time></trkpt><trkpt lat="44.023331291163935" lon="10.871429968533898"><ele>784.4285714285714</ele><time>2026-05-02T12:14:29.005Z</time></trkpt><trkpt lat="44.02332763954364" lon="10.871332969671188"><ele>785.1428571428571</ele><time>2026-05-02T12:14:31.005Z</time></trkpt><trkpt lat="44.02330950130071" lon="10.871246930887903"><ele>785.8571428571429</ele><time>2026-05-02T12:14:33.005Z</time></trkpt><trkpt lat="44.02328083065289" lon="10.871156010253518"><ele>786.5714285714287</ele><time>2026-05-02T12:14:35.005Z</time></trkpt><trkpt lat="44.02324224414398" lon="10.871081743848082"><ele>787.2857142857143</ele><time>2026-05-02T12:14:37.005Z</time></trkpt><trkpt lat="44.023197835270935" lon="10.87097761409352"><ele>788.0</ele><time>2026-05-02T12:14:40.005Z</time></trkpt><trkpt lat="44.02314190997775" lon="10.870910288117257"><ele>785.5000000000001</ele><time>2026-05-02T12:14:43.005Z</time></trkpt><trkpt lat="44.023069177203894" lon="10.87085555141536"><ele>783.0</ele><time>2026-05-02T12:14:46.005Z</time></trkpt><trkpt lat="44.02301434517593" lon="10.870812046849496"><ele>780.5</ele><time>2026-05-02T12:14:48.005Z</time></trkpt><trkpt lat="44.0229498680216" lon="10.870740813764197"><ele>778.0</ele><time>2026-05-02T12:14:52.005Z</time></trkpt><trkpt lat="44.022900087539675" lon="10.870682665487859"><ele>775.5000000000001</ele><time>2026-05-02T12:14:55.005Z</time></trkpt><trkpt lat="44.02283801581854" lon="10.870621035262987"><ele>773.0</ele><time>2026-05-02T12:14:58.005Z</time></trkpt><trkpt lat="44.02278867327618" lon="10.870521996788888"><ele>773.0000000000001</ele><time>2026-05-02T12:15:02.005Z</time></trkpt><trkpt lat="44.022729093404585" lon="10.870417731557373"><ele>773.0</ele><time>2026-05-02T12:15:06.005Z</time></trkpt><trkpt lat="44.02267939678453" lon="10.870340349217168"><ele>773.0</ele><time>2026-05-02T12:15:09.005Z</time></trkpt><trkpt lat="44.022625603933584" lon="10.870288349933281"><ele>773.0</ele><time>2026-05-02T12:15:11.005Z</time></trkpt><trkpt lat="44.022567772088884" lon="10.870246237102332"><ele>773.0000000000001</ele><time>2026-05-02T12:15:13.005Z</time></trkpt><trkpt lat="44.02249894954335" lon="10.87017858606389"><ele>773.0</ele><time>2026-05-02T12:15:16.005Z</time></trkpt><trkpt lat="44.02242141389394" lon="10.870120656818072"><ele>773.8333333333334</ele><time>2026-05-02T12:15:19.005Z</time></trkpt><trkpt lat="44.02235398189998" lon="10.870061644502139"><ele>774.6666666666667</ele><time>2026-05-02T12:15:22.005Z</time></trkpt><trkpt lat="44.02227778675487" lon="10.870006805708256"><ele>775.5</ele><time>2026-05-02T12:15:25.005Z</time></trkpt><trkpt lat="44.02221157104222" lon="10.869924609964011"><ele>776.3333333333333</ele><time>2026-05-02T12:15:28.005Z</time></trkpt><trkpt lat="44.022152535446025" lon="10.869851125528001"><ele>777.1666666666666</ele><time>2026-05-02T12:15:31.005Z</time></trkpt><trkpt lat="44.02210351113384" lon="10.869783569258454"><ele>778.0</ele><time>2026-05-02T12:15:34.005Z</time></trkpt><trkpt lat="44.022060611883504" lon="10.869699824376978"><ele>777.9999999999999</ele><time>2026-05-02T12:15:37.005Z</time></trkpt><trkpt lat="44.022015241786356" lon="10.86960290939824"><ele>778.0</ele><time>2026-05-02T12:15:40.005Z</time></trkpt><trkpt lat="44.02195913742099" lon="10.869534995762137"><ele>778.0</ele><time>2026-05-02T12:15:43.005Z</time></trkpt><trkpt lat="44.02188786995979" lon="10.86948590716185"><ele>778.0</ele><time>2026-05-02T12:15:45.005Z</time></trkpt><trkpt lat="44.02183501100231" lon="10.869423806234654"><ele>777.9999999999999</ele><time>2026-05-02T12:15:47.005Z</time></trkpt><trkpt lat="44.02180288827715" lon="10.86934255605706"><ele>778.0</ele><time>2026-05-02T12:15:49.005Z</time></trkpt><trkpt lat="44.02174792419359" lon="10.869264339489852"><ele>776.9999999999999</ele><time>2026-05-02T12:15:52.005Z</time></trkpt><trkpt lat="44.02169934769635" lon="10.869201057272916"><ele>776.0</ele><time>2026-05-02T12:15:54.005Z</time></trkpt><trkpt lat="44.021648618416464" lon="10.86912140995595"><ele>775.0</ele><time>2026-05-02T12:15:57.006Z</time></trkpt><trkpt lat="44.021620373734564" lon="10.869032535844593"><ele>774.0</ele><time>2026-05-02T12:16:00.006Z</time></trkpt><trkpt lat="44.02154736664467" lon="10.868949073680966"><ele>772.9999999999999</ele><time>2026-05-02T12:16:03.006Z</time></trkpt><trkpt lat="44.021481760922725" lon="10.868859168732294"><ele>772.0</ele><time>2026-05-02T12:16:06.006Z</time></trkpt><trkpt lat="44.02141483844969" lon="10.868803556658783"><ele>772.0000000000001</ele><time>2026-05-02T12:16:09.006Z</time></trkpt><trkpt lat="44.021354585984966" lon="10.868727355429035"><ele>772.0</ele><time>2026-05-02T12:16:12.006Z</time></trkpt><trkpt lat="44.02129006982279" lon="10.868666276653071"><ele>772.0</ele><time>2026-05-02T12:16:15.006Z</time></trkpt><trkpt lat="44.021231183052215" lon="10.868621191764031"><ele>772.0</ele><time>2026-05-02T12:16:18.006Z</time></trkpt><trkpt lat="44.021166106179955" lon="10.86859508710258"><ele>772.0</ele><time>2026-05-02T12:16:21.006Z</time></trkpt><trkpt lat="44.021092361921866" lon="10.868588662028118"><ele>772.0000000000001</ele><time>2026-05-02T12:16:24.006Z</time></trkpt><trkpt lat="44.02102852301539" lon="10.868611887941798"><ele>772.0</ele><time>2026-05-02T12:16:27.006Z</time></trkpt><trkpt lat="44.02095168403983" lon="10.868638985615183"><ele>772.0</ele><time>2026-05-02T12:16:32.005Z</time></trkpt><trkpt lat="44.020891310602515" lon="10.86868095046835"><ele>772.0</ele><time>2026-05-02T12:16:34.005Z</time></trkpt><trkpt lat="44.020823116789266" lon="10.868736034881822"><ele>772.0</ele><time>2026-05-02T12:16:36.005Z</time></trkpt><trkpt lat="44.02072585875552" lon="10.868795310877827"><ele>772.0</ele><time>2026-05-02T12:16:38.005Z</time></trkpt><trkpt lat="44.02059969908903" lon="10.868806415389233"><ele>772.0</ele><time>2026-05-02T12:16:40.005Z</time></trkpt><trkpt lat="44.020488187546185" lon="10.868824935775107"><ele>773.4999999999999</ele><time>2026-05-02T12:16:42.005Z</time></trkpt><trkpt lat="44.02042163985547" lon="10.868825900448849"><ele>775.0</ele><time>2026-05-02T12:16:43.005Z</time></trkpt><trkpt lat="44.02032706687751" lon="10.868761240535033"><ele>776.5</ele><time>2026-05-02T12:16:45.005Z</time></trkpt><trkpt lat="44.02027123259417" lon="10.868665439519816"><ele>778.0</ele><time>2026-05-02T12:16:48.006Z</time></trkpt><trkpt lat="44.020233664285634" lon="10.868578448088787"><ele>779.4999999999999</ele><time>2026-05-02T12:16:53.006Z</time></trkpt><trkpt lat="44.020169973445704" lon="10.868511902679312"><ele>781.0</ele><time>2026-05-02T12:16:57.006Z</time></trkpt><trkpt lat="44.02010357699743" lon="10.868474365566815"><ele>779.7142857142858</ele><time>2026-05-02T12:17:00.006Z</time></trkpt><trkpt lat="44.02004780025577" lon="10.868412687688306"><ele>778.4285714285714</ele><time>2026-05-02T12:17:04.006Z</time></trkpt><trkpt lat="44.020001939324004" lon="10.868344850313402"><ele>777.1428571428571</ele><time>2026-05-02T12:17:08.006Z</time></trkpt><trkpt lat="44.01994309259603" lon="10.86827517921697"><ele>775.8571428571429</ele><time>2026-05-02T12:17:12.006Z</time></trkpt><trkpt lat="44.019885759449295" lon="10.868215013868111"><ele>774.5714285714286</ele><time>2026-05-02T12:17:16.006Z</time></trkpt><trkpt lat="44.01981832721002" lon="10.868181242958237"><ele>773.2857142857143</ele><time>2026-05-02T12:17:20.006Z</time></trkpt><trkpt lat="44.01974928122068" lon="10.868160215282755"><ele>772.0</ele><time>2026-05-02T12:17:24.006Z</time></trkpt><trkpt lat="44.01967595840146" lon="10.868155089786208"><ele>771.9999999999999</ele><time>2026-05-02T12:17:29.006Z</time></trkpt><trkpt lat="44.01959165747583" lon="10.868157427190429"><ele>772.0</ele><time>2026-05-02T12:17:34.006Z</time></trkpt><trkpt lat="44.01952562416354" lon="10.868140532707969"><ele>772.0</ele><time>2026-05-02T12:17:38.006Z</time></trkpt><trkpt lat="44.019447626892756" lon="10.868140834741862"><ele>772.0</ele><time>2026-05-02T12:17:42.006Z</time></trkpt><trkpt lat="44.019364184291" lon="10.868142042257757"><ele>771.9999999999999</ele><time>2026-05-02T12:17:46.006Z</time></trkpt><trkpt lat="44.01929373079323" lon="10.868158623326813"><ele>772.0</ele><time>2026-05-02T12:17:49.006Z</time></trkpt><trkpt lat="44.019216542810646" lon="10.868157961810626"><ele>770.9999999999999</ele><time>2026-05-02T12:17:53.006Z</time></trkpt><trkpt lat="44.01914265745746" lon="10.86816450853896"><ele>770.0</ele><time>2026-05-02T12:17:57.006Z</time></trkpt><trkpt lat="44.01907918235308" lon="10.86817920224355"><ele>769.0</ele><time>2026-05-02T12:18:00.006Z</time></trkpt><trkpt lat="44.018985592103235" lon="10.868216303836647"><ele>768.0</ele><time>2026-05-02T12:18:04.006Z</time></trkpt><trkpt lat="44.018929252223664" lon="10.868292492832412"><ele>767.0</ele><time>2026-05-02T12:18:08.006Z</time></trkpt><trkpt lat="44.01886487743726" lon="10.868299769669571"><ele>766.0</ele><time>2026-05-02T12:18:11.006Z</time></trkpt><trkpt lat="44.01878306209724" lon="10.868337339940439"><ele>766.0</ele><time>2026-05-02T12:18:15.006Z</time></trkpt><trkpt lat="44.01871872369108" lon="10.868371024508004"><ele>766.0</ele><time>2026-05-02T12:18:18.006Z</time></trkpt><trkpt lat="44.0186578670455" lon="10.868399951349547"><ele>766.0</ele><time>2026-05-02T12:18:21.006Z</time></trkpt><trkpt lat="44.018579950841506" lon="10.868457027720677"><ele>766.0</ele><time>2026-05-02T12:18:25.006Z</time></trkpt><trkpt lat="44.01850130452656" lon="10.868518510637934"><ele>766.0</ele><time>2026-05-02T12:18:28.006Z</time></trkpt><trkpt lat="44.01842898955754" lon="10.868585028364999"><ele>766.0</ele><time>2026-05-02T12:18:31.005Z</time></trkpt><trkpt lat="44.01834966310085" lon="10.86863233977962"><ele>767.1666666666667</ele><time>2026-05-02T12:18:34.006Z</time></trkpt><trkpt lat="44.01828865646989" lon="10.868691413624562"><ele>768.3333333333334</ele><time>2026-05-02T12:18:37.006Z</time></trkpt><trkpt lat="44.018220150796125" lon="10.86872220989956"><ele>769.5</ele><time>2026-05-02T12:18:40.006Z</time></trkpt><trkpt lat="44.01814018580427" lon="10.868756074430753"><ele>770.6666666666667</ele><time>2026-05-02T12:18:45.006Z</time></trkpt><trkpt lat="44.01807201949881" lon="10.868804109272853"><ele>771.8333333333334</ele><time>2026-05-02T12:18:49.006Z</time></trkpt><trkpt lat="44.018020176640064" lon="10.868864182435399"><ele>773.0</ele><time>2026-05-02T12:18:52.006Z</time></trkpt><trkpt lat="44.017948601571845" lon="10.86892360081447"><ele>773.0</ele><time>2026-05-02T12:18:56.006Z</time></trkpt><trkpt lat="44.01787713916867" lon="10.868997256710111"><ele>773.0</ele><time>2026-05-02T12:19:00.006Z</time></trkpt><trkpt lat="44.01781445109566" lon="10.86903153725186"><ele>773.0</ele><time>2026-05-02T12:19:03.006Z</time></trkpt><trkpt lat="44.017757889585" lon="10.869071274834628"><ele>773.0</ele><time>2026-05-02T12:19:06.006Z</time></trkpt><trkpt lat="44.017700717085965" lon="10.869115973529597"><ele>773.0</ele><time>2026-05-02T12:19:08.006Z</time></trkpt><trkpt lat="44.017650676577944" lon="10.869174853788918"><ele>773.0</ele><time>2026-05-02T12:19:11.006Z</time></trkpt><trkpt lat="44.01758207254285" lon="10.869228200397009"><ele>773.0</ele><time>2026-05-02T12:19:13.006Z</time></trkpt><trkpt lat="44.01748948443671" lon="10.869273875753738"><ele>773.8333333333334</ele><time>2026-05-02T12:19:15.006Z</time></trkpt><trkpt lat="44.01740786750513" lon="10.86930946877852"><ele>774.6666666666667</ele><time>2026-05-02T12:19:17.006Z</time></trkpt><trkpt lat="44.01732767428049" lon="10.869357300560505"><ele>775.5</ele><time>2026-05-02T12:19:19.006Z</time></trkpt><trkpt lat="44.01723517474495" lon="10.869350944482095"><ele>776.3333333333333</ele><time>2026-05-02T12:19:21.006Z</time></trkpt><trkpt lat="44.01716919497073" lon="10.869337066622158"><ele>777.1666666666666</ele><time>2026-05-02T12:19:23.006Z</time></trkpt><trkpt lat="44.01714121036528" lon="10.86925197731635"><ele>778.0</ele><time>2026-05-02T12:19:24.006Z</time></trkpt><trkpt lat="44.0170763673411" lon="10.869244428744627"><ele>777.9999999999999</ele><time>2026-05-02T12:19:26.006Z</time></trkpt><trkpt lat="44.01701205017234" lon="10.869255440866219"><ele>778.0</ele><time>2026-05-02T12:19:28.006Z</time></trkpt><trkpt lat="44.01693384762504" lon="10.869310821930156"><ele>778.0</ele><time>2026-05-02T12:19:32.006Z</time></trkpt><trkpt lat="44.01687857991756" lon="10.869384501605188"><ele>778.0</ele><time>2026-05-02T12:19:34.006Z</time></trkpt><trkpt lat="44.01680755518638" lon="10.869463099249783"><ele>777.9999999999999</ele><time>2026-05-02T12:19:36.006Z</time></trkpt><trkpt lat="44.016720182459906" lon="10.869553310829085"><ele>778.0</ele><time>2026-05-02T12:19:38.006Z</time></trkpt><trkpt lat="44.016623632408425" lon="10.869652469941121"><ele>780.1666666666666</ele><time>2026-05-02T12:19:40.006Z</time></trkpt><trkpt lat="44.01650482727049" lon="10.86969490546429"><ele>782.3333333333333</ele><time>2026-05-02T12:19:42.006Z</time></trkpt><trkpt lat="44.01642671116253" lon="10.869681925296792"><ele>784.5</ele><time>2026-05-02T12:19:44.006Z</time></trkpt><trkpt lat="44.016354048491536" lon="10.8696573549707"><ele>786.6666666666667</ele><time>2026-05-02T12:19:47.006Z</time></trkpt><trkpt lat="44.01628292574472" lon="10.869629810061179"><ele>788.8333333333334</ele><time>2026-05-02T12:19:50.006Z</time></trkpt><trkpt lat="44.01620550246997" lon="10.869623474326197"><ele>791.0</ele><time>2026-05-02T12:19:54.006Z</time></trkpt><trkpt lat="44.01612893696193" lon="10.869599593942798"><ele>791.0</ele><time>2026-05-02T12:19:58.006Z</time></trkpt><trkpt lat="44.01606742528218" lon="10.869549541186553"><ele>791.0</ele><time>2026-05-02T12:20:02.006Z</time></trkpt><trkpt lat="44.01601383405311" lon="10.86947884227111"><ele>791.0</ele><time>2026-05-02T12:20:07.006Z</time></trkpt><trkpt lat="44.01598437765499" lon="10.869388194232418"><ele>791.0</ele><time>2026-05-02T12:20:12.006Z</time></trkpt><trkpt lat="44.015943299968924" lon="10.869308443308094"><ele>791.0</ele><time>2026-05-02T12:20:17.006Z</time></trkpt><trkpt lat="44.01589675540987" lon="10.869242364953777"><ele>791.0</ele><time>2026-05-02T12:20:21.006Z</time></trkpt><trkpt lat="44.01583832664419" lon="10.869177142685057"><ele>791.0</ele><time>2026-05-02T12:20:24.006Z</time></trkpt><trkpt lat="44.01580627018745" lon="10.869100556088025"><ele>792.0</ele><time>2026-05-02T12:20:28.006Z</time></trkpt><trkpt lat="44.015758107971685" lon="10.86902556610365"><ele>793.0</ele><time>2026-05-02T12:20:32.006Z</time></trkpt><trkpt lat="44.01571696691259" lon="10.868948048413733"><ele>794.0</ele><time>2026-05-02T12:20:36.006Z</time></trkpt><trkpt lat="44.015681127468305" lon="10.868869421218069"><ele>795.0</ele><time>2026-05-02T12:20:40.006Z</time></trkpt><trkpt lat="44.01564616176775" lon="10.868795258807227"><ele>796.0</ele><time>2026-05-02T12:20:44.006Z</time></trkpt><trkpt lat="44.01560399951495" lon="10.868714262820873"><ele>797.0</ele><time>2026-05-02T12:20:48.007Z</time></trkpt><trkpt lat="44.01556145453909" lon="10.86863507599177"><ele>798.0</ele><time>2026-05-02T12:20:52.007Z</time></trkpt><trkpt lat="44.01552546536711" lon="10.868555979798808"><ele>798.0</ele><time>2026-05-02T12:20:56.003Z</time></trkpt><trkpt lat="44.015498527764514" lon="10.868470575331326"><ele>798.0</ele><time>2026-05-02T12:21:00.998Z</time></trkpt><trkpt lat="44.01547604202116" lon="10.868388431951491"><ele>798.0</ele><time>2026-05-02T12:21:04.996Z</time></trkpt><trkpt lat="44.01545057313087" lon="10.868301990420028"><ele>798.0</ele><time>2026-05-02T12:21:08.994Z</time></trkpt><trkpt lat="44.01546049838309" lon="10.868193218821654"><ele>798.0</ele><time>2026-05-02T12:21:13.992Z</time></trkpt><trkpt lat="44.01546445280008" lon="10.86809689622874"><ele>798.0</ele><time>2026-05-02T12:21:18.99Z</time></trkpt><trkpt lat="44.01547076501525" lon="10.868005003472383"><ele>798.0</ele><time>2026-05-02T12:21:22.99Z</time></trkpt><trkpt lat="44.015482216028175" lon="10.867899641537823"><ele>798.0</ele><time>2026-05-02T12:21:26.989Z</time></trkpt><trkpt lat="44.01549032879638" lon="10.867806917524044"><ele>798.0</ele><time>2026-05-02T12:21:30.988Z</time></trkpt><trkpt lat="44.0155093345342" lon="10.867713192077147"><ele>798.0</ele><time>2026-05-02T12:21:33.988Z</time></trkpt><trkpt lat="44.015524068272896" lon="10.867617886524641"><ele>798.0</ele><time>2026-05-02T12:21:36.988Z</time></trkpt><trkpt lat="44.01551119494513" lon="10.867530376348316"><ele>798.0</ele><time>2026-05-02T12:21:40.988Z</time></trkpt><trkpt lat="44.015482448205034" lon="10.867427872147031"><ele>798.0</ele><time>2026-05-02T12:21:43.988Z</time></trkpt><trkpt lat="44.01545844436982" lon="10.867337213761054"><ele>798.0</ele><time>2026-05-02T12:21:45.987Z</time></trkpt><trkpt lat="44.01540224559735" lon="10.867280190746204"><ele>798.0</ele><time>2026-05-02T12:21:47.987Z</time></trkpt><trkpt lat="44.01533195865335" lon="10.867219007268474"><ele>798.0</ele><time>2026-05-02T12:21:50.987Z</time></trkpt><trkpt lat="44.01526346937541" lon="10.86716723076983"><ele>798.0</ele><time>2026-05-02T12:21:53.987Z</time></trkpt><trkpt lat="44.0152014511936" lon="10.867120346261366"><ele>798.0</ele><time>2026-05-02T12:21:55.987Z</time></trkpt><trkpt lat="44.01512835983251" lon="10.867064363563443"><ele>798.0</ele><time>2026-05-02T12:21:58.987Z</time></trkpt><trkpt lat="44.01507560055293" lon="10.867013873444357"><ele>798.0</ele><time>2026-05-02T12:22:00.987Z</time></trkpt><trkpt lat="44.015068524666624" lon="10.8669099487236"><ele>798.0</ele><time>2026-05-02T12:22:03.987Z</time></trkpt><trkpt lat="44.01511303002002" lon="10.866835640936733"><ele>798.0</ele><time>2026-05-02T12:22:06.987Z</time></trkpt><trkpt lat="44.01513305076761" lon="10.86673508842198"><ele>798.0</ele><time>2026-05-02T12:22:09.987Z</time></trkpt><trkpt lat="44.0151730195949" lon="10.86666638103938"><ele>798.0</ele><time>2026-05-02T12:22:12.987Z</time></trkpt><trkpt lat="44.015218086572816" lon="10.866595197309465"><ele>798.0</ele><time>2026-05-02T12:22:16.987Z</time></trkpt><trkpt lat="44.01527545161386" lon="10.866494230958013"><ele>798.0</ele><time>2026-05-02T12:22:20.987Z</time></trkpt><trkpt lat="44.01532627005181" lon="10.866406403489176"><ele>797.1666666666666</ele><time>2026-05-02T12:22:23.987Z</time></trkpt><trkpt lat="44.015368877293135" lon="10.866338572998368"><ele>796.3333333333333</ele><time>2026-05-02T12:22:25.987Z</time></trkpt><trkpt lat="44.0154068474406" lon="10.86625025659385"><ele>795.5</ele><time>2026-05-02T12:22:28.987Z</time></trkpt><trkpt lat="44.015468660608484" lon="10.866160135965508"><ele>794.6666666666666</ele><time>2026-05-02T12:22:31.987Z</time></trkpt><trkpt lat="44.015527428886315" lon="10.866065891152955"><ele>793.8333333333333</ele><time>2026-05-02T12:22:34.987Z</time></trkpt><trkpt lat="44.015579248850564" lon="10.865975897496364"><ele>793.0</ele><time>2026-05-02T12:22:37.987Z</time></trkpt><trkpt lat="44.01562217791173" lon="10.865878148285592"><ele>794.8571428571429</ele><time>2026-05-02T12:22:40.986Z</time></trkpt><trkpt lat="44.0156429152506" lon="10.86579320757574"><ele>796.7142857142858</ele><time>2026-05-02T12:22:43.986Z</time></trkpt><trkpt lat="44.01564618186763" lon="10.865701803496314"><ele>798.5714285714287</ele><time>2026-05-02T12:22:46.986Z</time></trkpt><trkpt lat="44.0156668851619" lon="10.86560566932351"><ele>800.4285714285714</ele><time>2026-05-02T12:22:49.986Z</time></trkpt><trkpt lat="44.01566583712242" lon="10.865515755597091"><ele>802.2857142857142</ele><time>2026-05-02T12:22:52.986Z</time></trkpt><trkpt lat="44.015660992559944" lon="10.865422847066428"><ele>804.1428571428572</ele><time>2026-05-02T12:22:55.986Z</time></trkpt><trkpt lat="44.015694781529085" lon="10.865323620578911"><ele>806.0</ele><time>2026-05-02T12:22:58.986Z</time></trkpt><trkpt lat="44.015682848648574" lon="10.86522444435153"><ele>806.0000000000001</ele><time>2026-05-02T12:23:01.985Z</time></trkpt><trkpt lat="44.01566715574748" lon="10.865120625484602"><ele>806.0</ele><time>2026-05-02T12:23:04.985Z</time></trkpt><trkpt lat="44.01565059570807" lon="10.865033879373208"><ele>806.0</ele><time>2026-05-02T12:23:07.985Z</time></trkpt><trkpt lat="44.015623077641564" lon="10.8649391378678"><ele>806.0</ele><time>2026-05-02T12:23:10.985Z</time></trkpt><trkpt lat="44.01556707037365" lon="10.864860061347965"><ele>806.0000000000001</ele><time>2026-05-02T12:23:13.985Z</time></trkpt><trkpt lat="44.01551458663386" lon="10.864772898505192"><ele>806.0</ele><time>2026-05-02T12:23:16.985Z</time></trkpt><trkpt lat="44.015443600155734" lon="10.864709289828017"><ele>805.0000000000001</ele><time>2026-05-02T12:23:19.985Z</time></trkpt><trkpt lat="44.01538664080895" lon="10.864667630210336"><ele>804.0</ele><time>2026-05-02T12:23:22.985Z</time></trkpt><trkpt lat="44.01531182051657" lon="10.864604015910272"><ele>803.0</ele><time>2026-05-02T12:23:26.985Z</time></trkpt><trkpt lat="44.015245625206276" lon="10.864570839215084"><ele>802.0</ele><time>2026-05-02T12:23:29.985Z</time></trkpt><trkpt lat="44.0151674366105" lon="10.864539953945659"><ele>801.0000000000001</ele><time>2026-05-02T12:23:33.985Z</time></trkpt><trkpt lat="44.01509452483104" lon="10.86451611330465"><ele>800.0</ele><time>2026-05-02T12:23:36.985Z</time></trkpt><trkpt lat="44.01500882914244" lon="10.864494333139332"><ele>802.3333333333334</ele><time>2026-05-02T12:23:40.985Z</time></trkpt><trkpt lat="44.014923382088995" lon="10.864480442540291"><ele>804.6666666666667</ele><time>2026-05-02T12:23:44.985Z</time></trkpt><trkpt lat="44.01484842781491" lon="10.864473373577724"><ele>807.0</ele><time>2026-05-02T12:23:47.985Z</time></trkpt><trkpt lat="44.01478063067401" lon="10.864466956780014"><ele>809.3333333333333</ele><time>2026-05-02T12:23:49.985Z</time></trkpt><trkpt lat="44.01467761306077" lon="10.86445707565267"><ele>811.6666666666666</ele><time>2026-05-02T12:23:52.985Z</time></trkpt><trkpt lat="44.01458813592962" lon="10.86443064826403"><ele>814.0</ele><time>2026-05-02T12:23:55.985Z</time></trkpt><trkpt lat="44.01450821107812" lon="10.864373862578413"><ele>814.0000000000001</ele><time>2026-05-02T12:23:58.985Z</time></trkpt><trkpt lat="44.014444866498266" lon="10.86435421909694"><ele>814.0</ele><time>2026-05-02T12:24:00.985Z</time></trkpt><trkpt lat="44.01438384329194" lon="10.864331385757248"><ele>814.0</ele><time>2026-05-02T12:24:02.985Z</time></trkpt><trkpt lat="44.014318782076316" lon="10.864287968103843"><ele>814.0</ele><time>2026-05-02T12:24:04.985Z</time></trkpt><trkpt lat="44.01425595436097" lon="10.864257940582931"><ele>814.0</ele><time>2026-05-02T12:24:06.985Z</time></trkpt><trkpt lat="44.01420040183209" lon="10.86421611487992"><ele>814.0000000000001</ele><time>2026-05-02T12:24:08.985Z</time></trkpt><trkpt lat="44.01414461595472" lon="10.864163330684182"><ele>814.0</ele><time>2026-05-02T12:24:10.985Z</time></trkpt><trkpt lat="44.01409112970944" lon="10.864087399534922"><ele>813.8333333333333</ele><time>2026-05-02T12:24:13.985Z</time></trkpt><trkpt lat="44.01404084837647" lon="10.864002244111227"><ele>813.6666666666666</ele><time>2026-05-02T12:24:16.985Z</time></trkpt><trkpt lat="44.01399365239692" lon="10.863918011747531"><ele>813.5</ele><time>2026-05-02T12:24:19.985Z</time></trkpt><trkpt lat="44.01395125261998" lon="10.863842245754665"><ele>813.3333333333333</ele><time>2026-05-02T12:24:22.985Z</time></trkpt><trkpt lat="44.013906683521064" lon="10.863755138685438"><ele>813.1666666666666</ele><time>2026-05-02T12:24:25.985Z</time></trkpt><trkpt lat="44.01385925419818" lon="10.863652993735135"><ele>813.0</ele><time>2026-05-02T12:24:28.985Z</time></trkpt><trkpt lat="44.01380947975895" lon="10.863560304496525"><ele>813.0</ele><time>2026-05-02T12:24:31.985Z</time></trkpt><trkpt lat="44.01376097375783" lon="10.863500161034551"><ele>813.0</ele><time>2026-05-02T12:24:34.985Z</time></trkpt><trkpt lat="44.01370394364472" lon="10.863419260851629"><ele>813.0</ele><time>2026-05-02T12:24:37.985Z</time></trkpt><trkpt lat="44.01363333524308" lon="10.863356264925045"><ele>813.0</ele><time>2026-05-02T12:24:40.985Z</time></trkpt><trkpt lat="44.01356025577385" lon="10.863295235737183"><ele>813.0</ele><time>2026-05-02T12:24:43.985Z</time></trkpt><trkpt lat="44.0134987197617" lon="10.863238976774985"><ele>813.0</ele><time>2026-05-02T12:24:46.985Z</time></trkpt><trkpt lat="44.01343510060164" lon="10.863171801267903"><ele>809.3333333333334</ele><time>2026-05-02T12:25:38.984Z</time></trkpt><trkpt lat="44.01336147035809" lon="10.863147902265407"><ele>805.6666666666667</ele><time>2026-05-02T12:25:42.984Z</time></trkpt><trkpt lat="44.01328802176639" lon="10.863105835079002"><ele>802.0</ele><time>2026-05-02T12:25:45.984Z</time></trkpt><trkpt lat="44.01321739273927" lon="10.863068856952292"><ele>798.3333333333334</ele><time>2026-05-02T12:25:47.984Z</time></trkpt><trkpt lat="44.01315388328204" lon="10.863026643609915"><ele>794.6666666666667</ele><time>2026-05-02T12:25:49.984Z</time></trkpt><trkpt lat="44.01308203654974" lon="10.862957696394203"><ele>791.0</ele><time>2026-05-02T12:25:51.984Z</time></trkpt><trkpt lat="44.013015549200745" lon="10.862898124604792"><ele>790.6666666666667</ele><time>2026-05-02T12:25:53.984Z</time></trkpt><trkpt lat="44.012940173210986" lon="10.862819681240127"><ele>790.3333333333334</ele><time>2026-05-02T12:25:56.984Z</time></trkpt><trkpt lat="44.012862380936504" lon="10.8627370481664"><ele>790.0</ele><time>2026-05-02T12:25:59.984Z</time></trkpt><trkpt lat="44.01280463443057" lon="10.862672572843524"><ele>789.6666666666667</ele><time>2026-05-02T12:26:01.984Z</time></trkpt><trkpt lat="44.01275343904205" lon="10.862618421427914"><ele>789.3333333333334</ele><time>2026-05-02T12:26:03.984Z</time></trkpt><trkpt lat="44.01268113300278" lon="10.862574210791692"><ele>789.0</ele><time>2026-05-02T12:26:05.984Z</time></trkpt><trkpt lat="44.012608644912056" lon="10.862521696303501"><ele>785.6666666666666</ele><time>2026-05-02T12:26:07.984Z</time></trkpt><trkpt lat="44.01252711122995" lon="10.862522246542461"><ele>782.3333333333333</ele><time>2026-05-02T12:26:09.984Z</time></trkpt><trkpt lat="44.01246381011708" lon="10.862539132519846"><ele>779.0</ele><time>2026-05-02T12:26:11.984Z</time></trkpt><trkpt lat="44.012372891334216" lon="10.862571329015356"><ele>775.6666666666666</ele><time>2026-05-02T12:26:14.984Z</time></trkpt><trkpt lat="44.01228423063738" lon="10.862615440948247"><ele>772.3333333333333</ele><time>2026-05-02T12:26:16.984Z</time></trkpt><trkpt lat="44.01219897287182" lon="10.862629427398845"><ele>769.0</ele><time>2026-05-02T12:26:18.984Z</time></trkpt><trkpt lat="44.01211245092137" lon="10.862684120914878"><ele>768.4999999999999</ele><time>2026-05-02T12:26:20.984Z</time></trkpt><trkpt lat="44.01199670803973" lon="10.862702368053245"><ele>768.0</ele><time>2026-05-02T12:26:22.984Z</time></trkpt><trkpt lat="44.011873995731136" lon="10.86266341595385"><ele>767.5</ele><time>2026-05-02T12:26:24.984Z</time></trkpt><trkpt lat="44.011798579004164" lon="10.8626324736241"><ele>767.0</ele><time>2026-05-02T12:26:26.984Z</time></trkpt><trkpt lat="44.011746006543255" lon="10.862583455088878"><ele>766.5</ele><time>2026-05-02T12:26:28.984Z</time></trkpt><trkpt lat="44.011694168719174" lon="10.86253302144983"><ele>766.0</ele><time>2026-05-02T12:26:31.984Z</time></trkpt><trkpt lat="44.01162276616671" lon="10.862482181957443"><ele>767.3333333333334</ele><time>2026-05-02T12:26:34.984Z</time></trkpt><trkpt lat="44.01154235712637" lon="10.862482113680477"><ele>768.6666666666667</ele><time>2026-05-02T12:26:37.984Z</time></trkpt><trkpt lat="44.01146316826513" lon="10.86244617201462"><ele>770.0</ele><time>2026-05-02T12:26:40.984Z</time></trkpt><trkpt lat="44.01139705835554" lon="10.862375564044834"><ele>771.3333333333334</ele><time>2026-05-02T12:26:43.984Z</time></trkpt><trkpt lat="44.01135258164355" lon="10.862293778491775"><ele>772.6666666666666</ele><time>2026-05-02T12:26:46.984Z</time></trkpt><trkpt lat="44.01131257725147" lon="10.862182150178121"><ele>774.0</ele><time>2026-05-02T12:26:50.984Z</time></trkpt><trkpt lat="44.01129230284914" lon="10.862082981961334"><ele>774.0</ele><time>2026-05-02T12:26:53.984Z</time></trkpt><trkpt lat="44.01129220902981" lon="10.861989869173094"><ele>774.0</ele><time>2026-05-02T12:26:56.984Z</time></trkpt><trkpt lat="44.01128803669575" lon="10.861899755234127"><ele>774.0</ele><time>2026-05-02T12:26:59.984Z</time></trkpt><trkpt lat="44.011284444382675" lon="10.86180498908278"><ele>774.0</ele><time>2026-05-02T12:27:02.983Z</time></trkpt><trkpt lat="44.01125619043216" lon="10.861699791698658"><ele>774.0</ele><time>2026-05-02T12:27:06.984Z</time></trkpt><trkpt lat="44.01122516782976" lon="10.861598545436745"><ele>774.0</ele><time>2026-05-02T12:27:09.984Z</time></trkpt><trkpt lat="44.011181671300434" lon="10.861488489440356"><ele>774.6666666666666</ele><time>2026-05-02T12:27:12.984Z</time></trkpt><trkpt lat="44.01111046099513" lon="10.861418681883295"><ele>775.3333333333333</ele><time>2026-05-02T12:27:15.984Z</time></trkpt><trkpt lat="44.01104968786585" lon="10.861343509766199"><ele>776.0</ele><time>2026-05-02T12:27:18.984Z</time></trkpt><trkpt lat="44.01098172529889" lon="10.861293000974177"><ele>776.6666666666666</ele><time>2026-05-02T12:27:22.984Z</time></trkpt><trkpt lat="44.01091071438984" lon="10.861251472741426"><ele>777.3333333333333</ele><time>2026-05-02T12:27:26.984Z</time></trkpt><trkpt lat="44.01083231272633" lon="10.861215913329906"><ele>778.0</ele><time>2026-05-02T12:27:29.984Z</time></trkpt><trkpt lat="44.01076838233349" lon="10.861197886279724"><ele>776.2857142857143</ele><time>2026-05-02T12:27:31.984Z</time></trkpt><trkpt lat="44.01070151585386" lon="10.861191784115032"><ele>774.5714285714286</ele><time>2026-05-02T12:27:33.984Z</time></trkpt><trkpt lat="44.0106386286782" lon="10.861177234747501"><ele>772.8571428571429</ele><time>2026-05-02T12:27:35.984Z</time></trkpt><trkpt lat="44.01057559009206" lon="10.861170196783082"><ele>771.1428571428571</ele><time>2026-05-02T12:27:37.984Z</time></trkpt><trkpt lat="44.0105064631497" lon="10.861175158888008"><ele>769.4285714285713</ele><time>2026-05-02T12:27:39.984Z</time></trkpt><trkpt lat="44.01043265655754" lon="10.861186838714383"><ele>767.7142857142857</ele><time>2026-05-02T12:27:41.984Z</time></trkpt><trkpt lat="44.010372522846446" lon="10.86115362218968"><ele>766.0</ele><time>2026-05-02T12:27:43.984Z</time></trkpt><trkpt lat="44.01032211632491" lon="10.86106389074857"><ele>766.1666666666667</ele><time>2026-05-02T12:27:45.984Z</time></trkpt><trkpt lat="44.01028625179199" lon="10.860932624098844"><ele>766.3333333333334</ele><time>2026-05-02T12:27:49.984Z</time></trkpt><trkpt lat="44.01021633823131" lon="10.860820844748458"><ele>766.5</ele><time>2026-05-02T12:27:52.984Z</time></trkpt><trkpt lat="44.01014944463708" lon="10.860719823804468"><ele>766.6666666666666</ele><time>2026-05-02T12:27:55.984Z</time></trkpt><trkpt lat="44.010109816389296" lon="10.860646115266508"><ele>766.8333333333333</ele><time>2026-05-02T12:27:57.984Z</time></trkpt><trkpt lat="44.010064487512565" lon="10.860564181231606"><ele>767.0</ele><time>2026-05-02T12:28:00.984Z</time></trkpt><trkpt lat="44.01003004544165" lon="10.86046953335531"><ele>767.0</ele><time>2026-05-02T12:28:03.984Z</time></trkpt><trkpt lat="44.009995269373924" lon="10.860383319351653"><ele>767.0</ele><time>2026-05-02T12:28:06.984Z</time></trkpt><trkpt lat="44.00997213420788" lon="10.860300557449465"><ele>767.0</ele><time>2026-05-02T12:28:09.984Z</time></trkpt><trkpt lat="44.009949595600965" lon="10.86021495141387"><ele>767.0</ele><time>2026-05-02T12:28:12.984Z</time></trkpt><trkpt lat="44.00992427569401" lon="10.860098038964722"><ele>767.0</ele><time>2026-05-02T12:28:15.984Z</time></trkpt><trkpt lat="44.0099136655734" lon="10.860004477932586"><ele>767.0</ele><time>2026-05-02T12:28:18.984Z</time></trkpt><trkpt lat="44.009888793174525" lon="10.859897785010501"><ele>767.0</ele><time>2026-05-02T12:28:21.984Z</time></trkpt><trkpt lat="44.00987122153532" lon="10.859793638287606"><ele>768.5714285714286</ele><time>2026-05-02T12:28:24.984Z</time></trkpt><trkpt lat="44.00986625054442" lon="10.85970151295507"><ele>770.1428571428571</ele><time>2026-05-02T12:28:26.984Z</time></trkpt><trkpt lat="44.009847496333016" lon="10.859594689071669"><ele>771.7142857142858</ele><time>2026-05-02T12:28:29.984Z</time></trkpt><trkpt lat="44.00982113470657" lon="10.859505774997555"><ele>773.2857142857142</ele><time>2026-05-02T12:28:31.984Z</time></trkpt><trkpt lat="44.00979642744338" lon="10.859423792939769"><ele>774.8571428571428</ele><time>2026-05-02T12:28:33.984Z</time></trkpt><trkpt lat="44.00977597038296" lon="10.859337682279612"><ele>776.4285714285714</ele><time>2026-05-02T12:28:35.984Z</time></trkpt><trkpt lat="44.00972082924983" lon="10.859225172502585"><ele>778.0</ele><time>2026-05-02T12:28:38.984Z</time></trkpt><trkpt lat="44.009653439944536" lon="10.859167113939101"><ele>778.0</ele><time>2026-05-02T12:28:41.984Z</time></trkpt><trkpt lat="44.00958522025235" lon="10.859135370176668"><ele>778.0</ele><time>2026-05-02T12:28:44.984Z</time></trkpt><trkpt lat="44.00951117357615" lon="10.859108859083948"><ele>778.0</ele><time>2026-05-02T12:28:47.984Z</time></trkpt><trkpt lat="44.009440627323514" lon="10.859109096651089"><ele>778.0</ele><time>2026-05-02T12:28:50.984Z</time></trkpt><trkpt lat="44.009377594047905" lon="10.859103547240139"><ele>778.0</ele><time>2026-05-02T12:28:53.984Z</time></trkpt><trkpt lat="44.00930459864752" lon="10.859056043233421"><ele>778.0</ele><time>2026-05-02T12:28:57.984Z</time></trkpt><trkpt lat="44.00923823355299" lon="10.85900701571583"><ele>778.0</ele><time>2026-05-02T12:29:01.984Z</time></trkpt><trkpt lat="44.00917584078248" lon="10.8589582608531"><ele>779.1428571428572</ele><time>2026-05-02T12:29:04.983Z</time></trkpt><trkpt lat="44.00912469683931" lon="10.858904897921494"><ele>780.2857142857142</ele><time>2026-05-02T12:29:07.984Z</time></trkpt><trkpt lat="44.00906833203676" lon="10.85885050532454"><ele>781.4285714285714</ele><time>2026-05-02T12:29:10.983Z</time></trkpt><trkpt lat="44.009014367186104" lon="10.858796458239052"><ele>782.5714285714287</ele><time>2026-05-02T12:29:12.983Z</time></trkpt><trkpt lat="44.00894895400269" lon="10.858741333451107"><ele>783.7142857142858</ele><time>2026-05-02T12:29:15.983Z</time></trkpt><trkpt lat="44.008863734204056" lon="10.858680879734909"><ele>784.8571428571429</ele><time>2026-05-02T12:29:19.983Z</time></trkpt><trkpt lat="44.00880406516989" lon="10.858648281618793"><ele>786.0</ele><time>2026-05-02T12:29:21.983Z</time></trkpt><trkpt lat="44.00872420155852" lon="10.85861274403243"><ele>786.0000000000001</ele><time>2026-05-02T12:29:24.983Z</time></trkpt><trkpt lat="44.008660289001305" lon="10.858588141516227"><ele>786.0</ele><time>2026-05-02T12:29:26.983Z</time></trkpt><trkpt lat="44.00857751372421" lon="10.858559750892015"><ele>786.0</ele><time>2026-05-02T12:29:30.983Z</time></trkpt><trkpt lat="44.00850377170866" lon="10.85854588372884"><ele>786.0</ele><time>2026-05-02T12:29:34.983Z</time></trkpt><trkpt lat="44.00843333759109" lon="10.858520765733214"><ele>786.0</ele><time>2026-05-02T12:29:38.983Z</time></trkpt><trkpt lat="44.00836702570332" lon="10.858502884113438"><ele>786.0000000000001</ele><time>2026-05-02T12:29:41.983Z</time></trkpt><trkpt lat="44.00829735811481" lon="10.858482056404386"><ele>786.0</ele><time>2026-05-02T12:29:44.983Z</time></trkpt><trkpt lat="44.00821070326048" lon="10.85844551921216"><ele>784.8333333333334</ele><time>2026-05-02T12:29:47.983Z</time></trkpt><trkpt lat="44.00812664446307" lon="10.858400486239447"><ele>783.6666666666667</ele><time>2026-05-02T12:29:49.983Z</time></trkpt><trkpt lat="44.00804949903576" lon="10.85835808288856"><ele>782.5</ele><time>2026-05-02T12:29:51.983Z</time></trkpt><trkpt lat="44.00797348794167" lon="10.858298885703162"><ele>781.3333333333334</ele><time>2026-05-02T12:29:53.983Z</time></trkpt><trkpt lat="44.00787850008821" lon="10.858224174417797"><ele>780.1666666666667</ele><time>2026-05-02T12:29:55.983Z</time></trkpt><trkpt lat="44.00781418818003" lon="10.85816673885014"><ele>779.0</ele><time>2026-05-02T12:29:57.983Z</time></trkpt><trkpt lat="44.00781121829226" lon="10.858041066170758"><ele>779.0000000000001</ele><time>2026-05-02T12:29:58.983Z</time></trkpt><trkpt lat="44.007760300161905" lon="10.857949367122794"><ele>779.0</ele><time>2026-05-02T12:30:00.983Z</time></trkpt><trkpt lat="44.00770249111885" lon="10.857868845165315"><ele>779.0</ele><time>2026-05-02T12:30:02.983Z</time></trkpt><trkpt lat="44.00764229059208" lon="10.857787622841"><ele>779.0</ele><time>2026-05-02T12:30:04.983Z</time></trkpt><trkpt lat="44.00758315944797" lon="10.857719344631851"><ele>779.0000000000001</ele><time>2026-05-02T12:30:06.983Z</time></trkpt><trkpt lat="44.00751603972138" lon="10.857645748431688"><ele>779.0</ele><time>2026-05-02T12:30:09.983Z</time></trkpt><trkpt lat="44.007458810943135" lon="10.857564717422756"><ele>778.5000000000001</ele><time>2026-05-02T12:30:12.983Z</time></trkpt><trkpt lat="44.00739371304594" lon="10.857508523605906"><ele>778.0</ele><time>2026-05-02T12:30:14.983Z</time></trkpt><trkpt lat="44.00732155891153" lon="10.857441567660992"><ele>777.5</ele><time>2026-05-02T12:30:17.983Z</time></trkpt><trkpt lat="44.00726060898232" lon="10.857385263190649"><ele>777.0</ele><time>2026-05-02T12:30:20.983Z</time></trkpt><trkpt lat="44.00720356065018" lon="10.857341056705518"><ele>776.5000000000001</ele><time>2026-05-02T12:30:22.983Z</time></trkpt><trkpt lat="44.00712746184179" lon="10.857295052911983"><ele>776.0</ele><time>2026-05-02T12:30:25.983Z</time></trkpt><trkpt lat="44.00705092680508" lon="10.857269489259417"><ele>776.0</ele><time>2026-05-02T12:30:28.983Z</time></trkpt><trkpt lat="44.00697230230792" lon="10.857230054203077"><ele>776.0</ele><time>2026-05-02T12:30:31.983Z</time></trkpt><trkpt lat="44.006902996659" lon="10.857169971695626"><ele>776.0</ele><time>2026-05-02T12:30:35.983Z</time></trkpt><trkpt lat="44.006852689979226" lon="10.8571092294563"><ele>776.0</ele><time>2026-05-02T12:30:38.983Z</time></trkpt><trkpt lat="44.006806657079075" lon="10.857037088606385"><ele>776.0</ele><time>2026-05-02T12:30:41.983Z</time></trkpt><trkpt lat="44.006764017301485" lon="10.85695841336485"><ele>776.0</ele><time>2026-05-02T12:30:44.983Z</time></trkpt><trkpt lat="44.00672898035898" lon="10.856884940012343"><ele>776.0</ele><time>2026-05-02T12:30:46.983Z</time></trkpt><trkpt lat="44.00668484037593" lon="10.85678439462552"><ele>776.8333333333334</ele><time>2026-05-02T12:30:49.983Z</time></trkpt><trkpt lat="44.00664255475083" lon="10.856679791467878"><ele>777.6666666666667</ele><time>2026-05-02T12:30:52.983Z</time></trkpt><trkpt lat="44.006610631707716" lon="10.856597791254126"><ele>778.5</ele><time>2026-05-02T12:30:54.983Z</time></trkpt><trkpt lat="44.006564418282075" lon="10.856474675415361"><ele>779.3333333333333</ele><time>2026-05-02T12:30:57.983Z</time></trkpt><trkpt lat="44.006532180295764" lon="10.856396016860858"><ele>780.1666666666666</ele><time>2026-05-02T12:30:59.983Z</time></trkpt><trkpt lat="44.00649480129072" lon="10.856310470419604"><ele>781.0</ele><time>2026-05-02T12:31:01.983Z</time></trkpt><trkpt lat="44.006468930902244" lon="10.85621111661563"><ele>780.9999999999999</ele><time>2026-05-02T12:31:03.983Z</time></trkpt><trkpt lat="44.00643925790213" lon="10.856105040385746"><ele>781.0</ele><time>2026-05-02T12:31:05.982Z</time></trkpt><trkpt lat="44.00640509986048" lon="10.855975543632903"><ele>781.0</ele><time>2026-05-02T12:31:08.983Z</time></trkpt><trkpt lat="44.00637500961629" lon="10.855889345091763"><ele>781.0</ele><time>2026-05-02T12:31:10.983Z</time></trkpt><trkpt lat="44.006346781287995" lon="10.85580136695196"><ele>780.9999999999999</ele><time>2026-05-02T12:31:12.983Z</time></trkpt><trkpt lat="44.00631706453262" lon="10.855696412537085"><ele>781.0</ele><time>2026-05-02T12:31:15.983Z</time></trkpt><trkpt lat="44.00627996769381" lon="10.855572564517537"><ele>778.1666666666666</ele><time>2026-05-02T12:31:18.983Z</time></trkpt><trkpt lat="44.00624349934443" lon="10.855461370509854"><ele>775.3333333333333</ele><time>2026-05-02T12:31:21.983Z</time></trkpt><trkpt lat="44.006210358739466" lon="10.855372819868306"><ele>772.5</ele><time>2026-05-02T12:31:24.983Z</time></trkpt><trkpt lat="44.00617157665518" lon="10.85528667537526"><ele>769.6666666666666</ele><time>2026-05-02T12:31:27.983Z</time></trkpt><trkpt lat="44.006122881243684" lon="10.855198446046767"><ele>766.8333333333333</ele><time>2026-05-02T12:31:30.983Z</time></trkpt><trkpt lat="44.006068048162696" lon="10.855124128053165"><ele>764.0</ele><time>2026-05-02T12:31:33.983Z</time></trkpt><trkpt lat="44.00601265977397" lon="10.855067925812806"><ele>763.8571428571429</ele><time>2026-05-02T12:31:36.983Z</time></trkpt><trkpt lat="44.00595792630603" lon="10.855019397215802"><ele>763.7142857142857</ele><time>2026-05-02T12:31:39.983Z</time></trkpt><trkpt lat="44.00589359182218" lon="10.85496549618453"><ele>763.5714285714286</ele><time>2026-05-02T12:31:42.983Z</time></trkpt><trkpt lat="44.00583563733646" lon="10.854918280277218"><ele>763.4285714285714</ele><time>2026-05-02T12:31:45.983Z</time></trkpt><trkpt lat="44.00578123632993" lon="10.854865593129377"><ele>763.2857142857142</ele><time>2026-05-02T12:31:49.983Z</time></trkpt><trkpt lat="44.005718174210955" lon="10.85480633680957"><ele>763.1428571428571</ele><time>2026-05-02T12:31:53.983Z</time></trkpt><trkpt lat="44.00566470838514" lon="10.854748110315887"><ele>763.0</ele><time>2026-05-02T12:31:56.983Z</time></trkpt><trkpt lat="44.005606117485186" lon="10.854689740813"><ele>763.0</ele><time>2026-05-02T12:31:59.983Z</time></trkpt><trkpt lat="44.00554934522629" lon="10.854638491941605"><ele>763.0</ele><time>2026-05-02T12:32:04.983Z</time></trkpt><trkpt lat="44.0054857498641" lon="10.854587627572917"><ele>763.0</ele><time>2026-05-02T12:32:08.983Z</time></trkpt><trkpt lat="44.00543359904687" lon="10.85452647893184"><ele>763.0</ele><time>2026-05-02T12:32:12.983Z</time></trkpt><trkpt lat="44.00537755938392" lon="10.854452184519507"><ele>763.0</ele><time>2026-05-02T12:32:15.983Z</time></trkpt><trkpt lat="44.005320197222744" lon="10.854392280957612"><ele>763.0</ele><time>2026-05-02T12:32:19.983Z</time></trkpt><trkpt lat="44.00528112264748" lon="10.85430436117528"><ele>763.0</ele><time>2026-05-02T12:32:24.983Z</time></trkpt><trkpt lat="44.005232560248515" lon="10.854246341624219"><ele>762.0</ele><time>2026-05-02T12:32:29.983Z</time></trkpt><trkpt lat="44.0051996957124" lon="10.854155288230366"><ele>761.0</ele><time>2026-05-02T12:32:35.983Z</time></trkpt><trkpt lat="44.005177694241006" lon="10.854068859736016"><ele>760.0</ele><time>2026-05-02T12:32:40.983Z</time></trkpt><trkpt lat="44.005151823863265" lon="10.853978007451346"><ele>759.0</ele><time>2026-05-02T12:32:44.983Z</time></trkpt><trkpt lat="44.005127903303034" lon="10.85389017846739"><ele>758.0</ele><time>2026-05-02T12:32:48.983Z</time></trkpt><trkpt lat="44.00509779872923" lon="10.853805340784762"><ele>757.0</ele><time>2026-05-02T12:32:52.983Z</time></trkpt><trkpt lat="44.005065198549495" lon="10.853715857775384"><ele>756.0</ele><time>2026-05-02T12:32:57.983Z</time></trkpt><trkpt lat="44.00503214724963" lon="10.85361967880451"><ele>756.0</ele><time>2026-05-02T12:33:03.983Z</time></trkpt><trkpt lat="44.00499847089449" lon="10.85352661390186"><ele>756.0</ele><time>2026-05-02T12:33:08.983Z</time></trkpt><trkpt lat="44.00495502673197" lon="10.853439074807625"><ele>756.0</ele><time>2026-05-02T12:33:14.982Z</time></trkpt><trkpt lat="44.0049128365122" lon="10.853364382070687"><ele>756.0</ele><time>2026-05-02T12:33:18.981Z</time></trkpt><trkpt lat="44.00485762821887" lon="10.853307470047385"><ele>756.0</ele><time>2026-05-02T12:33:22.982Z</time></trkpt><trkpt lat="44.00480113356811" lon="10.853233701211472"><ele>756.0</ele><time>2026-05-02T12:33:27.982Z</time></trkpt><trkpt lat="44.00475031099583" lon="10.853143942109314"><ele>756.0</ele><time>2026-05-02T12:33:32.982Z</time></trkpt><trkpt lat="44.004691413499714" lon="10.853078983061616"><ele>757.8333333333334</ele><time>2026-05-02T12:33:36.982Z</time></trkpt><trkpt lat="44.00464285925022" lon="10.853020457279792"><ele>759.6666666666666</ele><time>2026-05-02T12:33:40.982Z</time></trkpt><trkpt lat="44.004562590492874" lon="10.852991516109386"><ele>761.5</ele><time>2026-05-02T12:33:44.982Z</time></trkpt><trkpt lat="44.004495928382" lon="10.852947909291604"><ele>763.3333333333333</ele><time>2026-05-02T12:33:48.982Z</time></trkpt><trkpt lat="44.00442102192244" lon="10.852906006136585"><ele>765.1666666666666</ele><time>2026-05-02T12:33:52.981Z</time></trkpt><trkpt lat="44.00436138625728" lon="10.852859151908033"><ele>767.0</ele><time>2026-05-02T12:33:56.981Z</time></trkpt><trkpt lat="44.004293805800145" lon="10.852785603074173"><ele>767.0</ele><time>2026-05-02T12:34:01.981Z</time></trkpt><trkpt lat="44.00422713681151" lon="10.85272906456749"><ele>767.0</ele><time>2026-05-02T12:34:05.981Z</time></trkpt><trkpt lat="44.00416768152807" lon="10.852679429649823"><ele>767.0</ele><time>2026-05-02T12:34:09.981Z</time></trkpt><trkpt lat="44.0041033830083" lon="10.852618132134703"><ele>767.0</ele><time>2026-05-02T12:34:13.981Z</time></trkpt><trkpt lat="44.0040342473843" lon="10.852573555960122"><ele>767.0</ele><time>2026-05-02T12:34:17.981Z</time></trkpt><trkpt lat="44.00397367679959" lon="10.852535230714443"><ele>767.0</ele><time>2026-05-02T12:34:21.981Z</time></trkpt><trkpt lat="44.00391319284686" lon="10.852498747844995"><ele>767.0</ele><time>2026-05-02T12:34:25.981Z</time></trkpt><trkpt lat="44.003828021467" lon="10.852468759911584"><ele>767.5714285714286</ele><time>2026-05-02T12:34:29.981Z</time></trkpt><trkpt lat="44.003758920997434" lon="10.852434565442937"><ele>768.1428571428571</ele><time>2026-05-02T12:34:32.981Z</time></trkpt><trkpt lat="44.003694205989135" lon="10.852387397404428"><ele>768.7142857142858</ele><time>2026-05-02T12:34:36.981Z</time></trkpt><trkpt lat="44.00363857069414" lon="10.852317842958756"><ele>769.2857142857142</ele><time>2026-05-02T12:34:40.981Z</time></trkpt><trkpt lat="44.00357983749623" lon="10.852248380941939"><ele>769.8571428571428</ele><time>2026-05-02T12:34:44.981Z</time></trkpt><trkpt lat="44.003517485801716" lon="10.85219840077812"><ele>770.4285714285714</ele><time>2026-05-02T12:34:47.981Z</time></trkpt><trkpt lat="44.003474617323974" lon="10.852133031621726"><ele>771.0</ele><time>2026-05-02T12:34:50.981Z</time></trkpt><trkpt lat="44.00340909733288" lon="10.852059679764341"><ele>771.0</ele><time>2026-05-02T12:34:54.981Z</time></trkpt><trkpt lat="44.0033527752859" lon="10.85200361720328"><ele>771.0</ele><time>2026-05-02T12:34:58.981Z</time></trkpt><trkpt lat="44.0033044986513" lon="10.851945681336698"><ele>771.0</ele><time>2026-05-02T12:35:02.981Z</time></trkpt><trkpt lat="44.003250023822794" lon="10.851882424452803"><ele>771.0</ele><time>2026-05-02T12:35:05.981Z</time></trkpt><trkpt lat="44.00319856436694" lon="10.851818785351433"><ele>771.0</ele><time>2026-05-02T12:35:09.981Z</time></trkpt><trkpt lat="44.0031476694168" lon="10.85176432645062"><ele>771.0</ele><time>2026-05-02T12:35:13.981Z</time></trkpt><trkpt lat="44.003083407177314" lon="10.851681014167127"><ele>771.0</ele><time>2026-05-02T12:35:17.981Z</time></trkpt><trkpt lat="44.00302412885975" lon="10.851616032905499"><ele>771.6666666666666</ele><time>2026-05-02T12:35:21.981Z</time></trkpt><trkpt lat="44.00296068174058" lon="10.851548568997055"><ele>772.3333333333333</ele><time>2026-05-02T12:35:25.98Z</time></trkpt><trkpt lat="44.002895006888" lon="10.851481949039483"><ele>773.0</ele><time>2026-05-02T12:35:29.98Z</time></trkpt><trkpt lat="44.00282562130209" lon="10.851422844706454"><ele>773.6666666666666</ele><time>2026-05-02T12:35:33.98Z</time></trkpt><trkpt lat="44.00275245317565" lon="10.851368767241627"><ele>774.3333333333333</ele><time>2026-05-02T12:35:37.98Z</time></trkpt><trkpt lat="44.00269861135938" lon="10.851312028387602"><ele>775.0</ele><time>2026-05-02T12:35:41.98Z</time></trkpt><trkpt lat="44.002649747040124" lon="10.851245513964656"><ele>774.9999999999999</ele><time>2026-05-02T12:35:45.98Z</time></trkpt><trkpt lat="44.0025784263611" lon="10.851206126555256"><ele>775.0</ele><time>2026-05-02T12:35:49.98Z</time></trkpt><trkpt lat="44.00251860339811" lon="10.851171225359836"><ele>775.0</ele><time>2026-05-02T12:35:52.98Z</time></trkpt><trkpt lat="44.002447472445255" lon="10.85112192939121"><ele>775.0</ele><time>2026-05-02T12:35:56.98Z</time></trkpt><trkpt lat="44.002382486350776" lon="10.851090468665415"><ele>775.0</ele><time>2026-05-02T12:35:59.98Z</time></trkpt><trkpt lat="44.00230801453452" lon="10.851064253983687"><ele>774.9999999999999</ele><time>2026-05-02T12:36:03.98Z</time></trkpt><trkpt lat="44.002236294595676" lon="10.851018738409415"><ele>775.0</ele><time>2026-05-02T12:36:08.98Z</time></trkpt><trkpt lat="44.00216354907157" lon="10.85098963008408"><ele>774.9999999999999</ele><time>2026-05-02T12:36:12.98Z</time></trkpt><trkpt lat="44.00209299352644" lon="10.850945048276195"><ele>775.0</ele><time>2026-05-02T12:36:17.98Z</time></trkpt><trkpt lat="44.002027329980685" lon="10.850928231305849"><ele>775.0</ele><time>2026-05-02T12:36:22.98Z</time></trkpt><trkpt lat="44.001995428646644" lon="10.850845843905814"><ele>775.0</ele><time>2026-05-02T12:36:26.98Z</time></trkpt><trkpt lat="44.00198236703158" lon="10.850740411987301"><ele>775.0</ele><time>2026-05-02T12:36:29.98Z</time></trkpt><trkpt lat="44.001993888483156" lon="10.8506451317527"><ele>774.9999999999999</ele><time>2026-05-02T12:36:31.98Z</time></trkpt><trkpt lat="44.001983218066925" lon="10.850537052569662"><ele>775.0</ele><time>2026-05-02T12:36:35.98Z</time></trkpt><trkpt lat="44.0019781944892" lon="10.850429653928426"><ele>774.9999999999999</ele><time>2026-05-02T12:36:39.98Z</time></trkpt><trkpt lat="44.001965820910534" lon="10.850311383519175"><ele>775.0</ele><time>2026-05-02T12:36:43.98Z</time></trkpt><trkpt lat="44.001950834111874" lon="10.850199030720486"><ele>775.0</ele><time>2026-05-02T12:36:47.98Z</time></trkpt><trkpt lat="44.00196076018011" lon="10.850087164199213"><ele>775.0</ele><time>2026-05-02T12:36:51.98Z</time></trkpt><trkpt lat="44.00197886374282" lon="10.849997492641222"><ele>774.9999999999999</ele><time>2026-05-02T12:36:54.98Z</time></trkpt><trkpt lat="44.00200519360314" lon="10.849903600470816"><ele>775.0</ele><time>2026-05-02T12:36:58.98Z</time></trkpt><trkpt lat="44.00200900621859" lon="10.849798831837374"><ele>775.1666666666666</ele><time>2026-05-02T12:37:03.98Z</time></trkpt><trkpt lat="44.0020175199906" lon="10.849697017228815"><ele>775.3333333333333</ele><time>2026-05-02T12:37:07.98Z</time></trkpt><trkpt lat="44.001996354845936" lon="10.849580589172371"><ele>775.5</ele><time>2026-05-02T12:37:12.98Z</time></trkpt><trkpt lat="44.001974518488886" lon="10.849479614750269"><ele>775.6666666666667</ele><time>2026-05-02T12:37:16.98Z</time></trkpt><trkpt lat="44.00196573370935" lon="10.849388284269352"><ele>775.8333333333334</ele><time>2026-05-02T12:37:20.98Z</time></trkpt><trkpt lat="44.00193089197375" lon="10.849282254726193"><ele>776.0</ele><time>2026-05-02T12:37:24.979Z</time></trkpt><trkpt lat="44.00190659135662" lon="10.849179701915615"><ele>776.0</ele><time>2026-05-02T12:37:28.979Z</time></trkpt><trkpt lat="44.001879743455746" lon="10.849083356921515"><ele>776.0</ele><time>2026-05-02T12:37:31.979Z</time></trkpt><trkpt lat="44.00184363965956" lon="10.849167435864265"><ele>776.0</ele><time>2026-05-02T12:37:43.979Z</time></trkpt><trkpt lat="44.00183538396689" lon="10.84925543396446"><ele>776.0</ele><time>2026-05-02T12:37:50.979Z</time></trkpt><trkpt lat="44.001804062279696" lon="10.849341025572526"><ele>776.0</ele><time>2026-05-02T12:37:56.979Z</time></trkpt><trkpt lat="44.00176300887773" lon="10.849426414738591"><ele>776.0</ele><time>2026-05-02T12:38:01.979Z</time></trkpt><trkpt lat="44.001713383351074" lon="10.84950752553677"><ele>776.0</ele><time>2026-05-02T12:38:05.979Z</time></trkpt><trkpt lat="44.001689960846406" lon="10.849607966270987"><ele>776.2857142857142</ele><time>2026-05-02T12:38:09.979Z</time></trkpt><trkpt lat="44.0016467605863" lon="10.849688650002111"><ele>776.5714285714287</ele><time>2026-05-02T12:38:13.979Z</time></trkpt><trkpt lat="44.00161973317518" lon="10.849780450911384"><ele>776.8571428571429</ele><time>2026-05-02T12:38:18.979Z</time></trkpt><trkpt lat="44.00159876645339" lon="10.849873593864578"><ele>777.1428571428571</ele><time>2026-05-02T12:38:22.979Z</time></trkpt><trkpt lat="44.00159971896716" lon="10.849979110295871"><ele>777.4285714285713</ele><time>2026-05-02T12:38:26.979Z</time></trkpt><trkpt lat="44.0015883897008" lon="10.850076782566704"><ele>777.7142857142858</ele><time>2026-05-02T12:38:30.979Z</time></trkpt><trkpt lat="44.00158162183156" lon="10.85016516317692"><ele>778.0</ele><time>2026-05-02T12:38:33.979Z</time></trkpt><trkpt lat="44.00155479173231" lon="10.850269847875941"><ele>778.0</ele><time>2026-05-02T12:38:36.979Z</time></trkpt><trkpt lat="44.00151153304553" lon="10.850358383562218"><ele>778.0</ele><time>2026-05-02T12:38:39.979Z</time></trkpt><trkpt lat="44.00147293551606" lon="10.850429283194782"><ele>778.0</ele><time>2026-05-02T12:38:41.979Z</time></trkpt><trkpt lat="44.001434622041835" lon="10.850527267099507"><ele>778.0</ele><time>2026-05-02T12:38:44.979Z</time></trkpt><trkpt lat="44.00138900780728" lon="10.850603254006437"><ele>778.0</ele><time>2026-05-02T12:38:47.979Z</time></trkpt><trkpt lat="44.00133583102028" lon="10.850654943552197"><ele>778.0</ele><time>2026-05-02T12:38:49.979Z</time></trkpt><trkpt lat="44.001271708655494" lon="10.850700406502927"><ele>778.0</ele><time>2026-05-02T12:38:52.979Z</time></trkpt><trkpt lat="44.001216073885296" lon="10.850775308806199"><ele>778.0</ele><time>2026-05-02T12:38:56.979Z</time></trkpt><trkpt lat="44.00116414053914" lon="10.850857372422748"><ele>778.0</ele><time>2026-05-02T12:39:00.979Z</time></trkpt><trkpt lat="44.00111567084818" lon="10.850917570891164"><ele>778.0</ele><time>2026-05-02T12:39:02.979Z</time></trkpt><trkpt lat="44.00106852011017" lon="10.850991740475761"><ele>778.0</ele><time>2026-05-02T12:39:05.979Z</time></trkpt><trkpt lat="44.00104147537705" lon="10.851081684279618"><ele>778.0</ele><time>2026-05-02T12:39:11.979Z</time></trkpt><trkpt lat="44.001071046559474" lon="10.851160705520297"><ele>778.0</ele><time>2026-05-02T12:39:18.978Z</time></trkpt><trkpt lat="44.001097800497284" lon="10.851260928750593"><ele>778.0</ele><time>2026-05-02T12:39:27.978Z</time></trkpt><trkpt lat="44.0011383977034" lon="10.851341893168122"><ele>778.4285714285714</ele><time>2026-05-02T12:39:32.978Z</time></trkpt><trkpt lat="44.001114180986626" lon="10.85142811444912"><ele>778.8571428571428</ele><time>2026-05-02T12:39:39.978Z</time></trkpt><trkpt lat="44.001058701428306" lon="10.851486179955971"><ele>779.2857142857142</ele><time>2026-05-02T12:39:45.978Z</time></trkpt><trkpt lat="44.001011800733785" lon="10.851547131867317"><ele>779.7142857142858</ele><time>2026-05-02T12:39:51.978Z</time></trkpt><trkpt lat="44.00094958221345" lon="10.851608567258586"><ele>780.1428571428571</ele><time>2026-05-02T12:39:57.978Z</time></trkpt><trkpt lat="44.0009029339231" lon="10.851678129162005"><ele>780.5714285714286</ele><time>2026-05-02T12:40:02.978Z</time></trkpt><trkpt lat="44.0008563391582" lon="10.85174538832229"><ele>781.0</ele><time>2026-05-02T12:40:05.978Z</time></trkpt><trkpt lat="44.00080658976176" lon="10.851836167913968"><ele>778.7142857142858</ele><time>2026-05-02T12:40:08.978Z</time></trkpt><trkpt lat="44.000767116991334" lon="10.851905884788087"><ele>776.4285714285714</ele><time>2026-05-02T12:40:11.978Z</time></trkpt><trkpt lat="44.00070602640403" lon="10.851962610758548"><ele>774.1428571428571</ele><time>2026-05-02T12:40:14.978Z</time></trkpt><trkpt lat="44.000629034034624" lon="10.85202701294313"><ele>771.8571428571429</ele><time>2026-05-02T12:40:17.978Z</time></trkpt><trkpt lat="44.00057183511248" lon="10.852088150857282"><ele>769.5714285714286</ele><time>2026-05-02T12:40:20.978Z</time></trkpt><trkpt lat="44.00053644889133" lon="10.852167218617456"><ele>767.2857142857143</ele><time>2026-05-02T12:40:23.978Z</time></trkpt><trkpt lat="44.00052176361346" lon="10.852278835419344"><ele>765.0</ele><time>2026-05-02T12:40:27.978Z</time></trkpt><trkpt lat="44.00051653076208" lon="10.85238327846736"><ele>765.0</ele><time>2026-05-02T12:40:30.978Z</time></trkpt><trkpt lat="44.00054717256315" lon="10.852491209631468"><ele>765.0</ele><time>2026-05-02T12:40:33.978Z</time></trkpt><trkpt lat="44.00051403524276" lon="10.8525701681815"><ele>765.0</ele><time>2026-05-02T12:40:35.978Z</time></trkpt><trkpt lat="44.00045831459099" lon="10.85265913772608"><ele>765.0</ele><time>2026-05-02T12:40:38.978Z</time></trkpt><trkpt lat="44.00041178629401" lon="10.8527440985926"><ele>765.0</ele><time>2026-05-02T12:40:41.978Z</time></trkpt><trkpt lat="44.000360859220834" lon="10.85281290300941"><ele>765.0</ele><time>2026-05-02T12:40:44.978Z</time></trkpt><trkpt lat="44.00030643319146" lon="10.852889709499934"><ele>767.6666666666666</ele><time>2026-05-02T12:40:47.978Z</time></trkpt><trkpt lat="44.00023930124969" lon="10.852979384354567"><ele>770.3333333333333</ele><time>2026-05-02T12:40:50.978Z</time></trkpt><trkpt lat="44.00018803707704" lon="10.85304786315127"><ele>773.0</ele><time>2026-05-02T12:40:52.978Z</time></trkpt><trkpt lat="44.000122898510355" lon="10.853130265030236"><ele>775.6666666666666</ele><time>2026-05-02T12:40:54.978Z</time></trkpt><trkpt lat="44.000067231422115" lon="10.853199557030008"><ele>778.3333333333333</ele><time>2026-05-02T12:40:57.978Z</time></trkpt><trkpt lat="44.000020971934696" lon="10.853274038447468"><ele>781.0</ele><time>2026-05-02T12:41:00.978Z</time></trkpt><trkpt lat="43.99996159556134" lon="10.853353868214588"><ele>780.9999999999999</ele><time>2026-05-02T12:41:03.978Z</time></trkpt><trkpt lat="43.99990037595319" lon="10.853428375803729"><ele>781.0</ele><time>2026-05-02T12:41:05.978Z</time></trkpt><trkpt lat="43.99984267544775" lon="10.853509431166861"><ele>781.0</ele><time>2026-05-02T12:41:07.978Z</time></trkpt><trkpt lat="43.99978682052392" lon="10.853600546219544"><ele>781.0</ele><time>2026-05-02T12:41:09.978Z</time></trkpt><trkpt lat="43.999743695791615" lon="10.853670901328233"><ele>780.9999999999999</ele><time>2026-05-02T12:41:11.978Z</time></trkpt><trkpt lat="43.99970328258533" lon="10.853744973985036"><ele>781.0</ele><time>2026-05-02T12:41:13.978Z</time></trkpt><trkpt lat="43.999647291906676" lon="10.853827305724284"><ele>785.3333333333333</ele><time>2026-05-02T12:41:16.978Z</time></trkpt><trkpt lat="43.999601738707256" lon="10.853897716636999"><ele>789.6666666666666</ele><time>2026-05-02T12:41:20.978Z</time></trkpt><trkpt lat="43.99955177113122" lon="10.85397353963024"><ele>794.0</ele><time>2026-05-02T12:41:24.978Z</time></trkpt><trkpt lat="43.99950659306708" lon="10.854038602539296"><ele>798.3333333333333</ele><time>2026-05-02T12:41:27.978Z</time></trkpt><trkpt lat="43.999445872097866" lon="10.854117358068901"><ele>802.6666666666666</ele><time>2026-05-02T12:41:31.978Z</time></trkpt><trkpt lat="43.99937574237296" lon="10.854198318379325"><ele>807.0</ele><time>2026-05-02T12:41:34.977Z</time></trkpt><trkpt lat="43.99930670640493" lon="10.854264702576081"><ele>805.0</ele><time>2026-05-02T12:41:37.977Z</time></trkpt><trkpt lat="43.99924610111645" lon="10.854327371412156"><ele>803.0</ele><time>2026-05-02T12:41:39.977Z</time></trkpt><trkpt lat="43.99917082928048" lon="10.85437628770763"><ele>801.0</ele><time>2026-05-02T12:41:41.976Z</time></trkpt><trkpt lat="43.99908711060121" lon="10.854437822696722"><ele>799.0</ele><time>2026-05-02T12:41:43.977Z</time></trkpt><trkpt lat="43.99901808170982" lon="10.854507006691081"><ele>797.0</ele><time>2026-05-02T12:41:46.977Z</time></trkpt><trkpt lat="43.998957192508165" lon="10.854561653543223"><ele>795.0</ele><time>2026-05-02T12:41:49.977Z</time></trkpt><trkpt lat="43.99889174177929" lon="10.854621936417189"><ele>795.0</ele><time>2026-05-02T12:41:52.977Z</time></trkpt><trkpt lat="43.99882984007846" lon="10.854683610597625"><ele>795.0</ele><time>2026-05-02T12:41:55.977Z</time></trkpt><trkpt lat="43.99877309049647" lon="10.854753820828718"><ele>795.0</ele><time>2026-05-02T12:41:58.977Z</time></trkpt><trkpt lat="43.99873387892115" lon="10.85482253368021"><ele>795.0</ele><time>2026-05-02T12:42:01.977Z</time></trkpt><trkpt lat="43.998702299658575" lon="10.854915869585426"><ele>795.0</ele><time>2026-05-02T12:42:05.977Z</time></trkpt><trkpt lat="43.99866388449911" lon="10.854996511441616"><ele>795.0</ele><time>2026-05-02T12:42:10.977Z</time></trkpt><trkpt lat="43.998623836339256" lon="10.855071097415793"><ele>795.0</ele><time>2026-05-02T12:42:14.977Z</time></trkpt><trkpt lat="43.99856892282457" lon="10.855154249265421"><ele>793.0</ele><time>2026-05-02T12:42:18.977Z</time></trkpt><trkpt lat="43.99851998126599" lon="10.855224240235938"><ele>791.0</ele><time>2026-05-02T12:42:22.977Z</time></trkpt><trkpt lat="43.998462902452815" lon="10.855307291362234"><ele>789.0</ele><time>2026-05-02T12:42:27.977Z</time></trkpt><trkpt lat="43.99842089033158" lon="10.855386315678182"><ele>787.0</ele><time>2026-05-02T12:42:31.977Z</time></trkpt><trkpt lat="43.99837407462899" lon="10.855463243417908"><ele>785.0</ele><time>2026-05-02T12:42:36.977Z</time></trkpt><trkpt lat="43.99833188360281" lon="10.855558173268474"><ele>783.0</ele><time>2026-05-02T12:42:41.977Z</time></trkpt><trkpt lat="43.998310331677246" lon="10.85564356715364"><ele>781.0</ele><time>2026-05-02T12:42:45.977Z</time></trkpt><trkpt lat="43.99831449373069" lon="10.855758513272011"><ele>781.0</ele><time>2026-05-02T12:42:49.977Z</time></trkpt><trkpt lat="43.998330690222176" lon="10.855844848957732"><ele>781.0</ele><time>2026-05-02T12:42:52.977Z</time></trkpt><trkpt lat="43.998354757719355" lon="10.85592812046431"><ele>781.0</ele><time>2026-05-02T12:42:56.977Z</time></trkpt><trkpt lat="43.99838643267075" lon="10.856016564717144"><ele>781.0</ele><time>2026-05-02T12:43:00.977Z</time></trkpt><trkpt lat="43.998420467190584" lon="10.85609850710597"><ele>781.0</ele><time>2026-05-02T12:43:04.977Z</time></trkpt><trkpt lat="43.998459141656845" lon="10.85618497398349"><ele>781.0</ele><time>2026-05-02T12:43:09.977Z</time></trkpt><trkpt lat="43.998495739066946" lon="10.856257701024873"><ele>781.0</ele><time>2026-05-02T12:43:14.977Z</time></trkpt><trkpt lat="43.99853921922764" lon="10.856324685251632"><ele>782.7142857142858</ele><time>2026-05-02T12:43:18.977Z</time></trkpt><trkpt lat="43.99858572926033" lon="10.856396231866883"><ele>784.4285714285714</ele><time>2026-05-02T12:43:22.977Z</time></trkpt><trkpt lat="43.998629759819615" lon="10.856461827871275"><ele>786.1428571428571</ele><time>2026-05-02T12:43:27.977Z</time></trkpt><trkpt lat="43.998677078745224" lon="10.856534584627783"><ele>787.8571428571429</ele><time>2026-05-02T12:43:33.977Z</time></trkpt><trkpt lat="43.998714798900714" lon="10.856648162801521"><ele>789.5714285714286</ele><time>2026-05-02T12:43:36.977Z</time></trkpt><trkpt lat="43.99872190061336" lon="10.856759330274068"><ele>791.2857142857143</ele><time>2026-05-02T12:43:39.977Z</time></trkpt><trkpt lat="43.99871826440739" lon="10.856853950431901"><ele>793.0</ele><time>2026-05-02T12:43:42.976Z</time></trkpt><trkpt lat="43.99871183212681" lon="10.85696550027865"><ele>793.0000000000001</ele><time>2026-05-02T12:43:46.976Z</time></trkpt><trkpt lat="43.99872949014269" lon="10.85705836690406"><ele>793.0</ele><time>2026-05-02T12:43:49.976Z</time></trkpt><trkpt lat="43.998770916698064" lon="10.857125633963713"><ele>793.0</ele><time>2026-05-02T12:43:51.976Z</time></trkpt><trkpt lat="43.99882198039566" lon="10.857210551724803"><ele>793.0</ele><time>2026-05-02T12:43:54.975Z</time></trkpt><trkpt lat="43.998867546345416" lon="10.857291413694004"><ele>793.0</ele><time>2026-05-02T12:43:57.975Z</time></trkpt><trkpt lat="43.99892216991358" lon="10.85738562860481"><ele>793.0000000000001</ele><time>2026-05-02T12:44:01.975Z</time></trkpt><trkpt lat="43.99897281010924" lon="10.857442829947908"><ele>793.0</ele><time>2026-05-02T12:44:05.975Z</time></trkpt><trkpt lat="43.999046294482895" lon="10.857493646368187"><ele>793.0000000000001</ele><time>2026-05-02T12:44:09.975Z</time></trkpt><trkpt lat="43.99910434549601" lon="10.857535235987246"><ele>793.0</ele><time>2026-05-02T12:44:13.975Z</time></trkpt><trkpt lat="43.99917510317889" lon="10.857562420854254"><ele>793.0</ele><time>2026-05-02T12:44:17.975Z</time></trkpt><trkpt lat="43.999238877424474" lon="10.857598794677932"><ele>793.0</ele><time>2026-05-02T12:44:20.975Z</time></trkpt><trkpt lat="43.999322071725764" lon="10.857617840745743"><ele>793.0</ele><time>2026-05-02T12:44:24.975Z</time></trkpt><trkpt lat="43.99938947231389" lon="10.857604462824039"><ele>793.0000000000001</ele><time>2026-05-02T12:44:28.975Z</time></trkpt><trkpt lat="43.999467551146594" lon="10.857569192657172"><ele>793.0</ele><time>2026-05-02T12:44:32.975Z</time></trkpt><trkpt lat="43.99952991847691" lon="10.857529874482486"><ele>794.2857142857143</ele><time>2026-05-02T12:44:36.975Z</time></trkpt><trkpt lat="43.99959594985909" lon="10.857459053918333"><ele>795.5714285714286</ele><time>2026-05-02T12:44:40.975Z</time></trkpt><trkpt lat="43.99964634981382" lon="10.857395558957032"><ele>796.8571428571429</ele><time>2026-05-02T12:44:43.975Z</time></trkpt><trkpt lat="43.99970164636204" lon="10.857352097605137"><ele>798.1428571428571</ele><time>2026-05-02T12:44:46.975Z</time></trkpt><trkpt lat="43.999789443241234" lon="10.85733535669873"><ele>799.4285714285714</ele><time>2026-05-02T12:44:50.975Z</time></trkpt><trkpt lat="43.99985387316731" lon="10.857325359307518"><ele>800.7142857142858</ele><time>2026-05-02T12:44:53.975Z</time></trkpt><trkpt lat="43.99991799488969" lon="10.857295056958638"><ele>802.0</ele><time>2026-05-02T12:44:57.975Z</time></trkpt><trkpt lat="43.99999540350795" lon="10.857272381541616"><ele>802.0</ele><time>2026-05-02T12:45:02.975Z</time></trkpt><trkpt lat="44.00006250281485" lon="10.857254141195158"><ele>802.0</ele><time>2026-05-02T12:45:06.975Z</time></trkpt><trkpt lat="44.00013527470446" lon="10.857240648682938"><ele>802.0</ele><time>2026-05-02T12:45:10.975Z</time></trkpt><trkpt lat="44.00020952723406" lon="10.857214568343515"><ele>802.0</ele><time>2026-05-02T12:45:14.975Z</time></trkpt><trkpt lat="44.0002737089215" lon="10.857188118853337"><ele>802.0</ele><time>2026-05-02T12:45:18.975Z</time></trkpt><trkpt lat="44.00034350845607" lon="10.857179140617648"><ele>802.0</ele><time>2026-05-02T12:45:22.975Z</time></trkpt><trkpt lat="44.000406710077684" lon="10.857131466980272"><ele>802.0</ele><time>2026-05-02T12:45:25.975Z</time></trkpt><trkpt lat="44.000424190795464" lon="10.857045952862405"><ele>802.0</ele><time>2026-05-02T12:45:29.975Z</time></trkpt><trkpt lat="44.00043488567103" lon="10.856941459341314"><ele>802.0</ele><time>2026-05-02T12:45:35.975Z</time></trkpt><trkpt lat="44.00044036925146" lon="10.856843180573568"><ele>802.0</ele><time>2026-05-02T12:45:40.975Z</time></trkpt><trkpt lat="44.000446865471105" lon="10.856747232123674"><ele>802.0</ele><time>2026-05-02T12:45:45.975Z</time></trkpt><trkpt lat="44.0004701736962" lon="10.856642826285892"><ele>802.0</ele><time>2026-05-02T12:45:50.974Z</time></trkpt><trkpt lat="44.000482042077" lon="10.856550616618728"><ele>802.0</ele><time>2026-05-02T12:45:55.975Z</time></trkpt><trkpt lat="44.00049141208116" lon="10.85644151453406"><ele>802.0</ele><time>2026-05-02T12:46:01.974Z</time></trkpt><trkpt lat="44.00049655537867" lon="10.856342755575113"><ele>804.0</ele><time>2026-05-02T12:46:05.974Z</time></trkpt><trkpt lat="44.00050095036216" lon="10.856250533972906"><ele>806.0</ele><time>2026-05-02T12:46:09.974Z</time></trkpt><trkpt lat="44.000495994610645" lon="10.856156283136013"><ele>808.0</ele><time>2026-05-02T12:46:13.974Z</time></trkpt><trkpt lat="44.00045250015201" lon="10.85607936772703"><ele>810.0</ele><time>2026-05-02T12:46:24.974Z</time></trkpt><trkpt lat="44.00038122023789" lon="10.8560597029803"><ele>812.0</ele><time>2026-05-02T12:46:27.974Z</time></trkpt><trkpt lat="44.00030400927658" lon="10.856115740111111"><ele>814.0</ele><time>2026-05-02T12:46:31.974Z</time></trkpt><trkpt lat="44.00022100230645" lon="10.856132987811483"><ele>816.0</ele><time>2026-05-02T12:46:36.974Z</time></trkpt><trkpt lat="44.00013743798556" lon="10.856130600796703"><ele>816.0</ele><time>2026-05-02T12:46:40.974Z</time></trkpt><trkpt lat="44.00006264180805" lon="10.856127990385453"><ele>816.0</ele><time>2026-05-02T12:46:44.974Z</time></trkpt><trkpt lat="43.99998879118391" lon="10.856105226779022"><ele>816.0</ele><time>2026-05-02T12:46:47.974Z</time></trkpt><trkpt lat="43.99991988441799" lon="10.856091443355627"><ele>816.0</ele><time>2026-05-02T12:46:50.974Z</time></trkpt><trkpt lat="43.999857355052214" lon="10.856073856640283"><ele>816.0</ele><time>2026-05-02T12:46:53.974Z</time></trkpt><trkpt lat="43.99977757744594" lon="10.856076098631139"><ele>816.0</ele><time>2026-05-02T12:46:56.974Z</time></trkpt><trkpt lat="43.99970030900006" lon="10.856076098628856"><ele>816.0</ele><time>2026-05-02T12:47:00.974Z</time></trkpt><trkpt lat="43.999632828523836" lon="10.856065994801236"><ele>816.0</ele><time>2026-05-02T12:47:03.974Z</time></trkpt><trkpt lat="43.99956972587436" lon="10.856034266873852"><ele>816.0</ele><time>2026-05-02T12:47:07.974Z</time></trkpt><trkpt lat="43.99955386359829" lon="10.855945655080513"><ele>816.0</ele><time>2026-05-02T12:47:13.974Z</time></trkpt><trkpt lat="43.99956345041212" lon="10.85584523664959"><ele>816.0</ele><time>2026-05-02T12:47:19.974Z</time></trkpt><trkpt lat="43.999557452383684" lon="10.85575215882799"><ele>816.0</ele><time>2026-05-02T12:47:24.974Z</time></trkpt><trkpt lat="43.9995571845925" lon="10.855658079400154"><ele>816.0</ele><time>2026-05-02T12:47:30.974Z</time></trkpt><trkpt lat="43.99958933435356" lon="10.855561165988503"><ele>816.0</ele><time>2026-05-02T12:47:36.974Z</time></trkpt><trkpt lat="43.999627000131824" lon="10.855474225425759"><ele>816.7142857142858</ele><time>2026-05-02T12:47:41.974Z</time></trkpt><trkpt lat="43.99968065995171" lon="10.855402696690572"><ele>817.4285714285714</ele><time>2026-05-02T12:47:45.974Z</time></trkpt><trkpt lat="43.99973966034548" lon="10.855335659182789"><ele>818.1428571428571</ele><time>2026-05-02T12:47:49.974Z</time></trkpt><trkpt lat="43.99979523072251" lon="10.855283720407048"><ele>818.8571428571429</ele><time>2026-05-02T12:47:53.974Z</time></trkpt><trkpt lat="43.99985023902794" lon="10.855202870541396"><ele>819.5714285714286</ele><time>2026-05-02T12:47:58.974Z</time></trkpt><trkpt lat="43.99990410459755" lon="10.85513964296156"><ele>820.2857142857143</ele><time>2026-05-02T12:48:02.974Z</time></trkpt><trkpt lat="43.999960084353226" lon="10.855074274473457"><ele>821.0</ele><time>2026-05-02T12:48:07.974Z</time></trkpt><trkpt lat="44.00001987618017" lon="10.85501847309505"><ele>821.0000000000001</ele><time>2026-05-02T12:48:11.974Z</time></trkpt><trkpt lat="44.00007162724252" lon="10.854957540903413"><ele>821.0</ele><time>2026-05-02T12:48:16.974Z</time></trkpt><trkpt lat="44.00013083445463" lon="10.854890292111145"><ele>821.0</ele><time>2026-05-02T12:48:21.974Z</time></trkpt><trkpt lat="44.000190995186195" lon="10.854846927536546"><ele>821.0</ele><time>2026-05-02T12:48:25.974Z</time></trkpt><trkpt lat="44.0002447591907" lon="10.854795736563524"><ele>821.0</ele><time>2026-05-02T12:48:30.974Z</time></trkpt><trkpt lat="44.000296032902305" lon="10.854736106487586"><ele>821.0000000000001</ele><time>2026-05-02T12:48:34.974Z</time></trkpt><trkpt lat="44.00032065284373" lon="10.854649727731816"><ele>821.0</ele><time>2026-05-02T12:48:42.974Z</time></trkpt><trkpt lat="44.00026745951356" lon="10.854577247033024"><ele>821.0000000000001</ele><time>2026-05-02T12:48:51.974Z</time></trkpt><trkpt lat="44.00021053801727" lon="10.854514652961997"><ele>821.0</ele><time>2026-05-02T12:48:54.974Z</time></trkpt><trkpt lat="44.00015354276461" lon="10.854447781417111"><ele>821.0</ele><time>2026-05-02T12:48:57.974Z</time></trkpt><trkpt lat="44.00013475011397" lon="10.854362643347827"><ele>821.0</ele><time>2026-05-02T12:49:03.974Z</time></trkpt><trkpt lat="44.00012245735692" lon="10.854221363512284"><ele>821.0</ele><time>2026-05-02T12:52:08.971Z</time></trkpt><trkpt lat="44.00013731020875" lon="10.854315771102733"><ele>821.0000000000001</ele><time>2026-05-02T13:02:59.958Z</time></trkpt><trkpt lat="44.00020026325134" lon="10.854329627450696"><ele>821.0</ele><time>2026-05-02T13:03:03.958Z</time></trkpt><trkpt lat="44.000254799788394" lon="10.854399198362833"><ele>821.0000000000001</ele><time>2026-05-02T13:03:09.958Z</time></trkpt><trkpt lat="44.00030243827982" lon="10.854456940906365"><ele>821.0</ele><time>2026-05-02T13:03:14.958Z</time></trkpt><trkpt lat="44.00036242631866" lon="10.854525915478014"><ele>821.0</ele><time>2026-05-02T13:03:19.958Z</time></trkpt><trkpt lat="44.00042506816245" lon="10.854497679698452"><ele>821.0</ele><time>2026-05-02T13:03:24.958Z</time></trkpt><trkpt lat="44.00048047457232" lon="10.854445525200777"><ele>821.0</ele><time>2026-05-02T13:03:33.958Z</time></trkpt><trkpt lat="44.00053140771888" lon="10.854393153327381"><ele>821.0000000000001</ele><time>2026-05-02T13:03:40.958Z</time></trkpt><trkpt lat="44.00059335887642" lon="10.854358772883709"><ele>821.0</ele><time>2026-05-02T13:03:45.958Z</time></trkpt><trkpt lat="44.00065615836779" lon="10.854347876756178"><ele>821.0000000000001</ele><time>2026-05-02T13:03:49.958Z</time></trkpt><trkpt lat="44.00072441756492" lon="10.854289504780045"><ele>821.0</ele><time>2026-05-02T13:03:55.957Z</time></trkpt><trkpt lat="44.000772200119414" lon="10.85421072797516"><ele>821.0</ele><time>2026-05-02T13:04:00.951Z</time></trkpt><trkpt lat="44.00082661999007" lon="10.854151732585164"><ele>821.0</ele><time>2026-05-02T13:04:05.946Z</time></trkpt><trkpt lat="44.00089277158047" lon="10.854090557566952"><ele>821.0000000000001</ele><time>2026-05-02T13:04:10.943Z</time></trkpt><trkpt lat="44.000964822505864" lon="10.854026661834359"><ele>821.0</ele><time>2026-05-02T13:04:14.941Z</time></trkpt><trkpt lat="44.00102672801472" lon="10.853989017131527"><ele>822.6666666666667</ele><time>2026-05-02T13:04:16.94Z</time></trkpt><trkpt lat="44.00111646339844" lon="10.853963341772866"><ele>824.3333333333334</ele><time>2026-05-02T13:04:20.938Z</time></trkpt><trkpt lat="44.00118675111456" lon="10.853915830171951"><ele>826.0</ele><time>2026-05-02T13:04:23.938Z</time></trkpt><trkpt lat="44.001251013583754" lon="10.853886707381356"><ele>827.6666666666667</ele><time>2026-05-02T13:04:26.937Z</time></trkpt><trkpt lat="44.00132347784535" lon="10.853839493578649"><ele>829.3333333333334</ele><time>2026-05-02T13:04:30.936Z</time></trkpt><trkpt lat="44.00140070291042" lon="10.853794686077476"><ele>831.0</ele><time>2026-05-02T13:04:33.936Z</time></trkpt><trkpt lat="44.00147925962198" lon="10.853768549936728"><ele>831.0</ele><time>2026-05-02T13:04:36.935Z</time></trkpt><trkpt lat="44.00156136210934" lon="10.853727989553773"><ele>831.0</ele><time>2026-05-02T13:04:40.933Z</time></trkpt><trkpt lat="44.00163663981538" lon="10.8536954650422"><ele>831.0</ele><time>2026-05-02T13:04:44.932Z</time></trkpt><trkpt lat="44.00171300306581" lon="10.853663843373047"><ele>831.0</ele><time>2026-05-02T13:04:48.932Z</time></trkpt><trkpt lat="44.00177976830281" lon="10.853636667436522"><ele>831.0</ele><time>2026-05-02T13:04:51.931Z</time></trkpt><trkpt lat="44.00185188695518" lon="10.853605527229114"><ele>831.0</ele><time>2026-05-02T13:04:55.931Z</time></trkpt><trkpt lat="44.001918190832676" lon="10.853581556984103"><ele>832.4</ele><time>2026-05-02T13:04:58.931Z</time></trkpt><trkpt lat="44.002012576455726" lon="10.853585343506243"><ele>833.8</ele><time>2026-05-02T13:05:02.931Z</time></trkpt><trkpt lat="44.00206864527708" lon="10.853518597286874"><ele>835.1999999999999</ele><time>2026-05-02T13:05:06.931Z</time></trkpt><trkpt lat="44.002029198535446" lon="10.8533599913156"><ele>836.5999999999999</ele><time>2026-05-02T13:05:13.93Z</time></trkpt><trkpt lat="44.001954053604805" lon="10.853290624726288"><ele>838.0</ele><time>2026-05-02T13:05:19.93Z</time></trkpt><trkpt lat="44.00188499243529" lon="10.853219030375099"><ele>835.6666666666666</ele><time>2026-05-02T13:05:24.93Z</time></trkpt><trkpt lat="44.00182184552453" lon="10.853197588630922"><ele>833.3333333333333</ele><time>2026-05-02T13:05:28.93Z</time></trkpt><trkpt lat="44.00175113445875" lon="10.85317816910569"><ele>831.0</ele><time>2026-05-02T13:05:31.93Z</time></trkpt><trkpt lat="44.00167653054529" lon="10.853161151685882"><ele>828.6666666666667</ele><time>2026-05-02T13:05:34.93Z</time></trkpt><trkpt lat="44.001600557023714" lon="10.853134989903989"><ele>826.3333333333334</ele><time>2026-05-02T13:05:37.93Z</time></trkpt><trkpt lat="44.001513888214205" lon="10.853104043655394"><ele>824.0</ele><time>2026-05-02T13:05:40.93Z</time></trkpt><trkpt lat="44.0014419291061" lon="10.853094110988243"><ele>822.2857142857142</ele><time>2026-05-02T13:05:43.93Z</time></trkpt><trkpt lat="44.00136996689604" lon="10.853067529322713"><ele>820.5714285714286</ele><time>2026-05-02T13:05:48.93Z</time></trkpt><trkpt lat="44.001380719339565" lon="10.852961756805371"><ele>818.8571428571429</ele><time>2026-05-02T13:05:53.93Z</time></trkpt><trkpt lat="44.00141771062455" lon="10.85289021115714"><ele>817.1428571428571</ele><time>2026-05-02T13:05:57.93Z</time></trkpt><trkpt lat="44.00146248923724" lon="10.852818018144639"><ele>815.4285714285714</ele><time>2026-05-02T13:06:01.93Z</time></trkpt><trkpt lat="44.00150855788344" lon="10.852742899399201"><ele>813.7142857142857</ele><time>2026-05-02T13:06:06.93Z</time></trkpt><trkpt lat="44.001569152155305" lon="10.852695507352331"><ele>812.0</ele><time>2026-05-02T13:06:11.93Z</time></trkpt><trkpt lat="44.001631236679266" lon="10.8526493944175"><ele>810.6666666666667</ele><time>2026-05-02T13:06:15.93Z</time></trkpt><trkpt lat="44.001688387920744" lon="10.85260218302008"><ele>809.3333333333334</ele><time>2026-05-02T13:06:19.93Z</time></trkpt><trkpt lat="44.001764568869966" lon="10.8525496930625"><ele>808.0</ele><time>2026-05-02T13:06:23.93Z</time></trkpt><trkpt lat="44.001824477679854" lon="10.85250351622001"><ele>806.6666666666667</ele><time>2026-05-02T13:06:26.93Z</time></trkpt><trkpt lat="44.00189158340604" lon="10.852456511912965"><ele>805.3333333333334</ele><time>2026-05-02T13:06:29.93Z</time></trkpt><trkpt lat="44.001958412794544" lon="10.852431183906525"><ele>804.0</ele><time>2026-05-02T13:06:32.93Z</time></trkpt><trkpt lat="44.002043255157865" lon="10.85241239792222"><ele>804.0</ele><time>2026-05-02T13:06:36.93Z</time></trkpt><trkpt lat="44.00210641928607" lon="10.852414604144222"><ele>804.0</ele><time>2026-05-02T13:06:38.929Z</time></trkpt><trkpt lat="44.00217766490135" lon="10.852405109069776"><ele>804.0</ele><time>2026-05-02T13:06:40.929Z</time></trkpt><trkpt lat="44.00223490055599" lon="10.852353856231158"><ele>804.0</ele><time>2026-05-02T13:06:43.929Z</time></trkpt><trkpt lat="44.00224545328641" lon="10.852265934161"><ele>804.0</ele><time>2026-05-02T13:06:46.928Z</time></trkpt><trkpt lat="44.002205507387245" lon="10.852198008116797"><ele>804.0</ele><time>2026-05-02T13:06:50.927Z</time></trkpt><trkpt lat="44.002157158543596" lon="10.852129291578306"><ele>804.0</ele><time>2026-05-02T13:06:56.928Z</time></trkpt><trkpt lat="44.00211573754992" lon="10.852053366059536"><ele>804.0</ele><time>2026-05-02T13:06:59.927Z</time></trkpt><trkpt lat="44.00206673129498" lon="10.851973106208497"><ele>804.0</ele><time>2026-05-02T13:07:03.927Z</time></trkpt><trkpt lat="44.00200361984341" lon="10.851897247220824"><ele>804.0</ele><time>2026-05-02T13:07:06.927Z</time></trkpt><trkpt lat="44.001943612678005" lon="10.85184647551845"><ele>804.0</ele><time>2026-05-02T13:07:09.927Z</time></trkpt><trkpt lat="44.00187852776467" lon="10.851804211922802"><ele>804.0</ele><time>2026-05-02T13:07:12.927Z</time></trkpt><trkpt lat="44.00181131386848" lon="10.851774708576054"><ele>804.0</ele><time>2026-05-02T13:07:16.927Z</time></trkpt><trkpt lat="44.00174564892446" lon="10.851746008163879"><ele>804.0</ele><time>2026-05-02T13:07:20.927Z</time></trkpt><trkpt lat="44.00165688647225" lon="10.851758352971352"><ele>800.1666666666666</ele><time>2026-05-02T13:07:25.927Z</time></trkpt><trkpt lat="44.0015856681951" lon="10.85177556436354"><ele>796.3333333333333</ele><time>2026-05-02T13:07:28.927Z</time></trkpt><trkpt lat="44.00151962208866" lon="10.851783214893066"><ele>792.5</ele><time>2026-05-02T13:07:31.927Z</time></trkpt><trkpt lat="44.001444481102176" lon="10.851733035806644"><ele>788.6666666666666</ele><time>2026-05-02T13:07:34.927Z</time></trkpt><trkpt lat="44.00135875626013" lon="10.851686124544004"><ele>784.8333333333333</ele><time>2026-05-02T13:07:37.927Z</time></trkpt><trkpt lat="44.00130191281697" lon="10.851644045465376"><ele>781.0</ele><time>2026-05-02T13:07:39.927Z</time></trkpt><trkpt lat="44.001239863966575" lon="10.8515856854839"><ele>781.0</ele><time>2026-05-02T13:07:41.927Z</time></trkpt><trkpt lat="44.001166772538745" lon="10.851519974647696"><ele>781.0</ele><time>2026-05-02T13:07:44.927Z</time></trkpt><trkpt lat="44.00111458839613" lon="10.85145880416488"><ele>781.0</ele><time>2026-05-02T13:07:47.927Z</time></trkpt><trkpt lat="44.0010606585232" lon="10.851376627363589"><ele>781.0</ele><time>2026-05-02T13:07:50.927Z</time></trkpt><trkpt lat="44.001053568295504" lon="10.851288580701775"><ele>781.0</ele><time>2026-05-02T13:07:54.927Z</time></trkpt><trkpt lat="44.0010341945876" lon="10.851202881947282"><ele>781.0</ele><time>2026-05-02T13:07:56.927Z</time></trkpt><trkpt lat="44.00108295107567" lon="10.851106046201638"><ele>781.0</ele><time>2026-05-02T13:08:00.927Z</time></trkpt><trkpt lat="44.00113854364126" lon="10.851033087594722"><ele>780.5714285714286</ele><time>2026-05-02T13:08:02.927Z</time></trkpt><trkpt lat="44.00118214755119" lon="10.850955723425473"><ele>780.1428571428571</ele><time>2026-05-02T13:08:07.927Z</time></trkpt><trkpt lat="44.00121290382121" lon="10.850856445389796"><ele>779.7142857142858</ele><time>2026-05-02T13:08:11.927Z</time></trkpt><trkpt lat="44.00123699091254" lon="10.850765201743778"><ele>779.2857142857142</ele><time>2026-05-02T13:08:15.927Z</time></trkpt><trkpt lat="44.001276707110776" lon="10.850683242472623"><ele>778.8571428571428</ele><time>2026-05-02T13:08:18.927Z</time></trkpt><trkpt lat="44.00132090536501" lon="10.85060233933077"><ele>778.4285714285714</ele><time>2026-05-02T13:08:21.927Z</time></trkpt><trkpt lat="44.00134338169044" lon="10.850516314660219"><ele>778.0</ele><time>2026-05-02T13:08:25.927Z</time></trkpt><trkpt lat="44.00138412686363" lon="10.850438253288676"><ele>778.0</ele><time>2026-05-02T13:08:30.927Z</time></trkpt><trkpt lat="44.001417398355834" lon="10.850345628022856"><ele>778.0</ele><time>2026-05-02T13:08:35.927Z</time></trkpt><trkpt lat="44.001430803630946" lon="10.850238795288186"><ele>778.0</ele><time>2026-05-02T13:08:38.926Z</time></trkpt><trkpt lat="44.00142600361775" lon="10.85013269022164"><ele>778.0</ele><time>2026-05-02T13:08:42.926Z</time></trkpt><trkpt lat="44.00142414317256" lon="10.850044796615707"><ele>778.0</ele><time>2026-05-02T13:08:46.926Z</time></trkpt><trkpt lat="44.001436270733464" lon="10.849946690630759"><ele>778.0</ele><time>2026-05-02T13:08:50.926Z</time></trkpt><trkpt lat="44.0014563820296" lon="10.84984601433419"><ele>778.0</ele><time>2026-05-02T13:08:53.925Z</time></trkpt><trkpt lat="44.0015001831542" lon="10.849761762580375"><ele>778.4999999999999</ele><time>2026-05-02T13:08:56.925Z</time></trkpt><trkpt lat="44.00154069550476" lon="10.849665078058875"><ele>779.0</ele><time>2026-05-02T13:08:59.924Z</time></trkpt><trkpt lat="44.00157455672292" lon="10.849563383182518"><ele>779.5</ele><time>2026-05-02T13:09:02.924Z</time></trkpt><trkpt lat="44.00160660435255" lon="10.849463007476523"><ele>780.0</ele><time>2026-05-02T13:09:05.925Z</time></trkpt><trkpt lat="44.00165133445474" lon="10.849356307169135"><ele>780.4999999999999</ele><time>2026-05-02T13:09:07.925Z</time></trkpt><trkpt lat="44.00169081249149" lon="10.849280972707092"><ele>781.0</ele><time>2026-05-02T13:09:09.925Z</time></trkpt><trkpt lat="44.001739551264684" lon="10.849178224769226"><ele>779.6666666666666</ele><time>2026-05-02T13:09:12.925Z</time></trkpt><trkpt lat="44.001785584905726" lon="10.849086872247176"><ele>778.3333333333333</ele><time>2026-05-02T13:09:16.925Z</time></trkpt><trkpt lat="44.00182641754165" lon="10.849005840761306"><ele>777.0</ele><time>2026-05-02T13:09:19.925Z</time></trkpt><trkpt lat="44.00186357837939" lon="10.84893209616547"><ele>775.6666666666667</ele><time>2026-05-02T13:09:22.925Z</time></trkpt><trkpt lat="44.00186671952359" lon="10.848842437908802"><ele>774.3333333333334</ele><time>2026-05-02T13:09:25.925Z</time></trkpt><trkpt lat="44.001845129069515" lon="10.848722671043634"><ele>773.0</ele><time>2026-05-02T13:09:28.925Z</time></trkpt><trkpt lat="44.00178874751257" lon="10.848627760791143"><ele>773.0000000000001</ele><time>2026-05-02T13:09:29.925Z</time></trkpt><trkpt lat="44.001770039774065" lon="10.848519230853176"><ele>773.0</ele><time>2026-05-02T13:09:32.925Z</time></trkpt><trkpt lat="44.00174688001571" lon="10.848408955816774"><ele>773.0</ele><time>2026-05-02T13:09:35.925Z</time></trkpt><trkpt lat="44.001720825389064" lon="10.848295758657242"><ele>773.0</ele><time>2026-05-02T13:09:38.925Z</time></trkpt><trkpt lat="44.001701827049615" lon="10.848205410738627"><ele>773.0000000000001</ele><time>2026-05-02T13:09:41.925Z</time></trkpt><trkpt lat="44.001674420219565" lon="10.848083690426368"><ele>773.0</ele><time>2026-05-02T13:09:44.925Z</time></trkpt><trkpt lat="44.00165319867944" lon="10.847986515043019"><ele>773.1428571428571</ele><time>2026-05-02T13:09:47.925Z</time></trkpt><trkpt lat="44.001633844165816" lon="10.847898089390874"><ele>773.2857142857142</ele><time>2026-05-02T13:09:50.925Z</time></trkpt><trkpt lat="44.00160969277834" lon="10.847809970170678"><ele>773.4285714285714</ele><time>2026-05-02T13:09:53.925Z</time></trkpt><trkpt lat="44.00157845459964" lon="10.84771146133665"><ele>773.5714285714286</ele><time>2026-05-02T13:09:56.925Z</time></trkpt><trkpt lat="44.001545939000806" lon="10.847622553473995"><ele>773.7142857142858</ele><time>2026-05-02T13:10:00.925Z</time></trkpt><trkpt lat="44.001514733870245" lon="10.847530742042533"><ele>773.8571428571429</ele><time>2026-05-02T13:10:04.924Z</time></trkpt><trkpt lat="44.00149325362709" lon="10.847436274530745"><ele>774.0</ele><time>2026-05-02T13:10:08.924Z</time></trkpt><trkpt lat="44.001471765734046" lon="10.847327081317923"><ele>774.0</ele><time>2026-05-02T13:10:12.924Z</time></trkpt><trkpt lat="44.00146098862209" lon="10.847216167087113"><ele>774.0</ele><time>2026-05-02T13:10:15.924Z</time></trkpt><trkpt lat="44.001436011302864" lon="10.847101542046946"><ele>774.0</ele><time>2026-05-02T13:10:19.924Z</time></trkpt><trkpt lat="44.00140634746426" lon="10.847009566124864"><ele>774.0</ele><time>2026-05-02T13:10:22.924Z</time></trkpt><trkpt lat="44.00138435814568" lon="10.846924855346138"><ele>774.0</ele><time>2026-05-02T13:10:24.924Z</time></trkpt><trkpt lat="44.00136873969516" lon="10.84683298234888"><ele>774.0</ele><time>2026-05-02T13:10:27.924Z</time></trkpt><trkpt lat="44.00135096903976" lon="10.846746370908669"><ele>774.0</ele><time>2026-05-02T13:10:29.924Z</time></trkpt><trkpt lat="44.00133918081921" lon="10.846659208772152"><ele>774.7142857142858</ele><time>2026-05-02T13:10:32.924Z</time></trkpt><trkpt lat="44.001329481200834" lon="10.84656748664848"><ele>775.4285714285714</ele><time>2026-05-02T13:10:34.924Z</time></trkpt><trkpt lat="44.00132143371148" lon="10.846474817972876"><ele>776.1428571428571</ele><time>2026-05-02T13:10:36.924Z</time></trkpt><trkpt lat="44.00130954709672" lon="10.846380298243838"><ele>776.8571428571429</ele><time>2026-05-02T13:10:39.924Z</time></trkpt><trkpt lat="44.00129594305459" lon="10.846291683715512"><ele>777.5714285714286</ele><time>2026-05-02T13:10:42.924Z</time></trkpt><trkpt lat="44.00126895990302" lon="10.846190053381022"><ele>778.2857142857143</ele><time>2026-05-02T13:10:46.924Z</time></trkpt><trkpt lat="44.00123348395059" lon="10.846109780571226"><ele>779.0</ele><time>2026-05-02T13:10:49.924Z</time></trkpt><trkpt lat="44.001185841206244" lon="10.846022997188381"><ele>780.0000000000001</ele><time>2026-05-02T13:10:52.924Z</time></trkpt><trkpt lat="44.00115418859506" lon="10.845946454521773"><ele>781.0</ele><time>2026-05-02T13:10:55.924Z</time></trkpt><trkpt lat="44.00113480913711" lon="10.845856419718414"><ele>782.0</ele><time>2026-05-02T13:10:58.921Z</time></trkpt><trkpt lat="44.00112839507151" lon="10.84576368471023"><ele>783.0</ele><time>2026-05-02T13:11:01.922Z</time></trkpt><trkpt lat="44.00111759886244" lon="10.845660161919039"><ele>784.0</ele><time>2026-05-02T13:11:04.922Z</time></trkpt><trkpt lat="44.00111950142939" lon="10.845559059644605"><ele>785.0000000000001</ele><time>2026-05-02T13:11:07.921Z</time></trkpt><trkpt lat="44.0011251391871" lon="10.845462122093732"><ele>786.0</ele><time>2026-05-02T13:11:10.921Z</time></trkpt><trkpt lat="44.00112142572162" lon="10.845369707893509"><ele>786.0</ele><time>2026-05-02T13:11:13.921Z</time></trkpt><trkpt lat="44.00114721683415" lon="10.845262222788763"><ele>786.0</ele><time>2026-05-02T13:11:16.921Z</time></trkpt><trkpt lat="44.00116659684731" lon="10.845162269035768"><ele>786.0</ele><time>2026-05-02T13:11:20.921Z</time></trkpt><trkpt lat="44.001183886753736" lon="10.845068737703073"><ele>786.0</ele><time>2026-05-02T13:11:23.921Z</time></trkpt><trkpt lat="44.00120186629191" lon="10.844978149172562"><ele>786.0</ele><time>2026-05-02T13:11:26.921Z</time></trkpt><trkpt lat="44.001215267420505" lon="10.844864785822093"><ele>786.0</ele><time>2026-05-02T13:11:30.921Z</time></trkpt><trkpt lat="44.00121701905314" lon="10.84475956573915"><ele>785.6666666666666</ele><time>2026-05-02T13:11:34.921Z</time></trkpt><trkpt lat="44.00122668480795" lon="10.844667508365944"><ele>785.3333333333333</ele><time>2026-05-02T13:11:37.921Z</time></trkpt><trkpt lat="44.00123202379182" lon="10.844570333219417"><ele>785.0</ele><time>2026-05-02T13:11:40.921Z</time></trkpt><trkpt lat="44.00124645277185" lon="10.844462244189499"><ele>784.6666666666666</ele><time>2026-05-02T13:11:43.921Z</time></trkpt><trkpt lat="44.00127151349774" lon="10.844346288965301"><ele>784.3333333333333</ele><time>2026-05-02T13:11:46.921Z</time></trkpt><trkpt lat="44.001293171509154" lon="10.844254289812994"><ele>784.0</ele><time>2026-05-02T13:11:49.921Z</time></trkpt><trkpt lat="44.00131867566553" lon="10.844153534196678"><ele>783.9999999999999</ele><time>2026-05-02T13:11:52.921Z</time></trkpt><trkpt lat="44.00137185858938" lon="10.844063457871561"><ele>784.0</ele><time>2026-05-02T13:11:55.921Z</time></trkpt><trkpt lat="44.001430624366016" lon="10.843966281033252"><ele>784.0</ele><time>2026-05-02T13:11:58.921Z</time></trkpt><trkpt lat="44.001477924895966" lon="10.843894221720095"><ele>784.0</ele><time>2026-05-02T13:12:00.921Z</time></trkpt><trkpt lat="44.0015199403169" lon="10.84380090138679"><ele>783.9999999999999</ele><time>2026-05-02T13:12:03.921Z</time></trkpt><trkpt lat="44.001517897746595" lon="10.84367907181716"><ele>784.0</ele><time>2026-05-02T13:12:07.921Z</time></trkpt><trkpt lat="44.001508648311436" lon="10.843588464804373"><ele>782.0</ele><time>2026-05-02T13:12:11.921Z</time></trkpt><trkpt lat="44.00144966378792" lon="10.84343304243687"><ele>780.0</ele><time>2026-05-02T13:12:15.921Z</time></trkpt><trkpt lat="44.00138022272667" lon="10.843410390364925"><ele>778.0</ele><time>2026-05-02T13:12:17.921Z</time></trkpt><trkpt lat="44.001329212267144" lon="10.84330514232363"><ele>776.0</ele><time>2026-05-02T13:12:21.921Z</time></trkpt><trkpt lat="44.0012953917785" lon="10.843182395702524"><ele>774.0</ele><time>2026-05-02T13:12:24.921Z</time></trkpt><trkpt lat="44.001275444444026" lon="10.843067120156675"><ele>774.0</ele><time>2026-05-02T13:12:27.921Z</time></trkpt><trkpt lat="44.001244002297824" lon="10.842975306232859"><ele>774.0</ele><time>2026-05-02T13:12:29.921Z</time></trkpt><trkpt lat="44.00122110413175" lon="10.842853921648818"><ele>774.0</ele><time>2026-05-02T13:12:31.921Z</time></trkpt><trkpt lat="44.00119644882905" lon="10.842747266251173"><ele>774.0</ele><time>2026-05-02T13:12:33.921Z</time></trkpt><trkpt lat="44.001169136110775" lon="10.8426331269445"><ele>774.0</ele><time>2026-05-02T13:12:35.921Z</time></trkpt><trkpt lat="44.0011508999452" lon="10.8425372255525"><ele>774.0</ele><time>2026-05-02T13:12:37.92Z</time></trkpt><trkpt lat="44.00113364331916" lon="10.842440434057833"><ele>773.8333333333334</ele><time>2026-05-02T13:12:39.92Z</time></trkpt><trkpt lat="44.00115022729748" lon="10.84233940370743"><ele>773.6666666666667</ele><time>2026-05-02T13:12:41.92Z</time></trkpt><trkpt lat="44.00116362528053" lon="10.842217446610828"><ele>773.5</ele><time>2026-05-02T13:12:43.92Z</time></trkpt><trkpt lat="44.00117952195713" lon="10.842092296330687"><ele>773.3333333333334</ele><time>2026-05-02T13:12:45.92Z</time></trkpt><trkpt lat="44.001186941224894" lon="10.841994740167285"><ele>773.1666666666667</ele><time>2026-05-02T13:12:47.92Z</time></trkpt><trkpt lat="44.001187332221996" lon="10.841889061294289"><ele>773.0</ele><time>2026-05-02T13:12:49.92Z</time></trkpt><trkpt lat="44.00119157213112" lon="10.84178467971491"><ele>773.0000000000001</ele><time>2026-05-02T13:12:51.92Z</time></trkpt><trkpt lat="44.00119667225329" lon="10.841688340263728"><ele>773.0</ele><time>2026-05-02T13:12:53.92Z</time></trkpt><trkpt lat="44.001187834802494" lon="10.841596390414194"><ele>773.0</ele><time>2026-05-02T13:12:55.92Z</time></trkpt><trkpt lat="44.00118217451492" lon="10.841435839257473"><ele>773.0</ele><time>2026-05-02T13:12:57.92Z</time></trkpt><trkpt lat="44.001181658700204" lon="10.841322367932573"><ele>773.0000000000001</ele><time>2026-05-02T13:12:59.92Z</time></trkpt><trkpt lat="44.00118055136017" lon="10.841220090142182"><ele>773.0</ele><time>2026-05-02T13:13:01.92Z</time></trkpt><trkpt lat="44.001199612821786" lon="10.841060704937165"><ele>771.0000000000001</ele><time>2026-05-02T13:13:03.919Z</time></trkpt><trkpt lat="44.00119792355925" lon="10.840928972283239"><ele>769.0</ele><time>2026-05-02T13:13:05.918Z</time></trkpt><trkpt lat="44.001195240744664" lon="10.840839758831414"><ele>767.0</ele><time>2026-05-02T13:13:07.918Z</time></trkpt><trkpt lat="44.0011784275542" lon="10.840710507934894"><ele>765.0</ele><time>2026-05-02T13:13:09.918Z</time></trkpt><trkpt lat="44.00118026157258" lon="10.840620404919171"><ele>763.0</ele><time>2026-05-02T13:13:11.918Z</time></trkpt><trkpt lat="44.00118926850015" lon="10.840497941799638"><ele>761.0</ele><time>2026-05-02T13:13:13.918Z</time></trkpt><trkpt lat="44.00119864893793" lon="10.84035026054908"><ele>761.0</ele><time>2026-05-02T13:13:15.918Z</time></trkpt><trkpt lat="44.00119166849344" lon="10.840218178631554"><ele>761.0</ele><time>2026-05-02T13:13:17.918Z</time></trkpt><trkpt lat="44.00117540622506" lon="10.84006905107757"><ele>761.0</ele><time>2026-05-02T13:13:19.918Z</time></trkpt><trkpt lat="44.00113253792139" lon="10.83994742635568"><ele>761.0</ele><time>2026-05-02T13:13:21.918Z</time></trkpt><trkpt lat="44.00109052583757" lon="10.839836343060217"><ele>761.0</ele><time>2026-05-02T13:13:23.918Z</time></trkpt><trkpt lat="44.00103978132084" lon="10.839757266090542"><ele>760.5</ele><time>2026-05-02T13:13:25.918Z</time></trkpt><trkpt lat="44.001009337542214" lon="10.839664106963175"><ele>760.0</ele><time>2026-05-02T13:13:27.918Z</time></trkpt><trkpt lat="44.00100102947648" lon="10.839576371810955"><ele>759.5</ele><time>2026-05-02T13:13:29.918Z</time></trkpt><trkpt lat="44.00099948786645" lon="10.839457420036927"><ele>759.0</ele><time>2026-05-02T13:13:31.918Z</time></trkpt><trkpt lat="44.000982603893775" lon="10.839341731453636"><ele>758.5</ele><time>2026-05-02T13:13:33.918Z</time></trkpt><trkpt lat="44.00097548351185" lon="10.839246515186169"><ele>758.0</ele><time>2026-05-02T13:13:35.918Z</time></trkpt><trkpt lat="44.000996089331515" lon="10.839128301852131"><ele>758.0</ele><time>2026-05-02T13:13:37.918Z</time></trkpt><trkpt lat="44.00102017031088" lon="10.839035613354458"><ele>758.0</ele><time>2026-05-02T13:13:39.918Z</time></trkpt><trkpt lat="44.00104759431303" lon="10.838915039225176"><ele>758.0</ele><time>2026-05-02T13:13:42.918Z</time></trkpt><trkpt lat="44.001091806360115" lon="10.838809663705241"><ele>758.0</ele><time>2026-05-02T13:13:45.918Z</time></trkpt><trkpt lat="44.00115484400491" lon="10.838702539841542"><ele>758.0</ele><time>2026-05-02T13:13:48.918Z</time></trkpt><trkpt lat="44.00124266917255" lon="10.838605548083795"><ele>758.0</ele><time>2026-05-02T13:13:51.918Z</time></trkpt><trkpt lat="44.00131985166317" lon="10.838488132227113"><ele>758.0</ele><time>2026-05-02T13:13:53.918Z</time></trkpt><trkpt lat="44.001381109503235" lon="10.838403230825957"><ele>758.0</ele><time>2026-05-02T13:13:55.918Z</time></trkpt><trkpt lat="44.001439230474546" lon="10.838331827702817"><ele>758.0</ele><time>2026-05-02T13:13:57.918Z</time></trkpt><trkpt lat="44.00148372883361" lon="10.838257914177877"><ele>758.0</ele><time>2026-05-02T13:13:59.918Z</time></trkpt><trkpt lat="44.00154138354247" lon="10.838205761478852"><ele>758.0</ele><time>2026-05-02T13:14:01.918Z</time></trkpt><trkpt lat="44.001615264491704" lon="10.838144405541467"><ele>759.2</ele><time>2026-05-02T13:14:03.918Z</time></trkpt><trkpt lat="44.00171451138043" lon="10.838084062947068"><ele>760.4</ele><time>2026-05-02T13:14:05.918Z</time></trkpt><trkpt lat="44.00179579592559" lon="10.83805610975675"><ele>761.6</ele><time>2026-05-02T13:14:07.918Z</time></trkpt><trkpt lat="44.00187810593415" lon="10.837953768203409"><ele>762.8000000000001</ele><time>2026-05-02T13:14:09.918Z</time></trkpt><trkpt lat="44.001974726139835" lon="10.837838124503733"><ele>764.0</ele><time>2026-05-02T13:14:11.918Z</time></trkpt><trkpt lat="44.002023869213694" lon="10.83776709367885"><ele>764.0</ele><time>2026-05-02T13:14:12.918Z</time></trkpt><trkpt lat="44.002099585742776" lon="10.837640736502435"><ele>764.0</ele><time>2026-05-02T13:14:14.918Z</time></trkpt><trkpt lat="44.002131319794614" lon="10.837564723560941"><ele>764.0</ele><time>2026-05-02T13:14:15.918Z</time></trkpt><trkpt lat="44.00216995365529" lon="10.837458639710347"><ele>764.0</ele><time>2026-05-02T13:14:17.918Z</time></trkpt><trkpt lat="44.00220140995647" lon="10.8373661896246"><ele>764.0</ele><time>2026-05-02T13:14:19.918Z</time></trkpt><trkpt lat="44.00223978784147" lon="10.837278716163514"><ele>764.0</ele><time>2026-05-02T13:14:21.918Z</time></trkpt><trkpt lat="44.00230746578295" lon="10.837182102894419"><ele>764.2</ele><time>2026-05-02T13:14:24.918Z</time></trkpt><trkpt lat="44.00238361026228" lon="10.837115846720588"><ele>764.4000000000001</ele><time>2026-05-02T13:14:27.918Z</time></trkpt><trkpt lat="44.00246506934469" lon="10.837047802438585"><ele>764.6</ele><time>2026-05-02T13:14:30.918Z</time></trkpt><trkpt lat="44.002541998800204" lon="10.83695416643824"><ele>764.8</ele><time>2026-05-02T13:14:33.918Z</time></trkpt><trkpt lat="44.002586845922266" lon="10.836868680553687"><ele>765.0</ele><time>2026-05-02T13:14:36.918Z</time></trkpt><trkpt lat="44.00266105957755" lon="10.836771583316002"><ele>765.0</ele><time>2026-05-02T13:14:38.918Z</time></trkpt><trkpt lat="44.00275355853901" lon="10.836721890952171"><ele>765.0</ele><time>2026-05-02T13:14:40.918Z</time></trkpt><trkpt lat="44.00286416130355" lon="10.83668836635724"><ele>765.0</ele><time>2026-05-02T13:14:42.918Z</time></trkpt><trkpt lat="44.002970988967064" lon="10.836647857150574"><ele>765.0</ele><time>2026-05-02T13:14:44.918Z</time></trkpt><trkpt lat="44.003060740840894" lon="10.836613378773604"><ele>765.0</ele><time>2026-05-02T13:14:46.918Z</time></trkpt><trkpt lat="44.00311928827112" lon="10.836570974553839"><ele>765.0</ele><time>2026-05-02T13:14:48.918Z</time></trkpt><trkpt lat="44.00321759973299" lon="10.836549480061697"><ele>765.0</ele><time>2026-05-02T13:14:51.918Z</time></trkpt><trkpt lat="44.00330247339309" lon="10.836530064397039"><ele>765.0</ele><time>2026-05-02T13:14:53.917Z</time></trkpt><trkpt lat="44.00339840362549" lon="10.836521436766335"><ele>765.0</ele><time>2026-05-02T13:14:56.917Z</time></trkpt><trkpt lat="44.0034537892056" lon="10.836474200323881"><ele>765.0</ele><time>2026-05-02T13:14:58.917Z</time></trkpt><trkpt lat="44.00353070353066" lon="10.836469509950597"><ele>765.0</ele><time>2026-05-02T13:15:00.917Z</time></trkpt><trkpt lat="44.003609299108035" lon="10.836434653419168"><ele>763.8</ele><time>2026-05-02T13:15:02.917Z</time></trkpt><trkpt lat="44.003719059933246" lon="10.83641213666539"><ele>762.6</ele><time>2026-05-02T13:15:04.917Z</time></trkpt><trkpt lat="44.00382763584335" lon="10.836373313488046"><ele>761.4000000000001</ele><time>2026-05-02T13:15:06.917Z</time></trkpt><trkpt lat="44.003946403814496" lon="10.83633761351084"><ele>760.2</ele><time>2026-05-02T13:15:08.917Z</time></trkpt><trkpt lat="44.00403718883475" lon="10.836323316017584"><ele>759.0</ele><time>2026-05-02T13:15:10.915Z</time></trkpt><trkpt lat="44.00412896623616" lon="10.836287452350746"><ele>758.8333333333334</ele><time>2026-05-02T13:15:12.915Z</time></trkpt><trkpt lat="44.004220605137654" lon="10.836224479757414"><ele>758.6666666666666</ele><time>2026-05-02T13:15:14.915Z</time></trkpt><trkpt lat="44.004303455600045" lon="10.836183039846812"><ele>758.5</ele><time>2026-05-02T13:15:16.915Z</time></trkpt><trkpt lat="44.00436944515596" lon="10.836146427567819"><ele>758.3333333333333</ele><time>2026-05-02T13:15:18.915Z</time></trkpt><trkpt lat="44.00440197745711" lon="10.836067884880354"><ele>758.1666666666666</ele><time>2026-05-02T13:15:21.915Z</time></trkpt><trkpt lat="44.00443819816775" lon="10.83598987772354"><ele>758.0</ele><time>2026-05-02T13:15:25.914Z</time></trkpt><trkpt lat="44.00450313164271" lon="10.835928632758872"><ele>758.0</ele><time>2026-05-02T13:15:29.914Z</time></trkpt><trkpt lat="44.00456551527744" lon="10.835913148932718"><ele>758.0</ele><time>2026-05-02T13:15:31.914Z</time></trkpt><trkpt lat="44.004662044429075" lon="10.835917036391733"><ele>758.0</ele><time>2026-05-02T13:15:34.914Z</time></trkpt><trkpt lat="44.00472486823514" lon="10.835925328302212"><ele>758.0</ele><time>2026-05-02T13:15:36.914Z</time></trkpt><trkpt lat="44.00482735939352" lon="10.83595380088886"><ele>758.0</ele><time>2026-05-02T13:15:38.914Z</time></trkpt><trkpt lat="44.0049243368967" lon="10.835992180422817"><ele>758.0</ele><time>2026-05-02T13:15:40.914Z</time></trkpt><trkpt lat="44.005026181510836" lon="10.836017932442449"><ele>758.2</ele><time>2026-05-02T13:15:42.914Z</time></trkpt><trkpt lat="44.00514418691822" lon="10.836055987894966"><ele>758.4</ele><time>2026-05-02T13:15:44.914Z</time></trkpt><trkpt lat="44.0052570580196" lon="10.836096132788471"><ele>758.6</ele><time>2026-05-02T13:15:46.914Z</time></trkpt><trkpt lat="44.00538487804613" lon="10.836123559133338"><ele>758.8000000000001</ele><time>2026-05-02T13:15:48.914Z</time></trkpt><trkpt lat="44.00545462051406" lon="10.836139990075077"><ele>759.0</ele><time>2026-05-02T13:15:49.914Z</time></trkpt><trkpt lat="44.00552390521407" lon="10.83616315523714"><ele>759.0</ele><time>2026-05-02T13:15:50.914Z</time></trkpt><trkpt lat="44.00559080936546" lon="10.836188174076321"><ele>759.0</ele><time>2026-05-02T13:15:51.914Z</time></trkpt><trkpt lat="44.005650167404085" lon="10.836238509442442"><ele>759.0</ele><time>2026-05-02T13:15:52.914Z</time></trkpt><trkpt lat="44.005700833575474" lon="10.836323601175858"><ele>759.0</ele><time>2026-05-02T13:15:53.914Z</time></trkpt><trkpt lat="44.00573534635517" lon="10.836425868116786"><ele>759.0</ele><time>2026-05-02T13:15:54.914Z</time></trkpt><trkpt lat="44.0057578130569" lon="10.836525859999426"><ele>759.0</ele><time>2026-05-02T13:15:55.914Z</time></trkpt><trkpt lat="44.005755041496506" lon="10.83662885696508"><ele>759.0</ele><time>2026-05-02T13:15:56.914Z</time></trkpt><trkpt lat="44.0057541086497" lon="10.836725863349828"><ele>761.5</ele><time>2026-05-02T13:15:57.914Z</time></trkpt><trkpt lat="44.00576339924407" lon="10.83681929493158"><ele>764.0</ele><time>2026-05-02T13:15:58.914Z</time></trkpt><trkpt lat="44.00576878426654" lon="10.836910765976125"><ele>766.5</ele><time>2026-05-02T13:15:59.914Z</time></trkpt><trkpt lat="44.00576172727689" lon="10.837000919178836"><ele>769.0</ele><time>2026-05-02T13:16:00.914Z</time></trkpt><trkpt lat="44.00576159894519" lon="10.837092185099792"><ele>771.5</ele><time>2026-05-02T13:16:01.914Z</time></trkpt><trkpt lat="44.00576378727191" lon="10.837276845521865"><ele>774.0</ele><time>2026-05-02T13:16:03.914Z</time></trkpt><trkpt lat="44.00576970855297" lon="10.837380123044758"><ele>774.0</ele><time>2026-05-02T13:16:04.914Z</time></trkpt><trkpt lat="44.005785639109845" lon="10.83746492997678"><ele>774.0</ele><time>2026-05-02T13:16:05.914Z</time></trkpt><trkpt lat="44.0058108593838" lon="10.837553051551508"><ele>774.0</ele><time>2026-05-02T13:16:06.914Z</time></trkpt><trkpt lat="44.00586469320152" lon="10.83766653506011"><ele>774.0</ele><time>2026-05-02T13:16:08.914Z</time></trkpt><trkpt lat="44.00597438436865" lon="10.837746442800052"><ele>774.0</ele><time>2026-05-02T13:16:12.914Z</time></trkpt><trkpt lat="44.00588192669594" lon="10.837810831508063"><ele>770.1428571428571</ele><time>2026-05-02T13:16:14.914Z</time></trkpt><trkpt lat="44.005932705252334" lon="10.83788706904078"><ele>766.2857142857143</ele><time>2026-05-02T13:16:18.914Z</time></trkpt><trkpt lat="44.00592893239669" lon="10.83798093325645"><ele>762.4285714285713</ele><time>2026-05-02T13:16:20.914Z</time></trkpt><trkpt lat="44.0058972235729" lon="10.838083647407874"><ele>758.5714285714286</ele><time>2026-05-02T13:16:23.914Z</time></trkpt><trkpt lat="44.00588510519525" lon="10.838173519121161"><ele>754.7142857142857</ele><time>2026-05-02T13:16:25.914Z</time></trkpt><trkpt lat="44.00588381844968" lon="10.838271765009912"><ele>750.8571428571428</ele><time>2026-05-02T13:16:27.914Z</time></trkpt><trkpt lat="44.00589833582348" lon="10.838380345421754"><ele>747.0</ele><time>2026-05-02T13:16:30.914Z</time></trkpt><trkpt lat="44.005878535100656" lon="10.838467519056687"><ele>752.8333333333334</ele><time>2026-05-02T13:16:32.914Z</time></trkpt><trkpt lat="44.00581974981139" lon="10.838577901670654"><ele>758.6666666666667</ele><time>2026-05-02T13:16:34.914Z</time></trkpt><trkpt lat="44.005760182409944" lon="10.838686568599462"><ele>764.5</ele><time>2026-05-02T13:16:36.914Z</time></trkpt><trkpt lat="44.00570684971615" lon="10.838775214687839"><ele>770.3333333333334</ele><time>2026-05-02T13:16:38.914Z</time></trkpt><trkpt lat="44.00567883874843" lon="10.838854208983786"><ele>776.1666666666667</ele><time>2026-05-02T13:16:40.914Z</time></trkpt><trkpt lat="44.00564857029375" lon="10.838942083164426"><ele>782.0</ele><time>2026-05-02T13:16:43.914Z</time></trkpt><trkpt lat="44.00562997685035" lon="10.839027324666494"><ele>782.0000000000001</ele><time>2026-05-02T13:16:51.914Z</time></trkpt><trkpt lat="44.00565470818369" lon="10.839146939140965"><ele>782.0</ele><time>2026-05-02T13:16:54.914Z</time></trkpt><trkpt lat="44.00564954883008" lon="10.839284689148187"><ele>782.0</ele><time>2026-05-02T13:16:56.914Z</time></trkpt><trkpt lat="44.00567087839857" lon="10.839388024187006"><ele>782.0</ele><time>2026-05-02T13:16:58.914Z</time></trkpt><trkpt lat="44.005672834306246" lon="10.83949774560793"><ele>782.0000000000001</ele><time>2026-05-02T13:17:01.914Z</time></trkpt><trkpt lat="44.005659786071355" lon="10.83959042660922"><ele>782.0</ele><time>2026-05-02T13:17:03.913Z</time></trkpt><trkpt lat="44.005651502975574" lon="10.839702401810898"><ele>783.4285714285713</ele><time>2026-05-02T13:17:10.913Z</time></trkpt><trkpt lat="44.00570816975399" lon="10.839787845147091"><ele>784.8571428571429</ele><time>2026-05-02T13:17:15.912Z</time></trkpt><trkpt lat="44.00573505009771" lon="10.839869618698328"><ele>786.2857142857142</ele><time>2026-05-02T13:17:19.911Z</time></trkpt><trkpt lat="44.00581101746863" lon="10.839911898969389"><ele>787.7142857142857</ele><time>2026-05-02T13:17:22.912Z</time></trkpt><trkpt lat="44.005872019296916" lon="10.839974074781976"><ele>789.1428571428571</ele><time>2026-05-02T13:17:27.912Z</time></trkpt><trkpt lat="44.00589882280903" lon="10.840062373158164"><ele>790.5714285714286</ele><time>2026-05-02T13:17:56.911Z</time></trkpt><trkpt lat="44.00595586159745" lon="10.840115761790608"><ele>792.0</ele><time>2026-05-02T13:18:03.911Z</time></trkpt><trkpt lat="44.00602049522147" lon="10.84016405900669"><ele>787.0</ele><time>2026-05-02T13:18:12.911Z</time></trkpt><trkpt lat="44.00609456314814" lon="10.840164771805483"><ele>782.0</ele><time>2026-05-02T13:18:16.911Z</time></trkpt><trkpt lat="44.00616810328398" lon="10.840210078529099"><ele>777.0</ele><time>2026-05-02T13:18:23.911Z</time></trkpt><trkpt lat="44.00623646089027" lon="10.840276458096442"><ele>772.0</ele><time>2026-05-02T13:18:26.911Z</time></trkpt><trkpt lat="44.00629437418791" lon="10.840358466972457"><ele>767.0</ele><time>2026-05-02T13:18:28.911Z</time></trkpt><trkpt lat="44.00636451302783" lon="10.840435167709867"><ele>762.0</ele><time>2026-05-02T13:18:31.911Z</time></trkpt><trkpt lat="44.00639151318274" lon="10.840521063082281"><ele>762.0</ele><time>2026-05-02T13:18:33.911Z</time></trkpt><trkpt lat="44.00640438493508" lon="10.840641886381272"><ele>762.0</ele><time>2026-05-02T13:18:36.911Z</time></trkpt><trkpt lat="44.00641663402652" lon="10.840793736565917"><ele>762.0</ele><time>2026-05-02T13:18:39.911Z</time></trkpt><trkpt lat="44.00640881315466" lon="10.840925353344595"><ele>762.0</ele><time>2026-05-02T13:18:41.911Z</time></trkpt><trkpt lat="44.006384217324275" lon="10.84105047868876"><ele>762.0</ele><time>2026-05-02T13:18:43.911Z</time></trkpt><trkpt lat="44.006357864341325" lon="10.841151675354729"><ele>761.8333333333334</ele><time>2026-05-02T13:18:45.911Z</time></trkpt><trkpt lat="44.00636718097311" lon="10.841276843466652"><ele>761.6666666666666</ele><time>2026-05-02T13:18:47.911Z</time></trkpt><trkpt lat="44.006330955225685" lon="10.841392465952888"><ele>761.5</ele><time>2026-05-02T13:18:49.911Z</time></trkpt><trkpt lat="44.00633261279429" lon="10.841485957855125"><ele>761.3333333333333</ele><time>2026-05-02T13:18:52.911Z</time></trkpt><trkpt lat="44.00632638468962" lon="10.84158791487919"><ele>761.1666666666666</ele><time>2026-05-02T13:18:57.911Z</time></trkpt><trkpt lat="44.006313436038376" lon="10.841703316498666"><ele>761.0</ele><time>2026-05-02T13:19:02.911Z</time></trkpt><trkpt lat="44.0062702649171" lon="10.841808540763562"><ele>758.6666666666666</ele><time>2026-05-02T13:19:04.911Z</time></trkpt><trkpt lat="44.00623330213078" lon="10.841909349422034"><ele>756.3333333333333</ele><time>2026-05-02T13:19:06.911Z</time></trkpt><trkpt lat="44.00619944234939" lon="10.842041699999116"><ele>754.0</ele><time>2026-05-02T13:19:08.911Z</time></trkpt><trkpt lat="44.006176394300034" lon="10.842163788428934"><ele>751.6666666666666</ele><time>2026-05-02T13:19:13.911Z</time></trkpt><trkpt lat="44.0061882453097" lon="10.842255796289912"><ele>749.3333333333334</ele><time>2026-05-02T13:19:17.911Z</time></trkpt><trkpt lat="44.00618534309617" lon="10.842372485567186"><ele>747.0</ele><time>2026-05-02T13:19:22.909Z</time></trkpt><trkpt lat="44.006161862733684" lon="10.842479390024035"><ele>747.0</ele><time>2026-05-02T13:19:25.909Z</time></trkpt><trkpt lat="44.00609754627839" lon="10.842563408816003"><ele>747.0</ele><time>2026-05-02T13:19:27.909Z</time></trkpt><trkpt lat="44.006041400829176" lon="10.842636637231863"><ele>747.0</ele><time>2026-05-02T13:19:30.909Z</time></trkpt><trkpt lat="44.006019868175414" lon="10.842746803691222"><ele>747.0</ele><time>2026-05-02T13:19:33.908Z</time></trkpt><trkpt lat="44.00594700668453" lon="10.842907270075886"><ele>747.0</ele><time>2026-05-02T13:19:35.908Z</time></trkpt><trkpt lat="44.005882053179384" lon="10.843003327979511"><ele>745.2</ele><time>2026-05-02T13:19:37.908Z</time></trkpt><trkpt lat="44.00584741915232" lon="10.843144646760924"><ele>743.4000000000001</ele><time>2026-05-02T13:19:39.908Z</time></trkpt><trkpt lat="44.00580815258046" lon="10.843271683789727"><ele>741.5999999999999</ele><time>2026-05-02T13:19:41.908Z</time></trkpt><trkpt lat="44.00578482849561" lon="10.843408532734497"><ele>739.8</ele><time>2026-05-02T13:19:43.908Z</time></trkpt><trkpt lat="44.005776477004225" lon="10.843509330844505"><ele>738.0</ele><time>2026-05-02T13:19:45.908Z</time></trkpt><trkpt lat="44.005791288415914" lon="10.843618792162351"><ele>742.8333333333334</ele><time>2026-05-02T13:19:49.908Z</time></trkpt><trkpt lat="44.005788712096226" lon="10.843726267018846"><ele>747.6666666666666</ele><time>2026-05-02T13:19:53.908Z</time></trkpt><trkpt lat="44.00579784226512" lon="10.843838558042322"><ele>752.5</ele><time>2026-05-02T13:19:56.908Z</time></trkpt><trkpt lat="44.005799738699814" lon="10.843932465259607"><ele>757.3333333333333</ele><time>2026-05-02T13:19:59.908Z</time></trkpt><trkpt lat="44.00579438358656" lon="10.844051466982464"><ele>762.1666666666666</ele><time>2026-05-02T13:20:03.908Z</time></trkpt><trkpt lat="44.005778683441925" lon="10.844150311884968"><ele>767.0</ele><time>2026-05-02T13:20:05.908Z</time></trkpt><trkpt lat="44.005747739808726" lon="10.844234684182727"><ele>764.8571428571429</ele><time>2026-05-02T13:20:08.908Z</time></trkpt><trkpt lat="44.00575501029801" lon="10.844349092402078"><ele>762.7142857142858</ele><time>2026-05-02T13:20:11.908Z</time></trkpt><trkpt lat="44.00571715728468" lon="10.844440486665714"><ele>760.5714285714286</ele><time>2026-05-02T13:20:15.908Z</time></trkpt><trkpt lat="44.00570501288696" lon="10.844544503401783"><ele>758.4285714285714</ele><time>2026-05-02T13:20:21.908Z</time></trkpt><trkpt lat="44.00568548768354" lon="10.844629926979561"><ele>756.2857142857142</ele><time>2026-05-02T13:20:24.908Z</time></trkpt><trkpt lat="44.00562692572599" lon="10.84470131312129"><ele>754.1428571428571</ele><time>2026-05-02T13:20:30.908Z</time></trkpt><trkpt lat="44.00563255693921" lon="10.844792814605698"><ele>752.0</ele><time>2026-05-02T13:20:36.908Z</time></trkpt><trkpt lat="44.005644821128705" lon="10.844891714497338"><ele>752.0</ele><time>2026-05-02T13:20:41.908Z</time></trkpt><trkpt lat="44.00567869870412" lon="10.845019493292343"><ele>752.0</ele><time>2026-05-02T13:20:44.908Z</time></trkpt><trkpt lat="44.00565119255764" lon="10.845125558978808"><ele>752.0</ele><time>2026-05-02T13:20:47.905Z</time></trkpt><trkpt lat="44.00560249260488" lon="10.845202117673153"><ele>752.0</ele><time>2026-05-02T13:20:52.898Z</time></trkpt><trkpt lat="44.00561295190605" lon="10.845306774921001"><ele>752.0</ele><time>2026-05-02T13:20:56.893Z</time></trkpt><trkpt lat="44.00559021024592" lon="10.84539180507097"><ele>752.0</ele><time>2026-05-02T13:21:00.89Z</time></trkpt><trkpt lat="44.00559140847533" lon="10.845490328406534"><ele>751.6666666666666</ele><time>2026-05-02T13:21:05.886Z</time></trkpt><trkpt lat="44.005597508936" lon="10.84560897457671"><ele>751.3333333333333</ele><time>2026-05-02T13:21:09.884Z</time></trkpt><trkpt lat="44.00554771382795" lon="10.845707531462532"><ele>751.0</ele><time>2026-05-02T13:21:12.883Z</time></trkpt><trkpt lat="44.005575159142516" lon="10.845812717687094"><ele>750.6666666666666</ele><time>2026-05-02T13:21:16.882Z</time></trkpt><trkpt lat="44.005606151217684" lon="10.84589975407204"><ele>750.3333333333334</ele><time>2026-05-02T13:21:19.881Z</time></trkpt><trkpt lat="44.005639139171905" lon="10.845977767012856"><ele>750.0</ele><time>2026-05-02T13:21:24.88Z</time></trkpt><trkpt lat="44.00568578758999" lon="10.846052713580391"><ele>752.0</ele><time>2026-05-02T13:21:28.878Z</time></trkpt><trkpt lat="44.005730340452125" lon="10.846127162138847"><ele>754.0</ele><time>2026-05-02T13:21:33.878Z</time></trkpt><trkpt lat="44.00576186623117" lon="10.846205114824064"><ele>756.0</ele><time>2026-05-02T13:21:37.877Z</time></trkpt><trkpt lat="44.005808054318756" lon="10.846277570100622"><ele>758.0</ele><time>2026-05-02T13:21:40.876Z</time></trkpt><trkpt lat="44.00586303024968" lon="10.846341974115544"><ele>760.0</ele><time>2026-05-02T13:21:43.876Z</time></trkpt><trkpt lat="44.005895796023246" lon="10.846418583664134"><ele>762.0</ele><time>2026-05-02T13:21:50.876Z</time></trkpt><trkpt lat="44.00591896048065" lon="10.846508257098018"><ele>764.0</ele><time>2026-05-02T13:21:57.875Z</time></trkpt><trkpt lat="44.00597086970347" lon="10.846571737881806"><ele>760.5714285714286</ele><time>2026-05-02T13:22:29.875Z</time></trkpt><trkpt lat="44.00601370030209" lon="10.846660183043827"><ele>757.1428571428571</ele><time>2026-05-02T13:22:36.874Z</time></trkpt><trkpt lat="44.00605200588331" lon="10.846753163986973"><ele>753.7142857142857</ele><time>2026-05-02T13:22:41.874Z</time></trkpt><trkpt lat="44.00611886120354" lon="10.846799666219406"><ele>750.2857142857142</ele><time>2026-05-02T13:22:45.874Z</time></trkpt><trkpt lat="44.00614973422344" lon="10.846886954710914"><ele>746.8571428571429</ele><time>2026-05-02T13:22:50.874Z</time></trkpt><trkpt lat="44.00617844317141" lon="10.846969871824651"><ele>743.4285714285713</ele><time>2026-05-02T13:22:55.874Z</time></trkpt><trkpt lat="44.0062185786708" lon="10.847056597290628"><ele>740.0</ele><time>2026-05-02T13:22:59.874Z</time></trkpt><trkpt lat="44.00626970273107" lon="10.8471335760536"><ele>739.9999999999999</ele><time>2026-05-02T13:23:03.874Z</time></trkpt><trkpt lat="44.006313815192556" lon="10.847203801927295"><ele>740.0</ele><time>2026-05-02T13:23:07.874Z</time></trkpt><trkpt lat="44.00635927606089" lon="10.847280276304"><ele>740.0</ele><time>2026-05-02T13:23:11.874Z</time></trkpt><trkpt lat="44.00640750058343" lon="10.847371752027055"><ele>740.0</ele><time>2026-05-02T13:23:16.874Z</time></trkpt><trkpt lat="44.006447843886" lon="10.847467501216993"><ele>740.0</ele><time>2026-05-02T13:23:20.874Z</time></trkpt><trkpt lat="44.006477671881825" lon="10.847547392262463"><ele>739.9999999999999</ele><time>2026-05-02T13:23:23.874Z</time></trkpt><trkpt lat="44.00650397657389" lon="10.847635309459676"><ele>740.0</ele><time>2026-05-02T13:23:27.874Z</time></trkpt><trkpt lat="44.00652745587414" lon="10.847727068771169"><ele>742.1428571428571</ele><time>2026-05-02T13:23:31.874Z</time></trkpt><trkpt lat="44.0065137693694" lon="10.847819200545588"><ele>744.2857142857142</ele><time>2026-05-02T13:23:35.872Z</time></trkpt><trkpt lat="44.00647059424087" lon="10.847911122450446"><ele>746.4285714285713</ele><time>2026-05-02T13:23:39.873Z</time></trkpt><trkpt lat="44.00643088310085" lon="10.847987512076944"><ele>748.5714285714286</ele><time>2026-05-02T13:23:41.872Z</time></trkpt><trkpt lat="44.006398072537216" lon="10.84808304509818"><ele>750.7142857142858</ele><time>2026-05-02T13:23:45.872Z</time></trkpt><trkpt lat="44.00637031618849" lon="10.848195722082608"><ele>752.8571428571428</ele><time>2026-05-02T13:23:49.871Z</time></trkpt><trkpt lat="44.00634053603749" lon="10.848284426388316"><ele>755.0</ele><time>2026-05-02T13:23:53.871Z</time></trkpt><trkpt lat="44.006324056948586" lon="10.848392237281862"><ele>755.4285714285714</ele><time>2026-05-02T13:23:58.871Z</time></trkpt><trkpt lat="44.006310264978616" lon="10.848489805503576"><ele>755.8571428571429</ele><time>2026-05-02T13:24:02.871Z</time></trkpt><trkpt lat="44.006286350077815" lon="10.848594323012309"><ele>756.2857142857143</ele><time>2026-05-02T13:24:06.871Z</time></trkpt><trkpt lat="44.006286125997356" lon="10.84869292451999"><ele>756.7142857142858</ele><time>2026-05-02T13:24:10.871Z</time></trkpt><trkpt lat="44.0062738986889" lon="10.848796713598166"><ele>757.1428571428571</ele><time>2026-05-02T13:24:15.871Z</time></trkpt><trkpt lat="44.00622753176342" lon="10.848871072418786"><ele>757.5714285714287</ele><time>2026-05-02T13:24:19.871Z</time></trkpt><trkpt lat="44.00625124996364" lon="10.848960502552913"><ele>758.0</ele><time>2026-05-02T13:24:24.871Z</time></trkpt><trkpt lat="44.00626322620436" lon="10.849059585018352"><ele>758.0000000000001</ele><time>2026-05-02T13:24:29.871Z</time></trkpt><trkpt lat="44.00627515498434" lon="10.849154230972712"><ele>758.0</ele><time>2026-05-02T13:24:36.871Z</time></trkpt><trkpt lat="44.00631825311784" lon="10.849223871895045"><ele>758.0</ele><time>2026-05-02T13:24:43.871Z</time></trkpt><trkpt lat="44.00637589481861" lon="10.849290946990685"><ele>758.0</ele><time>2026-05-02T13:24:50.871Z</time></trkpt><trkpt lat="44.006411614115734" lon="10.849383598930645"><ele>758.0</ele><time>2026-05-02T13:24:56.87Z</time></trkpt><trkpt lat="44.00646940464899" lon="10.849458150113735"><ele>758.0000000000001</ele><time>2026-05-02T13:25:01.87Z</time></trkpt><trkpt lat="44.00650145543877" lon="10.84954253683939"><ele>758.0</ele><time>2026-05-02T13:25:06.87Z</time></trkpt><trkpt lat="44.006568005662736" lon="10.849595981644848"><ele>760.2857142857143</ele><time>2026-05-02T13:25:11.87Z</time></trkpt><trkpt lat="44.00662249397068" lon="10.849658094588419"><ele>762.5714285714286</ele><time>2026-05-02T13:25:16.87Z</time></trkpt><trkpt lat="44.00666543403403" lon="10.849750214337881"><ele>764.8571428571429</ele><time>2026-05-02T13:25:21.87Z</time></trkpt><trkpt lat="44.00669627586051" lon="10.849842265284693"><ele>767.1428571428571</ele><time>2026-05-02T13:25:26.87Z</time></trkpt><trkpt lat="44.006741570709195" lon="10.84992190688479"><ele>769.4285714285714</ele><time>2026-05-02T13:25:31.87Z</time></trkpt><trkpt lat="44.00680041453166" lon="10.849972265413038"><ele>771.7142857142858</ele><time>2026-05-02T13:25:37.87Z</time></trkpt><trkpt lat="44.00686211010033" lon="10.849999548056386"><ele>774.0</ele><time>2026-05-02T13:25:42.869Z</time></trkpt><trkpt lat="44.00692935966372" lon="10.850025968638205"><ele>773.4285714285714</ele><time>2026-05-02T13:25:47.868Z</time></trkpt><trkpt lat="44.00700044902992" lon="10.850052958892004"><ele>772.8571428571429</ele><time>2026-05-02T13:25:52.868Z</time></trkpt><trkpt lat="44.00706084612143" lon="10.850100652593479"><ele>772.2857142857142</ele><time>2026-05-02T13:25:57.868Z</time></trkpt><trkpt lat="44.00712360924464" lon="10.850142883375751"><ele>771.7142857142858</ele><time>2026-05-02T13:26:02.868Z</time></trkpt><trkpt lat="44.00718016551539" lon="10.850189970359352"><ele>771.1428571428571</ele><time>2026-05-02T13:26:06.868Z</time></trkpt><trkpt lat="44.00724900978625" lon="10.850231818533667"><ele>770.5714285714286</ele><time>2026-05-02T13:26:10.868Z</time></trkpt><trkpt lat="44.007308221488394" lon="10.850270865853547"><ele>770.0</ele><time>2026-05-02T13:26:14.868Z</time></trkpt><trkpt lat="44.00736618441253" lon="10.850306638046929"><ele>770.0</ele><time>2026-05-02T13:26:18.868Z</time></trkpt><trkpt lat="44.00743314816216" lon="10.850367506817225"><ele>770.0</ele><time>2026-05-02T13:26:22.868Z</time></trkpt><trkpt lat="44.007484079921085" lon="10.850425127229583"><ele>770.0</ele><time>2026-05-02T13:26:26.868Z</time></trkpt><trkpt lat="44.007544547338114" lon="10.850499708251348"><ele>770.0</ele><time>2026-05-02T13:26:30.868Z</time></trkpt><trkpt lat="44.007595476652305" lon="10.850568983345429"><ele>770.0</ele><time>2026-05-02T13:26:34.868Z</time></trkpt><trkpt lat="44.00763625180538" lon="10.85066273862264"><ele>770.0</ele><time>2026-05-02T13:26:39.868Z</time></trkpt><trkpt lat="44.00767913644334" lon="10.850739474393263"><ele>770.0</ele><time>2026-05-02T13:26:43.868Z</time></trkpt><trkpt lat="44.007733193163325" lon="10.850809941336237"><ele>770.8333333333334</ele><time>2026-05-02T13:26:47.867Z</time></trkpt><trkpt lat="44.00777165625545" lon="10.85088740800278"><ele>771.6666666666667</ele><time>2026-05-02T13:26:50.867Z</time></trkpt><trkpt lat="44.0078243390138" lon="10.850975169913694"><ele>772.5</ele><time>2026-05-02T13:26:54.867Z</time></trkpt><trkpt lat="44.00787849154865" lon="10.851042204698865"><ele>773.3333333333333</ele><time>2026-05-02T13:26:58.867Z</time></trkpt><trkpt lat="44.007941344992915" lon="10.851089978969434"><ele>774.1666666666666</ele><time>2026-05-02T13:27:01.867Z</time></trkpt><trkpt lat="44.007995240881314" lon="10.851170433494058"><ele>775.0</ele><time>2026-05-02T13:27:05.867Z</time></trkpt><trkpt lat="44.00806079458927" lon="10.851227586327491"><ele>774.9999999999999</ele><time>2026-05-02T13:27:09.867Z</time></trkpt><trkpt lat="44.00810305191274" lon="10.85130313923023"><ele>775.0</ele><time>2026-05-02T13:27:12.867Z</time></trkpt><trkpt lat="44.008166784230085" lon="10.85137738586987"><ele>775.0</ele><time>2026-05-02T13:27:15.867Z</time></trkpt><trkpt lat="44.00821115213104" lon="10.851455539419764"><ele>775.0</ele><time>2026-05-02T13:27:18.867Z</time></trkpt><trkpt lat="44.00826798924059" lon="10.851531735711253"><ele>775.0</ele><time>2026-05-02T13:27:21.867Z</time></trkpt><trkpt lat="44.00831299653328" lon="10.851615613118097"><ele>774.9999999999999</ele><time>2026-05-02T13:27:24.867Z</time></trkpt><trkpt lat="44.008350482005845" lon="10.851695150436706"><ele>775.0</ele><time>2026-05-02T13:27:27.867Z</time></trkpt><trkpt lat="44.008391012900205" lon="10.85177706408845"><ele>773.8571428571428</ele><time>2026-05-02T13:27:30.867Z</time></trkpt><trkpt lat="44.00842032295186" lon="10.85185564954291"><ele>772.7142857142857</ele><time>2026-05-02T13:27:33.867Z</time></trkpt><trkpt lat="44.00844540737893" lon="10.851940924793617"><ele>771.5714285714286</ele><time>2026-05-02T13:27:38.867Z</time></trkpt><trkpt lat="44.00847747357989" lon="10.852033971077555"><ele>770.4285714285713</ele><time>2026-05-02T13:27:46.866Z</time></trkpt><trkpt lat="44.00851172381468" lon="10.852127240450033"><ele>769.2857142857143</ele><time>2026-05-02T13:27:56.865Z</time></trkpt><trkpt lat="44.0085404507527" lon="10.852220093889244"><ele>768.1428571428571</ele><time>2026-05-02T13:28:01.864Z</time></trkpt><trkpt lat="44.00856514479284" lon="10.852302853713788"><ele>767.0</ele><time>2026-05-02T13:28:05.864Z</time></trkpt><trkpt lat="44.008599051472984" lon="10.852386878646117"><ele>767.0</ele><time>2026-05-02T13:28:09.864Z</time></trkpt><trkpt lat="44.00862921978634" lon="10.852471020561289"><ele>767.0</ele><time>2026-05-02T13:28:14.864Z</time></trkpt><trkpt lat="44.00865892589418" lon="10.85255911635146"><ele>767.0</ele><time>2026-05-02T13:28:17.864Z</time></trkpt><trkpt lat="44.008690214486556" lon="10.852661995764823"><ele>767.0</ele><time>2026-05-02T13:28:20.864Z</time></trkpt><trkpt lat="44.00872513027243" lon="10.852775762279348"><ele>767.0</ele><time>2026-05-02T13:28:24.864Z</time></trkpt><trkpt lat="44.00875518877077" lon="10.852872531445632"><ele>767.0</ele><time>2026-05-02T13:28:28.864Z</time></trkpt><trkpt lat="44.0087752864135" lon="10.85296763399674"><ele>769.1428571428571</ele><time>2026-05-02T13:28:32.864Z</time></trkpt><trkpt lat="44.00880297218375" lon="10.85306932716177"><ele>771.2857142857143</ele><time>2026-05-02T13:28:36.864Z</time></trkpt><trkpt lat="44.00884137223749" lon="10.853173324779902"><ele>773.4285714285713</ele><time>2026-05-02T13:28:39.864Z</time></trkpt><trkpt lat="44.008867857698284" lon="10.853263358917138"><ele>775.5714285714286</ele><time>2026-05-02T13:28:42.864Z</time></trkpt><trkpt lat="44.00889706107787" lon="10.853346888959914"><ele>777.7142857142857</ele><time>2026-05-02T13:28:44.864Z</time></trkpt><trkpt lat="44.008924687409646" lon="10.853449807340494"><ele>779.8571428571428</ele><time>2026-05-02T13:28:47.864Z</time></trkpt><trkpt lat="44.00895132794483" lon="10.853529720658301"><ele>782.0</ele><time>2026-05-02T13:28:49.864Z</time></trkpt><trkpt lat="44.00897424818771" lon="10.853632621207954"><ele>782.3333333333334</ele><time>2026-05-02T13:28:52.864Z</time></trkpt><trkpt lat="44.009012316311555" lon="10.85374266231468"><ele>782.6666666666667</ele><time>2026-05-02T13:28:55.864Z</time></trkpt><trkpt lat="44.009038630254594" lon="10.853832870847288"><ele>783.0</ele><time>2026-05-02T13:28:57.864Z</time></trkpt><trkpt lat="44.00906512149976" lon="10.853941238546359"><ele>783.3333333333333</ele><time>2026-05-02T13:29:00.864Z</time></trkpt><trkpt lat="44.00908266759338" lon="10.85403739776701"><ele>783.6666666666666</ele><time>2026-05-02T13:29:02.864Z</time></trkpt><trkpt lat="44.009099672514466" lon="10.854175769315448"><ele>784.0</ele><time>2026-05-02T13:29:05.864Z</time></trkpt><trkpt lat="44.00910058568922" lon="10.854272887115613"><ele>778.3333333333333</ele><time>2026-05-02T13:29:07.863Z</time></trkpt><trkpt lat="44.00909559196509" lon="10.85437881948055"><ele>772.6666666666666</ele><time>2026-05-02T13:29:09.863Z</time></trkpt><trkpt lat="44.00908290679262" lon="10.854475934541398"><ele>767.0</ele><time>2026-05-02T13:29:11.863Z</time></trkpt><trkpt lat="44.009070398401505" lon="10.854565450691755"><ele>761.3333333333333</ele><time>2026-05-02T13:29:13.863Z</time></trkpt><trkpt lat="44.009036186089325" lon="10.854661938587432"><ele>755.6666666666666</ele><time>2026-05-02T13:29:16.863Z</time></trkpt><trkpt lat="44.00899047545835" lon="10.854760248206514"><ele>750.0</ele><time>2026-05-02T13:29:19.863Z</time></trkpt><trkpt lat="44.008922270555644" lon="10.854830387312342"><ele>750.0</ele><time>2026-05-02T13:29:22.863Z</time></trkpt><trkpt lat="44.00885325468097" lon="10.85484951731698"><ele>750.0</ele><time>2026-05-02T13:29:24.863Z</time></trkpt><trkpt lat="44.00878410250435" lon="10.854875897080037"><ele>750.0</ele><time>2026-05-02T13:29:26.863Z</time></trkpt><trkpt lat="44.0087055587878" lon="10.854873910566491"><ele>750.0</ele><time>2026-05-02T13:29:28.863Z</time></trkpt><trkpt lat="44.008622713930116" lon="10.854862633612374"><ele>750.0</ele><time>2026-05-02T13:29:30.863Z</time></trkpt><trkpt lat="44.00854667803988" lon="10.854862616308788"><ele>750.0</ele><time>2026-05-02T13:29:33.863Z</time></trkpt><trkpt lat="44.0084733352042" lon="10.854892309642999"><ele>750.0</ele><time>2026-05-02T13:29:37.863Z</time></trkpt><trkpt lat="44.008407898518044" lon="10.854916214464007"><ele>750.0</ele><time>2026-05-02T13:29:43.863Z</time></trkpt><trkpt lat="44.00834519429406" lon="10.85492853944578"><ele>750.0</ele><time>2026-05-02T13:29:51.862Z</time></trkpt><trkpt lat="44.00827983291117" lon="10.854918638968307"><ele>750.0</ele><time>2026-05-02T13:29:58.861Z</time></trkpt><trkpt lat="44.00821472284019" lon="10.85489592662419"><ele>750.0</ele><time>2026-05-02T13:30:05.861Z</time></trkpt><trkpt lat="44.008134543313474" lon="10.854891684317401"><ele>750.0</ele><time>2026-05-02T13:30:10.861Z</time></trkpt><trkpt lat="44.0080665905335" lon="10.854938933573132"><ele>750.0</ele><time>2026-05-02T13:30:14.861Z</time></trkpt><trkpt lat="44.00798130083383" lon="10.854971258694487"><ele>749.2857142857143</ele><time>2026-05-02T13:30:18.861Z</time></trkpt><trkpt lat="44.0079151648722" lon="10.854991410809355"><ele>748.5714285714286</ele><time>2026-05-02T13:30:21.861Z</time></trkpt><trkpt lat="44.0078507048295" lon="10.854996750935323"><ele>747.8571428571429</ele><time>2026-05-02T13:30:24.861Z</time></trkpt><trkpt lat="44.00777162354233" lon="10.854971536144797"><ele>747.1428571428571</ele><time>2026-05-02T13:30:26.861Z</time></trkpt><trkpt lat="44.00770388035306" lon="10.854929735198505"><ele>746.4285714285713</ele><time>2026-05-02T13:30:28.861Z</time></trkpt><trkpt lat="44.007631409553134" lon="10.854891175033757"><ele>745.7142857142857</ele><time>2026-05-02T13:30:30.861Z</time></trkpt><trkpt lat="44.0075636174539" lon="10.854857927202097"><ele>745.0</ele><time>2026-05-02T13:30:32.861Z</time></trkpt><trkpt lat="44.00747384449513" lon="10.8547961029228"><ele>744.0</ele><time>2026-05-02T13:30:35.861Z</time></trkpt><trkpt lat="44.00740498989684" lon="10.854755105138137"><ele>743.0</ele><time>2026-05-02T13:30:37.861Z</time></trkpt><trkpt lat="44.00734193709539" lon="10.854707812448318"><ele>742.0</ele><time>2026-05-02T13:30:39.861Z</time></trkpt><trkpt lat="44.007256677075866" lon="10.854675903999906"><ele>741.0</ele><time>2026-05-02T13:30:41.861Z</time></trkpt><trkpt lat="44.00717831767748" lon="10.85463783684955"><ele>740.0</ele><time>2026-05-02T13:30:43.861Z</time></trkpt><trkpt lat="44.00710231981938" lon="10.854623874561918"><ele>739.0</ele><time>2026-05-02T13:30:46.861Z</time></trkpt><trkpt lat="44.007038225918464" lon="10.854613790099416"><ele>739.0</ele><time>2026-05-02T13:30:48.861Z</time></trkpt><trkpt lat="44.00697681181143" lon="10.854647499676313"><ele>739.0</ele><time>2026-05-02T13:30:50.861Z</time></trkpt><trkpt lat="44.00690822221129" lon="10.854682640539945"><ele>739.0</ele><time>2026-05-02T13:30:52.861Z</time></trkpt><trkpt lat="44.00680590577335" lon="10.854681095574572"><ele>739.0</ele><time>2026-05-02T13:30:54.86Z</time></trkpt><trkpt lat="44.006695254648044" lon="10.854642699823815"><ele>739.0</ele><time>2026-05-02T13:30:56.86Z</time></trkpt><trkpt lat="44.006621654971546" lon="10.854602578918966"><ele>739.0</ele><time>2026-05-02T13:30:58.86Z</time></trkpt><trkpt lat="44.00654090713112" lon="10.854576854096683"><ele>740.5</ele><time>2026-05-02T13:31:00.86Z</time></trkpt><trkpt lat="44.00646778213396" lon="10.854547813131589"><ele>742.0</ele><time>2026-05-02T13:31:02.86Z</time></trkpt><trkpt lat="44.006388684061456" lon="10.854519120848451"><ele>743.5</ele><time>2026-05-02T13:31:04.86Z</time></trkpt><trkpt lat="44.00630265105542" lon="10.854502615649606"><ele>745.0</ele><time>2026-05-02T13:31:06.86Z</time></trkpt><trkpt lat="44.006229197622524" lon="10.854478313522591"><ele>746.5</ele><time>2026-05-02T13:31:08.86Z</time></trkpt><trkpt lat="44.00616557413211" lon="10.854459244364708"><ele>748.0</ele><time>2026-05-02T13:31:10.86Z</time></trkpt><trkpt lat="44.006089021664" lon="10.854435704159535"><ele>748.0</ele><time>2026-05-02T13:31:13.86Z</time></trkpt><trkpt lat="44.00601170386302" lon="10.854406575385683"><ele>748.0</ele><time>2026-05-02T13:31:16.86Z</time></trkpt><trkpt lat="44.005945449781656" lon="10.854369396124511"><ele>748.0</ele><time>2026-05-02T13:31:20.86Z</time></trkpt><trkpt lat="44.00588588684483" lon="10.854401629157598"><ele>748.0</ele><time>2026-05-02T13:31:25.86Z</time></trkpt><trkpt lat="44.00581544190568" lon="10.854388463534937"><ele>748.0</ele><time>2026-05-02T13:31:31.86Z</time></trkpt><trkpt lat="44.0057471519039" lon="10.854405339557763"><ele>748.0</ele><time>2026-05-02T13:31:39.86Z</time></trkpt><trkpt lat="44.00568377349924" lon="10.854422988599415"><ele>748.0</ele><time>2026-05-02T13:31:46.86Z</time></trkpt><trkpt lat="44.005628337125245" lon="10.854494395955312"><ele>748.0</ele><time>2026-05-02T13:31:51.86Z</time></trkpt><trkpt lat="44.005623404369075" lon="10.854583434501013"><ele>748.0</ele><time>2026-05-02T13:31:57.859Z</time></trkpt><trkpt lat="44.00561502851971" lon="10.854675116424838"><ele>748.0</ele><time>2026-05-02T13:32:07.858Z</time></trkpt><trkpt lat="44.0056863082173" lon="10.854715657350066"><ele>748.0</ele><time>2026-05-02T13:32:16.858Z</time></trkpt><trkpt lat="44.00575845513536" lon="10.854708639243665"><ele>748.0</ele><time>2026-05-02T13:32:20.858Z</time></trkpt><trkpt lat="44.0058270009728" lon="10.854711732754891"><ele>748.0</ele><time>2026-05-02T13:32:24.858Z</time></trkpt><trkpt lat="44.00588384551401" lon="10.854752983534521"><ele>748.0</ele><time>2026-05-02T13:32:28.858Z</time></trkpt><trkpt lat="44.005934202552055" lon="10.854824180012944"><ele>748.0</ele><time>2026-05-02T13:32:34.858Z</time></trkpt><trkpt lat="44.005985219715654" lon="10.854877194384931"><ele>748.0</ele><time>2026-05-02T13:32:38.858Z</time></trkpt><trkpt lat="44.00603001748621" lon="10.854965329409128"><ele>748.0</ele><time>2026-05-02T13:32:42.858Z</time></trkpt><trkpt lat="44.00606227360773" lon="10.855053850108701"><ele>748.0</ele><time>2026-05-02T13:32:46.858Z</time></trkpt><trkpt lat="44.00609033714267" lon="10.855135223629146"><ele>748.0</ele><time>2026-05-02T13:32:50.858Z</time></trkpt><trkpt lat="44.00613733088669" lon="10.85520288904779"><ele>748.0</ele><time>2026-05-02T13:32:54.858Z</time></trkpt><trkpt lat="44.006182960495124" lon="10.855287955602963"><ele>748.0</ele><time>2026-05-02T13:32:58.858Z</time></trkpt><trkpt lat="44.00622233478743" lon="10.855376745665522"><ele>750.2857142857142</ele><time>2026-05-02T13:33:02.857Z</time></trkpt><trkpt lat="44.006252525961" lon="10.855458439316338"><ele>752.5714285714287</ele><time>2026-05-02T13:33:05.857Z</time></trkpt><trkpt lat="44.00628062855224" lon="10.855543811125443"><ele>754.8571428571429</ele><time>2026-05-02T13:33:09.857Z</time></trkpt><trkpt lat="44.00630883704103" lon="10.855635850833377"><ele>757.1428571428571</ele><time>2026-05-02T13:33:14.857Z</time></trkpt><trkpt lat="44.006334911301934" lon="10.855726618841132"><ele>759.4285714285713</ele><time>2026-05-02T13:33:19.857Z</time></trkpt><trkpt lat="44.00636777971965" lon="10.85584153123572"><ele>761.7142857142858</ele><time>2026-05-02T13:33:23.857Z</time></trkpt><trkpt lat="44.00639662929955" lon="10.855943746794036"><ele>764.0</ele><time>2026-05-02T13:33:27.857Z</time></trkpt><trkpt lat="44.00642261651919" lon="10.856035820891691"><ele>766.4285714285714</ele><time>2026-05-02T13:33:31.857Z</time></trkpt><trkpt lat="44.00645173324075" lon="10.856134928604284"><ele>768.8571428571428</ele><time>2026-05-02T13:33:35.857Z</time></trkpt><trkpt lat="44.00647699959491" lon="10.856220790519455"><ele>771.2857142857142</ele><time>2026-05-02T13:33:38.857Z</time></trkpt><trkpt lat="44.0065055085589" lon="10.856309016109787"><ele>773.7142857142858</ele><time>2026-05-02T13:33:43.857Z</time></trkpt><trkpt lat="44.00653472394804" lon="10.856391334927363"><ele>776.1428571428571</ele><time>2026-05-02T13:33:47.857Z</time></trkpt><trkpt lat="44.0065665972789" lon="10.856476598862505"><ele>778.5714285714286</ele><time>2026-05-02T13:33:52.857Z</time></trkpt><trkpt lat="44.00659581063704" lon="10.85655474715358"><ele>781.0</ele><time>2026-05-02T13:33:55.857Z</time></trkpt><trkpt lat="44.006627748076944" lon="10.856640182507691"><ele>780.2857142857143</ele><time>2026-05-02T13:33:58.857Z</time></trkpt><trkpt lat="44.006671527941364" lon="10.85675173603741"><ele>779.5714285714287</ele><time>2026-05-02T13:34:02.857Z</time></trkpt><trkpt lat="44.00670504339699" lon="10.856831762882779"><ele>778.8571428571429</ele><time>2026-05-02T13:34:05.854Z</time></trkpt><trkpt lat="44.0067411813783" lon="10.856913079666354"><ele>778.1428571428571</ele><time>2026-05-02T13:34:08.855Z</time></trkpt><trkpt lat="44.00677784227412" lon="10.856985859004146"><ele>777.4285714285714</ele><time>2026-05-02T13:34:12.854Z</time></trkpt><trkpt lat="44.00681760102348" lon="10.857055765479377"><ele>776.7142857142857</ele><time>2026-05-02T13:34:15.854Z</time></trkpt><trkpt lat="44.0068672619004" lon="10.857128002921055"><ele>776.0</ele><time>2026-05-02T13:34:19.855Z</time></trkpt><trkpt lat="44.00693572129229" lon="10.857149142832597"><ele>776.0000000000001</ele><time>2026-05-02T13:34:22.854Z</time></trkpt><trkpt lat="44.00699140240358" lon="10.85721495299283"><ele>776.0</ele><time>2026-05-02T13:34:24.854Z</time></trkpt><trkpt lat="44.00707287035706" lon="10.857264284789396"><ele>776.0</ele><time>2026-05-02T13:34:27.854Z</time></trkpt><trkpt lat="44.00714977468368" lon="10.857289633023505"><ele>776.0</ele><time>2026-05-02T13:34:30.854Z</time></trkpt><trkpt lat="44.007242907255396" lon="10.857336196951307"><ele>776.0000000000001</ele><time>2026-05-02T13:34:33.854Z</time></trkpt><trkpt lat="44.007305454022955" lon="10.857388902663926"><ele>776.0</ele><time>2026-05-02T13:34:35.854Z</time></trkpt><trkpt lat="44.00736172191856" lon="10.85745863431823"><ele>776.0000000000001</ele><time>2026-05-02T13:34:37.854Z</time></trkpt><trkpt lat="44.007424424895284" lon="10.85755406063064"><ele>776.0</ele><time>2026-05-02T13:34:39.854Z</time></trkpt><trkpt lat="44.007474047293336" lon="10.857636938172657"><ele>776.0</ele><time>2026-05-02T13:34:41.854Z</time></trkpt><trkpt lat="44.00752219271301" lon="10.857721420731586"><ele>776.0</ele><time>2026-05-02T13:34:43.854Z</time></trkpt><trkpt lat="44.00757926243614" lon="10.857823254412427"><ele>776.0000000000001</ele><time>2026-05-02T13:34:45.854Z</time></trkpt><trkpt lat="44.00762967082774" lon="10.857917798095755"><ele>776.0</ele><time>2026-05-02T13:34:47.854Z</time></trkpt><trkpt lat="44.00769381847879" lon="10.858012487454296"><ele>776.5000000000001</ele><time>2026-05-02T13:34:49.854Z</time></trkpt><trkpt lat="44.007758439739625" lon="10.858102243923438"><ele>777.0</ele><time>2026-05-02T13:34:51.854Z</time></trkpt><trkpt lat="44.00780946692602" lon="10.858161914968903"><ele>777.5</ele><time>2026-05-02T13:34:53.854Z</time></trkpt><trkpt lat="44.007873347784646" lon="10.858219800842209"><ele>778.0</ele><time>2026-05-02T13:34:56.854Z</time></trkpt><trkpt lat="44.00794828872854" lon="10.858266690983708"><ele>778.5000000000001</ele><time>2026-05-02T13:34:59.854Z</time></trkpt><trkpt lat="44.00803358173725" lon="10.858305309385388"><ele>779.0</ele><time>2026-05-02T13:35:02.854Z</time></trkpt><trkpt lat="44.00808213004047" lon="10.85837276484694"><ele>779.0000000000001</ele><time>2026-05-02T13:35:04.854Z</time></trkpt><trkpt lat="44.00816416804612" lon="10.858401006835962"><ele>779.0</ele><time>2026-05-02T13:35:07.854Z</time></trkpt><trkpt lat="44.00824591488567" lon="10.858400648157495"><ele>779.0</ele><time>2026-05-02T13:35:09.854Z</time></trkpt><trkpt lat="44.00833464494687" lon="10.858396012754115"><ele>779.0</ele><time>2026-05-02T13:35:11.854Z</time></trkpt><trkpt lat="44.00840963218459" lon="10.858377965639555"><ele>779.0000000000001</ele><time>2026-05-02T13:35:13.854Z</time></trkpt><trkpt lat="44.0084850265607" lon="10.858375436046023"><ele>779.0</ele><time>2026-05-02T13:35:15.854Z</time></trkpt><trkpt lat="44.00856861184548" lon="10.85840366435981"><ele>780.1666666666667</ele><time>2026-05-02T13:35:17.854Z</time></trkpt><trkpt lat="44.008650139374126" lon="10.858421382393253"><ele>781.3333333333334</ele><time>2026-05-02T13:35:19.854Z</time></trkpt><trkpt lat="44.00872692286749" lon="10.85845215956393"><ele>782.5</ele><time>2026-05-02T13:35:21.854Z</time></trkpt><trkpt lat="44.008801790570715" lon="10.858477302669248"><ele>783.6666666666667</ele><time>2026-05-02T13:35:23.854Z</time></trkpt><trkpt lat="44.008873771190245" lon="10.858512259751478"><ele>784.8333333333334</ele><time>2026-05-02T13:35:25.854Z</time></trkpt><trkpt lat="44.0089331032665" lon="10.85860816349859"><ele>786.0</ele><time>2026-05-02T13:35:27.853Z</time></trkpt><trkpt lat="44.008993715090575" lon="10.8587006378145"><ele>786.0</ele><time>2026-05-02T13:35:29.853Z</time></trkpt><trkpt lat="44.00907094701235" lon="10.858798318372603"><ele>786.0</ele><time>2026-05-02T13:35:31.853Z</time></trkpt><trkpt lat="44.00915726923328" lon="10.858898328605836"><ele>786.0</ele><time>2026-05-02T13:35:33.853Z</time></trkpt><trkpt lat="44.00927054665866" lon="10.858987767535941"><ele>786.0</ele><time>2026-05-02T13:35:35.853Z</time></trkpt><trkpt lat="44.00934700841763" lon="10.859012766198367"><ele>786.0</ele><time>2026-05-02T13:35:36.853Z</time></trkpt><trkpt lat="44.0094582599086" lon="10.85900725858595"><ele>784.4</ele><time>2026-05-02T13:35:38.853Z</time></trkpt><trkpt lat="44.00956274939259" lon="10.859001966196312"><ele>782.8</ele><time>2026-05-02T13:35:40.853Z</time></trkpt><trkpt lat="44.00963311613382" lon="10.859017600538955"><ele>781.1999999999999</ele><time>2026-05-02T13:35:42.853Z</time></trkpt><trkpt lat="44.00973126619266" lon="10.85903031150798"><ele>779.5999999999999</ele><time>2026-05-02T13:35:44.853Z</time></trkpt><trkpt lat="44.00978954047768" lon="10.859138153324938"><ele>778.0</ele><time>2026-05-02T13:35:46.853Z</time></trkpt><trkpt lat="44.009831383254166" lon="10.859247968634142"><ele>779.2</ele><time>2026-05-02T13:35:48.853Z</time></trkpt><trkpt lat="44.00985415497872" lon="10.859354141332684"><ele>780.4</ele><time>2026-05-02T13:35:50.853Z</time></trkpt><trkpt lat="44.00988797230826" lon="10.859468885702215"><ele>781.6</ele><time>2026-05-02T13:35:52.853Z</time></trkpt><trkpt lat="44.00990968157755" lon="10.859577806852476"><ele>782.8000000000001</ele><time>2026-05-02T13:35:54.853Z</time></trkpt><trkpt lat="44.009926823201596" lon="10.859726126561679"><ele>784.0</ele><time>2026-05-02T13:35:56.853Z</time></trkpt><trkpt lat="44.00994092902163" lon="10.8598563474888"><ele>784.0</ele><time>2026-05-02T13:35:58.853Z</time></trkpt><trkpt lat="44.00995602857623" lon="10.859991563863344"><ele>784.0</ele><time>2026-05-02T13:36:00.853Z</time></trkpt><trkpt lat="44.00995451589348" lon="10.86014467779849"><ele>784.0</ele><time>2026-05-02T13:36:02.853Z</time></trkpt><trkpt lat="44.009988272339626" lon="10.860257069612972"><ele>784.0</ele><time>2026-05-02T13:36:04.853Z</time></trkpt><trkpt lat="44.010033133713584" lon="10.860361843313974"><ele>784.0</ele><time>2026-05-02T13:36:07.853Z</time></trkpt><trkpt lat="44.01008344160198" lon="10.860447897998018"><ele>781.5714285714286</ele><time>2026-05-02T13:36:10.851Z</time></trkpt><trkpt lat="44.010122602637885" lon="10.860518802264412"><ele>779.1428571428571</ele><time>2026-05-02T13:36:12.852Z</time></trkpt><trkpt lat="44.01017168120264" lon="10.860623817123985"><ele>776.7142857142858</ele><time>2026-05-02T13:36:14.851Z</time></trkpt><trkpt lat="44.01019023258523" lon="10.860721470965213"><ele>774.2857142857142</ele><time>2026-05-02T13:36:16.851Z</time></trkpt><trkpt lat="44.01022913328879" lon="10.860821963961753"><ele>771.8571428571429</ele><time>2026-05-02T13:36:18.851Z</time></trkpt><trkpt lat="44.01027573547874" lon="10.860898962968127"><ele>769.4285714285714</ele><time>2026-05-02T13:36:20.851Z</time></trkpt><trkpt lat="44.01034031496723" lon="10.860923796803235"><ele>767.0</ele><time>2026-05-02T13:36:22.852Z</time></trkpt><trkpt lat="44.010415616386105" lon="10.860931172621468"><ele>767.0</ele><time>2026-05-02T13:36:25.851Z</time></trkpt><trkpt lat="44.01050565836871" lon="10.86094891817953"><ele>767.0</ele><time>2026-05-02T13:36:28.851Z</time></trkpt><trkpt lat="44.010602779398674" lon="10.860959100170257"><ele>767.0</ele><time>2026-05-02T13:36:31.851Z</time></trkpt><trkpt lat="44.0106916756416" lon="10.8609914272366"><ele>767.0</ele><time>2026-05-02T13:36:34.851Z</time></trkpt><trkpt lat="44.01077643039785" lon="10.861041161669267"><ele>767.0</ele><time>2026-05-02T13:36:36.851Z</time></trkpt><trkpt lat="44.0108649232314" lon="10.861084842317664"><ele>768.8333333333333</ele><time>2026-05-02T13:36:38.851Z</time></trkpt><trkpt lat="44.01094508279839" lon="10.861164651647758"><ele>770.6666666666666</ele><time>2026-05-02T13:36:40.851Z</time></trkpt><trkpt lat="44.01100534790922" lon="10.861220558760376"><ele>772.5</ele><time>2026-05-02T13:36:42.851Z</time></trkpt><trkpt lat="44.01107223410788" lon="10.861268035728777"><ele>774.3333333333333</ele><time>2026-05-02T13:36:44.851Z</time></trkpt><trkpt lat="44.011138790676405" lon="10.861317424692377"><ele>776.1666666666666</ele><time>2026-05-02T13:36:46.851Z</time></trkpt><trkpt lat="44.0111872526273" lon="10.861384690751649"><ele>778.0</ele><time>2026-05-02T13:36:48.853Z</time></trkpt><trkpt lat="44.01122901450138" lon="10.861507513829858"><ele>778.0</ele><time>2026-05-02T13:36:50.853Z</time></trkpt><trkpt lat="44.01126353900702" lon="10.861618214158444"><ele>778.0</ele><time>2026-05-02T13:36:52.854Z</time></trkpt><trkpt lat="44.01127272176509" lon="10.861732149806297"><ele>778.0</ele><time>2026-05-02T13:36:54.855Z</time></trkpt><trkpt lat="44.01125767379133" lon="10.861854310534802"><ele>778.0</ele><time>2026-05-02T13:36:56.856Z</time></trkpt><trkpt lat="44.011251559109226" lon="10.861996134660908"><ele>778.0</ele><time>2026-05-02T13:36:58.856Z</time></trkpt><trkpt lat="44.01125902122731" lon="10.862125565687485"><ele>777.3333333333333</ele><time>2026-05-02T13:37:00.857Z</time></trkpt><trkpt lat="44.0113106125434" lon="10.862241624975423"><ele>776.6666666666666</ele><time>2026-05-02T13:37:02.857Z</time></trkpt><trkpt lat="44.01136996400119" lon="10.862335020839181"><ele>776.0</ele><time>2026-05-02T13:37:04.858Z</time></trkpt><trkpt lat="44.01146062434353" lon="10.862392540984251"><ele>775.3333333333333</ele><time>2026-05-02T13:37:06.858Z</time></trkpt><trkpt lat="44.011530751188126" lon="10.862414869219517"><ele>774.6666666666666</ele><time>2026-05-02T13:37:08.858Z</time></trkpt><trkpt lat="44.01160172178246" lon="10.862434456662251"><ele>774.0</ele><time>2026-05-02T13:37:10.858Z</time></trkpt><trkpt lat="44.01169571896659" lon="10.862493530369743"><ele>772.6666666666666</ele><time>2026-05-02T13:37:12.859Z</time></trkpt><trkpt lat="44.01179427785942" lon="10.862540956134602"><ele>771.3333333333334</ele><time>2026-05-02T13:37:14.859Z</time></trkpt><trkpt lat="44.01185546999309" lon="10.862567167023313"><ele>770.0</ele><time>2026-05-02T13:37:15.859Z</time></trkpt><trkpt lat="44.0119174886725" lon="10.862594380615391"><ele>768.6666666666667</ele><time>2026-05-02T13:37:16.859Z</time></trkpt><trkpt lat="44.01201418612496" lon="10.862617972808065"><ele>767.3333333333334</ele><time>2026-05-02T13:37:18.859Z</time></trkpt><trkpt lat="44.01207594594172" lon="10.862595845878905"><ele>766.0</ele><time>2026-05-02T13:37:20.859Z</time></trkpt><trkpt lat="44.01213013887814" lon="10.8625458021965"><ele>766.0</ele><time>2026-05-02T13:37:24.859Z</time></trkpt><trkpt lat="44.01221930618132" lon="10.862524132718834"><ele>766.0</ele><time>2026-05-02T13:37:28.86Z</time></trkpt><trkpt lat="44.01229793581008" lon="10.862504341258443"><ele>766.0</ele><time>2026-05-02T13:37:31.86Z</time></trkpt><trkpt lat="44.01236656658324" lon="10.862466125746796"><ele>766.0</ele><time>2026-05-02T13:37:35.86Z</time></trkpt><trkpt lat="44.0124338167512" lon="10.86243093910446"><ele>766.0</ele><time>2026-05-02T13:37:39.86Z</time></trkpt><trkpt lat="44.01251626532098" lon="10.86243895549244"><ele>766.0</ele><time>2026-05-02T13:37:43.86Z</time></trkpt><trkpt lat="44.01258867414119" lon="10.862474015930696"><ele>766.4285714285714</ele><time>2026-05-02T13:37:47.86Z</time></trkpt><trkpt lat="44.01264734794126" lon="10.862516118748772"><ele>766.8571428571429</ele><time>2026-05-02T13:37:50.86Z</time></trkpt><trkpt lat="44.01270345003862" lon="10.862563196685189"><ele>767.2857142857142</ele><time>2026-05-02T13:37:53.86Z</time></trkpt><trkpt lat="44.01276026144483" lon="10.862629726014355"><ele>767.7142857142858</ele><time>2026-05-02T13:37:56.86Z</time></trkpt><trkpt lat="44.01280859739214" lon="10.86268581563139"><ele>768.1428571428572</ele><time>2026-05-02T13:37:59.86Z</time></trkpt><trkpt lat="44.012883133738455" lon="10.862747646624902"><ele>768.5714285714286</ele><time>2026-05-02T13:38:03.86Z</time></trkpt><trkpt lat="44.01295564870557" lon="10.862805454835206"><ele>769.0</ele><time>2026-05-02T13:38:06.86Z</time></trkpt><trkpt lat="44.01302605179393" lon="10.862864521522717"><ele>771.8571428571428</ele><time>2026-05-02T13:38:10.86Z</time></trkpt><trkpt lat="44.013090852448016" lon="10.862913130569137"><ele>774.7142857142858</ele><time>2026-05-02T13:38:13.86Z</time></trkpt><trkpt lat="44.01315302854121" lon="10.862963254330205"><ele>777.5714285714286</ele><time>2026-05-02T13:38:16.857Z</time></trkpt><trkpt lat="44.01321548467595" lon="10.863005817908801"><ele>780.4285714285713</ele><time>2026-05-02T13:38:19.858Z</time></trkpt><trkpt lat="44.013280738918276" lon="10.86306279701446"><ele>783.2857142857142</ele><time>2026-05-02T13:38:22.857Z</time></trkpt><trkpt lat="44.01334867383782" lon="10.863125989706052"><ele>786.1428571428571</ele><time>2026-05-02T13:38:26.857Z</time></trkpt><trkpt lat="44.013408056077296" lon="10.863176694335518"><ele>789.0</ele><time>2026-05-02T13:38:29.857Z</time></trkpt><trkpt lat="44.01348323276908" lon="10.863229649951021"><ele>789.3333333333334</ele><time>2026-05-02T13:38:32.857Z</time></trkpt><trkpt lat="44.013541827457246" lon="10.863269505756293"><ele>789.6666666666667</ele><time>2026-05-02T13:38:35.857Z</time></trkpt><trkpt lat="44.01360931092769" lon="10.863316683149035"><ele>790.0</ele><time>2026-05-02T13:38:38.857Z</time></trkpt><trkpt lat="44.01367672087768" lon="10.863370675949032"><ele>790.3333333333334</ele><time>2026-05-02T13:38:41.857Z</time></trkpt><trkpt lat="44.013737954274994" lon="10.863426313331791"><ele>790.6666666666667</ele><time>2026-05-02T13:38:44.857Z</time></trkpt><trkpt lat="44.01378057308979" lon="10.863499197882927"><ele>791.0</ele><time>2026-05-02T13:38:46.857Z</time></trkpt><trkpt lat="44.013831140309144" lon="10.863608117926914"><ele>794.6666666666667</ele><time>2026-05-02T13:38:49.857Z</time></trkpt><trkpt lat="44.01386835038165" lon="10.863721842360443"><ele>798.3333333333334</ele><time>2026-05-02T13:38:52.857Z</time></trkpt><trkpt lat="44.01391208390363" lon="10.863822472192709"><ele>802.0</ele><time>2026-05-02T13:38:55.857Z</time></trkpt><trkpt lat="44.01393806555537" lon="10.863907201029104"><ele>805.6666666666667</ele><time>2026-05-02T13:38:57.857Z</time></trkpt><trkpt lat="44.01398867721591" lon="10.864003700870258"><ele>809.3333333333334</ele><time>2026-05-02T13:39:00.857Z</time></trkpt><trkpt lat="44.014034521365765" lon="10.86407047649711"><ele>813.0</ele><time>2026-05-02T13:39:02.857Z</time></trkpt><trkpt lat="44.01408916704098" lon="10.864128375976641"><ele>813.0</ele><time>2026-05-02T13:39:04.857Z</time></trkpt><trkpt lat="44.01415408927062" lon="10.86418573539145"><ele>813.0</ele><time>2026-05-02T13:39:06.857Z</time></trkpt><trkpt lat="44.014241299070946" lon="10.864246735545333"><ele>813.0</ele><time>2026-05-02T13:39:09.857Z</time></trkpt><trkpt lat="44.01431115490244" lon="10.864285255438144"><ele>813.0</ele><time>2026-05-02T13:39:11.857Z</time></trkpt><trkpt lat="44.01440671342741" lon="10.864345153491113"><ele>813.0</ele><time>2026-05-02T13:39:14.857Z</time></trkpt><trkpt lat="44.01449641614986" lon="10.864356680534183"><ele>813.0</ele><time>2026-05-02T13:39:17.857Z</time></trkpt><trkpt lat="44.014578921924546" lon="10.864368012951882"><ele>813.1666666666666</ele><time>2026-05-02T13:39:20.857Z</time></trkpt><trkpt lat="44.014658747071664" lon="10.864380271772273"><ele>813.3333333333333</ele><time>2026-05-02T13:39:23.857Z</time></trkpt><trkpt lat="44.01474372827901" lon="10.864399637812593"><ele>813.5</ele><time>2026-05-02T13:39:27.857Z</time></trkpt><trkpt lat="44.014812965668305" lon="10.864410383704314"><ele>813.6666666666666</ele><time>2026-05-02T13:39:30.856Z</time></trkpt><trkpt lat="44.01489748905795" lon="10.864420389962117"><ele>813.8333333333333</ele><time>2026-05-02T13:39:33.856Z</time></trkpt><trkpt lat="44.014963665336104" lon="10.864434516731658"><ele>814.0</ele><time>2026-05-02T13:39:35.856Z</time></trkpt><trkpt lat="44.015027993080324" lon="10.864446154582447"><ele>811.6666666666666</ele><time>2026-05-02T13:39:37.856Z</time></trkpt><trkpt lat="44.015090196139305" lon="10.86446151650421"><ele>809.3333333333333</ele><time>2026-05-02T13:39:39.856Z</time></trkpt><trkpt lat="44.01517962722335" lon="10.864480800777399"><ele>807.0</ele><time>2026-05-02T13:39:42.856Z</time></trkpt><trkpt lat="44.015242020333076" lon="10.864508003132972"><ele>804.6666666666667</ele><time>2026-05-02T13:39:44.856Z</time></trkpt><trkpt lat="44.015313446239034" lon="10.86455012237938"><ele>802.3333333333334</ele><time>2026-05-02T13:39:47.856Z</time></trkpt><trkpt lat="44.01537317840863" lon="10.864595582106261"><ele>800.0</ele><time>2026-05-02T13:39:49.856Z</time></trkpt><trkpt lat="44.01544453007837" lon="10.864675484652324"><ele>800.0000000000001</ele><time>2026-05-02T13:39:52.856Z</time></trkpt><trkpt lat="44.01550497813303" lon="10.864748062131707"><ele>800.0</ele><time>2026-05-02T13:39:54.856Z</time></trkpt><trkpt lat="44.015563575311155" lon="10.86481947980389"><ele>800.0</ele><time>2026-05-02T13:39:56.856Z</time></trkpt><trkpt lat="44.01561457633459" lon="10.8649141748973"><ele>800.0</ele><time>2026-05-02T13:39:58.856Z</time></trkpt><trkpt lat="44.01564547941279" lon="10.86501334861492"><ele>800.0000000000001</ele><time>2026-05-02T13:40:00.856Z</time></trkpt><trkpt lat="44.01566959126335" lon="10.865117033300967"><ele>800.0</ele><time>2026-05-02T13:40:02.856Z</time></trkpt><trkpt lat="44.015698111647744" lon="10.865217977241574"><ele>801.0000000000001</ele><time>2026-05-02T13:40:04.856Z</time></trkpt><trkpt lat="44.01572300251445" lon="10.86533191756423"><ele>802.0</ele><time>2026-05-02T13:40:06.856Z</time></trkpt><trkpt lat="44.01571405478522" lon="10.865448095815792"><ele>803.0</ele><time>2026-05-02T13:40:08.856Z</time></trkpt><trkpt lat="44.01570841346181" lon="10.865540548225217"><ele>804.0</ele><time>2026-05-02T13:40:10.856Z</time></trkpt><trkpt lat="44.01569157725362" lon="10.865649961197327"><ele>805.0000000000001</ele><time>2026-05-02T13:40:12.856Z</time></trkpt><trkpt lat="44.015658460930986" lon="10.865752586558965"><ele>806.0</ele><time>2026-05-02T13:40:14.856Z</time></trkpt><trkpt lat="44.01562785300868" lon="10.865843358804769"><ele>806.0000000000001</ele><time>2026-05-02T13:40:16.856Z</time></trkpt><trkpt lat="44.01559579824246" lon="10.86593153568126"><ele>806.0</ele><time>2026-05-02T13:40:18.856Z</time></trkpt><trkpt lat="44.01555293403656" lon="10.866033018193875"><ele>806.0</ele><time>2026-05-02T13:40:20.856Z</time></trkpt><trkpt lat="44.015502870011616" lon="10.866136619011085"><ele>806.0</ele><time>2026-05-02T13:40:22.854Z</time></trkpt><trkpt lat="44.01544483651783" lon="10.866221107541975"><ele>806.0000000000001</ele><time>2026-05-02T13:40:24.855Z</time></trkpt><trkpt lat="44.01539157438847" lon="10.866309032083704"><ele>806.0</ele><time>2026-05-02T13:40:26.855Z</time></trkpt><trkpt lat="44.01534569741918" lon="10.866396496162013"><ele>804.6666666666667</ele><time>2026-05-02T13:40:28.855Z</time></trkpt><trkpt lat="44.015300075200486" lon="10.866499855282248"><ele>803.3333333333334</ele><time>2026-05-02T13:40:31.854Z</time></trkpt><trkpt lat="44.015244994680934" lon="10.866588386992516"><ele>802.0</ele><time>2026-05-02T13:40:33.855Z</time></trkpt><trkpt lat="44.01522036793943" lon="10.866690438729798"><ele>800.6666666666667</ele><time>2026-05-02T13:40:35.854Z</time></trkpt><trkpt lat="44.015197062515135" lon="10.866787374835525"><ele>799.3333333333334</ele><time>2026-05-02T13:40:37.854Z</time></trkpt><trkpt lat="44.01523186931395" lon="10.866863159444076"><ele>798.0</ele><time>2026-05-02T13:40:42.854Z</time></trkpt><trkpt lat="44.015292620491465" lon="10.866889276489415"><ele>798.0</ele><time>2026-05-02T13:40:45.854Z</time></trkpt><trkpt lat="44.01536505161886" lon="10.866961025706058"><ele>798.0</ele><time>2026-05-02T13:40:48.854Z</time></trkpt><trkpt lat="44.01543452002935" lon="10.866999723384792"><ele>798.0</ele><time>2026-05-02T13:40:51.854Z</time></trkpt><trkpt lat="44.0154924145002" lon="10.867050485033715"><ele>798.0</ele><time>2026-05-02T13:40:54.854Z</time></trkpt><trkpt lat="44.01552297136969" lon="10.867161121372193"><ele>798.0</ele><time>2026-05-02T13:40:56.854Z</time></trkpt><trkpt lat="44.015549376664474" lon="10.867276487946796"><ele>798.0</ele><time>2026-05-02T13:40:58.854Z</time></trkpt><trkpt lat="44.01554409333121" lon="10.867411502504858"><ele>798.0</ele><time>2026-05-02T13:41:00.854Z</time></trkpt><trkpt lat="44.015532732907864" lon="10.867565568650319"><ele>798.0</ele><time>2026-05-02T13:41:02.854Z</time></trkpt><trkpt lat="44.015520543498866" lon="10.867693006098865"><ele>798.0</ele><time>2026-05-02T13:41:04.854Z</time></trkpt><trkpt lat="44.0154980609545" lon="10.867796065028214"><ele>798.0</ele><time>2026-05-02T13:41:06.854Z</time></trkpt><trkpt lat="44.015476276428124" lon="10.867934049171172"><ele>798.0</ele><time>2026-05-02T13:41:08.854Z</time></trkpt><trkpt lat="44.015458320498006" lon="10.868090458037564"><ele>798.0</ele><time>2026-05-02T13:41:10.854Z</time></trkpt><trkpt lat="44.01544040409374" lon="10.868234945175638"><ele>798.0</ele><time>2026-05-02T13:41:12.853Z</time></trkpt><trkpt lat="44.0154775201843" lon="10.868381763379038"><ele>798.0</ele><time>2026-05-02T13:41:14.853Z</time></trkpt><trkpt lat="44.0155428771049" lon="10.86848723735986"><ele>798.0</ele><time>2026-05-02T13:41:16.853Z</time></trkpt><trkpt lat="44.01560995974442" lon="10.868615421671171"><ele>798.0</ele><time>2026-05-02T13:41:18.853Z</time></trkpt><trkpt lat="44.015650956011086" lon="10.868721030227471"><ele>798.0</ele><time>2026-05-02T13:41:20.853Z</time></trkpt><trkpt lat="44.01568161247832" lon="10.868860252133786"><ele>798.0</ele><time>2026-05-02T13:41:22.853Z</time></trkpt><trkpt lat="44.015709609661414" lon="10.868997426995612"><ele>798.0</ele><time>2026-05-02T13:41:24.853Z</time></trkpt><trkpt lat="44.01576168586693" lon="10.869121925385414"><ele>798.0</ele><time>2026-05-02T13:41:26.853Z</time></trkpt><trkpt lat="44.015831921354426" lon="10.869222788530239"><ele>798.0</ele><time>2026-05-02T13:41:28.853Z</time></trkpt><trkpt lat="44.01588264434143" lon="10.869335305548026"><ele>796.8333333333334</ele><time>2026-05-02T13:41:30.853Z</time></trkpt><trkpt lat="44.01591915961297" lon="10.869451446253688"><ele>795.6666666666667</ele><time>2026-05-02T13:41:32.853Z</time></trkpt><trkpt lat="44.01598241642662" lon="10.869555919699321"><ele>794.5</ele><time>2026-05-02T13:41:34.853Z</time></trkpt><trkpt lat="44.01604913332781" lon="10.86957576402877"><ele>793.3333333333334</ele><time>2026-05-02T13:41:35.853Z</time></trkpt><trkpt lat="44.016118107742415" lon="10.869600956443248"><ele>792.1666666666667</ele><time>2026-05-02T13:41:36.853Z</time></trkpt><trkpt lat="44.0161836480248" lon="10.869601662642191"><ele>791.0</ele><time>2026-05-02T13:41:37.853Z</time></trkpt><trkpt lat="44.01630538026216" lon="10.869644316959727"><ele>791.0000000000001</ele><time>2026-05-02T13:41:39.853Z</time></trkpt><trkpt lat="44.01637219373107" lon="10.869670951676305"><ele>791.0</ele><time>2026-05-02T13:41:40.853Z</time></trkpt><trkpt lat="44.01648955604598" lon="10.869666980969903"><ele>791.0</ele><time>2026-05-02T13:41:42.853Z</time></trkpt><trkpt lat="44.0165485730024" lon="10.869623217820171"><ele>791.0</ele><time>2026-05-02T13:41:43.853Z</time></trkpt><trkpt lat="44.01660245352793" lon="10.869518609008585"><ele>791.0000000000001</ele><time>2026-05-02T13:41:45.853Z</time></trkpt><trkpt lat="44.01666061365818" lon="10.869457948326431"><ele>791.0</ele><time>2026-05-02T13:41:48.853Z</time></trkpt><trkpt lat="44.01671836813" lon="10.869397057697533"><ele>788.8333333333334</ele><time>2026-05-02T13:41:52.853Z</time></trkpt><trkpt lat="44.01676576325895" lon="10.869331910845434"><ele>786.6666666666667</ele><time>2026-05-02T13:41:55.853Z</time></trkpt><trkpt lat="44.016838103749215" lon="10.869269578529051"><ele>784.5</ele><time>2026-05-02T13:41:59.853Z</time></trkpt><trkpt lat="44.01691314943168" lon="10.86926696675331"><ele>782.3333333333333</ele><time>2026-05-02T13:42:02.853Z</time></trkpt><trkpt lat="44.01697867134049" lon="10.869274559478399"><ele>780.1666666666666</ele><time>2026-05-02T13:42:04.853Z</time></trkpt><trkpt lat="44.01705941610599" lon="10.869282973247351"><ele>778.0</ele><time>2026-05-02T13:42:07.853Z</time></trkpt><trkpt lat="44.017133033369504" lon="10.869321037317015"><ele>777.9999999999999</ele><time>2026-05-02T13:42:11.853Z</time></trkpt><trkpt lat="44.01721622734129" lon="10.86934352359516"><ele>778.0</ele><time>2026-05-02T13:42:15.853Z</time></trkpt><trkpt lat="44.017290350404004" lon="10.86935234457097"><ele>778.0</ele><time>2026-05-02T13:42:17.853Z</time></trkpt><trkpt lat="44.0173675625869" lon="10.86932931946633"><ele>778.0</ele><time>2026-05-02T13:42:20.853Z</time></trkpt><trkpt lat="44.0174175878629" lon="10.869263918656845"><ele>777.9999999999999</ele><time>2026-05-02T13:42:23.853Z</time></trkpt><trkpt lat="44.01747538894297" lon="10.869196660048264"><ele>778.0</ele><time>2026-05-02T13:42:26.852Z</time></trkpt><trkpt lat="44.01755250560533" lon="10.869174918847207"><ele>777.1666666666666</ele><time>2026-05-02T13:42:29.851Z</time></trkpt><trkpt lat="44.017633823149815" lon="10.869115480873473"><ele>776.3333333333333</ele><time>2026-05-02T13:42:32.851Z</time></trkpt><trkpt lat="44.01768768884119" lon="10.869069989449196"><ele>775.5</ele><time>2026-05-02T13:42:35.852Z</time></trkpt><trkpt lat="44.017762278025465" lon="10.86900791909965"><ele>774.6666666666667</ele><time>2026-05-02T13:42:38.852Z</time></trkpt><trkpt lat="44.01782699020848" lon="10.868939221718966"><ele>773.8333333333334</ele><time>2026-05-02T13:42:41.852Z</time></trkpt><trkpt lat="44.01788660379002" lon="10.8689010843272"><ele>773.0</ele><time>2026-05-02T13:42:43.852Z</time></trkpt><trkpt lat="44.017976721136925" lon="10.868831172237938"><ele>773.0000000000001</ele><time>2026-05-02T13:42:45.852Z</time></trkpt><trkpt lat="44.01806997604925" lon="10.86878537967816"><ele>773.0</ele><time>2026-05-02T13:42:47.851Z</time></trkpt><trkpt lat="44.01816030435446" lon="10.86874609410251"><ele>773.0</ele><time>2026-05-02T13:42:49.851Z</time></trkpt><trkpt lat="44.018221029814825" lon="10.868704811890506"><ele>773.0</ele><time>2026-05-02T13:42:51.851Z</time></trkpt><trkpt lat="44.01827452788327" lon="10.868656594026813"><ele>773.0000000000001</ele><time>2026-05-02T13:42:53.851Z</time></trkpt><trkpt lat="44.01829031804104" lon="10.868518318833924"><ele>773.0</ele><time>2026-05-02T13:42:56.851Z</time></trkpt><trkpt lat="44.01836416234115" lon="10.868448569204231"><ele>771.5999999999999</ele><time>2026-05-02T13:42:59.851Z</time></trkpt><trkpt lat="44.01842425835748" lon="10.86841448998675"><ele>770.1999999999999</ele><time>2026-05-02T13:43:01.851Z</time></trkpt><trkpt lat="44.01852538733225" lon="10.868349426098233"><ele>768.8</ele><time>2026-05-02T13:43:04.851Z</time></trkpt><trkpt lat="44.018621940519054" lon="10.868339016096561"><ele>767.4</ele><time>2026-05-02T13:43:06.851Z</time></trkpt><trkpt lat="44.01874073895843" lon="10.868313850343306"><ele>766.0</ele><time>2026-05-02T13:43:08.851Z</time></trkpt><trkpt lat="44.01879556906203" lon="10.868266048694137"><ele>766.0</ele><time>2026-05-02T13:43:09.851Z</time></trkpt><trkpt lat="44.01885829636943" lon="10.868172757599114"><ele>766.0</ele><time>2026-05-02T13:43:11.851Z</time></trkpt><trkpt lat="44.01895674428652" lon="10.868133076013201"><ele>766.0</ele><time>2026-05-02T13:43:13.851Z</time></trkpt><trkpt lat="44.01903602394142" lon="10.86810440343632"><ele>766.0</ele><time>2026-05-02T13:43:15.851Z</time></trkpt><trkpt lat="44.01909671915326" lon="10.868077952442007"><ele>766.0</ele><time>2026-05-02T13:43:17.851Z</time></trkpt><trkpt lat="44.019166768139" lon="10.868061294724251"><ele>766.0</ele><time>2026-05-02T13:43:19.851Z</time></trkpt><trkpt lat="44.01926135128195" lon="10.868060565252362"><ele>767.0</ele><time>2026-05-02T13:43:21.851Z</time></trkpt><trkpt lat="44.01932906802226" lon="10.868056936177167"><ele>768.0</ele><time>2026-05-02T13:43:23.851Z</time></trkpt><trkpt lat="44.019434095592196" lon="10.868041643073289"><ele>769.0</ele><time>2026-05-02T13:43:25.851Z</time></trkpt><trkpt lat="44.019511309766635" lon="10.8680162474111"><ele>770.0</ele><time>2026-05-02T13:43:27.851Z</time></trkpt><trkpt lat="44.019585644345916" lon="10.868008737972044"><ele>770.9999999999999</ele><time>2026-05-02T13:43:29.851Z</time></trkpt><trkpt lat="44.01967163545889" lon="10.868031490307663"><ele>772.0</ele><time>2026-05-02T13:43:31.851Z</time></trkpt><trkpt lat="44.01973754811583" lon="10.868082660960237"><ele>772.0</ele><time>2026-05-02T13:43:33.851Z</time></trkpt><trkpt lat="44.01978064943058" lon="10.86816574900512"><ele>772.0</ele><time>2026-05-02T13:43:35.851Z</time></trkpt><trkpt lat="44.019863987000896" lon="10.868249461926103"><ele>772.0</ele><time>2026-05-02T13:43:37.851Z</time></trkpt><trkpt lat="44.01994679689217" lon="10.86832917437714"><ele>772.0</ele><time>2026-05-02T13:43:39.851Z</time></trkpt><trkpt lat="44.02001857210267" lon="10.8684063098004"><ele>772.0</ele><time>2026-05-02T13:43:41.851Z</time></trkpt><trkpt lat="44.02009074764533" lon="10.868490955350063"><ele>773.8</ele><time>2026-05-02T13:43:43.851Z</time></trkpt><trkpt lat="44.02015179024906" lon="10.868607568466325"><ele>775.6</ele><time>2026-05-02T13:43:45.851Z</time></trkpt><trkpt lat="44.02022202098098" lon="10.868711675097884"><ele>777.4</ele><time>2026-05-02T13:43:47.851Z</time></trkpt><trkpt lat="44.02031298620198" lon="10.868741237472474"><ele>779.1999999999999</ele><time>2026-05-02T13:43:49.851Z</time></trkpt><trkpt lat="44.020416315480006" lon="10.86872647471954"><ele>781.0</ele><time>2026-05-02T13:43:51.851Z</time></trkpt><trkpt lat="44.02049154259371" lon="10.86869945426485"><ele>780.9999999999999</ele><time>2026-05-02T13:43:53.851Z</time></trkpt><trkpt lat="44.020553536461655" lon="10.868680755134713"><ele>781.0</ele><time>2026-05-02T13:43:55.851Z</time></trkpt><trkpt lat="44.0206203102346" lon="10.868635424477857"><ele>781.0</ele><time>2026-05-02T13:43:58.851Z</time></trkpt><trkpt lat="44.02068861147134" lon="10.868576802874916"><ele>781.0</ele><time>2026-05-02T13:44:02.85Z</time></trkpt><trkpt lat="44.02076378660664" lon="10.868539750777137"><ele>780.9999999999999</ele><time>2026-05-02T13:44:06.85Z</time></trkpt><trkpt lat="44.02083614544325" lon="10.868491522500944"><ele>781.0</ele><time>2026-05-02T13:44:11.85Z</time></trkpt><trkpt lat="44.02091550856656" lon="10.86847866678425"><ele>779.7142857142858</ele><time>2026-05-02T13:44:15.85Z</time></trkpt><trkpt lat="44.02098850077016" lon="10.868479334206643"><ele>778.4285714285714</ele><time>2026-05-02T13:44:18.85Z</time></trkpt><trkpt lat="44.021060241130336" lon="10.868481676890724"><ele>777.1428571428571</ele><time>2026-05-02T13:44:21.85Z</time></trkpt><trkpt lat="44.02113591036981" lon="10.86850681831939"><ele>775.8571428571429</ele><time>2026-05-02T13:44:25.85Z</time></trkpt><trkpt lat="44.021199682196894" lon="10.868552922265945"><ele>774.5714285714286</ele><time>2026-05-02T13:44:28.85Z</time></trkpt><trkpt lat="44.02125904684298" lon="10.868618019113038"><ele>773.2857142857143</ele><time>2026-05-02T13:44:30.85Z</time></trkpt><trkpt lat="44.02131555900784" lon="10.868684017255635"><ele>772.0</ele><time>2026-05-02T13:44:32.85Z</time></trkpt><trkpt lat="44.021396182935675" lon="10.868754345973256"><ele>771.9999999999999</ele><time>2026-05-02T13:44:35.849Z</time></trkpt><trkpt lat="44.021447049247634" lon="10.868822871013066"><ele>772.0</ele><time>2026-05-02T13:44:37.848Z</time></trkpt><trkpt lat="44.021514052651234" lon="10.868935594575419"><ele>772.0</ele><time>2026-05-02T13:44:39.848Z</time></trkpt><trkpt lat="44.02158497835252" lon="10.869055040081339"><ele>772.0</ele><time>2026-05-02T13:44:41.848Z</time></trkpt><trkpt lat="44.02161906268213" lon="10.869129831975087"><ele>771.9999999999999</ele><time>2026-05-02T13:44:42.848Z</time></trkpt><trkpt lat="44.02165517494012" lon="10.869210138805125"><ele>772.0</ele><time>2026-05-02T13:44:44.848Z</time></trkpt><trkpt lat="44.02169460787292" lon="10.86929801859482"><ele>772.9999999999999</ele><time>2026-05-02T13:44:46.848Z</time></trkpt><trkpt lat="44.02174699184019" lon="10.869416061734109"><ele>774.0</ele><time>2026-05-02T13:44:48.848Z</time></trkpt><trkpt lat="44.021798187099705" lon="10.869493175022924"><ele>775.0</ele><time>2026-05-02T13:44:49.848Z</time></trkpt><trkpt lat="44.021890459108036" lon="10.86956814443516"><ele>776.0</ele><time>2026-05-02T13:44:51.848Z</time></trkpt><trkpt lat="44.02195710316364" lon="10.869629587015963"><ele>776.9999999999999</ele><time>2026-05-02T13:44:53.848Z</time></trkpt><trkpt lat="44.022016893661174" lon="10.86970534995085"><ele>778.0</ele><time>2026-05-02T13:44:55.848Z</time></trkpt><trkpt lat="44.0220897565587" lon="10.869767817625268"><ele>777.9999999999999</ele><time>2026-05-02T13:44:57.848Z</time></trkpt><trkpt lat="44.02215945638609" lon="10.869794522926174"><ele>778.0</ele><time>2026-05-02T13:44:59.848Z</time></trkpt><trkpt lat="44.022243378401875" lon="10.869826381272338"><ele>778.0</ele><time>2026-05-02T13:45:02.848Z</time></trkpt><trkpt lat="44.0223102872491" lon="10.869882766962526"><ele>778.0</ele><time>2026-05-02T13:45:04.848Z</time></trkpt><trkpt lat="44.02237660351708" lon="10.86996565618713"><ele>777.9999999999999</ele><time>2026-05-02T13:45:06.848Z</time></trkpt><trkpt lat="44.02244156367108" lon="10.87001729845778"><ele>778.0</ele><time>2026-05-02T13:45:08.848Z</time></trkpt><trkpt lat="44.02248934002231" lon="10.870087264593522"><ele>777.1666666666666</ele><time>2026-05-02T13:45:10.848Z</time></trkpt><trkpt lat="44.02254665258712" lon="10.870169251077844"><ele>776.3333333333333</ele><time>2026-05-02T13:45:13.848Z</time></trkpt><trkpt lat="44.02259740713687" lon="10.870233675539426"><ele>775.5</ele><time>2026-05-02T13:45:15.848Z</time></trkpt><trkpt lat="44.022661546647875" lon="10.870312416618619"><ele>774.6666666666667</ele><time>2026-05-02T13:45:18.848Z</time></trkpt><trkpt lat="44.022736959683726" lon="10.870393112002978"><ele>773.8333333333334</ele><time>2026-05-02T13:45:21.847Z</time></trkpt><trkpt lat="44.02279270987331" lon="10.870449004378308"><ele>773.0</ele><time>2026-05-02T13:45:23.847Z</time></trkpt><trkpt lat="44.0228555963598" lon="10.870508847398403"><ele>773.0000000000001</ele><time>2026-05-02T13:45:26.847Z</time></trkpt><trkpt lat="44.022927916371216" lon="10.870558976536735"><ele>773.0</ele><time>2026-05-02T13:45:29.847Z</time></trkpt><trkpt lat="44.022991914364894" lon="10.870644876411706"><ele>773.0</ele><time>2026-05-02T13:45:32.847Z</time></trkpt><trkpt lat="44.0230604605215" lon="10.870719823572774"><ele>773.0</ele><time>2026-05-02T13:45:35.847Z</time></trkpt><trkpt lat="44.02309393707599" lon="10.87079851803517"><ele>773.0000000000001</ele><time>2026-05-02T13:45:37.847Z</time></trkpt><trkpt lat="44.023136259832164" lon="10.870880433745102"><ele>773.0</ele><time>2026-05-02T13:45:39.847Z</time></trkpt><trkpt lat="44.02318059182931" lon="10.870967946780072"><ele>771.7142857142857</ele><time>2026-05-02T13:45:42.847Z</time></trkpt><trkpt lat="44.0232092068071" lon="10.871074146335118"><ele>770.4285714285713</ele><time>2026-05-02T13:45:44.847Z</time></trkpt><trkpt lat="44.02323346685614" lon="10.871158526382116"><ele>769.1428571428571</ele><time>2026-05-02T13:45:46.847Z</time></trkpt><trkpt lat="44.023256838487825" lon="10.871244819605948"><ele>767.8571428571429</ele><time>2026-05-02T13:45:48.847Z</time></trkpt><trkpt lat="44.023269306387405" lon="10.871343834867453"><ele>766.5714285714286</ele><time>2026-05-02T13:45:51.847Z</time></trkpt><trkpt lat="44.0232976078555" lon="10.871433507302493"><ele>765.2857142857143</ele><time>2026-05-02T13:45:54.847Z</time></trkpt><trkpt lat="44.023332324007214" lon="10.871511732938046"><ele>764.0</ele><time>2026-05-02T13:45:57.847Z</time></trkpt><trkpt lat="44.02340043265402" lon="10.871589537921116"><ele>764.0</ele><time>2026-05-02T13:46:01.847Z</time></trkpt><trkpt lat="44.0234420967845" lon="10.871681364164766"><ele>764.0</ele><time>2026-05-02T13:46:05.847Z</time></trkpt><trkpt lat="44.02348221845728" lon="10.8717550188375"><ele>764.0</ele><time>2026-05-02T13:46:08.847Z</time></trkpt><trkpt lat="44.02353031916253" lon="10.871835407085264"><ele>764.0</ele><time>2026-05-02T13:46:11.847Z</time></trkpt><trkpt lat="44.023574660885906" lon="10.87191435268327"><ele>764.0</ele><time>2026-05-02T13:46:14.847Z</time></trkpt><trkpt lat="44.023624330442054" lon="10.871996494315296"><ele>764.0</ele><time>2026-05-02T13:46:17.847Z</time></trkpt><trkpt lat="44.023664011696006" lon="10.872072169558042"><ele>764.0</ele><time>2026-05-02T13:46:20.847Z</time></trkpt><trkpt lat="44.02372187460701" lon="10.87214511427125"><ele>767.1666666666666</ele><time>2026-05-02T13:46:23.847Z</time></trkpt><trkpt lat="44.02377724232452" lon="10.872225758335386"><ele>770.3333333333333</ele><time>2026-05-02T13:46:26.847Z</time></trkpt><trkpt lat="44.0238338541171" lon="10.872320667959434"><ele>773.5</ele><time>2026-05-02T13:46:29.847Z</time></trkpt><trkpt lat="44.02387953665549" lon="10.872405437469876"><ele>776.6666666666666</ele><time>2026-05-02T13:46:31.847Z</time></trkpt><trkpt lat="44.023921685374305" lon="10.872487270419692"><ele>779.8333333333334</ele><time>2026-05-02T13:46:34.846Z</time></trkpt><trkpt lat="44.02395271281136" lon="10.872564108317773"><ele>783.0</ele><time>2026-05-02T13:46:36.846Z</time></trkpt><trkpt lat="44.02398311852559" lon="10.872676614200516"><ele>785.1666666666666</ele><time>2026-05-02T13:46:38.846Z</time></trkpt><trkpt lat="44.02401652488741" lon="10.872833396495652"><ele>787.3333333333333</ele><time>2026-05-02T13:46:41.845Z</time></trkpt><trkpt lat="44.024023919911095" lon="10.872977262397624"><ele>789.5</ele><time>2026-05-02T13:46:43.845Z</time></trkpt><trkpt lat="44.02402534788256" lon="10.873093857804758"><ele>791.6666666666666</ele><time>2026-05-02T13:46:45.845Z</time></trkpt><trkpt lat="44.02404961459443" lon="10.873192849147767"><ele>793.8333333333333</ele><time>2026-05-02T13:46:47.844Z</time></trkpt><trkpt lat="44.024086330965744" lon="10.873272084075492"><ele>796.0</ele><time>2026-05-02T13:46:50.844Z</time></trkpt><trkpt lat="44.0241082928622" lon="10.873370281351523"><ele>788.0</ele><time>2026-05-02T13:46:52.845Z</time></trkpt><trkpt lat="44.024162906566154" lon="10.873499652860442"><ele>780.0</ele><time>2026-05-02T13:46:54.845Z</time></trkpt><trkpt lat="44.024230900992144" lon="10.873617823666343"><ele>772.0</ele><time>2026-05-02T13:46:56.845Z</time></trkpt><trkpt lat="44.024285745542514" lon="10.873693477881114"><ele>764.0</ele><time>2026-05-02T13:46:59.845Z</time></trkpt><trkpt lat="44.02434355413245" lon="10.8737778610156"><ele>756.0</ele><time>2026-05-02T13:47:02.845Z</time></trkpt><trkpt lat="44.02439747539086" lon="10.873847386053372"><ele>756.0</ele><time>2026-05-02T13:47:04.845Z</time></trkpt><trkpt lat="44.02444529000253" lon="10.873954370941416"><ele>756.0</ele><time>2026-05-02T13:47:06.845Z</time></trkpt><trkpt lat="44.02448685753663" lon="10.874076586652873"><ele>756.0</ele><time>2026-05-02T13:47:08.845Z</time></trkpt><trkpt lat="44.02455287776277" lon="10.874171069778438"><ele>756.0</ele><time>2026-05-02T13:47:10.845Z</time></trkpt><trkpt lat="44.02459034329618" lon="10.874328166125375"><ele>756.0</ele><time>2026-05-02T13:47:12.845Z</time></trkpt><trkpt lat="44.024584251791765" lon="10.87441779444853"><ele>752.6666666666666</ele><time>2026-05-02T13:47:13.845Z</time></trkpt><trkpt lat="44.02456382905876" lon="10.87454850540763"><ele>749.3333333333334</ele><time>2026-05-02T13:47:15.845Z</time></trkpt><trkpt lat="44.02454884070451" lon="10.874639010503492"><ele>746.0</ele><time>2026-05-02T13:47:17.845Z</time></trkpt><trkpt lat="44.02453020740585" lon="10.87475331212082"><ele>742.6666666666667</ele><time>2026-05-02T13:47:20.845Z</time></trkpt><trkpt lat="44.02455030249463" lon="10.874858674193991"><ele>739.3333333333334</ele><time>2026-05-02T13:47:23.845Z</time></trkpt><trkpt lat="44.02458623265848" lon="10.874952374636603"><ele>736.0</ele><time>2026-05-02T13:47:27.845Z</time></trkpt><trkpt lat="44.02462516848579" lon="10.875030109970428"><ele>736.0</ele><time>2026-05-02T13:47:30.845Z</time></trkpt><trkpt lat="44.02468802392294" lon="10.87507951833175"><ele>736.0</ele><time>2026-05-02T13:47:34.845Z</time></trkpt><trkpt lat="44.02474424746568" lon="10.875125748203706"><ele>736.0</ele><time>2026-05-02T13:47:38.845Z</time></trkpt><trkpt lat="44.02481290908858" lon="10.875195628052317"><ele>736.0</ele><time>2026-05-02T13:47:43.845Z</time></trkpt><trkpt lat="44.02486835201159" lon="10.875245668748379"><ele>736.0</ele><time>2026-05-02T13:47:47.845Z</time></trkpt><trkpt lat="44.02492999414664" lon="10.87531822587133"><ele>736.0</ele><time>2026-05-02T13:47:51.845Z</time></trkpt><trkpt lat="44.024972234580346" lon="10.875394110939942"><ele>736.0</ele><time>2026-05-02T13:47:55.845Z</time></trkpt><trkpt lat="44.025035239907915" lon="10.875463024325152"><ele>736.4285714285714</ele><time>2026-05-02T13:47:59.844Z</time></trkpt><trkpt lat="44.025101100182255" lon="10.875533175159507"><ele>736.8571428571428</ele><time>2026-05-02T13:48:03.844Z</time></trkpt><trkpt lat="44.025160435991886" lon="10.875582499632658"><ele>737.2857142857142</ele><time>2026-05-02T13:48:06.844Z</time></trkpt><trkpt lat="44.02522316158219" lon="10.875646934061336"><ele>737.7142857142858</ele><time>2026-05-02T13:48:09.844Z</time></trkpt><trkpt lat="44.02528214931535" lon="10.875690785129533"><ele>738.1428571428571</ele><time>2026-05-02T13:48:13.844Z</time></trkpt><trkpt lat="44.025340133164015" lon="10.87572999416705"><ele>738.5714285714286</ele><time>2026-05-02T13:48:16.844Z</time></trkpt><trkpt lat="44.02541045161944" lon="10.875764247942172"><ele>739.0</ele><time>2026-05-02T13:48:20.844Z</time></trkpt><trkpt lat="44.02547378515795" lon="10.875791069365372"><ele>739.0</ele><time>2026-05-02T13:48:24.844Z</time></trkpt><trkpt lat="44.025541053474555" lon="10.875817932031719"><ele>739.0</ele><time>2026-05-02T13:48:28.844Z</time></trkpt><trkpt lat="44.02561522091381" lon="10.875845559531838"><ele>739.0</ele><time>2026-05-02T13:48:32.844Z</time></trkpt><trkpt lat="44.0256780793123" lon="10.875866805790784"><ele>739.0</ele><time>2026-05-02T13:48:36.844Z</time></trkpt><trkpt lat="44.02574163968343" lon="10.87588719645034"><ele>739.0</ele><time>2026-05-02T13:48:39.844Z</time></trkpt><trkpt lat="44.025823146144596" lon="10.875910416628086"><ele>739.0</ele><time>2026-05-02T13:48:43.844Z</time></trkpt><trkpt lat="44.02589499951916" lon="10.875927716197015"><ele>739.0</ele><time>2026-05-02T13:48:46.842Z</time></trkpt><trkpt lat="44.02596155648067" lon="10.875941167579676"><ele>739.5714285714286</ele><time>2026-05-02T13:48:49.841Z</time></trkpt><trkpt lat="44.02604391609276" lon="10.875953248306052"><ele>740.1428571428571</ele><time>2026-05-02T13:48:52.842Z</time></trkpt><trkpt lat="44.02610884099785" lon="10.875960703263083"><ele>740.7142857142858</ele><time>2026-05-02T13:48:55.841Z</time></trkpt><trkpt lat="44.02617616172887" lon="10.875966499335744"><ele>741.2857142857142</ele><time>2026-05-02T13:48:58.842Z</time></trkpt><trkpt lat="44.026246635529795" lon="10.875972129909865"><ele>741.8571428571428</ele><time>2026-05-02T13:49:01.842Z</time></trkpt><trkpt lat="44.0263117902588" lon="10.875977335500417"><ele>742.4285714285714</ele><time>2026-05-02T13:49:03.842Z</time></trkpt><trkpt lat="44.02639060038151" lon="10.875983632108928"><ele>743.0</ele><time>2026-05-02T13:49:06.842Z</time></trkpt><trkpt lat="44.0264822601802" lon="10.875993027171418"><ele>743.0</ele><time>2026-05-02T13:49:09.842Z</time></trkpt><trkpt lat="44.0265492610503" lon="10.87600009940681"><ele>743.0</ele><time>2026-05-02T13:49:12.841Z</time></trkpt><trkpt lat="44.02664161544213" lon="10.876010852825484"><ele>743.0</ele><time>2026-05-02T13:49:15.841Z</time></trkpt><trkpt lat="44.026705597486256" lon="10.87601830267527"><ele>743.0</ele><time>2026-05-02T13:49:17.841Z</time></trkpt><trkpt lat="44.026791053250776" lon="10.876028252848725"><ele>743.0</ele><time>2026-05-02T13:49:20.841Z</time></trkpt><trkpt lat="44.0268679606088" lon="10.876037207668157"><ele>743.0</ele><time>2026-05-02T13:49:23.841Z</time></trkpt><trkpt lat="44.026949453331696" lon="10.876046247976515"><ele>744.5714285714286</ele><time>2026-05-02T13:49:26.841Z</time></trkpt><trkpt lat="44.02701854173731" lon="10.876053623065408"><ele>746.1428571428571</ele><time>2026-05-02T13:49:30.841Z</time></trkpt><trkpt lat="44.02710050590121" lon="10.87606077287678"><ele>747.7142857142857</ele><time>2026-05-02T13:49:34.841Z</time></trkpt><trkpt lat="44.02716714539707" lon="10.87606420288145"><ele>749.2857142857142</ele><time>2026-05-02T13:49:37.841Z</time></trkpt><trkpt lat="44.02723287353334" lon="10.876065197596168"><ele>750.8571428571429</ele><time>2026-05-02T13:49:40.841Z</time></trkpt><trkpt lat="44.02729988897547" lon="10.87607222671892"><ele>752.4285714285713</ele><time>2026-05-02T13:49:46.841Z</time></trkpt><trkpt lat="44.02736190803856" lon="10.876087396671831"><ele>754.0</ele><time>2026-05-02T13:50:01.841Z</time></trkpt><trkpt lat="44.02744131528774" lon="10.876128634709822"><ele>757.1666666666667</ele><time>2026-05-02T13:50:40.84Z</time></trkpt><trkpt lat="44.02750027588008" lon="10.876166858583264"><ele>760.3333333333334</ele><time>2026-05-02T13:50:46.84Z</time></trkpt><trkpt lat="44.02755677216149" lon="10.876207499474626"><ele>763.5</ele><time>2026-05-02T13:50:50.84Z</time></trkpt><trkpt lat="44.02761627766054" lon="10.876326262759585"><ele>766.6666666666667</ele><time>2026-05-02T13:50:54.839Z</time></trkpt><trkpt lat="44.02764888725007" lon="10.876421497744051"><ele>769.8333333333334</ele><time>2026-05-02T13:50:57.839Z</time></trkpt><trkpt lat="44.02768083518087" lon="10.876537695135216"><ele>773.0</ele><time>2026-05-02T13:51:00.839Z</time></trkpt><trkpt lat="44.02770786833258" lon="10.876652086801844"><ele>770.4285714285714</ele><time>2026-05-02T13:51:03.838Z</time></trkpt><trkpt lat="44.02774517808129" lon="10.876770897248022"><ele>767.8571428571429</ele><time>2026-05-02T13:51:06.838Z</time></trkpt><trkpt lat="44.02775600178112" lon="10.876873313809911"><ele>765.2857142857142</ele><time>2026-05-02T13:51:08.838Z</time></trkpt><trkpt lat="44.02776642765832" lon="10.876965977157015"><ele>762.7142857142858</ele><time>2026-05-02T13:51:10.838Z</time></trkpt><trkpt lat="44.02779162906786" lon="10.87706350191506"><ele>760.1428571428572</ele><time>2026-05-02T13:51:12.838Z</time></trkpt><trkpt lat="44.02781715065327" lon="10.877147527855291"><ele>757.5714285714286</ele><time>2026-05-02T13:51:14.837Z</time></trkpt><trkpt lat="44.02783724889604" lon="10.87724041404911"><ele>755.0</ele><time>2026-05-02T13:51:16.837Z</time></trkpt><trkpt lat="44.02786303491391" lon="10.877323943236306"><ele>755.0</ele><time>2026-05-02T13:51:18.837Z</time></trkpt><trkpt lat="44.02788457327034" lon="10.877406369937459"><ele>755.0</ele><time>2026-05-02T13:51:20.837Z</time></trkpt><trkpt lat="44.02791530665149" lon="10.877523415397297"><ele>755.0</ele><time>2026-05-02T13:51:23.837Z</time></trkpt><trkpt lat="44.02795057177549" lon="10.877627638744979"><ele>755.0</ele><time>2026-05-02T13:51:26.837Z</time></trkpt><trkpt lat="44.02797680983458" lon="10.877724704410031"><ele>755.0</ele><time>2026-05-02T13:51:29.837Z</time></trkpt><trkpt lat="44.027999285134385" lon="10.877808728040455"><ele>755.0</ele><time>2026-05-02T13:51:31.837Z</time></trkpt><trkpt lat="44.02801584349787" lon="10.877896616189119"><ele>755.0</ele><time>2026-05-02T13:51:33.837Z</time></trkpt><trkpt lat="44.02803643031187" lon="10.8780029314445"><ele>751.8</ele><time>2026-05-02T13:51:35.837Z</time></trkpt><trkpt lat="44.02804821340883" lon="10.878123718483925"><ele>748.6</ele><time>2026-05-02T13:51:37.837Z</time></trkpt><trkpt lat="44.02807928144633" lon="10.878260734181595"><ele>745.4000000000001</ele><time>2026-05-02T13:51:39.837Z</time></trkpt><trkpt lat="44.028108577584334" lon="10.878382316036042"><ele>742.2</ele><time>2026-05-02T13:51:41.837Z</time></trkpt><trkpt lat="44.02815177250415" lon="10.878497541580613"><ele>739.0</ele><time>2026-05-02T13:51:43.837Z</time></trkpt><trkpt lat="44.02819846226962" lon="10.878596414418062"><ele>737.0</ele><time>2026-05-02T13:51:45.837Z</time></trkpt><trkpt lat="44.02825050266394" lon="10.87870259228408"><ele>735.0</ele><time>2026-05-02T13:51:47.837Z</time></trkpt><trkpt lat="44.02829286753345" lon="10.878825624281125"><ele>733.0</ele><time>2026-05-02T13:51:49.837Z</time></trkpt><trkpt lat="44.028318429184004" lon="10.878918842844845"><ele>731.0</ele><time>2026-05-02T13:51:51.837Z</time></trkpt><trkpt lat="44.02840386672451" lon="10.879015112203092"><ele>729.0</ele><time>2026-05-02T13:51:54.837Z</time></trkpt><trkpt lat="44.028472836333876" lon="10.879081707212476"><ele>732.8571428571429</ele><time>2026-05-02T13:51:56.837Z</time></trkpt><trkpt lat="44.02852992593179" lon="10.879127448274506"><ele>736.7142857142857</ele><time>2026-05-02T13:51:58.837Z</time></trkpt><trkpt lat="44.02860660771093" lon="10.879179104727754"><ele>740.5714285714286</ele><time>2026-05-02T13:52:00.837Z</time></trkpt><trkpt lat="44.028667592524535" lon="10.879241739954097"><ele>744.4285714285714</ele><time>2026-05-02T13:52:02.837Z</time></trkpt><trkpt lat="44.02872550166955" lon="10.879304270394078"><ele>748.2857142857142</ele><time>2026-05-02T13:52:04.837Z</time></trkpt><trkpt lat="44.028770051101205" lon="10.879370676992863"><ele>752.1428571428571</ele><time>2026-05-02T13:52:06.837Z</time></trkpt><trkpt lat="44.02881923581609" lon="10.879452967841491"><ele>756.0</ele><time>2026-05-02T13:52:08.837Z</time></trkpt><trkpt lat="44.02888449099495" lon="10.879501269863276"><ele>756.3333333333334</ele><time>2026-05-02T13:52:10.837Z</time></trkpt><trkpt lat="44.028918627644586" lon="10.8796050302177"><ele>756.6666666666666</ele><time>2026-05-02T13:52:13.837Z</time></trkpt><trkpt lat="44.02895008882738" lon="10.879697645487111"><ele>757.0</ele><time>2026-05-02T13:52:15.837Z</time></trkpt><trkpt lat="44.028971347985404" lon="10.87981270005362"><ele>757.3333333333333</ele><time>2026-05-02T13:52:17.837Z</time></trkpt><trkpt lat="44.02897669729284" lon="10.879922742124068"><ele>757.6666666666666</ele><time>2026-05-02T13:52:19.837Z</time></trkpt><trkpt lat="44.02900261813152" lon="10.880008278572012"><ele>758.0</ele><time>2026-05-02T13:52:21.837Z</time></trkpt><trkpt lat="44.02907760865575" lon="10.880056894095745"><ele>758.0000000000001</ele><time>2026-05-02T13:52:24.837Z</time></trkpt><trkpt lat="44.02911274013838" lon="10.879975020223439"><ele>758.0</ele><time>2026-05-02T13:52:27.837Z</time></trkpt><trkpt lat="44.02910603954737" lon="10.879881121537988"><ele>758.0</ele><time>2026-05-02T13:52:29.836Z</time></trkpt><trkpt lat="44.02912274005864" lon="10.879765736127192"><ele>758.0</ele><time>2026-05-02T13:52:32.836Z</time></trkpt><trkpt lat="44.02909753087706" lon="10.879653688488608"><ele>758.0</ele><time>2026-05-02T13:52:36.836Z</time></trkpt><trkpt lat="44.02907538448049" lon="10.879565640623232"><ele>758.0000000000001</ele><time>2026-05-02T13:52:39.836Z</time></trkpt><trkpt lat="44.02902773241823" lon="10.879482530119416"><ele>758.0</ele><time>2026-05-02T13:52:43.836Z</time></trkpt><trkpt lat="44.0290187540775" lon="10.879333403897213"><ele>757.6666666666666</ele><time>2026-05-02T13:52:45.836Z</time></trkpt><trkpt lat="44.02900511342944" lon="10.879199331163552"><ele>757.3333333333333</ele><time>2026-05-02T13:52:47.836Z</time></trkpt><trkpt lat="44.02897963002023" lon="10.879085749193699"><ele>757.0</ele><time>2026-05-02T13:52:50.836Z</time></trkpt><trkpt lat="44.02898878289347" lon="10.878970134611645"><ele>756.6666666666666</ele><time>2026-05-02T13:52:53.836Z</time></trkpt><trkpt lat="44.02901501925522" lon="10.878857974200931"><ele>756.3333333333334</ele><time>2026-05-02T13:52:56.836Z</time></trkpt><trkpt lat="44.02905623224508" lon="10.878785276266571"><ele>756.0</ele><time>2026-05-02T13:52:58.836Z</time></trkpt><trkpt lat="44.029106064441976" lon="10.878709745448896"><ele>755.1666666666666</ele><time>2026-05-02T13:53:01.835Z</time></trkpt><trkpt lat="44.02917095713135" lon="10.87862831576966"><ele>754.3333333333334</ele><time>2026-05-02T13:53:04.835Z</time></trkpt><trkpt lat="44.02922513281555" lon="10.878574623738086"><ele>753.5</ele><time>2026-05-02T13:53:06.835Z</time></trkpt><trkpt lat="44.02926951064391" lon="10.878454598800985"><ele>752.6666666666667</ele><time>2026-05-02T13:53:08.835Z</time></trkpt><trkpt lat="44.02932798254604" lon="10.878357127200784"><ele>751.8333333333334</ele><time>2026-05-02T13:53:10.835Z</time></trkpt><trkpt lat="44.02939666409581" lon="10.878297748604021"><ele>751.0</ele><time>2026-05-02T13:53:12.835Z</time></trkpt><trkpt lat="44.02944631627542" lon="10.878231831942198"><ele>749.8333333333334</ele><time>2026-05-02T13:53:14.835Z</time></trkpt><trkpt lat="44.02949984774514" lon="10.878176913088469"><ele>748.6666666666667</ele><time>2026-05-02T13:53:16.835Z</time></trkpt><trkpt lat="44.02956393829221" lon="10.8781287370892"><ele>747.5</ele><time>2026-05-02T13:53:18.835Z</time></trkpt><trkpt lat="44.02961566377828" lon="10.87807195296071"><ele>746.3333333333334</ele><time>2026-05-02T13:53:20.835Z</time></trkpt><trkpt lat="44.029676204450766" lon="10.878015971291775"><ele>745.1666666666666</ele><time>2026-05-02T13:53:22.835Z</time></trkpt><trkpt lat="44.0297551823085" lon="10.877963213947003"><ele>744.0</ele><time>2026-05-02T13:53:25.835Z</time></trkpt><trkpt lat="44.029830650636725" lon="10.87791081349974"><ele>744.0</ele><time>2026-05-02T13:53:28.835Z</time></trkpt><trkpt lat="44.02990771025293" lon="10.877853222036286"><ele>744.0</ele><time>2026-05-02T13:53:31.835Z</time></trkpt><trkpt lat="44.029971157541794" lon="10.877828352761224"><ele>744.0</ele><time>2026-05-02T13:53:33.835Z</time></trkpt><trkpt lat="44.03004863026262" lon="10.877804490005248"><ele>744.0</ele><time>2026-05-02T13:53:35.835Z</time></trkpt><trkpt lat="44.03012156910356" lon="10.877786838408333"><ele>744.0</ele><time>2026-05-02T13:53:38.835Z</time></trkpt><trkpt lat="44.03019921945204" lon="10.877791429222377"><ele>744.0</ele><time>2026-05-02T13:53:41.835Z</time></trkpt><trkpt lat="44.03029068284714" lon="10.877802350056909"><ele>745.0</ele><time>2026-05-02T13:53:44.835Z</time></trkpt><trkpt lat="44.03035267889865" lon="10.87784114910287"><ele>746.0</ele><time>2026-05-02T13:53:46.835Z</time></trkpt><trkpt lat="44.03040896330706" lon="10.877883870194479"><ele>747.0</ele><time>2026-05-02T13:53:48.835Z</time></trkpt><trkpt lat="44.030450192386816" lon="10.877993689336481"><ele>748.0</ele><time>2026-05-02T13:53:50.835Z</time></trkpt><trkpt lat="44.0304894322102" lon="10.87810577278217"><ele>749.0</ele><time>2026-05-02T13:53:52.835Z</time></trkpt><trkpt lat="44.03050650917066" lon="10.878224991809377"><ele>750.0</ele><time>2026-05-02T13:53:54.835Z</time></trkpt><trkpt lat="44.030532757459106" lon="10.878351513066358"><ele>751.8333333333334</ele><time>2026-05-02T13:53:56.835Z</time></trkpt><trkpt lat="44.030581540879396" lon="10.878465468371822"><ele>753.6666666666666</ele><time>2026-05-02T13:53:58.835Z</time></trkpt><trkpt lat="44.03062241916762" lon="10.878558101688316"><ele>755.5</ele><time>2026-05-02T13:54:00.835Z</time></trkpt><trkpt lat="44.0306940562508" lon="10.878653027167392"><ele>757.3333333333333</ele><time>2026-05-02T13:54:02.835Z</time></trkpt><trkpt lat="44.03076847242538" lon="10.878670983355226"><ele>759.1666666666666</ele><time>2026-05-02T13:54:04.835Z</time></trkpt><trkpt lat="44.03083712004938" lon="10.878656248527285"><ele>761.0</ele><time>2026-05-02T13:54:07.835Z</time></trkpt><trkpt lat="44.0308965119797" lon="10.87856919121856"><ele>760.9999999999999</ele><time>2026-05-02T13:54:11.835Z</time></trkpt><trkpt lat="44.03093192906519" lon="10.87849261210044"><ele>761.0</ele><time>2026-05-02T13:54:14.835Z</time></trkpt><trkpt lat="44.03097263731455" lon="10.87841128266998"><ele>761.0</ele><time>2026-05-02T13:54:18.836Z</time></trkpt><trkpt lat="44.03103521606628" lon="10.878357351337318"><ele>761.0</ele><time>2026-05-02T13:54:21.836Z</time></trkpt><trkpt lat="44.031107337665745" lon="10.878345778281506"><ele>761.0</ele><time>2026-05-02T13:54:23.836Z</time></trkpt><trkpt lat="44.03117864424095" lon="10.878363302701715"><ele>760.9999999999999</ele><time>2026-05-02T13:54:25.836Z</time></trkpt><trkpt lat="44.03126353484455" lon="10.878361054096976"><ele>761.0</ele><time>2026-05-02T13:54:28.836Z</time></trkpt><trkpt lat="44.03133069272122" lon="10.8783828480176"><ele>760.9999999999999</ele><time>2026-05-02T13:54:30.836Z</time></trkpt><trkpt lat="44.031405066693225" lon="10.878403211530348"><ele>761.0</ele><time>2026-05-02T13:54:33.836Z</time></trkpt><trkpt lat="44.03146820938147" lon="10.878437375937242"><ele>761.0</ele><time>2026-05-02T13:54:36.836Z</time></trkpt><trkpt lat="44.03153413541463" lon="10.878446180526476"><ele>761.0</ele><time>2026-05-02T13:54:38.836Z</time></trkpt><trkpt lat="44.03160158560978" lon="10.878446118671182"><ele>761.0</ele><time>2026-05-02T13:54:40.836Z</time></trkpt><trkpt lat="44.03167642292736" lon="10.878394862369412"><ele>760.9999999999999</ele><time>2026-05-02T13:54:43.836Z</time></trkpt><trkpt lat="44.031737317181324" lon="10.878339579711595"><ele>761.0</ele><time>2026-05-02T13:54:46.836Z</time></trkpt><trkpt lat="44.031784309408195" lon="10.878275280211001"><ele>757.8571428571428</ele><time>2026-05-02T13:54:49.835Z</time></trkpt><trkpt lat="44.03183641511956" lon="10.878224641774166"><ele>754.7142857142857</ele><time>2026-05-02T13:54:52.835Z</time></trkpt><trkpt lat="44.031907978411034" lon="10.87820770761111"><ele>751.5714285714286</ele><time>2026-05-02T13:54:55.835Z</time></trkpt><trkpt lat="44.031985859789884" lon="10.878188472380714"><ele>748.4285714285713</ele><time>2026-05-02T13:54:58.835Z</time></trkpt><trkpt lat="44.032057546005674" lon="10.878176632165449"><ele>745.2857142857143</ele><time>2026-05-02T13:55:01.835Z</time></trkpt><trkpt lat="44.032128046492716" lon="10.878163246372607"><ele>742.1428571428571</ele><time>2026-05-02T13:55:04.834Z</time></trkpt><trkpt lat="44.032202798575746" lon="10.87816300910152"><ele>739.0</ele><time>2026-05-02T13:55:07.833Z</time></trkpt><trkpt lat="44.032299173571346" lon="10.878166953276986"><ele>739.0</ele><time>2026-05-02T13:55:10.833Z</time></trkpt><trkpt lat="44.032371391707635" lon="10.878187410079555"><ele>739.0</ele><time>2026-05-02T13:55:12.833Z</time></trkpt><trkpt lat="44.032438799683874" lon="10.878192547323737"><ele>739.0</ele><time>2026-05-02T13:55:14.833Z</time></trkpt><trkpt lat="44.03251577280032" lon="10.878240075181285"><ele>739.0</ele><time>2026-05-02T13:55:18.833Z</time></trkpt><trkpt lat="44.032566273789755" lon="10.878306285976066"><ele>739.0</ele><time>2026-05-02T13:55:20.833Z</time></trkpt><trkpt lat="44.03264957080385" lon="10.878362134370281"><ele>739.0</ele><time>2026-05-02T13:55:23.833Z</time></trkpt><trkpt lat="44.03271043480273" lon="10.878404818695275"><ele>743.1666666666667</ele><time>2026-05-02T13:55:25.833Z</time></trkpt><trkpt lat="44.032777573499274" lon="10.878441339253067"><ele>747.3333333333334</ele><time>2026-05-02T13:55:27.833Z</time></trkpt><trkpt lat="44.03284014023623" lon="10.878490392804975"><ele>751.5</ele><time>2026-05-02T13:55:29.833Z</time></trkpt><trkpt lat="44.03290755824932" lon="10.878563917352482"><ele>755.6666666666666</ele><time>2026-05-02T13:55:31.833Z</time></trkpt><trkpt lat="44.03296802257505" lon="10.878627256776532"><ele>759.8333333333333</ele><time>2026-05-02T13:55:33.833Z</time></trkpt><trkpt lat="44.03301597761359" lon="10.878699550399135"><ele>764.0</ele><time>2026-05-02T13:55:35.833Z</time></trkpt><trkpt lat="44.033085667829106" lon="10.878770808877182"><ele>764.0</ele><time>2026-05-02T13:55:37.833Z</time></trkpt><trkpt lat="44.033143866039275" lon="10.878835901506603"><ele>764.0</ele><time>2026-05-02T13:55:39.833Z</time></trkpt><trkpt lat="44.03319135724029" lon="10.878895738470002"><ele>764.0</ele><time>2026-05-02T13:55:41.833Z</time></trkpt><trkpt lat="44.03325391010991" lon="10.878954646952824"><ele>764.0</ele><time>2026-05-02T13:55:43.833Z</time></trkpt><trkpt lat="44.033318807006125" lon="10.87902337933937"><ele>764.0</ele><time>2026-05-02T13:55:46.833Z</time></trkpt><trkpt lat="44.03338583521171" lon="10.879069515306952"><ele>764.0</ele><time>2026-05-02T13:55:48.832Z</time></trkpt><trkpt lat="44.033459535418814" lon="10.879110319383505"><ele>764.0</ele><time>2026-05-02T13:55:51.832Z</time></trkpt><trkpt lat="44.033541903775266" lon="10.879137748523442"><ele>764.0</ele><time>2026-05-02T13:55:53.832Z</time></trkpt><trkpt lat="44.03359470311805" lon="10.879185488408504"><ele>764.0</ele><time>2026-05-02T13:55:55.832Z</time></trkpt><trkpt lat="44.03368322570851" lon="10.879241292504505"><ele>764.0</ele><time>2026-05-02T13:55:58.832Z</time></trkpt><trkpt lat="44.033738782699416" lon="10.879286960479305"><ele>764.0</ele><time>2026-05-02T13:56:00.832Z</time></trkpt><trkpt lat="44.0338093049257" lon="10.879302279032068"><ele>764.0</ele><time>2026-05-02T13:56:02.832Z</time></trkpt><trkpt lat="44.033906804709474" lon="10.879341430611847"><ele>764.0</ele><time>2026-05-02T13:56:04.832Z</time></trkpt><trkpt lat="44.034008003547214" lon="10.879370779984718"><ele>764.0</ele><time>2026-05-02T13:56:07.832Z</time></trkpt><trkpt lat="44.03407941284779" lon="10.879388379783883"><ele>764.0</ele><time>2026-05-02T13:56:09.832Z</time></trkpt><trkpt lat="44.03413856091916" lon="10.879431931350265"><ele>764.0</ele><time>2026-05-02T13:56:11.832Z</time></trkpt><trkpt lat="44.034209597391225" lon="10.879516077309182"><ele>764.0</ele><time>2026-05-02T13:56:13.832Z</time></trkpt><trkpt lat="44.0342799766152" lon="10.87956195917138"><ele>764.0</ele><time>2026-05-02T13:56:15.832Z</time></trkpt><trkpt lat="44.034355815060664" lon="10.879636240421572"><ele>758.8333333333333</ele><time>2026-05-02T13:56:17.832Z</time></trkpt><trkpt lat="44.03441738966537" lon="10.87971602148706"><ele>753.6666666666666</ele><time>2026-05-02T13:56:19.832Z</time></trkpt><trkpt lat="44.03448833251953" lon="10.879776526227937"><ele>748.5</ele><time>2026-05-02T13:56:21.832Z</time></trkpt><trkpt lat="44.034553000079" lon="10.879829127427277"><ele>743.3333333333334</ele><time>2026-05-02T13:56:23.832Z</time></trkpt><trkpt lat="44.03461234591864" lon="10.879885195404706"><ele>738.1666666666667</ele><time>2026-05-02T13:56:25.832Z</time></trkpt><trkpt lat="44.03467143644534" lon="10.87991870590201"><ele>733.0</ele><time>2026-05-02T13:56:27.832Z</time></trkpt><trkpt lat="44.03474505927643" lon="10.879990006862124"><ele>733.0</ele><time>2026-05-02T13:56:29.832Z</time></trkpt><trkpt lat="44.034804180175826" lon="10.88007277767053"><ele>733.0</ele><time>2026-05-02T13:56:31.832Z</time></trkpt><trkpt lat="44.03486616520088" lon="10.880171717820051"><ele>733.0</ele><time>2026-05-02T13:56:33.832Z</time></trkpt><trkpt lat="44.034906858210434" lon="10.880264570483286"><ele>733.0</ele><time>2026-05-02T13:56:35.832Z</time></trkpt><trkpt lat="44.03493428052037" lon="10.880374329927285"><ele>733.0</ele><time>2026-05-02T13:56:37.832Z</time></trkpt><trkpt lat="44.03495198217676" lon="10.88049897429087"><ele>733.0</ele><time>2026-05-02T13:56:39.832Z</time></trkpt><trkpt lat="44.03495804730117" lon="10.880623306321473"><ele>731.5</ele><time>2026-05-02T13:56:41.832Z</time></trkpt><trkpt lat="44.03495671793329" lon="10.880736595934634"><ele>730.0</ele><time>2026-05-02T13:56:43.832Z</time></trkpt><trkpt lat="44.03495298215618" lon="10.880843538416835"><ele>728.5</ele><time>2026-05-02T13:56:45.832Z</time></trkpt><trkpt lat="44.03491893283578" lon="10.880950667962264"><ele>727.0</ele><time>2026-05-02T13:56:47.832Z</time></trkpt><trkpt lat="44.03489011668362" lon="10.881060736224278"><ele>725.5</ele><time>2026-05-02T13:56:49.832Z</time></trkpt><trkpt lat="44.034947191594114" lon="10.881134104329924"><ele>724.0</ele><time>2026-05-02T13:56:55.832Z</time></trkpt><trkpt lat="44.03501098188873" lon="10.88116112399954"><ele>724.0</ele><time>2026-05-02T13:56:59.832Z</time></trkpt><trkpt lat="44.035080159031004" lon="10.881192080772776"><ele>724.0</ele><time>2026-05-02T13:57:03.832Z</time></trkpt><trkpt lat="44.03514488414272" lon="10.881208922317898"><ele>724.0</ele><time>2026-05-02T13:57:07.831Z</time></trkpt><trkpt lat="44.035223872110365" lon="10.881246150380244"><ele>724.0</ele><time>2026-05-02T13:57:10.831Z</time></trkpt><trkpt lat="44.03529743078725" lon="10.881272176664545"><ele>724.0</ele><time>2026-05-02T13:57:14.83Z</time></trkpt><trkpt lat="44.035352094774154" lon="10.88134954004363"><ele>724.0</ele><time>2026-05-02T13:57:18.831Z</time></trkpt><trkpt lat="44.035398110670805" lon="10.881445926099609"><ele>724.0</ele><time>2026-05-02T13:57:22.83Z</time></trkpt><trkpt lat="44.03544803191508" lon="10.881512117409347"><ele>724.0</ele><time>2026-05-02T13:57:25.83Z</time></trkpt><trkpt lat="44.03549759689985" lon="10.881606611343104"><ele>724.0</ele><time>2026-05-02T13:57:30.83Z</time></trkpt><trkpt lat="44.03553760681293" lon="10.881706757630077"><ele>724.0</ele><time>2026-05-02T13:57:33.83Z</time></trkpt><trkpt lat="44.03557792893512" lon="10.881820932902032"><ele>724.0</ele><time>2026-05-02T13:57:36.83Z</time></trkpt><trkpt lat="44.03561131254119" lon="10.881922148659847"><ele>724.0</ele><time>2026-05-02T13:57:39.83Z</time></trkpt><trkpt lat="44.03563360167905" lon="10.882008030678557"><ele>725.6666666666667</ele><time>2026-05-02T13:57:41.83Z</time></trkpt><trkpt lat="44.035659239347844" lon="10.8821284329821"><ele>727.3333333333334</ele><time>2026-05-02T13:57:44.83Z</time></trkpt><trkpt lat="44.035668279813734" lon="10.88225957922528"><ele>729.0</ele><time>2026-05-02T13:57:47.83Z</time></trkpt><trkpt lat="44.035727547099206" lon="10.882301674964262"><ele>730.6666666666666</ele><time>2026-05-02T13:57:52.83Z</time></trkpt><trkpt lat="44.03573113611517" lon="10.88218542178471"><ele>732.3333333333333</ele><time>2026-05-02T13:57:59.83Z</time></trkpt><trkpt lat="44.035740404453115" lon="10.882080557481467"><ele>734.0</ele><time>2026-05-02T13:58:02.829Z</time></trkpt><trkpt lat="44.035747812377195" lon="10.881976965978469"><ele>734.0</ele><time>2026-05-02T13:58:05.829Z</time></trkpt><trkpt lat="44.035746916498084" lon="10.881854314258007"><ele>734.0</ele><time>2026-05-02T13:58:08.829Z</time></trkpt><trkpt lat="44.03572221040909" lon="10.88174202814704"><ele>734.0</ele><time>2026-05-02T13:58:12.829Z</time></trkpt><trkpt lat="44.035705122959364" lon="10.881637389816042"><ele>734.0</ele><time>2026-05-02T13:58:15.829Z</time></trkpt><trkpt lat="44.03569021416616" lon="10.881531954599522"><ele>734.0</ele><time>2026-05-02T13:58:18.829Z</time></trkpt><trkpt lat="44.03565305931903" lon="10.88143978411434"><ele>734.0</ele><time>2026-05-02T13:58:21.829Z</time></trkpt><trkpt lat="44.03563762317011" lon="10.881339762908025"><ele>732.3333333333333</ele><time>2026-05-02T13:58:24.829Z</time></trkpt><trkpt lat="44.03569818032256" lon="10.881306456485628"><ele>730.6666666666666</ele><time>2026-05-02T13:58:32.829Z</time></trkpt><trkpt lat="44.03579969079737" lon="10.88139142317517"><ele>729.0</ele><time>2026-05-02T13:58:34.829Z</time></trkpt><trkpt lat="44.03586075701719" lon="10.88143835217998"><ele>727.3333333333334</ele><time>2026-05-02T13:58:38.829Z</time></trkpt><trkpt lat="44.03591711564873" lon="10.881524519538816"><ele>725.6666666666667</ele><time>2026-05-02T13:58:43.829Z</time></trkpt><trkpt lat="44.03594875967451" lon="10.881601534836687"><ele>724.0</ele><time>2026-05-02T13:58:46.829Z</time></trkpt><trkpt lat="44.03597391696357" lon="10.881717012505305"><ele>720.1666666666667</ele><time>2026-05-02T13:58:49.829Z</time></trkpt><trkpt lat="44.036003975851" lon="10.881821647752718"><ele>716.3333333333334</ele><time>2026-05-02T13:58:52.829Z</time></trkpt><trkpt lat="44.036034679177696" lon="10.881916479819028"><ele>712.5</ele><time>2026-05-02T13:58:54.829Z</time></trkpt><trkpt lat="44.03607898667423" lon="10.88202926733318"><ele>708.6666666666666</ele><time>2026-05-02T13:58:56.829Z</time></trkpt><trkpt lat="44.0361261069976" lon="10.882108958459535"><ele>704.8333333333333</ele><time>2026-05-02T13:58:59.829Z</time></trkpt><trkpt lat="44.03616954479994" lon="10.882174801540197"><ele>701.0</ele><time>2026-05-02T13:59:02.829Z</time></trkpt><trkpt lat="44.03620245956513" lon="10.88227658366711"><ele>701.0</ele><time>2026-05-02T13:59:04.829Z</time></trkpt><trkpt lat="44.03624779849184" lon="10.882363714025933"><ele>701.0</ele><time>2026-05-02T13:59:06.829Z</time></trkpt><trkpt lat="44.03627403794314" lon="10.882450946492144"><ele>701.0</ele><time>2026-05-02T13:59:08.829Z</time></trkpt><trkpt lat="44.03629587386204" lon="10.882571290110803"><ele>701.0</ele><time>2026-05-02T13:59:11.829Z</time></trkpt><trkpt lat="44.03630024550004" lon="10.882706576572716"><ele>701.0</ele><time>2026-05-02T13:59:14.829Z</time></trkpt><trkpt lat="44.03631273992702" lon="10.882833452305684"><ele>701.0</ele><time>2026-05-02T13:59:16.827Z</time></trkpt><trkpt lat="44.036321715971724" lon="10.88295300319256"><ele>701.8333333333333</ele><time>2026-05-02T13:59:18.828Z</time></trkpt><trkpt lat="44.03633749453888" lon="10.883053780644989"><ele>702.6666666666666</ele><time>2026-05-02T13:59:21.827Z</time></trkpt><trkpt lat="44.03638918697285" lon="10.883164523703417"><ele>703.5</ele><time>2026-05-02T13:59:25.827Z</time></trkpt><trkpt lat="44.03647963032528" lon="10.88318130138903"><ele>704.3333333333334</ele><time>2026-05-02T13:59:29.827Z</time></trkpt><trkpt lat="44.036553925009514" lon="10.883237740983828"><ele>705.1666666666667</ele><time>2026-05-02T13:59:32.827Z</time></trkpt><trkpt lat="44.03662334220344" lon="10.883264342806227"><ele>706.0</ele><time>2026-05-02T13:59:34.827Z</time></trkpt><trkpt lat="44.036704463743085" lon="10.883292285600186"><ele>703.4285714285714</ele><time>2026-05-02T13:59:37.827Z</time></trkpt><trkpt lat="44.03678111662551" lon="10.883319296667155"><ele>700.8571428571429</ele><time>2026-05-02T13:59:40.827Z</time></trkpt><trkpt lat="44.03685705471963" lon="10.88331050193128"><ele>698.2857142857143</ele><time>2026-05-02T13:59:43.827Z</time></trkpt><trkpt lat="44.036920671648026" lon="10.883354038699792"><ele>695.7142857142858</ele><time>2026-05-02T13:59:46.827Z</time></trkpt><trkpt lat="44.03697988135935" lon="10.883407481683152"><ele>693.1428571428571</ele><time>2026-05-02T13:59:49.827Z</time></trkpt><trkpt lat="44.037019269152225" lon="10.88350217056179"><ele>690.5714285714287</ele><time>2026-05-02T13:59:54.827Z</time></trkpt><trkpt lat="44.03703119674459" lon="10.88360160534134"><ele>688.0</ele><time>2026-05-02T13:59:58.826Z</time></trkpt><trkpt lat="44.03703079305526" lon="10.883724633862691"><ele>688.0</ele><time>2026-05-02T14:00:01.826Z</time></trkpt><trkpt lat="44.03700378002405" lon="10.883808811052964"><ele>688.0</ele><time>2026-05-02T14:00:04.826Z</time></trkpt><trkpt lat="44.03706363552116" lon="10.883842229228797"><ele>688.0</ele><time>2026-05-02T14:00:11.826Z</time></trkpt><trkpt lat="44.03711319596618" lon="10.883945206886663"><ele>688.0</ele><time>2026-05-02T14:00:17.826Z</time></trkpt><trkpt lat="44.0371926078127" lon="10.88405325683201"><ele>688.0</ele><time>2026-05-02T14:00:19.826Z</time></trkpt><trkpt lat="44.03723388158061" lon="10.884139772102838"><ele>688.0</ele><time>2026-05-02T14:00:23.826Z</time></trkpt><trkpt lat="44.037262460752984" lon="10.884251227291184"><ele>689.0000000000001</ele><time>2026-05-02T14:00:26.826Z</time></trkpt><trkpt lat="44.0372746023234" lon="10.884352800897084"><ele>690.0</ele><time>2026-05-02T14:00:29.826Z</time></trkpt><trkpt lat="44.03729646656803" lon="10.884455993857342"><ele>691.0</ele><time>2026-05-02T14:00:31.826Z</time></trkpt><trkpt lat="44.037314739556024" lon="10.88454138681394"><ele>692.0</ele><time>2026-05-02T14:00:33.826Z</time></trkpt><trkpt lat="44.037335042753355" lon="10.884630027637847"><ele>693.0</ele><time>2026-05-02T14:00:35.826Z</time></trkpt><trkpt lat="44.0373666562887" lon="10.884749337696535"><ele>694.0000000000001</ele><time>2026-05-02T14:00:38.826Z</time></trkpt><trkpt lat="44.03738629004054" lon="10.884840133174842"><ele>695.0</ele><time>2026-05-02T14:00:41.826Z</time></trkpt><trkpt lat="44.03742542028441" lon="10.884911654817383"><ele>695.0000000000001</ele><time>2026-05-02T14:00:45.826Z</time></trkpt><trkpt lat="44.037441220785155" lon="10.885008964327303"><ele>695.0</ele><time>2026-05-02T14:00:49.826Z</time></trkpt><trkpt lat="44.03749783148184" lon="10.885053543438913"><ele>695.0</ele><time>2026-05-02T14:01:08.826Z</time></trkpt><trkpt lat="44.03748096669619" lon="10.885142303653403"><ele>695.0</ele><time>2026-05-02T14:01:14.825Z</time></trkpt><trkpt lat="44.037476966229185" lon="10.885262213324422"><ele>695.0</ele><time>2026-05-02T14:01:49.824Z</time></trkpt><trkpt lat="44.0374608115444" lon="10.885155298237931"><ele>695.0000000000001</ele><time>2026-05-02T14:02:48.823Z</time></trkpt><trkpt lat="44.037512876466046" lon="10.885096529971948"><ele>695.0</ele><time>2026-05-02T14:02:51.823Z</time></trkpt><trkpt lat="44.03759296345961" lon="10.885056528159984"><ele>689.8</ele><time>2026-05-02T14:02:55.823Z</time></trkpt><trkpt lat="44.03766446828027" lon="10.884998270894709"><ele>684.6</ele><time>2026-05-02T14:02:58.823Z</time></trkpt><trkpt lat="44.037746368307346" lon="10.884968542505414"><ele>679.4000000000001</ele><time>2026-05-02T14:03:01.823Z</time></trkpt><trkpt lat="44.03783006073574" lon="10.88494975596474"><ele>674.2</ele><time>2026-05-02T14:03:03.823Z</time></trkpt><trkpt lat="44.03791889154732" lon="10.884924780482239"><ele>669.0</ele><time>2026-05-02T14:03:05.823Z</time></trkpt><trkpt lat="44.038018654723516" lon="10.88484155560888"><ele>669.0</ele><time>2026-05-02T14:03:07.823Z</time></trkpt><trkpt lat="44.03809143909675" lon="10.884802482716841"><ele>669.0</ele><time>2026-05-02T14:03:08.823Z</time></trkpt><trkpt lat="44.03816845088814" lon="10.884771069354807"><ele>669.0</ele><time>2026-05-02T14:03:09.823Z</time></trkpt><trkpt lat="44.03823501720957" lon="10.884757077048878"><ele>669.0</ele><time>2026-05-02T14:03:10.823Z</time></trkpt><trkpt lat="44.038355393971365" lon="10.884700280571161"><ele>669.0</ele><time>2026-05-02T14:03:12.823Z</time></trkpt><trkpt lat="44.03841933411303" lon="10.884651258272099"><ele>669.0</ele><time>2026-05-02T14:03:13.823Z</time></trkpt><trkpt lat="44.038518565697636" lon="10.884558555859556"><ele>667.6666666666666</ele><time>2026-05-02T14:03:15.823Z</time></trkpt><trkpt lat="44.03860515731688" lon="10.884472127057155"><ele>666.3333333333334</ele><time>2026-05-02T14:03:17.823Z</time></trkpt><trkpt lat="44.038664784917195" lon="10.884421158732387"><ele>665.0</ele><time>2026-05-02T14:03:19.823Z</time></trkpt><trkpt lat="44.03873005933601" lon="10.884338188421323"><ele>663.6666666666667</ele><time>2026-05-02T14:03:22.822Z</time></trkpt><trkpt lat="44.03877276519937" lon="10.884253488468948"><ele>662.3333333333334</ele><time>2026-05-02T14:03:24.822Z</time></trkpt><trkpt lat="44.03881130979925" lon="10.884161619448177"><ele>661.0</ele><time>2026-05-02T14:03:26.822Z</time></trkpt><trkpt lat="44.03882823223646" lon="10.88404270959449"><ele>660.8333333333334</ele><time>2026-05-02T14:03:29.821Z</time></trkpt><trkpt lat="44.03883531742867" lon="10.883953358338346"><ele>660.6666666666667</ele><time>2026-05-02T14:03:32.821Z</time></trkpt><trkpt lat="44.03883695929072" lon="10.88384489207773"><ele>660.5</ele><time>2026-05-02T14:03:37.82Z</time></trkpt><trkpt lat="44.03878131304883" lon="10.88378120128433"><ele>660.3333333333334</ele><time>2026-05-02T14:03:40.82Z</time></trkpt><trkpt lat="44.038770461780324" lon="10.883660317239544"><ele>660.1666666666666</ele><time>2026-05-02T14:03:44.82Z</time></trkpt><trkpt lat="44.03875976498658" lon="10.88352980998449"><ele>660.0</ele><time>2026-05-02T14:03:47.82Z</time></trkpt><trkpt lat="44.03876069827806" lon="10.883411916824379"><ele>660.3333333333334</ele><time>2026-05-02T14:03:50.82Z</time></trkpt><trkpt lat="44.03876121753049" lon="10.883289823537899"><ele>660.6666666666666</ele><time>2026-05-02T14:03:53.82Z</time></trkpt><trkpt lat="44.0387368233089" lon="10.88319914730909"><ele>661.0</ele><time>2026-05-02T14:03:58.82Z</time></trkpt><trkpt lat="44.0387814801762" lon="10.883099799279666"><ele>661.3333333333333</ele><time>2026-05-02T14:04:02.82Z</time></trkpt><trkpt lat="44.03886545358884" lon="10.883120082893406"><ele>661.6666666666666</ele><time>2026-05-02T14:04:04.82Z</time></trkpt><trkpt lat="44.03894333507337" lon="10.883126645695242"><ele>662.0</ele><time>2026-05-02T14:04:06.82Z</time></trkpt><trkpt lat="44.0390069701373" lon="10.883081367241717"><ele>662.0</ele><time>2026-05-02T14:04:08.82Z</time></trkpt><trkpt lat="44.03906416956557" lon="10.883035390454394"><ele>662.0</ele><time>2026-05-02T14:04:10.82Z</time></trkpt><trkpt lat="44.03914662244729" lon="10.883007698744352"><ele>662.0</ele><time>2026-05-02T14:04:13.82Z</time></trkpt><trkpt lat="44.03921918723401" lon="10.882986343061605"><ele>662.0</ele><time>2026-05-02T14:04:17.82Z</time></trkpt><trkpt lat="44.0392937224269" lon="10.88292372803447"><ele>662.0</ele><time>2026-05-02T14:04:20.82Z</time></trkpt><trkpt lat="44.03934343277519" lon="10.882823735583987"><ele>662.0</ele><time>2026-05-02T14:04:23.82Z</time></trkpt><trkpt lat="44.03936047472264" lon="10.882729686029325"><ele>661.8333333333333</ele><time>2026-05-02T14:04:26.82Z</time></trkpt><trkpt lat="44.0393519578853" lon="10.882628890943442"><ele>661.6666666666666</ele><time>2026-05-02T14:04:29.82Z</time></trkpt><trkpt lat="44.039321976733355" lon="10.882534407837326"><ele>661.5</ele><time>2026-05-02T14:04:32.82Z</time></trkpt><trkpt lat="44.03929839701224" lon="10.88244209945313"><ele>661.3333333333334</ele><time>2026-05-02T14:04:35.82Z</time></trkpt><trkpt lat="44.039270282149296" lon="10.882339924288642"><ele>661.1666666666667</ele><time>2026-05-02T14:04:38.82Z</time></trkpt><trkpt lat="44.039243669945726" lon="10.882228736194728"><ele>661.0</ele><time>2026-05-02T14:04:41.819Z</time></trkpt><trkpt lat="44.03921475410146" lon="10.88213819749622"><ele>661.0</ele><time>2026-05-02T14:04:44.819Z</time></trkpt><trkpt lat="44.03920058674479" lon="10.882033712549656"><ele>661.0</ele><time>2026-05-02T14:04:47.819Z</time></trkpt><trkpt lat="44.03919546222332" lon="10.881924699272243"><ele>661.0</ele><time>2026-05-02T14:04:50.819Z</time></trkpt><trkpt lat="44.03921071084586" lon="10.88181566532718"><ele>661.0</ele><time>2026-05-02T14:04:53.819Z</time></trkpt><trkpt lat="44.039198859697606" lon="10.881698996112025"><ele>661.0</ele><time>2026-05-02T14:04:57.819Z</time></trkpt><trkpt lat="44.03918715039104" lon="10.881573630245331"><ele>661.0</ele><time>2026-05-02T14:05:01.819Z</time></trkpt><trkpt lat="44.039175281771705" lon="10.881448605390998"><ele>661.8333333333334</ele><time>2026-05-02T14:05:04.819Z</time></trkpt><trkpt lat="44.039158489531005" lon="10.881364051961679"><ele>662.6666666666667</ele><time>2026-05-02T14:05:07.819Z</time></trkpt><trkpt lat="44.03912344422741" lon="10.881268947936425"><ele>663.5</ele><time>2026-05-02T14:05:10.819Z</time></trkpt><trkpt lat="44.039083949572834" lon="10.881151759864661"><ele>664.3333333333334</ele><time>2026-05-02T14:05:13.819Z</time></trkpt><trkpt lat="44.039050139060954" lon="10.881036051805415"><ele>665.1666666666666</ele><time>2026-05-02T14:05:16.819Z</time></trkpt><trkpt lat="44.039043721983724" lon="10.880947966620765"><ele>666.0</ele><time>2026-05-02T14:05:18.819Z</time></trkpt><trkpt lat="44.039037502573734" lon="10.880851494524169"><ele>666.0</ele><time>2026-05-02T14:05:20.819Z</time></trkpt><trkpt lat="44.03902981922497" lon="10.88075105011013"><ele>666.0</ele><time>2026-05-02T14:05:23.819Z</time></trkpt><trkpt lat="44.03902686224333" lon="10.880661930085342"><ele>666.0</ele><time>2026-05-02T14:05:26.819Z</time></trkpt><trkpt lat="44.039031860624306" lon="10.880524926419987"><ele>666.0</ele><time>2026-05-02T14:05:29.819Z</time></trkpt><trkpt lat="44.0390321292908" lon="10.880435476298048"><ele>666.0</ele><time>2026-05-02T14:05:31.819Z</time></trkpt><trkpt lat="44.03904129646311" lon="10.88031687687511"><ele>666.0</ele><time>2026-05-02T14:05:34.817Z</time></trkpt><trkpt lat="44.039034185812724" lon="10.880219809780833"><ele>666.0</ele><time>2026-05-02T14:05:37.817Z</time></trkpt><trkpt lat="44.03902002574506" lon="10.880119936959266"><ele>666.0</ele><time>2026-05-02T14:05:40.818Z</time></trkpt><trkpt lat="44.03900497101852" lon="10.880024864345543"><ele>666.0</ele><time>2026-05-02T14:05:43.818Z</time></trkpt><trkpt lat="44.038982803217365" lon="10.879904040951105"><ele>666.0</ele><time>2026-05-02T14:05:47.818Z</time></trkpt><trkpt lat="44.03898689839312" lon="10.879791540945357"><ele>666.0</ele><time>2026-05-02T14:05:49.818Z</time></trkpt><trkpt lat="44.038969065435715" lon="10.879690507287757"><ele>666.0</ele><time>2026-05-02T14:05:52.818Z</time></trkpt><trkpt lat="44.03896823619668" lon="10.879588867607744"><ele>666.8333333333334</ele><time>2026-05-02T14:05:55.818Z</time></trkpt><trkpt lat="44.03895972657622" lon="10.879485558559411"><ele>667.6666666666666</ele><time>2026-05-02T14:05:59.818Z</time></trkpt><trkpt lat="44.03896826535776" lon="10.879367747638348"><ele>668.5</ele><time>2026-05-02T14:06:02.818Z</time></trkpt><trkpt lat="44.03896611729537" lon="10.879256965945066"><ele>669.3333333333333</ele><time>2026-05-02T14:06:05.818Z</time></trkpt><trkpt lat="44.03896022556831" lon="10.879118074472183"><ele>670.1666666666666</ele><time>2026-05-02T14:06:08.818Z</time></trkpt><trkpt lat="44.038963072441675" lon="10.879023920077818"><ele>671.0</ele><time>2026-05-02T14:06:10.818Z</time></trkpt><trkpt lat="44.03897162848142" lon="10.878910048753443"><ele>672.0</ele><time>2026-05-02T14:06:13.818Z</time></trkpt><trkpt lat="44.038984018602605" lon="10.878797514974494"><ele>673.0</ele><time>2026-05-02T14:06:16.818Z</time></trkpt><trkpt lat="44.03899157102073" lon="10.878708809251735"><ele>674.0</ele><time>2026-05-02T14:06:18.818Z</time></trkpt><trkpt lat="44.03901300029285" lon="10.878619475843747"><ele>675.0</ele><time>2026-05-02T14:06:20.818Z</time></trkpt><trkpt lat="44.039015485729166" lon="10.878518570752176"><ele>676.0</ele><time>2026-05-02T14:06:22.818Z</time></trkpt><trkpt lat="44.039041419956625" lon="10.878390588765598"><ele>677.0</ele><time>2026-05-02T14:06:24.818Z</time></trkpt><trkpt lat="44.03906069300636" lon="10.878247327730717"><ele>677.0</ele><time>2026-05-02T14:06:26.818Z</time></trkpt><trkpt lat="44.03908197428037" lon="10.878089199754188"><ele>677.0</ele><time>2026-05-02T14:06:28.818Z</time></trkpt><trkpt lat="44.03907117722422" lon="10.877928620211339"><ele>677.0</ele><time>2026-05-02T14:06:30.818Z</time></trkpt><trkpt lat="44.039093985867076" lon="10.877839911616753"><ele>677.0</ele><time>2026-05-02T14:06:31.818Z</time></trkpt><trkpt lat="44.039074244813726" lon="10.877691876656343"><ele>677.0</ele><time>2026-05-02T14:06:33.818Z</time></trkpt><trkpt lat="44.03905877448237" lon="10.8775724608035"><ele>677.0</ele><time>2026-05-02T14:06:35.818Z</time></trkpt><trkpt lat="44.039048525051555" lon="10.87745541252111"><ele>677.0</ele><time>2026-05-02T14:06:37.818Z</time></trkpt><trkpt lat="44.039036747548565" lon="10.877333753358819"><ele>677.0</ele><time>2026-05-02T14:06:39.818Z</time></trkpt><trkpt lat="44.03906130594257" lon="10.877223349758316"><ele>677.0</ele><time>2026-05-02T14:06:41.817Z</time></trkpt><trkpt lat="44.039081386792034" lon="10.877112070126445"><ele>677.0</ele><time>2026-05-02T14:06:44.817Z</time></trkpt><trkpt lat="44.03910732160211" lon="10.877021801129063"><ele>677.0</ele><time>2026-05-02T14:06:46.817Z</time></trkpt><trkpt lat="44.039121268565324" lon="10.876920609786058"><ele>677.0</ele><time>2026-05-02T14:06:48.817Z</time></trkpt><trkpt lat="44.03911039759271" lon="10.876816782632325"><ele>677.0</ele><time>2026-05-02T14:06:50.817Z</time></trkpt><trkpt lat="44.03907951906596" lon="10.87673242839806"><ele>677.0</ele><time>2026-05-02T14:06:52.817Z</time></trkpt><trkpt lat="44.03904108186691" lon="10.876661373339347"><ele>677.0</ele><time>2026-05-02T14:06:54.817Z</time></trkpt><trkpt lat="44.03898450356845" lon="10.87656573177389"><ele>677.0</ele><time>2026-05-02T14:06:57.817Z</time></trkpt><trkpt lat="44.03892069013251" lon="10.876516243959781"><ele>677.0</ele><time>2026-05-02T14:06:59.817Z</time></trkpt><trkpt lat="44.038865711442874" lon="10.87642097729903"><ele>676.0</ele><time>2026-05-02T14:07:02.817Z</time></trkpt><trkpt lat="44.03880748771553" lon="10.876326389860967"><ele>675.0</ele><time>2026-05-02T14:07:05.817Z</time></trkpt><trkpt lat="44.03873981146401" lon="10.876241714120232"><ele>674.0</ele><time>2026-05-02T14:07:08.817Z</time></trkpt><trkpt lat="44.0387484924566" lon="10.876127681831791"><ele>673.0</ele><time>2026-05-02T14:07:11.817Z</time></trkpt><trkpt lat="44.03881825988579" lon="10.87603206960405"><ele>672.0</ele><time>2026-05-02T14:07:14.817Z</time></trkpt><trkpt lat="44.03887679596368" lon="10.875973828612576"><ele>671.0</ele><time>2026-05-02T14:07:16.817Z</time></trkpt><trkpt lat="44.0389294067108" lon="10.875923747923979"><ele>671.0</ele><time>2026-05-02T14:07:18.817Z</time></trkpt><trkpt lat="44.03900789192522" lon="10.875851045146856"><ele>671.0</ele><time>2026-05-02T14:07:21.817Z</time></trkpt><trkpt lat="44.03906789446703" lon="10.87576743179552"><ele>671.0</ele><time>2026-05-02T14:07:24.817Z</time></trkpt><trkpt lat="44.03906992630465" lon="10.875676381223771"><ele>671.0</ele><time>2026-05-02T14:07:27.817Z</time></trkpt><trkpt lat="44.03902162335504" lon="10.875599039787055"><ele>671.0</ele><time>2026-05-02T14:07:30.817Z</time></trkpt><trkpt lat="44.03897071272045" lon="10.875511523784374"><ele>671.0</ele><time>2026-05-02T14:07:33.817Z</time></trkpt><trkpt lat="44.0389195002498" lon="10.87542041991096"><ele>671.0</ele><time>2026-05-02T14:07:36.817Z</time></trkpt><trkpt lat="44.03887040563043" lon="10.875333083599127"><ele>671.0</ele><time>2026-05-02T14:07:39.815Z</time></trkpt><trkpt lat="44.03882264339179" lon="10.875246629454026"><ele>671.0</ele><time>2026-05-02T14:07:42.815Z</time></trkpt><trkpt lat="44.03877856534592" lon="10.875147260856364"><ele>671.0</ele><time>2026-05-02T14:07:45.815Z</time></trkpt><trkpt lat="44.03877477889437" lon="10.875047354819417"><ele>671.0</ele><time>2026-05-02T14:07:48.815Z</time></trkpt><trkpt lat="44.03877700081492" lon="10.874940291193731"><ele>671.0</ele><time>2026-05-02T14:07:51.815Z</time></trkpt><trkpt lat="44.03873947311143" lon="10.874835388953528"><ele>671.5</ele><time>2026-05-02T14:07:54.815Z</time></trkpt><trkpt lat="44.03868195433033" lon="10.874749374006793"><ele>672.0</ele><time>2026-05-02T14:07:57.815Z</time></trkpt><trkpt lat="44.03863082906223" lon="10.874682606976066"><ele>672.5</ele><time>2026-05-02T14:07:59.815Z</time></trkpt><trkpt lat="44.03857333688879" lon="10.874603782636111"><ele>673.0</ele><time>2026-05-02T14:08:01.814Z</time></trkpt><trkpt lat="44.03852403530575" lon="10.874524401593014"><ele>673.5</ele><time>2026-05-02T14:08:03.814Z</time></trkpt><trkpt lat="44.03851303700938" lon="10.874428335529485"><ele>674.0</ele><time>2026-05-02T14:08:06.814Z</time></trkpt><trkpt lat="44.03855696467927" lon="10.874324481654211"><ele>674.3333333333333</ele><time>2026-05-02T14:08:09.814Z</time></trkpt><trkpt lat="44.03858095111199" lon="10.874216957682759"><ele>674.6666666666666</ele><time>2026-05-02T14:08:12.814Z</time></trkpt><trkpt lat="44.03852921986046" lon="10.87414218936562"><ele>675.0</ele><time>2026-05-02T14:08:15.814Z</time></trkpt><trkpt lat="44.038461482961004" lon="10.874059547069951"><ele>675.3333333333334</ele><time>2026-05-02T14:08:18.814Z</time></trkpt><trkpt lat="44.038410146215185" lon="10.873992501215579"><ele>675.6666666666667</ele><time>2026-05-02T14:08:20.814Z</time></trkpt><trkpt lat="44.03837241204866" lon="10.873915603911971"><ele>676.0</ele><time>2026-05-02T14:08:22.814Z</time></trkpt><trkpt lat="44.03835811993158" lon="10.873816818598106"><ele>676.0</ele><time>2026-05-02T14:08:24.814Z</time></trkpt><trkpt lat="44.03836919373604" lon="10.873724913628005"><ele>676.0</ele><time>2026-05-02T14:08:26.814Z</time></trkpt><trkpt lat="44.03841081248436" lon="10.873622828152238"><ele>676.0</ele><time>2026-05-02T14:08:29.814Z</time></trkpt><trkpt lat="44.03846789165425" lon="10.873525330695871"><ele>676.0</ele><time>2026-05-02T14:08:32.814Z</time></trkpt><trkpt lat="44.03851122230171" lon="10.87342441533813"><ele>676.0</ele><time>2026-05-02T14:08:35.814Z</time></trkpt><trkpt lat="44.038541875343526" lon="10.873334333172677"><ele>676.0</ele><time>2026-05-02T14:08:38.814Z</time></trkpt><trkpt lat="44.03858453770493" lon="10.873237944909217"><ele>677.0</ele><time>2026-05-02T14:08:41.814Z</time></trkpt><trkpt lat="44.03864492117028" lon="10.87314620982527"><ele>678.0</ele><time>2026-05-02T14:08:44.814Z</time></trkpt><trkpt lat="44.03869397915245" lon="10.873049067516668"><ele>679.0</ele><time>2026-05-02T14:08:47.814Z</time></trkpt><trkpt lat="44.03870085145221" lon="10.872954149679064"><ele>680.0</ele><time>2026-05-02T14:08:50.814Z</time></trkpt><trkpt lat="44.03869338954729" lon="10.872859653412409"><ele>681.0</ele><time>2026-05-02T14:08:53.814Z</time></trkpt><trkpt lat="44.03866884849098" lon="10.872766415390636"><ele>682.0</ele><time>2026-05-02T14:08:57.814Z</time></trkpt><trkpt lat="44.03860208938606" lon="10.872716163228354"><ele>682.0</ele><time>2026-05-02T14:08:59.814Z</time></trkpt><trkpt lat="44.03852784607975" lon="10.87263822214083"><ele>682.0</ele><time>2026-05-02T14:09:01.814Z</time></trkpt><trkpt lat="44.03846297369888" lon="10.872537552907621"><ele>682.0</ele><time>2026-05-02T14:09:03.814Z</time></trkpt><trkpt lat="44.03841337992281" lon="10.872383275484996"><ele>682.0</ele><time>2026-05-02T14:09:05.814Z</time></trkpt><trkpt lat="44.038352881045725" lon="10.872229157416914"><ele>682.0</ele><time>2026-05-02T14:09:07.814Z</time></trkpt><trkpt lat="44.03831664858563" lon="10.872154017463101"><ele>681.3333333333334</ele><time>2026-05-02T14:09:08.814Z</time></trkpt><trkpt lat="44.03828442132453" lon="10.872056844304621"><ele>680.6666666666667</ele><time>2026-05-02T14:09:09.814Z</time></trkpt><trkpt lat="44.03825423135835" lon="10.871974616930233"><ele>680.0</ele><time>2026-05-02T14:09:10.814Z</time></trkpt><trkpt lat="44.03821552691661" lon="10.871883980637019"><ele>679.3333333333334</ele><time>2026-05-02T14:09:11.814Z</time></trkpt><trkpt lat="44.03818226914256" lon="10.871789543128264"><ele>678.6666666666666</ele><time>2026-05-02T14:09:12.814Z</time></trkpt><trkpt lat="44.038148609120896" lon="10.87168853831554"><ele>678.0</ele><time>2026-05-02T14:09:13.814Z</time></trkpt><trkpt lat="44.038110824577544" lon="10.871522996151153"><ele>678.0</ele><time>2026-05-02T14:09:15.814Z</time></trkpt><trkpt lat="44.03809377354289" lon="10.871430774131477"><ele>678.0</ele><time>2026-05-02T14:09:16.813Z</time></trkpt><trkpt lat="44.03807086942252" lon="10.871266075742577"><ele>678.0</ele><time>2026-05-02T14:09:18.813Z</time></trkpt><trkpt lat="44.038077836600756" lon="10.871125993350278"><ele>678.0</ele><time>2026-05-02T14:09:20.813Z</time></trkpt><trkpt lat="44.03808264657416" lon="10.870999305892385"><ele>678.0</ele><time>2026-05-02T14:09:22.813Z</time></trkpt><trkpt lat="44.038090362657236" lon="10.870882922537374"><ele>678.1666666666666</ele><time>2026-05-02T14:09:24.813Z</time></trkpt><trkpt lat="44.038088404942215" lon="10.870771167794604"><ele>678.3333333333334</ele><time>2026-05-02T14:09:26.813Z</time></trkpt><trkpt lat="44.03811081632966" lon="10.87064851860978"><ele>678.5</ele><time>2026-05-02T14:09:28.813Z</time></trkpt><trkpt lat="44.03811900236267" lon="10.870537736854095"><ele>678.6666666666667</ele><time>2026-05-02T14:09:30.813Z</time></trkpt><trkpt lat="44.038127052401975" lon="10.87042482375832"><ele>678.8333333333334</ele><time>2026-05-02T14:09:32.813Z</time></trkpt><trkpt lat="44.03813011931332" lon="10.87032059762092"><ele>679.0</ele><time>2026-05-02T14:09:34.813Z</time></trkpt><trkpt lat="44.03813245593325" lon="10.870210581131614"><ele>679.6666666666667</ele><time>2026-05-02T14:09:36.813Z</time></trkpt><trkpt lat="44.03813847096819" lon="10.870088081530172"><ele>680.3333333333334</ele><time>2026-05-02T14:09:38.813Z</time></trkpt><trkpt lat="44.03813520765452" lon="10.869994686849505"><ele>681.0</ele><time>2026-05-02T14:09:40.813Z</time></trkpt><trkpt lat="44.03812648148685" lon="10.869827741767878"><ele>681.6666666666666</ele><time>2026-05-02T14:09:43.813Z</time></trkpt><trkpt lat="44.0381031756443" lon="10.869733429318176"><ele>682.3333333333333</ele><time>2026-05-02T14:09:45.812Z</time></trkpt><trkpt lat="44.03806600216666" lon="10.869615913894844"><ele>683.0</ele><time>2026-05-02T14:09:48.812Z</time></trkpt><trkpt lat="44.03806874478561" lon="10.869487743010547"><ele>683.0</ele><time>2026-05-02T14:09:50.813Z</time></trkpt><trkpt lat="44.03806607057354" lon="10.86935975128663"><ele>683.0</ele><time>2026-05-02T14:09:52.812Z</time></trkpt><trkpt lat="44.0380649635693" lon="10.869229415054699"><ele>683.0</ele><time>2026-05-02T14:09:54.812Z</time></trkpt><trkpt lat="44.03806442187304" lon="10.86910624367905"><ele>683.0</ele><time>2026-05-02T14:09:56.812Z</time></trkpt><trkpt lat="44.03808217886347" lon="10.868980535378581"><ele>683.0</ele><time>2026-05-02T14:09:58.812Z</time></trkpt><trkpt lat="44.038100966798105" lon="10.868847097693525"><ele>683.5</ele><time>2026-05-02T14:10:00.812Z</time></trkpt><trkpt lat="44.03810683231466" lon="10.868732804717812"><ele>684.0</ele><time>2026-05-02T14:10:02.812Z</time></trkpt><trkpt lat="44.03812505103789" lon="10.868603024746003"><ele>684.5</ele><time>2026-05-02T14:10:04.812Z</time></trkpt><trkpt lat="44.03812246589671" lon="10.868510610832137"><ele>685.0</ele><time>2026-05-02T14:10:06.812Z</time></trkpt><trkpt lat="44.038118060298345" lon="10.868410109440584"><ele>685.5</ele><time>2026-05-02T14:10:08.812Z</time></trkpt><trkpt lat="44.03812513282089" lon="10.868298910512964"><ele>686.0</ele><time>2026-05-02T14:10:10.812Z</time></trkpt><trkpt lat="44.038136025488235" lon="10.868187902010213"><ele>686.6666666666666</ele><time>2026-05-02T14:10:12.812Z</time></trkpt><trkpt lat="44.03815198314029" lon="10.868071158475395"><ele>687.3333333333333</ele><time>2026-05-02T14:10:14.812Z</time></trkpt><trkpt lat="44.03816676504084" lon="10.867943813107244"><ele>688.0</ele><time>2026-05-02T14:10:16.812Z</time></trkpt><trkpt lat="44.03817702296931" lon="10.86783243312711"><ele>688.6666666666666</ele><time>2026-05-02T14:10:18.812Z</time></trkpt><trkpt lat="44.03816277865453" lon="10.86773066633156"><ele>689.3333333333334</ele><time>2026-05-02T14:10:20.812Z</time></trkpt><trkpt lat="44.03818258808169" lon="10.867623391100235"><ele>690.0</ele><time>2026-05-02T14:10:22.812Z</time></trkpt><trkpt lat="44.038191900560506" lon="10.867514252552034"><ele>691.8</ele><time>2026-05-02T14:10:25.812Z</time></trkpt><trkpt lat="44.0381776168763" lon="10.867388731438023"><ele>693.6</ele><time>2026-05-02T14:10:27.812Z</time></trkpt><trkpt lat="44.038175756922485" lon="10.867262502706707"><ele>695.4000000000001</ele><time>2026-05-02T14:10:29.812Z</time></trkpt><trkpt lat="44.03818340389691" lon="10.867106727379923"><ele>697.2</ele><time>2026-05-02T14:10:31.812Z</time></trkpt><trkpt lat="44.0382010925797" lon="10.866992324098877"><ele>699.0</ele><time>2026-05-02T14:10:33.812Z</time></trkpt><trkpt lat="44.03821431819784" lon="10.866875467110203"><ele>699.0</ele><time>2026-05-02T14:10:35.812Z</time></trkpt><trkpt lat="44.03823613280207" lon="10.866758130350261"><ele>699.0</ele><time>2026-05-02T14:10:37.812Z</time></trkpt><trkpt lat="44.038257278204185" lon="10.866615498079193"><ele>699.0</ele><time>2026-05-02T14:10:39.812Z</time></trkpt><trkpt lat="44.03828553956406" lon="10.866485719872166"><ele>699.0</ele><time>2026-05-02T14:10:41.812Z</time></trkpt><trkpt lat="44.03831474091007" lon="10.866351928260988"><ele>699.0</ele><time>2026-05-02T14:10:43.812Z</time></trkpt><trkpt lat="44.03833155248424" lon="10.866231379443558"><ele>699.0</ele><time>2026-05-02T14:10:45.812Z</time></trkpt><trkpt lat="44.03833744121798" lon="10.866111667832364"><ele>699.0</ele><time>2026-05-02T14:10:47.812Z</time></trkpt><trkpt lat="44.038361154362704" lon="10.865966437432252"><ele>699.0</ele><time>2026-05-02T14:10:49.813Z</time></trkpt><trkpt lat="44.038373085363254" lon="10.865831347615647"><ele>699.0</ele><time>2026-05-02T14:10:51.815Z</time></trkpt><trkpt lat="44.038393909904165" lon="10.865702124058648"><ele>699.0</ele><time>2026-05-02T14:10:53.816Z</time></trkpt><trkpt lat="44.03839694171302" lon="10.86559549389504"><ele>698.8000000000001</ele><time>2026-05-02T14:10:55.817Z</time></trkpt><trkpt lat="44.038425874677785" lon="10.865462549621896"><ele>698.6</ele><time>2026-05-02T14:10:57.819Z</time></trkpt><trkpt lat="44.03845563333792" lon="10.865344398645565"><ele>698.4</ele><time>2026-05-02T14:10:59.82Z</time></trkpt><trkpt lat="44.03847051935114" lon="10.865219645724926"><ele>698.2</ele><time>2026-05-02T14:11:01.82Z</time></trkpt><trkpt lat="44.03848462526917" lon="10.865097420793361"><ele>698.0</ele><time>2026-05-02T14:11:03.821Z</time></trkpt><trkpt lat="44.03852293130999" lon="10.864972944897605"><ele>698.0</ele><time>2026-05-02T14:11:05.822Z</time></trkpt><trkpt lat="44.03852714462719" lon="10.864857372790773"><ele>698.0</ele><time>2026-05-02T14:11:07.822Z</time></trkpt><trkpt lat="44.038555682723484" lon="10.86474565875979"><ele>698.0</ele><time>2026-05-02T14:11:09.823Z</time></trkpt><trkpt lat="44.03857014529373" lon="10.864626937657164"><ele>698.0</ele><time>2026-05-02T14:11:11.823Z</time></trkpt><trkpt lat="44.03859265989281" lon="10.864514952158435"><ele>698.0</ele><time>2026-05-02T14:11:13.824Z</time></trkpt><trkpt lat="44.038609371055564" lon="10.864392651624087"><ele>698.0</ele><time>2026-05-02T14:11:15.824Z</time></trkpt><trkpt lat="44.03862049723222" lon="10.864280445595417"><ele>698.0</ele><time>2026-05-02T14:11:17.824Z</time></trkpt><trkpt lat="44.038634354539376" lon="10.864184774565139"><ele>698.0</ele><time>2026-05-02T14:11:19.825Z</time></trkpt><trkpt lat="44.03866058893133" lon="10.86406024874806"><ele>698.0</ele><time>2026-05-02T14:11:21.825Z</time></trkpt><trkpt lat="44.03866946414154" lon="10.863956120334915"><ele>698.0</ele><time>2026-05-02T14:11:24.825Z</time></trkpt><trkpt lat="44.03867401955724" lon="10.863844055116873"><ele>698.0</ele><time>2026-05-02T14:11:27.825Z</time></trkpt><trkpt lat="44.03867576368564" lon="10.863736896728495"><ele>698.0</ele><time>2026-05-02T14:11:29.826Z</time></trkpt><trkpt lat="44.03868699070393" lon="10.863648538212757"><ele>698.0</ele><time>2026-05-02T14:11:31.826Z</time></trkpt><trkpt lat="44.03870875296639" lon="10.863523574334254"><ele>698.0</ele><time>2026-05-02T14:11:33.826Z</time></trkpt><trkpt lat="44.038717978041404" lon="10.863380326642789"><ele>698.0</ele><time>2026-05-02T14:11:35.826Z</time></trkpt><trkpt lat="44.03872580238454" lon="10.863261875559942"><ele>698.0</ele><time>2026-05-02T14:11:37.826Z</time></trkpt><trkpt lat="44.03872036032185" lon="10.863163113719756"><ele>698.0</ele><time>2026-05-02T14:11:40.826Z</time></trkpt><trkpt lat="44.038716246160924" lon="10.86307315419627"><ele>698.0</ele><time>2026-05-02T14:11:43.826Z</time></trkpt><trkpt lat="44.03867154630906" lon="10.862976243281011"><ele>697.6666666666666</ele><time>2026-05-02T14:11:46.826Z</time></trkpt><trkpt lat="44.038741531095546" lon="10.862879160091046"><ele>697.3333333333333</ele><time>2026-05-02T14:14:14.823Z</time></trkpt><trkpt lat="44.038750279964454" lon="10.86278865258408"><ele>697.0</ele><time>2026-05-02T14:15:57.822Z</time></trkpt><trkpt lat="44.038754015390644" lon="10.86268671610443"><ele>696.6666666666666</ele><time>2026-05-02T14:16:00.822Z</time></trkpt><trkpt lat="44.038739442358775" lon="10.862589771717104"><ele>696.3333333333334</ele><time>2026-05-02T14:16:02.821Z</time></trkpt><trkpt lat="44.03871975259532" lon="10.862480176299199"><ele>696.0</ele><time>2026-05-02T14:16:04.821Z</time></trkpt><trkpt lat="44.038703378558324" lon="10.86235908554908"><ele>695.5999999999999</ele><time>2026-05-02T14:16:06.82Z</time></trkpt><trkpt lat="44.038686403303316" lon="10.862231780263846"><ele>695.2</ele><time>2026-05-02T14:16:08.821Z</time></trkpt><trkpt lat="44.03867390913095" lon="10.862098063158241"><ele>694.8</ele><time>2026-05-02T14:16:10.82Z</time></trkpt><trkpt lat="44.03866735270858" lon="10.861974814599892"><ele>694.4000000000001</ele><time>2026-05-02T14:16:12.82Z</time></trkpt><trkpt lat="44.03866676914602" lon="10.861844681240553"><ele>694.0</ele><time>2026-05-02T14:16:14.82Z</time></trkpt><trkpt lat="44.03869477886105" lon="10.861698191759936"><ele>693.8333333333334</ele><time>2026-05-02T14:16:16.821Z</time></trkpt><trkpt lat="44.03872341426926" lon="10.861574603976965"><ele>693.6666666666667</ele><time>2026-05-02T14:16:18.821Z</time></trkpt><trkpt lat="44.03875721881531" lon="10.86140723704754"><ele>693.5</ele><time>2026-05-02T14:16:20.821Z</time></trkpt><trkpt lat="44.038784647039485" lon="10.861319300119986"><ele>693.3333333333334</ele><time>2026-05-02T14:16:21.821Z</time></trkpt><trkpt lat="44.03881807459535" lon="10.861230954435156"><ele>693.1666666666666</ele><time>2026-05-02T14:16:22.821Z</time></trkpt><trkpt lat="44.03885763449667" lon="10.861146182608012"><ele>693.0</ele><time>2026-05-02T14:16:23.821Z</time></trkpt><trkpt lat="44.03888860223377" lon="10.8610524823827"><ele>693.0</ele><time>2026-05-02T14:16:24.821Z</time></trkpt><trkpt lat="44.03890604023809" lon="10.860962787327123"><ele>693.0</ele><time>2026-05-02T14:16:25.821Z</time></trkpt><trkpt lat="44.03888768220424" lon="10.860873323215298"><ele>693.0</ele><time>2026-05-02T14:16:26.821Z</time></trkpt><trkpt lat="44.03887464809429" lon="10.86078001695835"><ele>693.0</ele><time>2026-05-02T14:16:27.821Z</time></trkpt><trkpt lat="44.03881691939099" lon="10.860650962805865"><ele>693.0</ele><time>2026-05-02T14:16:29.821Z</time></trkpt><trkpt lat="44.03878089964547" lon="10.860523853704164"><ele>693.0</ele><time>2026-05-02T14:16:31.821Z</time></trkpt><trkpt lat="44.03876494249851" lon="10.860388356195243"><ele>693.0</ele><time>2026-05-02T14:16:33.821Z</time></trkpt><trkpt lat="44.03875557101574" lon="10.860276074775566"><ele>693.0</ele><time>2026-05-02T14:16:35.821Z</time></trkpt><trkpt lat="44.03875124612121" lon="10.860144687313008"><ele>693.0</ele><time>2026-05-02T14:16:38.821Z</time></trkpt><trkpt lat="44.0387564895898" lon="10.860016991902224"><ele>693.0</ele><time>2026-05-02T14:16:40.821Z</time></trkpt><trkpt lat="44.03874353190128" lon="10.859884842607944"><ele>693.0</ele><time>2026-05-02T14:16:42.821Z</time></trkpt><trkpt lat="44.0387497329771" lon="10.859749754033077"><ele>694.1666666666666</ele><time>2026-05-02T14:16:44.821Z</time></trkpt><trkpt lat="44.03875376207358" lon="10.85962319799529"><ele>695.3333333333334</ele><time>2026-05-02T14:16:46.821Z</time></trkpt><trkpt lat="44.03872717471766" lon="10.8595210500658"><ele>696.5</ele><time>2026-05-02T14:16:48.821Z</time></trkpt><trkpt lat="44.03871896898368" lon="10.859416117479025"><ele>697.6666666666667</ele><time>2026-05-02T14:16:50.82Z</time></trkpt><trkpt lat="44.03871961936129" lon="10.859278111989015"><ele>698.8333333333334</ele><time>2026-05-02T14:16:52.82Z</time></trkpt><trkpt lat="44.03870221121665" lon="10.859155555616475"><ele>700.0</ele><time>2026-05-02T14:16:54.82Z</time></trkpt><trkpt lat="44.03867368927007" lon="10.85902495300939"><ele>701.3333333333334</ele><time>2026-05-02T14:16:57.82Z</time></trkpt><trkpt lat="44.03865494949425" lon="10.858918014089681"><ele>702.6666666666667</ele><time>2026-05-02T14:16:59.82Z</time></trkpt><trkpt lat="44.03860709360043" lon="10.858806588189461"><ele>704.0</ele><time>2026-05-02T14:17:02.82Z</time></trkpt><trkpt lat="44.038580836030526" lon="10.858719839350954"><ele>705.3333333333334</ele><time>2026-05-02T14:17:04.82Z</time></trkpt><trkpt lat="44.03856706211371" lon="10.858611161100677"><ele>706.6666666666666</ele><time>2026-05-02T14:17:06.82Z</time></trkpt><trkpt lat="44.03855241613985" lon="10.858477375759556"><ele>708.0</ele><time>2026-05-02T14:17:08.82Z</time></trkpt><trkpt lat="44.03852310821028" lon="10.858384931826171"><ele>708.0</ele><time>2026-05-02T14:17:10.82Z</time></trkpt><trkpt lat="44.03850063342468" lon="10.858276793895405"><ele>708.0</ele><time>2026-05-02T14:17:12.82Z</time></trkpt><trkpt lat="44.038483508405406" lon="10.858173686419466"><ele>708.0</ele><time>2026-05-02T14:17:14.82Z</time></trkpt><trkpt lat="44.03845847517674" lon="10.858059916421082"><ele>708.0</ele><time>2026-05-02T14:17:16.82Z</time></trkpt><trkpt lat="44.03843190862264" lon="10.85795400681349"><ele>708.0</ele><time>2026-05-02T14:17:18.82Z</time></trkpt><trkpt lat="44.03839542491846" lon="10.85785762393079"><ele>708.0</ele><time>2026-05-02T14:17:21.82Z</time></trkpt><trkpt lat="44.038379893553866" lon="10.857733511728815"><ele>707.0</ele><time>2026-05-02T14:17:23.82Z</time></trkpt><trkpt lat="44.038349436440825" lon="10.857614014500939"><ele>706.0</ele><time>2026-05-02T14:17:25.82Z</time></trkpt><trkpt lat="44.038313488245635" lon="10.857478387702521"><ele>705.0</ele><time>2026-05-02T14:17:27.82Z</time></trkpt><trkpt lat="44.03826386731292" lon="10.857367880608903"><ele>704.0</ele><time>2026-05-02T14:17:29.82Z</time></trkpt><trkpt lat="44.03820141386989" lon="10.85727896570836"><ele>703.0</ele><time>2026-05-02T14:17:31.82Z</time></trkpt><trkpt lat="44.038127022637184" lon="10.857194790276331"><ele>705.0</ele><time>2026-05-02T14:17:33.82Z</time></trkpt><trkpt lat="44.038058217101174" lon="10.857133463891484"><ele>707.0</ele><time>2026-05-02T14:17:35.82Z</time></trkpt><trkpt lat="44.03799558452775" lon="10.857062036155694"><ele>709.0</ele><time>2026-05-02T14:17:37.82Z</time></trkpt><trkpt lat="44.037934498242386" lon="10.856950805585507"><ele>711.0</ele><time>2026-05-02T14:17:39.82Z</time></trkpt><trkpt lat="44.037900526575015" lon="10.856831397388358"><ele>713.0</ele><time>2026-05-02T14:17:41.82Z</time></trkpt><trkpt lat="44.03787307095254" lon="10.856733966343889"><ele>715.0</ele><time>2026-05-02T14:17:43.82Z</time></trkpt><trkpt lat="44.037853010771606" lon="10.856606372515882"><ele>715.0</ele><time>2026-05-02T14:17:45.82Z</time></trkpt><trkpt lat="44.03784193954872" lon="10.856496751448999"><ele>715.0</ele><time>2026-05-02T14:17:47.82Z</time></trkpt><trkpt lat="44.03782640548802" lon="10.85637655535229"><ele>715.0</ele><time>2026-05-02T14:17:49.82Z</time></trkpt><trkpt lat="44.03781844654475" lon="10.856264117040814"><ele>715.0</ele><time>2026-05-02T14:17:51.82Z</time></trkpt><trkpt lat="44.03779912410621" lon="10.856174555073613"><ele>715.0</ele><time>2026-05-02T14:17:53.82Z</time></trkpt><trkpt lat="44.037777815148985" lon="10.856063855432105"><ele>715.0</ele><time>2026-05-02T14:17:55.82Z</time></trkpt><trkpt lat="44.037767656582595" lon="10.85594201790672"><ele>715.0</ele><time>2026-05-02T14:17:57.82Z</time></trkpt><trkpt lat="44.03774203955853" lon="10.855825720270655"><ele>715.0</ele><time>2026-05-02T14:17:59.82Z</time></trkpt><trkpt lat="44.03770990282059" lon="10.85574391475971"><ele>715.0</ele><time>2026-05-02T14:18:01.82Z</time></trkpt><trkpt lat="44.03766901197961" lon="10.855624114708505"><ele>715.0</ele><time>2026-05-02T14:18:04.82Z</time></trkpt><trkpt lat="44.03765336601574" lon="10.85553459235667"><ele>715.0</ele><time>2026-05-02T14:18:06.82Z</time></trkpt><trkpt lat="44.037630933332075" lon="10.855429972397124"><ele>715.0</ele><time>2026-05-02T14:18:08.818Z</time></trkpt><trkpt lat="44.037631777494695" lon="10.855285961980611"><ele>715.0</ele><time>2026-05-02T14:18:10.819Z</time></trkpt><trkpt lat="44.0376252259961" lon="10.855131648488754"><ele>715.0</ele><time>2026-05-02T14:18:12.818Z</time></trkpt><trkpt lat="44.03759904771815" lon="10.855005847606733"><ele>715.0</ele><time>2026-05-02T14:18:14.819Z</time></trkpt><trkpt lat="44.0375704151195" lon="10.85485130632368"><ele>715.0</ele><time>2026-05-02T14:18:16.818Z</time></trkpt><trkpt lat="44.03753351533875" lon="10.854726168484897"><ele>715.0</ele><time>2026-05-02T14:18:18.819Z</time></trkpt><trkpt lat="44.03749882127936" lon="10.854607067673339"><ele>715.6</ele><time>2026-05-02T14:18:20.819Z</time></trkpt><trkpt lat="44.037459095566454" lon="10.854504622567319"><ele>716.2</ele><time>2026-05-02T14:18:22.818Z</time></trkpt><trkpt lat="44.037414978881" lon="10.854408768756022"><ele>716.8</ele><time>2026-05-02T14:18:24.818Z</time></trkpt><trkpt lat="44.03737475885" lon="10.85430984877371"><ele>717.4</ele><time>2026-05-02T14:18:26.818Z</time></trkpt><trkpt lat="44.03734742235067" lon="10.854171915424729"><ele>718.0</ele><time>2026-05-02T14:18:28.818Z</time></trkpt><trkpt lat="44.03733568185565" lon="10.854030563117606"><ele>718.0</ele><time>2026-05-02T14:18:30.818Z</time></trkpt><trkpt lat="44.03733460848354" lon="10.853891113420055"><ele>718.0</ele><time>2026-05-02T14:18:32.818Z</time></trkpt><trkpt lat="44.03735856387216" lon="10.853762713823498"><ele>718.0</ele><time>2026-05-02T14:18:34.818Z</time></trkpt><trkpt lat="44.03740113323601" lon="10.853628957233472"><ele>718.0</ele><time>2026-05-02T14:18:36.818Z</time></trkpt><trkpt lat="44.03746813596589" lon="10.853519517633172"><ele>718.0</ele><time>2026-05-02T14:18:38.818Z</time></trkpt><trkpt lat="44.037545720371334" lon="10.85344072163668"><ele>716.0</ele><time>2026-05-02T14:18:40.818Z</time></trkpt><trkpt lat="44.03762574458144" lon="10.853365672980447"><ele>714.0</ele><time>2026-05-02T14:18:42.818Z</time></trkpt><trkpt lat="44.03768795310706" lon="10.853276641232464"><ele>712.0</ele><time>2026-05-02T14:18:44.818Z</time></trkpt><trkpt lat="44.037721780657805" lon="10.85318276518598"><ele>710.0</ele><time>2026-05-02T14:18:46.818Z</time></trkpt><trkpt lat="44.03777221075264" lon="10.853056407891541"><ele>708.0</ele><time>2026-05-02T14:18:48.818Z</time></trkpt><trkpt lat="44.03780584102278" lon="10.85292447124422"><ele>708.0</ele><time>2026-05-02T14:18:50.818Z</time></trkpt><trkpt lat="44.03779184739981" lon="10.85280564826097"><ele>708.0</ele><time>2026-05-02T14:18:52.818Z</time></trkpt><trkpt lat="44.03776661621345" lon="10.852695748286346"><ele>708.0</ele><time>2026-05-02T14:18:54.818Z</time></trkpt><trkpt lat="44.03774470424557" lon="10.852592943268702"><ele>708.0</ele><time>2026-05-02T14:18:56.818Z</time></trkpt><trkpt lat="44.0377220165945" lon="10.852472852799858"><ele>708.0</ele><time>2026-05-02T14:18:58.818Z</time></trkpt><trkpt lat="44.03769980485445" lon="10.852356023606877"><ele>708.0</ele><time>2026-05-02T14:19:00.817Z</time></trkpt><trkpt lat="44.03765612485163" lon="10.85225536370667"><ele>708.6666666666666</ele><time>2026-05-02T14:19:02.817Z</time></trkpt><trkpt lat="44.03763666765147" lon="10.852141058896905"><ele>709.3333333333334</ele><time>2026-05-02T14:19:04.817Z</time></trkpt><trkpt lat="44.037613041485784" lon="10.852022563649028"><ele>710.0</ele><time>2026-05-02T14:19:06.817Z</time></trkpt><trkpt lat="44.03758436030901" lon="10.851907486136522"><ele>710.6666666666667</ele><time>2026-05-02T14:19:08.817Z</time></trkpt><trkpt lat="44.03756636055697" lon="10.851795660053797"><ele>711.3333333333334</ele><time>2026-05-02T14:19:10.817Z</time></trkpt><trkpt lat="44.03754911253266" lon="10.851665365580626"><ele>712.0</ele><time>2026-05-02T14:19:12.817Z</time></trkpt><trkpt lat="44.03753449099408" lon="10.85153323180544"><ele>712.0</ele><time>2026-05-02T14:19:14.817Z</time></trkpt><trkpt lat="44.03752952551159" lon="10.85141469419434"><ele>712.0</ele><time>2026-05-02T14:19:16.817Z</time></trkpt><trkpt lat="44.03756520501369" lon="10.851253896393333"><ele>712.0</ele><time>2026-05-02T14:19:18.817Z</time></trkpt><trkpt lat="44.0375957708819" lon="10.851109756666467"><ele>712.0</ele><time>2026-05-02T14:19:20.817Z</time></trkpt><trkpt lat="44.037637971783475" lon="10.85096817049905"><ele>712.0</ele><time>2026-05-02T14:19:22.817Z</time></trkpt><trkpt lat="44.03766833558782" lon="10.850825431670899"><ele>712.1666666666667</ele><time>2026-05-02T14:19:24.817Z</time></trkpt><trkpt lat="44.03770370068587" lon="10.850696488532197"><ele>712.3333333333334</ele><time>2026-05-02T14:19:26.817Z</time></trkpt><trkpt lat="44.03772894568338" lon="10.85059022970484"><ele>712.5</ele><time>2026-05-02T14:19:28.817Z</time></trkpt><trkpt lat="44.037748394521415" lon="10.850475580024785"><ele>712.6666666666666</ele><time>2026-05-02T14:19:31.817Z</time></trkpt><trkpt lat="44.037765327291815" lon="10.850366004846462"><ele>712.8333333333333</ele><time>2026-05-02T14:19:33.817Z</time></trkpt><trkpt lat="44.03779987600288" lon="10.850266390098891"><ele>713.0</ele><time>2026-05-02T14:19:35.817Z</time></trkpt><trkpt lat="44.03782749599469" lon="10.850164734673893"><ele>713.0</ele><time>2026-05-02T14:19:37.817Z</time></trkpt><trkpt lat="44.037835024056506" lon="10.850071130655587"><ele>713.0</ele><time>2026-05-02T14:19:39.817Z</time></trkpt><trkpt lat="44.03787712802979" lon="10.849979374847232"><ele>713.0</ele><time>2026-05-02T14:19:41.817Z</time></trkpt><trkpt lat="44.0379160770541" lon="10.8498887232984"><ele>713.0</ele><time>2026-05-02T14:19:43.817Z</time></trkpt><trkpt lat="44.0379599436485" lon="10.8497947288995"><ele>713.0</ele><time>2026-05-02T14:19:45.817Z</time></trkpt><trkpt lat="44.03802059900778" lon="10.849693409623915"><ele>713.0</ele><time>2026-05-02T14:19:47.817Z</time></trkpt><trkpt lat="44.03807242592113" lon="10.849595287240819"><ele>713.0</ele><time>2026-05-02T14:19:49.817Z</time></trkpt><trkpt lat="44.03811588318129" lon="10.849501148023108"><ele>713.0</ele><time>2026-05-02T14:19:51.817Z</time></trkpt><trkpt lat="44.03817359463005" lon="10.849392280003652"><ele>713.0</ele><time>2026-05-02T14:19:53.817Z</time></trkpt><trkpt lat="44.03823516043092" lon="10.849288830760457"><ele>713.0</ele><time>2026-05-02T14:19:55.817Z</time></trkpt><trkpt lat="44.03828335300479" lon="10.84918523675108"><ele>713.0</ele><time>2026-05-02T14:19:57.817Z</time></trkpt><trkpt lat="44.0383486726541" lon="10.849082536480143"><ele>714.6666666666666</ele><time>2026-05-02T14:19:59.817Z</time></trkpt><trkpt lat="44.03839911617335" lon="10.84898053438124"><ele>716.3333333333333</ele><time>2026-05-02T14:20:01.817Z</time></trkpt><trkpt lat="44.03845254620845" lon="10.848892038913595"><ele>718.0</ele><time>2026-05-02T14:20:03.817Z</time></trkpt><trkpt lat="44.03850268054274" lon="10.84881006220767"><ele>719.6666666666666</ele><time>2026-05-02T14:20:05.817Z</time></trkpt><trkpt lat="44.038552533593595" lon="10.848720304226346"><ele>721.3333333333334</ele><time>2026-05-02T14:20:07.817Z</time></trkpt><trkpt lat="44.03860443088906" lon="10.848622993182106"><ele>723.0</ele><time>2026-05-02T14:20:09.817Z</time></trkpt><trkpt lat="44.03865616521199" lon="10.848535506545549"><ele>722.3333333333334</ele><time>2026-05-02T14:20:11.817Z</time></trkpt><trkpt lat="44.0386975069192" lon="10.848455362951825"><ele>721.6666666666666</ele><time>2026-05-02T14:20:13.817Z</time></trkpt><trkpt lat="44.03873986023899" lon="10.848367972802468"><ele>721.0</ele><time>2026-05-02T14:20:15.816Z</time></trkpt><trkpt lat="44.03878679753965" lon="10.848274736347495"><ele>720.3333333333333</ele><time>2026-05-02T14:20:17.816Z</time></trkpt><trkpt lat="44.03881782359152" lon="10.848184997761797"><ele>719.6666666666666</ele><time>2026-05-02T14:20:19.816Z</time></trkpt><trkpt lat="44.038867017059296" lon="10.848082097414874"><ele>719.0</ele><time>2026-05-02T14:20:21.816Z</time></trkpt><trkpt lat="44.03892243212009" lon="10.847993679074396"><ele>719.0</ele><time>2026-05-02T14:20:23.817Z</time></trkpt><trkpt lat="44.038982955727434" lon="10.84787050601489"><ele>719.0</ele><time>2026-05-02T14:20:26.816Z</time></trkpt><trkpt lat="44.03903821284882" lon="10.847767440607322"><ele>719.0</ele><time>2026-05-02T14:20:28.816Z</time></trkpt><trkpt lat="44.03908183976082" lon="10.847663707505392"><ele>719.0</ele><time>2026-05-02T14:20:30.816Z</time></trkpt><trkpt lat="44.0390766665359" lon="10.84755510309213"><ele>719.0</ele><time>2026-05-02T14:20:33.816Z</time></trkpt><trkpt lat="44.03910086311466" lon="10.84746814763605"><ele>719.0</ele><time>2026-05-02T14:20:35.816Z</time></trkpt><trkpt lat="44.03912532057835" lon="10.84737906369097"><ele>720.5</ele><time>2026-05-02T14:20:38.816Z</time></trkpt><trkpt lat="44.03916844959254" lon="10.847281388512188"><ele>722.0</ele><time>2026-05-02T14:20:40.816Z</time></trkpt><trkpt lat="44.039211506423094" lon="10.8472107999525"><ele>723.5</ele><time>2026-05-02T14:20:42.816Z</time></trkpt><trkpt lat="44.039277575051685" lon="10.847105046921309"><ele>725.0</ele><time>2026-05-02T14:20:44.816Z</time></trkpt><trkpt lat="44.03933072324482" lon="10.847029452114246"><ele>726.5</ele><time>2026-05-02T14:20:46.816Z</time></trkpt><trkpt lat="44.03938527558524" lon="10.846960236660124"><ele>728.0</ele><time>2026-05-02T14:20:48.816Z</time></trkpt><trkpt lat="44.03944041519221" lon="10.84686330223983"><ele>727.4</ele><time>2026-05-02T14:20:50.816Z</time></trkpt><trkpt lat="44.03951281688622" lon="10.84675846142977"><ele>726.8</ele><time>2026-05-02T14:20:52.816Z</time></trkpt><trkpt lat="44.0395805596437" lon="10.846675580796811"><ele>726.2</ele><time>2026-05-02T14:20:54.816Z</time></trkpt><trkpt lat="44.03963267991846" lon="10.846542138976142"><ele>725.6</ele><time>2026-05-02T14:20:56.816Z</time></trkpt><trkpt lat="44.03969292255838" lon="10.846411734788822"><ele>725.0</ele><time>2026-05-02T14:20:58.816Z</time></trkpt><trkpt lat="44.039746284654775" lon="10.846300405056462"><ele>725.0</ele><time>2026-05-02T14:21:00.816Z</time></trkpt><trkpt lat="44.039812660217585" lon="10.84618265361766"><ele>725.0</ele><time>2026-05-02T14:21:02.816Z</time></trkpt><trkpt lat="44.039850911526706" lon="10.846072547060007"><ele>725.0</ele><time>2026-05-02T14:21:04.816Z</time></trkpt><trkpt lat="44.03988278823959" lon="10.845971718658175"><ele>725.0</ele><time>2026-05-02T14:21:06.816Z</time></trkpt><trkpt lat="44.039914440488694" lon="10.8458936074351"><ele>725.0</ele><time>2026-05-02T14:21:08.816Z</time></trkpt><trkpt lat="44.03997179631598" lon="10.845770192553877"><ele>725.0</ele><time>2026-05-02T14:21:11.816Z</time></trkpt><trkpt lat="44.04001909128501" lon="10.84568757206578"><ele>726.0</ele><time>2026-05-02T14:21:13.816Z</time></trkpt><trkpt lat="44.04008449650276" lon="10.84557203387221"><ele>727.0</ele><time>2026-05-02T14:21:15.816Z</time></trkpt><trkpt lat="44.04013763814305" lon="10.845472371339518"><ele>728.0</ele><time>2026-05-02T14:21:17.816Z</time></trkpt><trkpt lat="44.04018142637457" lon="10.84538777359934"><ele>729.0</ele><time>2026-05-02T14:21:19.816Z</time></trkpt><trkpt lat="44.04022808697614" lon="10.845308474810048"><ele>730.0</ele><time>2026-05-02T14:21:21.816Z</time></trkpt><trkpt lat="44.040276400988375" lon="10.845210947274435"><ele>731.0</ele><time>2026-05-02T14:21:23.816Z</time></trkpt><trkpt lat="44.04031089945402" lon="10.84509098795847"><ele>731.0</ele><time>2026-05-02T14:21:25.815Z</time></trkpt><trkpt lat="44.040343004186866" lon="10.844950994426279"><ele>731.0</ele><time>2026-05-02T14:21:27.815Z</time></trkpt><trkpt lat="44.04038687063789" lon="10.844788995168516"><ele>731.0</ele><time>2026-05-02T14:21:29.815Z</time></trkpt><trkpt lat="44.04040742820305" lon="10.844701379130655"><ele>731.0</ele><time>2026-05-02T14:21:30.815Z</time></trkpt><trkpt lat="44.04042203794866" lon="10.844616006176937"><ele>731.0</ele><time>2026-05-02T14:21:31.815Z</time></trkpt><trkpt lat="44.04050244777731" lon="10.844458960025143"><ele>731.0</ele><time>2026-05-02T14:21:33.815Z</time></trkpt><trkpt lat="44.04049406780044" lon="10.844367408121949"><ele>731.0</ele><time>2026-05-02T14:21:34.815Z</time></trkpt><trkpt lat="44.040402021815524" lon="10.844311918549014"><ele>731.0</ele><time>2026-05-02T14:21:35.815Z</time></trkpt><trkpt lat="44.040389466209184" lon="10.84419238077156"><ele>731.0</ele><time>2026-05-02T14:21:37.815Z</time></trkpt><trkpt lat="44.0403562142354" lon="10.844106818398787"><ele>731.0</ele><time>2026-05-02T14:21:39.815Z</time></trkpt><trkpt lat="44.04030096705122" lon="10.843995127600333"><ele>731.0</ele><time>2026-05-02T14:21:42.815Z</time></trkpt><trkpt lat="44.04027386470567" lon="10.843893231102763"><ele>731.6666666666666</ele><time>2026-05-02T14:21:44.815Z</time></trkpt><trkpt lat="44.040241551874956" lon="10.84377462390548"><ele>732.3333333333333</ele><time>2026-05-02T14:21:47.815Z</time></trkpt><trkpt lat="44.04024073554665" lon="10.84366350433196"><ele>733.0</ele><time>2026-05-02T14:21:50.815Z</time></trkpt><trkpt lat="44.04021200583185" lon="10.843573737537548"><ele>733.6666666666666</ele><time>2026-05-02T14:21:53.815Z</time></trkpt><trkpt lat="44.04016145768911" lon="10.843477159524113"><ele>734.3333333333334</ele><time>2026-05-02T14:21:57.815Z</time></trkpt><trkpt lat="44.04012941804261" lon="10.843393980672634"><ele>735.0</ele><time>2026-05-02T14:22:00.815Z</time></trkpt><trkpt lat="44.04007315354197" lon="10.843318075664927"><ele>735.3333333333334</ele><time>2026-05-02T14:22:03.815Z</time></trkpt><trkpt lat="44.04001153860411" lon="10.843241208769987"><ele>735.6666666666666</ele><time>2026-05-02T14:22:06.815Z</time></trkpt><trkpt lat="44.039960028625984" lon="10.843131440135462"><ele>736.0</ele><time>2026-05-02T14:22:09.815Z</time></trkpt><trkpt lat="44.03993449037025" lon="10.843043885578592"><ele>736.3333333333333</ele><time>2026-05-02T14:22:12.815Z</time></trkpt><trkpt lat="44.0399198491155" lon="10.842940334932692"><ele>736.6666666666666</ele><time>2026-05-02T14:22:16.815Z</time></trkpt><trkpt lat="44.0399311318687" lon="10.842828771969366"><ele>737.0</ele><time>2026-05-02T14:22:20.815Z</time></trkpt><trkpt lat="44.03991759962967" lon="10.842698227656472"><ele>740.1666666666666</ele><time>2026-05-02T14:22:24.815Z</time></trkpt><trkpt lat="44.039891889369606" lon="10.842574457451077"><ele>743.3333333333333</ele><time>2026-05-02T14:22:27.814Z</time></trkpt><trkpt lat="44.0398348307004" lon="10.842485086716195"><ele>746.5</ele><time>2026-05-02T14:22:30.815Z</time></trkpt><trkpt lat="44.03978567486338" lon="10.84241430764103"><ele>749.6666666666666</ele><time>2026-05-02T14:22:33.814Z</time></trkpt><trkpt lat="44.03972833845911" lon="10.842356399413127"><ele>752.8333333333334</ele><time>2026-05-02T14:22:36.814Z</time></trkpt><trkpt lat="44.03967359745602" lon="10.842279344816488"><ele>756.0</ele><time>2026-05-02T14:22:39.814Z</time></trkpt><trkpt lat="44.039630249593294" lon="10.842188565769273"><ele>756.0</ele><time>2026-05-02T14:22:42.814Z</time></trkpt><trkpt lat="44.03960748251287" lon="10.842081901700263"><ele>756.0</ele><time>2026-05-02T14:22:46.814Z</time></trkpt><trkpt lat="44.03957562409174" lon="10.841972037006709"><ele>756.0</ele><time>2026-05-02T14:22:50.814Z</time></trkpt><trkpt lat="44.03955016052657" lon="10.841876408487865"><ele>756.0</ele><time>2026-05-02T14:22:53.814Z</time></trkpt><trkpt lat="44.03951820313555" lon="10.841771227099613"><ele>756.0</ele><time>2026-05-02T14:22:56.814Z</time></trkpt><trkpt lat="44.03948274950765" lon="10.84166264910018"><ele>756.0</ele><time>2026-05-02T14:22:59.814Z</time></trkpt><trkpt lat="44.03945098440588" lon="10.841552942949267"><ele>756.6666666666666</ele><time>2026-05-02T14:23:02.814Z</time></trkpt><trkpt lat="44.03942558298315" lon="10.841447971730066"><ele>757.3333333333334</ele><time>2026-05-02T14:23:05.814Z</time></trkpt><trkpt lat="44.03939908034836" lon="10.841322063139712"><ele>758.0</ele><time>2026-05-02T14:23:08.814Z</time></trkpt><trkpt lat="44.03937725978988" lon="10.841207536597256"><ele>758.6666666666667</ele><time>2026-05-02T14:23:11.814Z</time></trkpt><trkpt lat="44.03936563742331" lon="10.841084866509306"><ele>759.3333333333334</ele><time>2026-05-02T14:23:14.814Z</time></trkpt><trkpt lat="44.03934114945584" lon="10.840964742533025"><ele>760.0</ele><time>2026-05-02T14:23:17.814Z</time></trkpt><trkpt lat="44.03933725645849" lon="10.840843533284119"><ele>760.5714285714286</ele><time>2026-05-02T14:23:20.814Z</time></trkpt><trkpt lat="44.03932279044392" lon="10.840749587745709"><ele>761.1428571428571</ele><time>2026-05-02T14:23:22.814Z</time></trkpt><trkpt lat="44.03932582544487" lon="10.840637592634407"><ele>761.7142857142858</ele><time>2026-05-02T14:23:24.814Z</time></trkpt><trkpt lat="44.03931247141274" lon="10.84055198339435"><ele>762.2857142857142</ele><time>2026-05-02T14:23:26.814Z</time></trkpt><trkpt lat="44.03929716833915" lon="10.840447796896726"><ele>762.8571428571428</ele><time>2026-05-02T14:23:29.814Z</time></trkpt><trkpt lat="44.03927636036344" lon="10.84036313301944"><ele>763.4285714285714</ele><time>2026-05-02T14:23:32.814Z</time></trkpt><trkpt lat="44.039243928969796" lon="10.840272135969304"><ele>764.0</ele><time>2026-05-02T14:23:35.814Z</time></trkpt><trkpt lat="44.03923277277589" lon="10.840167840943847"><ele>764.4285714285714</ele><time>2026-05-02T14:23:38.814Z</time></trkpt><trkpt lat="44.03920428259643" lon="10.84008477819942"><ele>764.8571428571428</ele><time>2026-05-02T14:23:41.814Z</time></trkpt><trkpt lat="44.0391835223404" lon="10.839982890603162"><ele>765.2857142857142</ele><time>2026-05-02T14:23:44.814Z</time></trkpt><trkpt lat="44.03915622224396" lon="10.839891553868961"><ele>765.7142857142858</ele><time>2026-05-02T14:23:47.813Z</time></trkpt><trkpt lat="44.03910918992997" lon="10.839809546090308"><ele>766.1428571428571</ele><time>2026-05-02T14:23:50.813Z</time></trkpt><trkpt lat="44.039046817482365" lon="10.839770823225559"><ele>766.5714285714286</ele><time>2026-05-02T14:23:53.813Z</time></trkpt><trkpt lat="44.039018470845456" lon="10.839858298699289"><ele>767.0</ele><time>2026-05-02T14:23:59.813Z</time></trkpt><trkpt lat="44.039047983703774" lon="10.839943878276431"><ele>766.5</ele><time>2026-05-02T14:24:02.813Z</time></trkpt><trkpt lat="44.03909375293922" lon="10.840035536000949"><ele>766.0</ele><time>2026-05-02T14:24:06.813Z</time></trkpt><trkpt lat="44.03912967002262" lon="10.840121535595816"><ele>765.5</ele><time>2026-05-02T14:24:09.813Z</time></trkpt><trkpt lat="44.039137617058266" lon="10.840226994041016"><ele>765.0</ele><time>2026-05-02T14:24:12.813Z</time></trkpt><trkpt lat="44.03913556625591" lon="10.840326714229018"><ele>764.5</ele><time>2026-05-02T14:24:15.813Z</time></trkpt><trkpt lat="44.03914812684408" lon="10.840425266032767"><ele>764.0</ele><time>2026-05-02T14:24:18.813Z</time></trkpt><trkpt lat="44.0391400129138" lon="10.840537637598686"><ele>766.1666666666666</ele><time>2026-05-02T14:24:21.813Z</time></trkpt><trkpt lat="44.039108962221114" lon="10.840633532907683"><ele>768.3333333333333</ele><time>2026-05-02T14:24:24.813Z</time></trkpt><trkpt lat="44.03907632147283" lon="10.84073694378567"><ele>770.5</ele><time>2026-05-02T14:24:27.812Z</time></trkpt><trkpt lat="44.0390355918243" lon="10.840833615552286"><ele>772.6666666666666</ele><time>2026-05-02T14:24:30.813Z</time></trkpt><trkpt lat="44.038988500268154" lon="10.840916815016646"><ele>774.8333333333334</ele><time>2026-05-02T14:24:33.812Z</time></trkpt><trkpt lat="44.038934389099815" lon="10.841003572522569"><ele>777.0</ele><time>2026-05-02T14:24:36.813Z</time></trkpt><trkpt lat="44.03888214521608" lon="10.841079029422287"><ele>777.0</ele><time>2026-05-02T14:24:39.813Z</time></trkpt><trkpt lat="44.03882954571889" lon="10.841154460045134"><ele>777.0</ele><time>2026-05-02T14:24:42.813Z</time></trkpt><trkpt lat="44.0387722075627" lon="10.841239522998231"><ele>777.0</ele><time>2026-05-02T14:24:45.813Z</time></trkpt><trkpt lat="44.03871215352867" lon="10.841301769103426"><ele>777.0</ele><time>2026-05-02T14:24:48.813Z</time></trkpt><trkpt lat="44.0386544629241" lon="10.841362430589106"><ele>777.0</ele><time>2026-05-02T14:24:51.813Z</time></trkpt><trkpt lat="44.03859676759812" lon="10.8414128442005"><ele>777.0</ele><time>2026-05-02T14:24:54.813Z</time></trkpt><trkpt lat="44.03853663228131" lon="10.841462827477493"><ele>777.0</ele><time>2026-05-02T14:24:57.813Z</time></trkpt><trkpt lat="44.038475644213094" lon="10.84152174081731"><ele>777.0</ele><time>2026-05-02T14:25:00.813Z</time></trkpt><trkpt lat="44.03840562419242" lon="10.841580211927837"><ele>777.0</ele><time>2026-05-02T14:25:03.812Z</time></trkpt><trkpt lat="44.038337733771414" lon="10.841613052045469"><ele>777.0</ele><time>2026-05-02T14:25:06.812Z</time></trkpt><trkpt lat="44.03826607861139" lon="10.841665630116145"><ele>777.0</ele><time>2026-05-02T14:25:09.812Z</time></trkpt><trkpt lat="44.038207446789244" lon="10.841698129022934"><ele>777.0</ele><time>2026-05-02T14:25:11.812Z</time></trkpt><trkpt lat="44.038141311838686" lon="10.841757351276016"><ele>777.0</ele><time>2026-05-02T14:25:14.812Z</time></trkpt><trkpt lat="44.03807515335881" lon="10.841814856023959"><ele>778.6666666666666</ele><time>2026-05-02T14:25:17.812Z</time></trkpt><trkpt lat="44.037996244748946" lon="10.841874075488407"><ele>780.3333333333333</ele><time>2026-05-02T14:25:20.812Z</time></trkpt><trkpt lat="44.03792701340294" lon="10.84195558333877"><ele>782.0</ele><time>2026-05-02T14:25:23.812Z</time></trkpt><trkpt lat="44.03789758809324" lon="10.842062525270958"><ele>783.6666666666666</ele><time>2026-05-02T14:25:26.812Z</time></trkpt><trkpt lat="44.03786140276961" lon="10.842172496881929"><ele>785.3333333333333</ele><time>2026-05-02T14:25:29.812Z</time></trkpt><trkpt lat="44.03780151772036" lon="10.84225223378345"><ele>787.0</ele><time>2026-05-02T14:25:32.812Z</time></trkpt><trkpt lat="44.03773713840462" lon="10.842295948372014"><ele>787.0</ele><time>2026-05-02T14:25:35.812Z</time></trkpt><trkpt lat="44.037663248830725" lon="10.842340745078944"><ele>787.0</ele><time>2026-05-02T14:25:38.812Z</time></trkpt><trkpt lat="44.03760196451791" lon="10.842388648323123"><ele>787.0</ele><time>2026-05-02T14:25:41.812Z</time></trkpt><trkpt lat="44.03757231484385" lon="10.842489665252558"><ele>787.0</ele><time>2026-05-02T14:25:45.812Z</time></trkpt><trkpt lat="44.03754695862102" lon="10.842572848961352"><ele>787.0</ele><time>2026-05-02T14:25:48.812Z</time></trkpt><trkpt lat="44.03754126056523" lon="10.842668676502882"><ele>787.0</ele><time>2026-05-02T14:25:52.812Z</time></trkpt><trkpt lat="44.03752698283215" lon="10.842760763293038"><ele>787.0</ele><time>2026-05-02T14:26:11.812Z</time></trkpt><trkpt lat="44.03748442771746" lon="10.842835011321878"><ele>783.0</ele><time>2026-05-02T14:26:41.81Z</time></trkpt><trkpt lat="44.03742868306043" lon="10.842912362092676"><ele>796.0</ele><time>2026-05-02T14:27:08.81Z</time></trkpt><trkpt lat="44.037437686702404" lon="10.842730112942201"><ele>796.0</ele><time>2026-05-02T14:27:53.81Z</time></trkpt><trkpt lat="44.0375293415669" lon="10.842781734993183"><ele>783.0</ele><time>2026-05-02T14:29:10.839Z</time></trkpt><trkpt lat="44.03745454469123" lon="10.84277982492728"><ele>796.0</ele><time>2026-05-02T14:29:30.847Z</time></trkpt></trkseg></trk></gpx>